<?xml version="1.0" encoding="UTF-8" standalone="no" ?>
<gpx xmlns="http://www.topografix.com/GPX/1/1" xmlns:xsi="http://www.w3.org/2001/XMLSchema-instance" xsi:schemaLocation="http://www.topografix.com/GPX/1/1 http://www.topografix.com/GPX/1/1/gpx.xsd" version="1.1" creator="VisuGPX - https://www.visugpx.com">
  <metadata>
    <name>Boucle au Nord des Etangs de Hollande (78)</name>
    <desc><![CDATA[Rendez-vous à 9h30 aux Étangs de Hollande. Nous sommes 25. Un groupe de rapides (des randonneurs voir endurance plutôt ^^), venus pour découvrir les Yvelines (un venait d\'Espagne, un autre de Toulouse, certains de Bretagne, ils se connaissent ), avec 40 kms par jour et sur une semaine. Nous, nous serons 8. Nous n\'avons pas fait le trajet prévu (faute de s\'être un peu perdus...) Pique-nique aux Étangs de La Porte Baudet ou des Maurus. C\'est un très bel endroit !  L\'aprèm, les rapides feront une grand boucle, nous une plus petite (ma jument  a 10 kms de plus à faire que les autres, étant venue à cheval au rendrez-vous). Les chemins sont vraiment correct, et les routes que nous avons prises n\'étaient pas trop passante, et avec bonne visibilité.]]></desc>
  </metadata>
  <trk>
    <name><![CDATA[Untitled]]></name>
    <trkseg>
      <trkpt lat="48.71182" lon="1.76427">
        <ele>168.39999389648</ele>
        <time>2011-04-09T06:05:23.000Z</time>
      </trkpt>
      <trkpt lat="48.71177" lon="1.7643">
        <ele>168.39999389648</ele>
        <time>2011-04-09T06:05:27.000Z</time>
      </trkpt>
      <trkpt lat="48.71165" lon="1.76429">
        <ele>168.39999389648</ele>
        <time>2011-04-09T06:05:36.000Z</time>
      </trkpt>
      <trkpt lat="48.71154" lon="1.76431">
        <ele>168.39999389648</ele>
        <time>2011-04-09T06:05:45.000Z</time>
      </trkpt>
      <trkpt lat="48.71146" lon="1.76433">
        <ele>168.39999389648</ele>
        <time>2011-04-09T06:05:51.000Z</time>
      </trkpt>
      <trkpt lat="48.71136" lon="1.76435">
        <ele>168.39999389648</ele>
        <time>2011-04-09T06:05:59.000Z</time>
      </trkpt>
      <trkpt lat="48.71128" lon="1.76438">
        <ele>168.19999694824</ele>
        <time>2011-04-09T06:06:05.000Z</time>
      </trkpt>
      <trkpt lat="48.71117" lon="1.76443">
        <ele>168.19999694824</ele>
        <time>2011-04-09T06:06:14.000Z</time>
      </trkpt>
      <trkpt lat="48.71112" lon="1.76444">
        <ele>168.19999694824</ele>
        <time>2011-04-09T06:06:18.000Z</time>
      </trkpt>
      <trkpt lat="48.71105" lon="1.76448">
        <ele>168</ele>
        <time>2011-04-09T06:06:24.000Z</time>
      </trkpt>
      <trkpt lat="48.71095" lon="1.76452">
        <ele>168</ele>
        <time>2011-04-09T06:06:32.000Z</time>
      </trkpt>
      <trkpt lat="48.71087" lon="1.76457">
        <ele>168</ele>
        <time>2011-04-09T06:06:39.000Z</time>
      </trkpt>
      <trkpt lat="48.71079" lon="1.76459">
        <ele>168</ele>
        <time>2011-04-09T06:06:45.000Z</time>
      </trkpt>
      <trkpt lat="48.71071" lon="1.76461">
        <ele>168.19999694824</ele>
        <time>2011-04-09T06:06:51.000Z</time>
      </trkpt>
      <trkpt lat="48.71066" lon="1.76463">
        <ele>168.19999694824</ele>
        <time>2011-04-09T06:06:55.000Z</time>
      </trkpt>
      <trkpt lat="48.71066" lon="1.76464">
        <ele>168.19999694824</ele>
        <time>2011-04-09T06:07:00.000Z</time>
      </trkpt>
      <trkpt lat="48.7106" lon="1.76465">
        <ele>168.39999389648</ele>
        <time>2011-04-09T06:07:10.000Z</time>
      </trkpt>
      <trkpt lat="48.71048" lon="1.76469">
        <ele>168.60000610352</ele>
        <time>2011-04-09T06:07:18.000Z</time>
      </trkpt>
      <trkpt lat="48.71039" lon="1.76472">
        <ele>168.80000305176</ele>
        <time>2011-04-09T06:07:25.000Z</time>
      </trkpt>
      <trkpt lat="48.71032" lon="1.76473">
        <ele>169</ele>
        <time>2011-04-09T06:07:31.000Z</time>
      </trkpt>
      <trkpt lat="48.71023" lon="1.76475">
        <ele>169.19999694824</ele>
        <time>2011-04-09T06:07:38.000Z</time>
      </trkpt>
      <trkpt lat="48.71015" lon="1.76476">
        <ele>169.39999389648</ele>
        <time>2011-04-09T06:07:46.000Z</time>
      </trkpt>
      <trkpt lat="48.71005" lon="1.76477">
        <ele>169.80000305176</ele>
        <time>2011-04-09T06:07:54.000Z</time>
      </trkpt>
      <trkpt lat="48.70993" lon="1.76476">
        <ele>170</ele>
        <time>2011-04-09T06:08:03.000Z</time>
      </trkpt>
      <trkpt lat="48.70986" lon="1.76476">
        <ele>170.19999694824</ele>
        <time>2011-04-09T06:08:09.000Z</time>
      </trkpt>
      <trkpt lat="48.70977" lon="1.76476">
        <ele>170.19999694824</ele>
        <time>2011-04-09T06:08:16.000Z</time>
      </trkpt>
      <trkpt lat="48.7097" lon="1.76477">
        <ele>170.39999389648</ele>
        <time>2011-04-09T06:08:22.000Z</time>
      </trkpt>
      <trkpt lat="48.70964" lon="1.76477">
        <ele>170.39999389648</ele>
        <time>2011-04-09T06:08:27.000Z</time>
      </trkpt>
      <trkpt lat="48.70958" lon="1.76478">
        <ele>170.60000610352</ele>
        <time>2011-04-09T06:08:33.000Z</time>
      </trkpt>
      <trkpt lat="48.70949" lon="1.7648">
        <ele>170.60000610352</ele>
        <time>2011-04-09T06:08:39.000Z</time>
      </trkpt>
      <trkpt lat="48.70937" lon="1.76479">
        <ele>170.80000305176</ele>
        <time>2011-04-09T06:08:48.000Z</time>
      </trkpt>
      <trkpt lat="48.70936" lon="1.76479">
        <ele>170.80000305176</ele>
        <time>2011-04-09T06:08:49.000Z</time>
      </trkpt>
      <trkpt lat="48.70927" lon="1.76479">
        <ele>171</ele>
        <time>2011-04-09T06:08:56.000Z</time>
      </trkpt>
      <trkpt lat="48.70926" lon="1.76479">
        <ele>171</ele>
        <time>2011-04-09T06:08:57.000Z</time>
      </trkpt>
      <trkpt lat="48.7092" lon="1.76479">
        <ele>171.19999694824</ele>
        <time>2011-04-09T06:09:02.000Z</time>
      </trkpt>
      <trkpt lat="48.7091" lon="1.7648">
        <ele>171.19999694824</ele>
        <time>2011-04-09T06:09:09.000Z</time>
      </trkpt>
      <trkpt lat="48.70902" lon="1.76479">
        <ele>171.39999389648</ele>
        <time>2011-04-09T06:09:15.000Z</time>
      </trkpt>
      <trkpt lat="48.70893" lon="1.76479">
        <ele>171.39999389648</ele>
        <time>2011-04-09T06:09:22.000Z</time>
      </trkpt>
      <trkpt lat="48.70884" lon="1.76479">
        <ele>171.60000610352</ele>
        <time>2011-04-09T06:09:29.000Z</time>
      </trkpt>
      <trkpt lat="48.70871" lon="1.7648">
        <ele>171.60000610352</ele>
        <time>2011-04-09T06:09:39.000Z</time>
      </trkpt>
      <trkpt lat="48.7086" lon="1.76479">
        <ele>171.80000305176</ele>
        <time>2011-04-09T06:09:47.000Z</time>
      </trkpt>
      <trkpt lat="48.70848" lon="1.76479">
        <ele>172</ele>
        <time>2011-04-09T06:09:56.000Z</time>
      </trkpt>
      <trkpt lat="48.70837" lon="1.76479">
        <ele>172.19999694824</ele>
        <time>2011-04-09T06:10:04.000Z</time>
      </trkpt>
      <trkpt lat="48.70827" lon="1.76478">
        <ele>172.19999694824</ele>
        <time>2011-04-09T06:10:12.000Z</time>
      </trkpt>
      <trkpt lat="48.70823" lon="1.7648">
        <ele>172.19999694824</ele>
        <time>2011-04-09T06:10:16.000Z</time>
      </trkpt>
      <trkpt lat="48.70817" lon="1.76479">
        <ele>172.39999389648</ele>
        <time>2011-04-09T06:10:21.000Z</time>
      </trkpt>
      <trkpt lat="48.70803" lon="1.76478">
        <ele>172.60000610352</ele>
        <time>2011-04-09T06:10:32.000Z</time>
      </trkpt>
      <trkpt lat="48.70795" lon="1.76477">
        <ele>172.60000610352</ele>
        <time>2011-04-09T06:10:38.000Z</time>
      </trkpt>
      <trkpt lat="48.70781" lon="1.76477">
        <ele>172.80000305176</ele>
        <time>2011-04-09T06:10:49.000Z</time>
      </trkpt>
      <trkpt lat="48.70775" lon="1.76477">
        <ele>172.80000305176</ele>
        <time>2011-04-09T06:10:54.000Z</time>
      </trkpt>
      <trkpt lat="48.70768" lon="1.76477">
        <ele>173</ele>
        <time>2011-04-09T06:10:59.000Z</time>
      </trkpt>
      <trkpt lat="48.70762" lon="1.76476">
        <ele>173</ele>
        <time>2011-04-09T06:11:04.000Z</time>
      </trkpt>
      <trkpt lat="48.70752" lon="1.76475">
        <ele>173.19999694824</ele>
        <time>2011-04-09T06:11:12.000Z</time>
      </trkpt>
      <trkpt lat="48.70744" lon="1.76474">
        <ele>173.19999694824</ele>
        <time>2011-04-09T06:11:19.000Z</time>
      </trkpt>
      <trkpt lat="48.70739" lon="1.76474">
        <ele>173</ele>
        <time>2011-04-09T06:11:24.000Z</time>
      </trkpt>
      <trkpt lat="48.70732" lon="1.76473">
        <ele>173</ele>
        <time>2011-04-09T06:11:30.000Z</time>
      </trkpt>
      <trkpt lat="48.70726" lon="1.7647">
        <ele>173</ele>
        <time>2011-04-09T06:11:35.000Z</time>
      </trkpt>
      <trkpt lat="48.70718" lon="1.76468">
        <ele>173</ele>
        <time>2011-04-09T06:11:41.000Z</time>
      </trkpt>
      <trkpt lat="48.70711" lon="1.76466">
        <ele>172.80000305176</ele>
        <time>2011-04-09T06:11:47.000Z</time>
      </trkpt>
      <trkpt lat="48.70704" lon="1.76464">
        <ele>172.80000305176</ele>
        <time>2011-04-09T06:11:53.000Z</time>
      </trkpt>
      <trkpt lat="48.70695" lon="1.76462">
        <ele>172.60000610352</ele>
        <time>2011-04-09T06:12:01.000Z</time>
      </trkpt>
      <trkpt lat="48.70694" lon="1.76464">
        <ele>172.60000610352</ele>
        <time>2011-04-09T06:12:05.000Z</time>
      </trkpt>
      <trkpt lat="48.70694" lon="1.76464">
        <ele>172.60000610352</ele>
        <time>2011-04-09T06:12:06.000Z</time>
      </trkpt>
      <trkpt lat="48.70685" lon="1.76457">
        <ele>172.60000610352</ele>
        <time>2011-04-09T06:12:42.000Z</time>
      </trkpt>
      <trkpt lat="48.70675" lon="1.76454">
        <ele>172.60000610352</ele>
        <time>2011-04-09T06:12:49.000Z</time>
      </trkpt>
      <trkpt lat="48.70668" lon="1.76452">
        <ele>172.39999389648</ele>
        <time>2011-04-09T06:12:54.000Z</time>
      </trkpt>
      <trkpt lat="48.70659" lon="1.7645">
        <ele>172.39999389648</ele>
        <time>2011-04-09T06:13:01.000Z</time>
      </trkpt>
      <trkpt lat="48.70649" lon="1.76447">
        <ele>172.39999389648</ele>
        <time>2011-04-09T06:13:09.000Z</time>
      </trkpt>
      <trkpt lat="48.70642" lon="1.76444">
        <ele>172.19999694824</ele>
        <time>2011-04-09T06:13:15.000Z</time>
      </trkpt>
      <trkpt lat="48.70636" lon="1.76442">
        <ele>172.19999694824</ele>
        <time>2011-04-09T06:13:20.000Z</time>
      </trkpt>
      <trkpt lat="48.70629" lon="1.7644">
        <ele>172.19999694824</ele>
        <time>2011-04-09T06:13:26.000Z</time>
      </trkpt>
      <trkpt lat="48.70617" lon="1.76434">
        <ele>172</ele>
        <time>2011-04-09T06:13:35.000Z</time>
      </trkpt>
      <trkpt lat="48.7061" lon="1.76432">
        <ele>172</ele>
        <time>2011-04-09T06:13:41.000Z</time>
      </trkpt>
      <trkpt lat="48.70606" lon="1.76429">
        <ele>172</ele>
        <time>2011-04-09T06:13:45.000Z</time>
      </trkpt>
      <trkpt lat="48.70599" lon="1.76428">
        <ele>172</ele>
        <time>2011-04-09T06:13:51.000Z</time>
      </trkpt>
      <trkpt lat="48.70594" lon="1.76426">
        <ele>172</ele>
        <time>2011-04-09T06:13:55.000Z</time>
      </trkpt>
      <trkpt lat="48.70592" lon="1.76425">
        <ele>172</ele>
        <time>2011-04-09T06:13:57.000Z</time>
      </trkpt>
      <trkpt lat="48.70576" lon="1.76419">
        <ele>172.19999694824</ele>
        <time>2011-04-09T06:14:09.000Z</time>
      </trkpt>
      <trkpt lat="48.70565" lon="1.76416">
        <ele>172.60000610352</ele>
        <time>2011-04-09T06:14:17.000Z</time>
      </trkpt>
      <trkpt lat="48.70552" lon="1.76411">
        <ele>173</ele>
        <time>2011-04-09T06:14:27.000Z</time>
      </trkpt>
      <trkpt lat="48.70542" lon="1.76409">
        <ele>173.19999694824</ele>
        <time>2011-04-09T06:14:34.000Z</time>
      </trkpt>
      <trkpt lat="48.70529" lon="1.76403">
        <ele>173.39999389648</ele>
        <time>2011-04-09T06:14:44.000Z</time>
      </trkpt>
      <trkpt lat="48.7052" lon="1.76396">
        <ele>173.39999389648</ele>
        <time>2011-04-09T06:14:53.000Z</time>
      </trkpt>
      <trkpt lat="48.70511" lon="1.76391">
        <ele>173.39999389648</ele>
        <time>2011-04-09T06:15:00.000Z</time>
      </trkpt>
      <trkpt lat="48.705" lon="1.76389">
        <ele>173.60000610352</ele>
        <time>2011-04-09T06:15:08.000Z</time>
      </trkpt>
      <trkpt lat="48.70493" lon="1.76388">
        <ele>173.80000305176</ele>
        <time>2011-04-09T06:15:14.000Z</time>
      </trkpt>
      <trkpt lat="48.70489" lon="1.76387">
        <ele>173.80000305176</ele>
        <time>2011-04-09T06:15:17.000Z</time>
      </trkpt>
      <trkpt lat="48.70482" lon="1.76385">
        <ele>174</ele>
        <time>2011-04-09T06:15:24.000Z</time>
      </trkpt>
      <trkpt lat="48.70473" lon="1.76383">
        <ele>174.19999694824</ele>
        <time>2011-04-09T06:15:30.000Z</time>
      </trkpt>
      <trkpt lat="48.7047" lon="1.76383">
        <ele>174.39999389648</ele>
        <time>2011-04-09T06:15:32.000Z</time>
      </trkpt>
      <trkpt lat="48.70467" lon="1.76384">
        <ele>174.60000610352</ele>
        <time>2011-04-09T06:15:34.000Z</time>
      </trkpt>
      <trkpt lat="48.70461" lon="1.76387">
        <ele>174.80000305176</ele>
        <time>2011-04-09T06:15:40.000Z</time>
      </trkpt>
      <trkpt lat="48.70457" lon="1.76393">
        <ele>175.39999389648</ele>
        <time>2011-04-09T06:15:48.000Z</time>
      </trkpt>
      <trkpt lat="48.70457" lon="1.76393">
        <ele>175.39999389648</ele>
        <time>2011-04-09T06:15:50.000Z</time>
      </trkpt>
      <trkpt lat="48.7046" lon="1.76401">
        <ele>175.60000610352</ele>
        <time>2011-04-09T06:16:29.000Z</time>
      </trkpt>
      <trkpt lat="48.70464" lon="1.76409">
        <ele>175.80000305176</ele>
        <time>2011-04-09T06:16:33.000Z</time>
      </trkpt>
      <trkpt lat="48.70464" lon="1.7642">
        <ele>176.19999694824</ele>
        <time>2011-04-09T06:16:37.000Z</time>
      </trkpt>
      <trkpt lat="48.70466" lon="1.76435">
        <ele>176.60000610352</ele>
        <time>2011-04-09T06:16:44.000Z</time>
      </trkpt>
      <trkpt lat="48.70464" lon="1.76444">
        <ele>176.80000305176</ele>
        <time>2011-04-09T06:16:49.000Z</time>
      </trkpt>
      <trkpt lat="48.70463" lon="1.76447">
        <ele>177</ele>
        <time>2011-04-09T06:16:53.000Z</time>
      </trkpt>
      <trkpt lat="48.70461" lon="1.76463">
        <ele>177.39999389648</ele>
        <time>2011-04-09T06:17:04.000Z</time>
      </trkpt>
      <trkpt lat="48.70458" lon="1.76472">
        <ele>177.80000305176</ele>
        <time>2011-04-09T06:17:09.000Z</time>
      </trkpt>
      <trkpt lat="48.70458" lon="1.76472">
        <ele>177.80000305176</ele>
        <time>2011-04-09T06:17:13.000Z</time>
      </trkpt>
      <trkpt lat="48.70455" lon="1.76482">
        <ele>178.19999694824</ele>
        <time>2011-04-09T06:17:43.000Z</time>
      </trkpt>
      <trkpt lat="48.70453" lon="1.76492">
        <ele>178.39999389648</ele>
        <time>2011-04-09T06:17:47.000Z</time>
      </trkpt>
      <trkpt lat="48.70452" lon="1.76496">
        <ele>178.60000610352</ele>
        <time>2011-04-09T06:17:51.000Z</time>
      </trkpt>
      <trkpt lat="48.70452" lon="1.76508">
        <ele>178.80000305176</ele>
        <time>2011-04-09T06:17:58.000Z</time>
      </trkpt>
      <trkpt lat="48.70451" lon="1.76512">
        <ele>178.80000305176</ele>
        <time>2011-04-09T06:18:00.000Z</time>
      </trkpt>
      <trkpt lat="48.70447" lon="1.76532">
        <ele>179.19999694824</ele>
        <time>2011-04-09T06:18:07.000Z</time>
      </trkpt>
      <trkpt lat="48.70445" lon="1.76537">
        <ele>179.39999389648</ele>
        <time>2011-04-09T06:18:09.000Z</time>
      </trkpt>
      <trkpt lat="48.70445" lon="1.7655">
        <ele>179.39999389648</ele>
        <time>2011-04-09T06:18:16.000Z</time>
      </trkpt>
      <trkpt lat="48.70444" lon="1.76556">
        <ele>179.39999389648</ele>
        <time>2011-04-09T06:18:18.000Z</time>
      </trkpt>
      <trkpt lat="48.70443" lon="1.76568">
        <ele>179.60000610352</ele>
        <time>2011-04-09T06:18:25.000Z</time>
      </trkpt>
      <trkpt lat="48.70442" lon="1.7657">
        <ele>179.60000610352</ele>
        <time>2011-04-09T06:18:28.000Z</time>
      </trkpt>
      <trkpt lat="48.7044" lon="1.76578">
        <ele>179.80000305176</ele>
        <time>2011-04-09T06:18:33.000Z</time>
      </trkpt>
      <trkpt lat="48.70437" lon="1.76582">
        <ele>180</ele>
        <time>2011-04-09T06:18:38.000Z</time>
      </trkpt>
      <trkpt lat="48.70436" lon="1.76581">
        <ele>180</ele>
        <time>2011-04-09T06:18:43.000Z</time>
      </trkpt>
      <trkpt lat="48.70435" lon="1.76582">
        <ele>180</ele>
        <time>2011-04-09T06:18:46.000Z</time>
      </trkpt>
      <trkpt lat="48.70433" lon="1.76576">
        <ele>180</ele>
        <time>2011-04-09T06:19:39.000Z</time>
      </trkpt>
      <trkpt lat="48.70429" lon="1.76572">
        <ele>180.39999389648</ele>
        <time>2011-04-09T06:19:46.000Z</time>
      </trkpt>
      <trkpt lat="48.70431" lon="1.76579">
        <ele>180.19999694824</ele>
        <time>2011-04-09T06:20:13.000Z</time>
      </trkpt>
      <trkpt lat="48.70423" lon="1.76587">
        <ele>180.60000610352</ele>
        <time>2011-04-09T06:20:19.000Z</time>
      </trkpt>
      <trkpt lat="48.70416" lon="1.7659">
        <ele>180.80000305176</ele>
        <time>2011-04-09T06:20:24.000Z</time>
      </trkpt>
      <trkpt lat="48.70411" lon="1.76592">
        <ele>180.60000610352</ele>
        <time>2011-04-09T06:20:28.000Z</time>
      </trkpt>
      <trkpt lat="48.70405" lon="1.76597">
        <ele>180.39999389648</ele>
        <time>2011-04-09T06:20:32.000Z</time>
      </trkpt>
      <trkpt lat="48.70394" lon="1.76601">
        <ele>180.19999694824</ele>
        <time>2011-04-09T06:20:41.000Z</time>
      </trkpt>
      <trkpt lat="48.70388" lon="1.76606">
        <ele>180</ele>
        <time>2011-04-09T06:20:47.000Z</time>
      </trkpt>
      <trkpt lat="48.7038" lon="1.76612">
        <ele>179.60000610352</ele>
        <time>2011-04-09T06:20:53.000Z</time>
      </trkpt>
      <trkpt lat="48.70372" lon="1.76617">
        <ele>179.39999389648</ele>
        <time>2011-04-09T06:20:59.000Z</time>
      </trkpt>
      <trkpt lat="48.70367" lon="1.76621">
        <ele>179.19999694824</ele>
        <time>2011-04-09T06:21:03.000Z</time>
      </trkpt>
      <trkpt lat="48.70361" lon="1.76628">
        <ele>179</ele>
        <time>2011-04-09T06:21:08.000Z</time>
      </trkpt>
      <trkpt lat="48.70358" lon="1.76629">
        <ele>179</ele>
        <time>2011-04-09T06:21:12.000Z</time>
      </trkpt>
      <trkpt lat="48.70349" lon="1.76633">
        <ele>178.60000610352</ele>
        <time>2011-04-09T06:21:20.000Z</time>
      </trkpt>
      <trkpt lat="48.70348" lon="1.76634">
        <ele>178.60000610352</ele>
        <time>2011-04-09T06:21:21.000Z</time>
      </trkpt>
      <trkpt lat="48.70344" lon="1.76636">
        <ele>178.60000610352</ele>
        <time>2011-04-09T06:21:26.000Z</time>
      </trkpt>
      <trkpt lat="48.70342" lon="1.76635">
        <ele>178.39999389648</ele>
        <time>2011-04-09T06:21:31.000Z</time>
      </trkpt>
      <trkpt lat="48.70338" lon="1.76637">
        <ele>178.39999389648</ele>
        <time>2011-04-09T06:22:22.000Z</time>
      </trkpt>
      <trkpt lat="48.7033" lon="1.76643">
        <ele>178.19999694824</ele>
        <time>2011-04-09T06:22:28.000Z</time>
      </trkpt>
      <trkpt lat="48.70328" lon="1.76644">
        <ele>178.19999694824</ele>
        <time>2011-04-09T06:22:29.000Z</time>
      </trkpt>
      <trkpt lat="48.70323" lon="1.76655">
        <ele>178.19999694824</ele>
        <time>2011-04-09T06:22:36.000Z</time>
      </trkpt>
      <trkpt lat="48.70322" lon="1.76658">
        <ele>178.19999694824</ele>
        <time>2011-04-09T06:22:38.000Z</time>
      </trkpt>
      <trkpt lat="48.70325" lon="1.76667">
        <ele>178</ele>
        <time>2011-04-09T06:22:45.000Z</time>
      </trkpt>
      <trkpt lat="48.70326" lon="1.76669">
        <ele>178</ele>
        <time>2011-04-09T06:22:46.000Z</time>
      </trkpt>
      <trkpt lat="48.70326" lon="1.76675">
        <ele>178</ele>
        <time>2011-04-09T06:22:50.000Z</time>
      </trkpt>
      <trkpt lat="48.70331" lon="1.7669">
        <ele>178</ele>
        <time>2011-04-09T06:22:59.000Z</time>
      </trkpt>
      <trkpt lat="48.70333" lon="1.76702">
        <ele>178</ele>
        <time>2011-04-09T06:23:05.000Z</time>
      </trkpt>
      <trkpt lat="48.70333" lon="1.76713">
        <ele>178</ele>
        <time>2011-04-09T06:23:11.000Z</time>
      </trkpt>
      <trkpt lat="48.70334" lon="1.76726">
        <ele>178</ele>
        <time>2011-04-09T06:23:18.000Z</time>
      </trkpt>
      <trkpt lat="48.70334" lon="1.76735">
        <ele>178</ele>
        <time>2011-04-09T06:23:22.000Z</time>
      </trkpt>
      <trkpt lat="48.70333" lon="1.76747">
        <ele>178</ele>
        <time>2011-04-09T06:23:28.000Z</time>
      </trkpt>
      <trkpt lat="48.70331" lon="1.76755">
        <ele>178</ele>
        <time>2011-04-09T06:23:32.000Z</time>
      </trkpt>
      <trkpt lat="48.70331" lon="1.76773">
        <ele>178.19999694824</ele>
        <time>2011-04-09T06:23:41.000Z</time>
      </trkpt>
      <trkpt lat="48.70331" lon="1.76781">
        <ele>178.39999389648</ele>
        <time>2011-04-09T06:23:45.000Z</time>
      </trkpt>
      <trkpt lat="48.70332" lon="1.76797">
        <ele>178.39999389648</ele>
        <time>2011-04-09T06:23:53.000Z</time>
      </trkpt>
      <trkpt lat="48.70333" lon="1.76811">
        <ele>178.60000610352</ele>
        <time>2011-04-09T06:24:00.000Z</time>
      </trkpt>
      <trkpt lat="48.70333" lon="1.76823">
        <ele>178.80000305176</ele>
        <time>2011-04-09T06:24:06.000Z</time>
      </trkpt>
      <trkpt lat="48.70334" lon="1.76843">
        <ele>179</ele>
        <time>2011-04-09T06:24:16.000Z</time>
      </trkpt>
      <trkpt lat="48.70334" lon="1.76858">
        <ele>179.19999694824</ele>
        <time>2011-04-09T06:24:23.000Z</time>
      </trkpt>
      <trkpt lat="48.70335" lon="1.76865">
        <ele>179.39999389648</ele>
        <time>2011-04-09T06:24:27.000Z</time>
      </trkpt>
      <trkpt lat="48.70335" lon="1.76869">
        <ele>179.39999389648</ele>
        <time>2011-04-09T06:24:32.000Z</time>
      </trkpt>
      <trkpt lat="48.70337" lon="1.7688">
        <ele>179.60000610352</ele>
        <time>2011-04-09T06:24:53.000Z</time>
      </trkpt>
      <trkpt lat="48.70338" lon="1.76896">
        <ele>179.80000305176</ele>
        <time>2011-04-09T06:25:00.000Z</time>
      </trkpt>
      <trkpt lat="48.70338" lon="1.76903">
        <ele>180</ele>
        <time>2011-04-09T06:25:03.000Z</time>
      </trkpt>
      <trkpt lat="48.70337" lon="1.76909">
        <ele>180</ele>
        <time>2011-04-09T06:25:07.000Z</time>
      </trkpt>
      <trkpt lat="48.70337" lon="1.76933">
        <ele>180.39999389648</ele>
        <time>2011-04-09T06:25:19.000Z</time>
      </trkpt>
      <trkpt lat="48.70337" lon="1.76949">
        <ele>180.60000610352</ele>
        <time>2011-04-09T06:25:28.000Z</time>
      </trkpt>
      <trkpt lat="48.70338" lon="1.76955">
        <ele>180.80000305176</ele>
        <time>2011-04-09T06:25:31.000Z</time>
      </trkpt>
      <trkpt lat="48.70339" lon="1.76973">
        <ele>181.19999694824</ele>
        <time>2011-04-09T06:25:39.000Z</time>
      </trkpt>
      <trkpt lat="48.70341" lon="1.76992">
        <ele>181.39999389648</ele>
        <time>2011-04-09T06:25:49.000Z</time>
      </trkpt>
      <trkpt lat="48.70341" lon="1.76994">
        <ele>181.39999389648</ele>
        <time>2011-04-09T06:25:50.000Z</time>
      </trkpt>
      <trkpt lat="48.70345" lon="1.77009">
        <ele>181.39999389648</ele>
        <time>2011-04-09T06:25:58.000Z</time>
      </trkpt>
      <trkpt lat="48.70346" lon="1.77027">
        <ele>181.19999694824</ele>
        <time>2011-04-09T06:26:06.000Z</time>
      </trkpt>
      <trkpt lat="48.70349" lon="1.77043">
        <ele>181.19999694824</ele>
        <time>2011-04-09T06:26:13.000Z</time>
      </trkpt>
      <trkpt lat="48.70351" lon="1.77053">
        <ele>181</ele>
        <time>2011-04-09T06:26:18.000Z</time>
      </trkpt>
      <trkpt lat="48.70353" lon="1.77058">
        <ele>181</ele>
        <time>2011-04-09T06:26:22.000Z</time>
      </trkpt>
      <trkpt lat="48.70353" lon="1.77071">
        <ele>181</ele>
        <time>2011-04-09T06:26:29.000Z</time>
      </trkpt>
      <trkpt lat="48.70352" lon="1.77077">
        <ele>181</ele>
        <time>2011-04-09T06:26:31.000Z</time>
      </trkpt>
      <trkpt lat="48.70353" lon="1.77084">
        <ele>181</ele>
        <time>2011-04-09T06:26:37.000Z</time>
      </trkpt>
      <trkpt lat="48.70353" lon="1.77093">
        <ele>181</ele>
        <time>2011-04-09T06:26:43.000Z</time>
      </trkpt>
      <trkpt lat="48.70354" lon="1.77107">
        <ele>181</ele>
        <time>2011-04-09T06:26:51.000Z</time>
      </trkpt>
      <trkpt lat="48.70355" lon="1.77117">
        <ele>181</ele>
        <time>2011-04-09T06:26:56.000Z</time>
      </trkpt>
      <trkpt lat="48.70357" lon="1.77133">
        <ele>181</ele>
        <time>2011-04-09T06:27:04.000Z</time>
      </trkpt>
      <trkpt lat="48.7036" lon="1.7715">
        <ele>180.80000305176</ele>
        <time>2011-04-09T06:27:12.000Z</time>
      </trkpt>
      <trkpt lat="48.70362" lon="1.7717">
        <ele>180.80000305176</ele>
        <time>2011-04-09T06:27:21.000Z</time>
      </trkpt>
      <trkpt lat="48.70363" lon="1.77184">
        <ele>180.80000305176</ele>
        <time>2011-04-09T06:27:28.000Z</time>
      </trkpt>
      <trkpt lat="48.70365" lon="1.77188">
        <ele>180.60000610352</ele>
        <time>2011-04-09T06:27:32.000Z</time>
      </trkpt>
      <trkpt lat="48.70364" lon="1.77203">
        <ele>180.60000610352</ele>
        <time>2011-04-09T06:28:02.000Z</time>
      </trkpt>
      <trkpt lat="48.70364" lon="1.77216">
        <ele>180.39999389648</ele>
        <time>2011-04-09T06:28:07.000Z</time>
      </trkpt>
      <trkpt lat="48.70366" lon="1.7722">
        <ele>180.39999389648</ele>
        <time>2011-04-09T06:28:10.000Z</time>
      </trkpt>
      <trkpt lat="48.70368" lon="1.77234">
        <ele>180.39999389648</ele>
        <time>2011-04-09T06:28:18.000Z</time>
      </trkpt>
      <trkpt lat="48.7037" lon="1.77251">
        <ele>180.39999389648</ele>
        <time>2011-04-09T06:28:26.000Z</time>
      </trkpt>
      <trkpt lat="48.70371" lon="1.77261">
        <ele>180.60000610352</ele>
        <time>2011-04-09T06:28:31.000Z</time>
      </trkpt>
      <trkpt lat="48.70372" lon="1.77277">
        <ele>180.80000305176</ele>
        <time>2011-04-09T06:28:38.000Z</time>
      </trkpt>
      <trkpt lat="48.70373" lon="1.77289">
        <ele>181</ele>
        <time>2011-04-09T06:28:44.000Z</time>
      </trkpt>
      <trkpt lat="48.70374" lon="1.77301">
        <ele>181.19999694824</ele>
        <time>2011-04-09T06:28:50.000Z</time>
      </trkpt>
      <trkpt lat="48.70377" lon="1.77309">
        <ele>181.60000610352</ele>
        <time>2011-04-09T06:28:55.000Z</time>
      </trkpt>
      <trkpt lat="48.70377" lon="1.77318">
        <ele>181.60000610352</ele>
        <time>2011-04-09T06:28:59.000Z</time>
      </trkpt>
      <trkpt lat="48.70384" lon="1.77335">
        <ele>182.19999694824</ele>
        <time>2011-04-09T06:29:09.000Z</time>
      </trkpt>
      <trkpt lat="48.70389" lon="1.7735">
        <ele>182.80000305176</ele>
        <time>2011-04-09T06:29:18.000Z</time>
      </trkpt>
      <trkpt lat="48.70393" lon="1.77365">
        <ele>183.19999694824</ele>
        <time>2011-04-09T06:29:26.000Z</time>
      </trkpt>
      <trkpt lat="48.70396" lon="1.77374">
        <ele>183.39999389648</ele>
        <time>2011-04-09T06:29:32.000Z</time>
      </trkpt>
      <trkpt lat="48.70398" lon="1.77384">
        <ele>183.60000610352</ele>
        <time>2011-04-09T06:29:39.000Z</time>
      </trkpt>
      <trkpt lat="48.70403" lon="1.77404">
        <ele>184</ele>
        <time>2011-04-09T06:29:50.000Z</time>
      </trkpt>
      <trkpt lat="48.70407" lon="1.77417">
        <ele>184.19999694824</ele>
        <time>2011-04-09T06:29:58.000Z</time>
      </trkpt>
      <trkpt lat="48.70412" lon="1.77433">
        <ele>184.39999389648</ele>
        <time>2011-04-09T06:30:07.000Z</time>
      </trkpt>
      <trkpt lat="48.70418" lon="1.77454">
        <ele>184.80000305176</ele>
        <time>2011-04-09T06:30:18.000Z</time>
      </trkpt>
      <trkpt lat="48.70424" lon="1.77473">
        <ele>185</ele>
        <time>2011-04-09T06:30:28.000Z</time>
      </trkpt>
      <trkpt lat="48.70425" lon="1.77478">
        <ele>185.19999694824</ele>
        <time>2011-04-09T06:30:31.000Z</time>
      </trkpt>
      <trkpt lat="48.70428" lon="1.77484">
        <ele>185.19999694824</ele>
        <time>2011-04-09T06:30:35.000Z</time>
      </trkpt>
      <trkpt lat="48.70431" lon="1.77494">
        <ele>185.19999694824</ele>
        <time>2011-04-09T06:30:40.000Z</time>
      </trkpt>
      <trkpt lat="48.70436" lon="1.77509">
        <ele>185.39999389648</ele>
        <time>2011-04-09T06:30:49.000Z</time>
      </trkpt>
      <trkpt lat="48.70439" lon="1.7752">
        <ele>185.39999389648</ele>
        <time>2011-04-09T06:30:56.000Z</time>
      </trkpt>
      <trkpt lat="48.70443" lon="1.77533">
        <ele>185.60000610352</ele>
        <time>2011-04-09T06:31:03.000Z</time>
      </trkpt>
      <trkpt lat="48.70445" lon="1.77539">
        <ele>185.60000610352</ele>
        <time>2011-04-09T06:31:06.000Z</time>
      </trkpt>
      <trkpt lat="48.70448" lon="1.7755">
        <ele>185.80000305176</ele>
        <time>2011-04-09T06:31:12.000Z</time>
      </trkpt>
      <trkpt lat="48.70454" lon="1.77564">
        <ele>186</ele>
        <time>2011-04-09T06:31:20.000Z</time>
      </trkpt>
      <trkpt lat="48.70456" lon="1.77567">
        <ele>186</ele>
        <time>2011-04-09T06:31:22.000Z</time>
      </trkpt>
      <trkpt lat="48.70462" lon="1.77579">
        <ele>186.19999694824</ele>
        <time>2011-04-09T06:31:30.000Z</time>
      </trkpt>
      <trkpt lat="48.70466" lon="1.77591">
        <ele>186.19999694824</ele>
        <time>2011-04-09T06:31:37.000Z</time>
      </trkpt>
      <trkpt lat="48.70469" lon="1.77602">
        <ele>186.19999694824</ele>
        <time>2011-04-09T06:31:43.000Z</time>
      </trkpt>
      <trkpt lat="48.7047" lon="1.77606">
        <ele>186</ele>
        <time>2011-04-09T06:31:45.000Z</time>
      </trkpt>
      <trkpt lat="48.70472" lon="1.77618">
        <ele>186</ele>
        <time>2011-04-09T06:31:51.000Z</time>
      </trkpt>
      <trkpt lat="48.70478" lon="1.77633">
        <ele>185.80000305176</ele>
        <time>2011-04-09T06:31:59.000Z</time>
      </trkpt>
      <trkpt lat="48.70484" lon="1.77644">
        <ele>185.60000610352</ele>
        <time>2011-04-09T06:32:05.000Z</time>
      </trkpt>
      <trkpt lat="48.70488" lon="1.77656">
        <ele>185.39999389648</ele>
        <time>2011-04-09T06:32:11.000Z</time>
      </trkpt>
      <trkpt lat="48.70489" lon="1.77667">
        <ele>185.19999694824</ele>
        <time>2011-04-09T06:32:17.000Z</time>
      </trkpt>
      <trkpt lat="48.70494" lon="1.77685">
        <ele>185.39999389648</ele>
        <time>2011-04-09T06:32:27.000Z</time>
      </trkpt>
      <trkpt lat="48.70495" lon="1.77689">
        <ele>185.60000610352</ele>
        <time>2011-04-09T06:32:30.000Z</time>
      </trkpt>
      <trkpt lat="48.70498" lon="1.77695">
        <ele>185.60000610352</ele>
        <time>2011-04-09T06:32:34.000Z</time>
      </trkpt>
      <trkpt lat="48.70503" lon="1.77709">
        <ele>185.80000305176</ele>
        <time>2011-04-09T06:32:42.000Z</time>
      </trkpt>
      <trkpt lat="48.70505" lon="1.77716">
        <ele>186</ele>
        <time>2011-04-09T06:32:47.000Z</time>
      </trkpt>
      <trkpt lat="48.70509" lon="1.77729">
        <ele>186.19999694824</ele>
        <time>2011-04-09T06:32:54.000Z</time>
      </trkpt>
      <trkpt lat="48.70512" lon="1.77748">
        <ele>186.60000610352</ele>
        <time>2011-04-09T06:33:03.000Z</time>
      </trkpt>
      <trkpt lat="48.70518" lon="1.77761">
        <ele>186.60000610352</ele>
        <time>2011-04-09T06:33:10.000Z</time>
      </trkpt>
      <trkpt lat="48.7052" lon="1.77767">
        <ele>186.60000610352</ele>
        <time>2011-04-09T06:33:13.000Z</time>
      </trkpt>
      <trkpt lat="48.70523" lon="1.77781">
        <ele>186.80000305176</ele>
        <time>2011-04-09T06:33:20.000Z</time>
      </trkpt>
      <trkpt lat="48.70528" lon="1.77793">
        <ele>186.80000305176</ele>
        <time>2011-04-09T06:33:27.000Z</time>
      </trkpt>
      <trkpt lat="48.70532" lon="1.77807">
        <ele>186.80000305176</ele>
        <time>2011-04-09T06:33:35.000Z</time>
      </trkpt>
      <trkpt lat="48.70534" lon="1.77812">
        <ele>186.80000305176</ele>
        <time>2011-04-09T06:33:38.000Z</time>
      </trkpt>
      <trkpt lat="48.70544" lon="1.77824">
        <ele>186.80000305176</ele>
        <time>2011-04-09T06:33:46.000Z</time>
      </trkpt>
      <trkpt lat="48.70549" lon="1.77835">
        <ele>186.80000305176</ele>
        <time>2011-04-09T06:33:52.000Z</time>
      </trkpt>
      <trkpt lat="48.70549" lon="1.77837">
        <ele>186.60000610352</ele>
        <time>2011-04-09T06:33:53.000Z</time>
      </trkpt>
      <trkpt lat="48.70555" lon="1.77851">
        <ele>186.39999389648</ele>
        <time>2011-04-09T06:34:01.000Z</time>
      </trkpt>
      <trkpt lat="48.70559" lon="1.77861">
        <ele>186.19999694824</ele>
        <time>2011-04-09T06:34:06.000Z</time>
      </trkpt>
      <trkpt lat="48.70562" lon="1.77871">
        <ele>186</ele>
        <time>2011-04-09T06:34:12.000Z</time>
      </trkpt>
      <trkpt lat="48.70564" lon="1.77873">
        <ele>185.80000305176</ele>
        <time>2011-04-09T06:34:13.000Z</time>
      </trkpt>
      <trkpt lat="48.70567" lon="1.77887">
        <ele>185.60000610352</ele>
        <time>2011-04-09T06:34:19.000Z</time>
      </trkpt>
      <trkpt lat="48.7057" lon="1.77896">
        <ele>185.39999389648</ele>
        <time>2011-04-09T06:34:24.000Z</time>
      </trkpt>
      <trkpt lat="48.70572" lon="1.77903">
        <ele>185.39999389648</ele>
        <time>2011-04-09T06:34:28.000Z</time>
      </trkpt>
      <trkpt lat="48.70577" lon="1.7792">
        <ele>185.19999694824</ele>
        <time>2011-04-09T06:34:36.000Z</time>
      </trkpt>
      <trkpt lat="48.70584" lon="1.77926">
        <ele>185.19999694824</ele>
        <time>2011-04-09T06:34:42.000Z</time>
      </trkpt>
      <trkpt lat="48.7059" lon="1.77934">
        <ele>185.19999694824</ele>
        <time>2011-04-09T06:34:48.000Z</time>
      </trkpt>
      <trkpt lat="48.7059" lon="1.77937">
        <ele>185.39999389648</ele>
        <time>2011-04-09T06:34:49.000Z</time>
      </trkpt>
      <trkpt lat="48.70592" lon="1.77947">
        <ele>185.60000610352</ele>
        <time>2011-04-09T06:34:54.000Z</time>
      </trkpt>
      <trkpt lat="48.70594" lon="1.77961">
        <ele>185.80000305176</ele>
        <time>2011-04-09T06:35:01.000Z</time>
      </trkpt>
      <trkpt lat="48.70598" lon="1.77979">
        <ele>186.19999694824</ele>
        <time>2011-04-09T06:35:09.000Z</time>
      </trkpt>
      <trkpt lat="48.70602" lon="1.77991">
        <ele>186.19999694824</ele>
        <time>2011-04-09T06:35:15.000Z</time>
      </trkpt>
      <trkpt lat="48.70605" lon="1.78007">
        <ele>186.39999389648</ele>
        <time>2011-04-09T06:35:23.000Z</time>
      </trkpt>
      <trkpt lat="48.70606" lon="1.78011">
        <ele>186.39999389648</ele>
        <time>2011-04-09T06:35:25.000Z</time>
      </trkpt>
      <trkpt lat="48.7061" lon="1.78024">
        <ele>186.19999694824</ele>
        <time>2011-04-09T06:35:32.000Z</time>
      </trkpt>
      <trkpt lat="48.70611" lon="1.78026">
        <ele>186.19999694824</ele>
        <time>2011-04-09T06:35:33.000Z</time>
      </trkpt>
      <trkpt lat="48.70614" lon="1.7804">
        <ele>186</ele>
        <time>2011-04-09T06:35:41.000Z</time>
      </trkpt>
      <trkpt lat="48.70618" lon="1.78054">
        <ele>185.80000305176</ele>
        <time>2011-04-09T06:35:48.000Z</time>
      </trkpt>
      <trkpt lat="48.7062" lon="1.7806">
        <ele>185.60000610352</ele>
        <time>2011-04-09T06:35:51.000Z</time>
      </trkpt>
      <trkpt lat="48.70627" lon="1.78071">
        <ele>185.39999389648</ele>
        <time>2011-04-09T06:35:59.000Z</time>
      </trkpt>
      <trkpt lat="48.70631" lon="1.78087">
        <ele>185.19999694824</ele>
        <time>2011-04-09T06:36:07.000Z</time>
      </trkpt>
      <trkpt lat="48.70634" lon="1.78097">
        <ele>185</ele>
        <time>2011-04-09T06:36:12.000Z</time>
      </trkpt>
      <trkpt lat="48.70634" lon="1.78101">
        <ele>185</ele>
        <time>2011-04-09T06:36:14.000Z</time>
      </trkpt>
      <trkpt lat="48.7064" lon="1.78116">
        <ele>184.80000305176</ele>
        <time>2011-04-09T06:36:22.000Z</time>
      </trkpt>
      <trkpt lat="48.70643" lon="1.78133">
        <ele>184.80000305176</ele>
        <time>2011-04-09T06:36:30.000Z</time>
      </trkpt>
      <trkpt lat="48.70647" lon="1.78146">
        <ele>184.60000610352</ele>
        <time>2011-04-09T06:36:37.000Z</time>
      </trkpt>
      <trkpt lat="48.70647" lon="1.78148">
        <ele>184.60000610352</ele>
        <time>2011-04-09T06:36:38.000Z</time>
      </trkpt>
      <trkpt lat="48.70652" lon="1.78164">
        <ele>184.39999389648</ele>
        <time>2011-04-09T06:36:46.000Z</time>
      </trkpt>
      <trkpt lat="48.70653" lon="1.78166">
        <ele>184.39999389648</ele>
        <time>2011-04-09T06:36:48.000Z</time>
      </trkpt>
      <trkpt lat="48.70656" lon="1.78172">
        <ele>184.39999389648</ele>
        <time>2011-04-09T06:36:55.000Z</time>
      </trkpt>
      <trkpt lat="48.70661" lon="1.78177">
        <ele>184.39999389648</ele>
        <time>2011-04-09T06:37:03.000Z</time>
      </trkpt>
      <trkpt lat="48.70663" lon="1.78177">
        <ele>184.39999389648</ele>
        <time>2011-04-09T06:37:04.000Z</time>
      </trkpt>
      <trkpt lat="48.70667" lon="1.78185">
        <ele>184.39999389648</ele>
        <time>2011-04-09T06:37:09.000Z</time>
      </trkpt>
      <trkpt lat="48.70673" lon="1.782">
        <ele>184.39999389648</ele>
        <time>2011-04-09T06:37:16.000Z</time>
      </trkpt>
      <trkpt lat="48.70675" lon="1.78208">
        <ele>184.60000610352</ele>
        <time>2011-04-09T06:37:21.000Z</time>
      </trkpt>
      <trkpt lat="48.70677" lon="1.78213">
        <ele>184.60000610352</ele>
        <time>2011-04-09T06:37:24.000Z</time>
      </trkpt>
      <trkpt lat="48.70681" lon="1.78224">
        <ele>184.60000610352</ele>
        <time>2011-04-09T06:37:31.000Z</time>
      </trkpt>
      <trkpt lat="48.70681" lon="1.78226">
        <ele>184.60000610352</ele>
        <time>2011-04-09T06:37:32.000Z</time>
      </trkpt>
      <trkpt lat="48.70685" lon="1.7824">
        <ele>184.80000305176</ele>
        <time>2011-04-09T06:37:38.000Z</time>
      </trkpt>
      <trkpt lat="48.70687" lon="1.78255">
        <ele>184.80000305176</ele>
        <time>2011-04-09T06:37:44.000Z</time>
      </trkpt>
      <trkpt lat="48.70691" lon="1.78268">
        <ele>184.60000610352</ele>
        <time>2011-04-09T06:37:50.000Z</time>
      </trkpt>
      <trkpt lat="48.70698" lon="1.78278">
        <ele>184.19999694824</ele>
        <time>2011-04-09T06:37:57.000Z</time>
      </trkpt>
      <trkpt lat="48.70701" lon="1.7829">
        <ele>184</ele>
        <time>2011-04-09T06:38:03.000Z</time>
      </trkpt>
      <trkpt lat="48.70706" lon="1.78303">
        <ele>183.60000610352</ele>
        <time>2011-04-09T06:38:10.000Z</time>
      </trkpt>
      <trkpt lat="48.70708" lon="1.7831">
        <ele>183.60000610352</ele>
        <time>2011-04-09T06:38:13.000Z</time>
      </trkpt>
      <trkpt lat="48.70715" lon="1.78319">
        <ele>183.19999694824</ele>
        <time>2011-04-09T06:38:19.000Z</time>
      </trkpt>
      <trkpt lat="48.70721" lon="1.78335">
        <ele>183</ele>
        <time>2011-04-09T06:38:27.000Z</time>
      </trkpt>
      <trkpt lat="48.70727" lon="1.78349">
        <ele>183.39999389648</ele>
        <time>2011-04-09T06:38:34.000Z</time>
      </trkpt>
      <trkpt lat="48.7073" lon="1.78358">
        <ele>183.60000610352</ele>
        <time>2011-04-09T06:38:38.000Z</time>
      </trkpt>
      <trkpt lat="48.70733" lon="1.78369">
        <ele>183.80000305176</ele>
        <time>2011-04-09T06:38:44.000Z</time>
      </trkpt>
      <trkpt lat="48.7074" lon="1.78384">
        <ele>184.19999694824</ele>
        <time>2011-04-09T06:38:51.000Z</time>
      </trkpt>
      <trkpt lat="48.70744" lon="1.78399">
        <ele>184.39999389648</ele>
        <time>2011-04-09T06:38:58.000Z</time>
      </trkpt>
      <trkpt lat="48.70748" lon="1.7841">
        <ele>184.80000305176</ele>
        <time>2011-04-09T06:39:04.000Z</time>
      </trkpt>
      <trkpt lat="48.70752" lon="1.78419">
        <ele>184.80000305176</ele>
        <time>2011-04-09T06:39:09.000Z</time>
      </trkpt>
      <trkpt lat="48.70756" lon="1.78434">
        <ele>184.60000610352</ele>
        <time>2011-04-09T06:39:17.000Z</time>
      </trkpt>
      <trkpt lat="48.7076" lon="1.78449">
        <ele>184.39999389648</ele>
        <time>2011-04-09T06:39:25.000Z</time>
      </trkpt>
      <trkpt lat="48.7076" lon="1.7845">
        <ele>184.19999694824</ele>
        <time>2011-04-09T06:39:26.000Z</time>
      </trkpt>
      <trkpt lat="48.70764" lon="1.78462">
        <ele>184</ele>
        <time>2011-04-09T06:39:33.000Z</time>
      </trkpt>
      <trkpt lat="48.70767" lon="1.78468">
        <ele>183.80000305176</ele>
        <time>2011-04-09T06:39:37.000Z</time>
      </trkpt>
      <trkpt lat="48.7077" lon="1.78483">
        <ele>183.60000610352</ele>
        <time>2011-04-09T06:39:45.000Z</time>
      </trkpt>
      <trkpt lat="48.70775" lon="1.78498">
        <ele>183.39999389648</ele>
        <time>2011-04-09T06:39:51.000Z</time>
      </trkpt>
      <trkpt lat="48.70781" lon="1.78513">
        <ele>182.80000305176</ele>
        <time>2011-04-09T06:39:59.000Z</time>
      </trkpt>
      <trkpt lat="48.70782" lon="1.78519">
        <ele>182.60000610352</ele>
        <time>2011-04-09T06:40:02.000Z</time>
      </trkpt>
      <trkpt lat="48.70785" lon="1.78539">
        <ele>182</ele>
        <time>2011-04-09T06:40:11.000Z</time>
      </trkpt>
      <trkpt lat="48.70789" lon="1.78555">
        <ele>181.19999694824</ele>
        <time>2011-04-09T06:40:19.000Z</time>
      </trkpt>
      <trkpt lat="48.70792" lon="1.78567">
        <ele>180.80000305176</ele>
        <time>2011-04-09T06:40:25.000Z</time>
      </trkpt>
      <trkpt lat="48.70795" lon="1.78581">
        <ele>180.19999694824</ele>
        <time>2011-04-09T06:40:32.000Z</time>
      </trkpt>
      <trkpt lat="48.708" lon="1.78589">
        <ele>180</ele>
        <time>2011-04-09T06:40:37.000Z</time>
      </trkpt>
      <trkpt lat="48.70803" lon="1.78591">
        <ele>179.80000305176</ele>
        <time>2011-04-09T06:40:39.000Z</time>
      </trkpt>
      <trkpt lat="48.70807" lon="1.78594">
        <ele>179.80000305176</ele>
        <time>2011-04-09T06:40:42.000Z</time>
      </trkpt>
      <trkpt lat="48.70815" lon="1.78603">
        <ele>179.39999389648</ele>
        <time>2011-04-09T06:40:49.000Z</time>
      </trkpt>
      <trkpt lat="48.70823" lon="1.78616">
        <ele>179.39999389648</ele>
        <time>2011-04-09T06:40:58.000Z</time>
      </trkpt>
      <trkpt lat="48.70825" lon="1.78619">
        <ele>179.39999389648</ele>
        <time>2011-04-09T06:41:00.000Z</time>
      </trkpt>
      <trkpt lat="48.70826" lon="1.7862">
        <ele>179.39999389648</ele>
        <time>2011-04-09T06:41:04.000Z</time>
      </trkpt>
      <trkpt lat="48.70822" lon="1.78606">
        <ele>179</ele>
        <time>2011-04-09T06:42:34.000Z</time>
      </trkpt>
      <trkpt lat="48.7082" lon="1.78597">
        <ele>178.80000305176</ele>
        <time>2011-04-09T06:42:38.000Z</time>
      </trkpt>
      <trkpt lat="48.70825" lon="1.78587">
        <ele>177.80000305176</ele>
        <time>2011-04-09T06:42:45.000Z</time>
      </trkpt>
      <trkpt lat="48.70827" lon="1.78582">
        <ele>177.39999389648</ele>
        <time>2011-04-09T06:42:48.000Z</time>
      </trkpt>
      <trkpt lat="48.70836" lon="1.78565">
        <ele>177.39999389648</ele>
        <time>2011-04-09T06:42:58.000Z</time>
      </trkpt>
      <trkpt lat="48.70838" lon="1.78562">
        <ele>177.39999389648</ele>
        <time>2011-04-09T06:43:00.000Z</time>
      </trkpt>
      <trkpt lat="48.70841" lon="1.78555">
        <ele>177.60000610352</ele>
        <time>2011-04-09T06:43:07.000Z</time>
      </trkpt>
      <trkpt lat="48.70841" lon="1.78553">
        <ele>177.60000610352</ele>
        <time>2011-04-09T06:43:12.000Z</time>
      </trkpt>
      <trkpt lat="48.70839" lon="1.78552">
        <ele>177.80000305176</ele>
        <time>2011-04-09T06:43:17.000Z</time>
      </trkpt>
      <trkpt lat="48.70839" lon="1.78554">
        <ele>177.60000610352</ele>
        <time>2011-04-09T06:43:18.000Z</time>
      </trkpt>
      <trkpt lat="48.70833" lon="1.78567">
        <ele>177.39999389648</ele>
        <time>2011-04-09T06:43:25.000Z</time>
      </trkpt>
      <trkpt lat="48.70833" lon="1.78569">
        <ele>177.39999389648</ele>
        <time>2011-04-09T06:43:26.000Z</time>
      </trkpt>
      <trkpt lat="48.70827" lon="1.78584">
        <ele>177.39999389648</ele>
        <time>2011-04-09T06:43:34.000Z</time>
      </trkpt>
      <trkpt lat="48.70826" lon="1.78587">
        <ele>177.80000305176</ele>
        <time>2011-04-09T06:43:36.000Z</time>
      </trkpt>
      <trkpt lat="48.70823" lon="1.78589">
        <ele>178</ele>
        <time>2011-04-09T06:43:40.000Z</time>
      </trkpt>
      <trkpt lat="48.70821" lon="1.7859">
        <ele>178.39999389648</ele>
        <time>2011-04-09T06:43:42.000Z</time>
      </trkpt>
      <trkpt lat="48.70821" lon="1.786">
        <ele>178.80000305176</ele>
        <time>2011-04-09T06:43:48.000Z</time>
      </trkpt>
      <trkpt lat="48.70821" lon="1.78606">
        <ele>179</ele>
        <time>2011-04-09T06:43:51.000Z</time>
      </trkpt>
      <trkpt lat="48.70822" lon="1.78619">
        <ele>179.60000610352</ele>
        <time>2011-04-09T06:43:59.000Z</time>
      </trkpt>
      <trkpt lat="48.70827" lon="1.78622">
        <ele>179.39999389648</ele>
        <time>2011-04-09T06:44:03.000Z</time>
      </trkpt>
      <trkpt lat="48.70832" lon="1.78623">
        <ele>178.80000305176</ele>
        <time>2011-04-09T06:44:07.000Z</time>
      </trkpt>
      <trkpt lat="48.70838" lon="1.78626">
        <ele>178.80000305176</ele>
        <time>2011-04-09T06:44:12.000Z</time>
      </trkpt>
      <trkpt lat="48.70841" lon="1.78624">
        <ele>178.60000610352</ele>
        <time>2011-04-09T06:44:15.000Z</time>
      </trkpt>
      <trkpt lat="48.7085" lon="1.78623">
        <ele>178.39999389648</ele>
        <time>2011-04-09T06:44:21.000Z</time>
      </trkpt>
      <trkpt lat="48.70859" lon="1.78624">
        <ele>178</ele>
        <time>2011-04-09T06:44:29.000Z</time>
      </trkpt>
      <trkpt lat="48.70859" lon="1.78624">
        <ele>178</ele>
        <time>2011-04-09T06:44:30.000Z</time>
      </trkpt>
      <trkpt lat="48.70869" lon="1.78625">
        <ele>177.80000305176</ele>
        <time>2011-04-09T06:44:47.000Z</time>
      </trkpt>
      <trkpt lat="48.70878" lon="1.78627">
        <ele>177.60000610352</ele>
        <time>2011-04-09T06:44:52.000Z</time>
      </trkpt>
      <trkpt lat="48.70885" lon="1.78629">
        <ele>177.60000610352</ele>
        <time>2011-04-09T06:44:58.000Z</time>
      </trkpt>
      <trkpt lat="48.70893" lon="1.78631">
        <ele>177.39999389648</ele>
        <time>2011-04-09T06:45:05.000Z</time>
      </trkpt>
      <trkpt lat="48.70905" lon="1.78628">
        <ele>177</ele>
        <time>2011-04-09T06:45:12.000Z</time>
      </trkpt>
      <trkpt lat="48.70915" lon="1.7863">
        <ele>176.80000305176</ele>
        <time>2011-04-09T06:45:19.000Z</time>
      </trkpt>
      <trkpt lat="48.70924" lon="1.78635">
        <ele>177.19999694824</ele>
        <time>2011-04-09T06:45:26.000Z</time>
      </trkpt>
      <trkpt lat="48.70934" lon="1.78638">
        <ele>177.60000610352</ele>
        <time>2011-04-09T06:45:34.000Z</time>
      </trkpt>
      <trkpt lat="48.70941" lon="1.78641">
        <ele>178</ele>
        <time>2011-04-09T06:45:40.000Z</time>
      </trkpt>
      <trkpt lat="48.70952" lon="1.78644">
        <ele>178.39999389648</ele>
        <time>2011-04-09T06:45:47.000Z</time>
      </trkpt>
      <trkpt lat="48.70961" lon="1.78642">
        <ele>178.39999389648</ele>
        <time>2011-04-09T06:45:54.000Z</time>
      </trkpt>
      <trkpt lat="48.70972" lon="1.78641">
        <ele>178.60000610352</ele>
        <time>2011-04-09T06:46:01.000Z</time>
      </trkpt>
      <trkpt lat="48.7098" lon="1.7864">
        <ele>178.80000305176</ele>
        <time>2011-04-09T06:46:06.000Z</time>
      </trkpt>
      <trkpt lat="48.70987" lon="1.78642">
        <ele>179</ele>
        <time>2011-04-09T06:46:13.000Z</time>
      </trkpt>
      <trkpt lat="48.70987" lon="1.78643">
        <ele>179</ele>
        <time>2011-04-09T06:46:15.000Z</time>
      </trkpt>
      <trkpt lat="48.70996" lon="1.78645">
        <ele>179.39999389648</ele>
        <time>2011-04-09T06:46:29.000Z</time>
      </trkpt>
      <trkpt lat="48.71004" lon="1.78646">
        <ele>179.39999389648</ele>
        <time>2011-04-09T06:46:33.000Z</time>
      </trkpt>
      <trkpt lat="48.71015" lon="1.78646">
        <ele>179.60000610352</ele>
        <time>2011-04-09T06:46:40.000Z</time>
      </trkpt>
      <trkpt lat="48.71026" lon="1.78647">
        <ele>179.80000305176</ele>
        <time>2011-04-09T06:46:47.000Z</time>
      </trkpt>
      <trkpt lat="48.71035" lon="1.7865">
        <ele>180</ele>
        <time>2011-04-09T06:46:53.000Z</time>
      </trkpt>
      <trkpt lat="48.71044" lon="1.78649">
        <ele>180</ele>
        <time>2011-04-09T06:47:00.000Z</time>
      </trkpt>
      <trkpt lat="48.71051" lon="1.78648">
        <ele>180</ele>
        <time>2011-04-09T06:47:05.000Z</time>
      </trkpt>
      <trkpt lat="48.71059" lon="1.78654">
        <ele>180.19999694824</ele>
        <time>2011-04-09T06:47:11.000Z</time>
      </trkpt>
      <trkpt lat="48.71066" lon="1.78653">
        <ele>180.39999389648</ele>
        <time>2011-04-09T06:47:16.000Z</time>
      </trkpt>
      <trkpt lat="48.71075" lon="1.78654">
        <ele>180.39999389648</ele>
        <time>2011-04-09T06:47:22.000Z</time>
      </trkpt>
      <trkpt lat="48.71083" lon="1.78653">
        <ele>180.60000610352</ele>
        <time>2011-04-09T06:47:28.000Z</time>
      </trkpt>
      <trkpt lat="48.71087" lon="1.78651">
        <ele>180.60000610352</ele>
        <time>2011-04-09T06:47:31.000Z</time>
      </trkpt>
      <trkpt lat="48.71096" lon="1.78652">
        <ele>180.60000610352</ele>
        <time>2011-04-09T06:47:37.000Z</time>
      </trkpt>
      <trkpt lat="48.711" lon="1.78651">
        <ele>180.60000610352</ele>
        <time>2011-04-09T06:47:40.000Z</time>
      </trkpt>
      <trkpt lat="48.71104" lon="1.78651">
        <ele>180.60000610352</ele>
        <time>2011-04-09T06:47:43.000Z</time>
      </trkpt>
      <trkpt lat="48.71112" lon="1.78651">
        <ele>180.60000610352</ele>
        <time>2011-04-09T06:47:50.000Z</time>
      </trkpt>
      <trkpt lat="48.7112" lon="1.78651">
        <ele>180.60000610352</ele>
        <time>2011-04-09T06:47:56.000Z</time>
      </trkpt>
      <trkpt lat="48.71128" lon="1.78656">
        <ele>180.80000305176</ele>
        <time>2011-04-09T06:48:02.000Z</time>
      </trkpt>
      <trkpt lat="48.71134" lon="1.78656">
        <ele>180.80000305176</ele>
        <time>2011-04-09T06:48:06.000Z</time>
      </trkpt>
      <trkpt lat="48.71146" lon="1.78657">
        <ele>180.80000305176</ele>
        <time>2011-04-09T06:48:14.000Z</time>
      </trkpt>
      <trkpt lat="48.71154" lon="1.78656">
        <ele>180.80000305176</ele>
        <time>2011-04-09T06:48:21.000Z</time>
      </trkpt>
      <trkpt lat="48.71155" lon="1.78656">
        <ele>180.80000305176</ele>
        <time>2011-04-09T06:48:23.000Z</time>
      </trkpt>
      <trkpt lat="48.71167" lon="1.78656">
        <ele>180.80000305176</ele>
        <time>2011-04-09T06:48:31.000Z</time>
      </trkpt>
      <trkpt lat="48.71172" lon="1.7866">
        <ele>181</ele>
        <time>2011-04-09T06:48:35.000Z</time>
      </trkpt>
      <trkpt lat="48.71182" lon="1.78663">
        <ele>181.19999694824</ele>
        <time>2011-04-09T06:48:42.000Z</time>
      </trkpt>
      <trkpt lat="48.71189" lon="1.78665">
        <ele>181.39999389648</ele>
        <time>2011-04-09T06:48:48.000Z</time>
      </trkpt>
      <trkpt lat="48.71191" lon="1.78667">
        <ele>181.39999389648</ele>
        <time>2011-04-09T06:48:50.000Z</time>
      </trkpt>
      <trkpt lat="48.71203" lon="1.78678">
        <ele>182</ele>
        <time>2011-04-09T06:48:59.000Z</time>
      </trkpt>
      <trkpt lat="48.71208" lon="1.78683">
        <ele>182</ele>
        <time>2011-04-09T06:49:04.000Z</time>
      </trkpt>
      <trkpt lat="48.71214" lon="1.78691">
        <ele>182.39999389648</ele>
        <time>2011-04-09T06:49:10.000Z</time>
      </trkpt>
      <trkpt lat="48.71222" lon="1.78698">
        <ele>182.60000610352</ele>
        <time>2011-04-09T06:49:17.000Z</time>
      </trkpt>
      <trkpt lat="48.71231" lon="1.78708">
        <ele>183</ele>
        <time>2011-04-09T06:49:25.000Z</time>
      </trkpt>
      <trkpt lat="48.71241" lon="1.78717">
        <ele>183.19999694824</ele>
        <time>2011-04-09T06:49:33.000Z</time>
      </trkpt>
      <trkpt lat="48.7125" lon="1.78723">
        <ele>183.60000610352</ele>
        <time>2011-04-09T06:49:40.000Z</time>
      </trkpt>
      <trkpt lat="48.7126" lon="1.7873">
        <ele>183.80000305176</ele>
        <time>2011-04-09T06:49:48.000Z</time>
      </trkpt>
      <trkpt lat="48.71269" lon="1.78736">
        <ele>183.80000305176</ele>
        <time>2011-04-09T06:49:56.000Z</time>
      </trkpt>
      <trkpt lat="48.71277" lon="1.78744">
        <ele>183.80000305176</ele>
        <time>2011-04-09T06:50:03.000Z</time>
      </trkpt>
      <trkpt lat="48.71284" lon="1.7875">
        <ele>183.80000305176</ele>
        <time>2011-04-09T06:50:08.000Z</time>
      </trkpt>
      <trkpt lat="48.7129" lon="1.78758">
        <ele>184</ele>
        <time>2011-04-09T06:50:13.000Z</time>
      </trkpt>
      <trkpt lat="48.71292" lon="1.78761">
        <ele>183.80000305176</ele>
        <time>2011-04-09T06:50:15.000Z</time>
      </trkpt>
      <trkpt lat="48.71295" lon="1.78768">
        <ele>183.80000305176</ele>
        <time>2011-04-09T06:50:19.000Z</time>
      </trkpt>
      <trkpt lat="48.71302" lon="1.78775">
        <ele>183.80000305176</ele>
        <time>2011-04-09T06:50:26.000Z</time>
      </trkpt>
      <trkpt lat="48.71308" lon="1.78783">
        <ele>183.80000305176</ele>
        <time>2011-04-09T06:50:32.000Z</time>
      </trkpt>
      <trkpt lat="48.71313" lon="1.78791">
        <ele>183.60000610352</ele>
        <time>2011-04-09T06:50:37.000Z</time>
      </trkpt>
      <trkpt lat="48.7132" lon="1.78799">
        <ele>183.39999389648</ele>
        <time>2011-04-09T06:50:44.000Z</time>
      </trkpt>
      <trkpt lat="48.71327" lon="1.78805">
        <ele>183.39999389648</ele>
        <time>2011-04-09T06:50:50.000Z</time>
      </trkpt>
      <trkpt lat="48.71337" lon="1.78812">
        <ele>183</ele>
        <time>2011-04-09T06:50:58.000Z</time>
      </trkpt>
      <trkpt lat="48.7134" lon="1.78813">
        <ele>183</ele>
        <time>2011-04-09T06:51:03.000Z</time>
      </trkpt>
      <trkpt lat="48.71344" lon="1.78818">
        <ele>182.80000305176</ele>
        <time>2011-04-09T06:51:11.000Z</time>
      </trkpt>
      <trkpt lat="48.71352" lon="1.78819">
        <ele>182.60000610352</ele>
        <time>2011-04-09T06:51:16.000Z</time>
      </trkpt>
      <trkpt lat="48.71363" lon="1.78815">
        <ele>182.39999389648</ele>
        <time>2011-04-09T06:51:22.000Z</time>
      </trkpt>
      <trkpt lat="48.71376" lon="1.78807">
        <ele>182.19999694824</ele>
        <time>2011-04-09T06:51:31.000Z</time>
      </trkpt>
      <trkpt lat="48.71388" lon="1.788">
        <ele>182</ele>
        <time>2011-04-09T06:51:40.000Z</time>
      </trkpt>
      <trkpt lat="48.71397" lon="1.78796">
        <ele>181.80000305176</ele>
        <time>2011-04-09T06:51:47.000Z</time>
      </trkpt>
      <trkpt lat="48.71406" lon="1.78791">
        <ele>181.60000610352</ele>
        <time>2011-04-09T06:51:54.000Z</time>
      </trkpt>
      <trkpt lat="48.71418" lon="1.78783">
        <ele>181.60000610352</ele>
        <time>2011-04-09T06:52:03.000Z</time>
      </trkpt>
      <trkpt lat="48.71428" lon="1.78778">
        <ele>181.60000610352</ele>
        <time>2011-04-09T06:52:10.000Z</time>
      </trkpt>
      <trkpt lat="48.7144" lon="1.7877">
        <ele>181.60000610352</ele>
        <time>2011-04-09T06:52:19.000Z</time>
      </trkpt>
      <trkpt lat="48.71451" lon="1.78763">
        <ele>181.39999389648</ele>
        <time>2011-04-09T06:52:27.000Z</time>
      </trkpt>
      <trkpt lat="48.71464" lon="1.78756">
        <ele>181.39999389648</ele>
        <time>2011-04-09T06:52:36.000Z</time>
      </trkpt>
      <trkpt lat="48.71474" lon="1.7875">
        <ele>181.19999694824</ele>
        <time>2011-04-09T06:52:44.000Z</time>
      </trkpt>
      <trkpt lat="48.71482" lon="1.78745">
        <ele>181.19999694824</ele>
        <time>2011-04-09T06:52:51.000Z</time>
      </trkpt>
      <trkpt lat="48.71492" lon="1.78741">
        <ele>181.19999694824</ele>
        <time>2011-04-09T06:52:59.000Z</time>
      </trkpt>
      <trkpt lat="48.71502" lon="1.78733">
        <ele>181.19999694824</ele>
        <time>2011-04-09T06:53:07.000Z</time>
      </trkpt>
      <trkpt lat="48.71514" lon="1.78723">
        <ele>181.39999389648</ele>
        <time>2011-04-09T06:53:16.000Z</time>
      </trkpt>
      <trkpt lat="48.71523" lon="1.78717">
        <ele>181.39999389648</ele>
        <time>2011-04-09T06:53:22.000Z</time>
      </trkpt>
      <trkpt lat="48.71533" lon="1.78708">
        <ele>181.60000610352</ele>
        <time>2011-04-09T06:53:30.000Z</time>
      </trkpt>
      <trkpt lat="48.71543" lon="1.78699">
        <ele>181.80000305176</ele>
        <time>2011-04-09T06:53:38.000Z</time>
      </trkpt>
      <trkpt lat="48.7155" lon="1.78696">
        <ele>181.80000305176</ele>
        <time>2011-04-09T06:53:43.000Z</time>
      </trkpt>
      <trkpt lat="48.71563" lon="1.78686">
        <ele>181.80000305176</ele>
        <time>2011-04-09T06:53:53.000Z</time>
      </trkpt>
      <trkpt lat="48.71572" lon="1.78679">
        <ele>181.80000305176</ele>
        <time>2011-04-09T06:54:00.000Z</time>
      </trkpt>
      <trkpt lat="48.71583" lon="1.78672">
        <ele>181.80000305176</ele>
        <time>2011-04-09T06:54:08.000Z</time>
      </trkpt>
      <trkpt lat="48.71594" lon="1.78667">
        <ele>182</ele>
        <time>2011-04-09T06:54:15.000Z</time>
      </trkpt>
      <trkpt lat="48.71603" lon="1.78664">
        <ele>182.19999694824</ele>
        <time>2011-04-09T06:54:21.000Z</time>
      </trkpt>
      <trkpt lat="48.71612" lon="1.7866">
        <ele>182.39999389648</ele>
        <time>2011-04-09T06:54:28.000Z</time>
      </trkpt>
      <trkpt lat="48.71626" lon="1.78653">
        <ele>182.80000305176</ele>
        <time>2011-04-09T06:54:38.000Z</time>
      </trkpt>
      <trkpt lat="48.71638" lon="1.78648">
        <ele>183</ele>
        <time>2011-04-09T06:54:46.000Z</time>
      </trkpt>
      <trkpt lat="48.71647" lon="1.78643">
        <ele>183.19999694824</ele>
        <time>2011-04-09T06:54:54.000Z</time>
      </trkpt>
      <trkpt lat="48.71661" lon="1.78637">
        <ele>183.19999694824</ele>
        <time>2011-04-09T06:55:02.000Z</time>
      </trkpt>
      <trkpt lat="48.71672" lon="1.78632">
        <ele>183.19999694824</ele>
        <time>2011-04-09T06:55:10.000Z</time>
      </trkpt>
      <trkpt lat="48.71682" lon="1.78626">
        <ele>182.80000305176</ele>
        <time>2011-04-09T06:55:17.000Z</time>
      </trkpt>
      <trkpt lat="48.7169" lon="1.78621">
        <ele>182.39999389648</ele>
        <time>2011-04-09T06:55:22.000Z</time>
      </trkpt>
      <trkpt lat="48.717" lon="1.78614">
        <ele>181.80000305176</ele>
        <time>2011-04-09T06:55:30.000Z</time>
      </trkpt>
      <trkpt lat="48.71712" lon="1.78607">
        <ele>181.19999694824</ele>
        <time>2011-04-09T06:55:38.000Z</time>
      </trkpt>
      <trkpt lat="48.71724" lon="1.78599">
        <ele>180.19999694824</ele>
        <time>2011-04-09T06:55:47.000Z</time>
      </trkpt>
      <trkpt lat="48.71735" lon="1.78594">
        <ele>179.39999389648</ele>
        <time>2011-04-09T06:55:56.000Z</time>
      </trkpt>
      <trkpt lat="48.71751" lon="1.78594">
        <ele>178.39999389648</ele>
        <time>2011-04-09T06:56:07.000Z</time>
      </trkpt>
      <trkpt lat="48.71762" lon="1.78601">
        <ele>178.39999389648</ele>
        <time>2011-04-09T06:56:15.000Z</time>
      </trkpt>
      <trkpt lat="48.71768" lon="1.78614">
        <ele>178.60000610352</ele>
        <time>2011-04-09T06:56:23.000Z</time>
      </trkpt>
      <trkpt lat="48.71775" lon="1.78621">
        <ele>178.60000610352</ele>
        <time>2011-04-09T06:56:30.000Z</time>
      </trkpt>
      <trkpt lat="48.71782" lon="1.78633">
        <ele>178.80000305176</ele>
        <time>2011-04-09T06:56:38.000Z</time>
      </trkpt>
      <trkpt lat="48.71789" lon="1.78645">
        <ele>178.80000305176</ele>
        <time>2011-04-09T06:56:46.000Z</time>
      </trkpt>
      <trkpt lat="48.71796" lon="1.78655">
        <ele>178.80000305176</ele>
        <time>2011-04-09T06:56:53.000Z</time>
      </trkpt>
      <trkpt lat="48.71802" lon="1.78666">
        <ele>178.80000305176</ele>
        <time>2011-04-09T06:57:00.000Z</time>
      </trkpt>
      <trkpt lat="48.7181" lon="1.78676">
        <ele>178.39999389648</ele>
        <time>2011-04-09T06:57:07.000Z</time>
      </trkpt>
      <trkpt lat="48.71811" lon="1.78679">
        <ele>178.19999694824</ele>
        <time>2011-04-09T06:57:09.000Z</time>
      </trkpt>
      <trkpt lat="48.7182" lon="1.78689">
        <ele>177.80000305176</ele>
        <time>2011-04-09T06:57:17.000Z</time>
      </trkpt>
      <trkpt lat="48.71829" lon="1.78701">
        <ele>177.60000610352</ele>
        <time>2011-04-09T06:57:25.000Z</time>
      </trkpt>
      <trkpt lat="48.71837" lon="1.78709">
        <ele>177.19999694824</ele>
        <time>2011-04-09T06:57:31.000Z</time>
      </trkpt>
      <trkpt lat="48.71847" lon="1.7872">
        <ele>177</ele>
        <time>2011-04-09T06:57:39.000Z</time>
      </trkpt>
      <trkpt lat="48.71856" lon="1.7873">
        <ele>176.80000305176</ele>
        <time>2011-04-09T06:57:47.000Z</time>
      </trkpt>
      <trkpt lat="48.71864" lon="1.7874">
        <ele>176.60000610352</ele>
        <time>2011-04-09T06:57:55.000Z</time>
      </trkpt>
      <trkpt lat="48.71874" lon="1.7875">
        <ele>176.39999389648</ele>
        <time>2011-04-09T06:58:03.000Z</time>
      </trkpt>
      <trkpt lat="48.71888" lon="1.7876">
        <ele>176.19999694824</ele>
        <time>2011-04-09T06:58:13.000Z</time>
      </trkpt>
      <trkpt lat="48.71899" lon="1.78768">
        <ele>176.19999694824</ele>
        <time>2011-04-09T06:58:21.000Z</time>
      </trkpt>
      <trkpt lat="48.71906" lon="1.78776">
        <ele>176.39999389648</ele>
        <time>2011-04-09T06:58:28.000Z</time>
      </trkpt>
      <trkpt lat="48.71918" lon="1.78786">
        <ele>176.60000610352</ele>
        <time>2011-04-09T06:58:38.000Z</time>
      </trkpt>
      <trkpt lat="48.71924" lon="1.78797">
        <ele>176.60000610352</ele>
        <time>2011-04-09T06:58:45.000Z</time>
      </trkpt>
      <trkpt lat="48.7193" lon="1.78809">
        <ele>176.80000305176</ele>
        <time>2011-04-09T06:58:52.000Z</time>
      </trkpt>
      <trkpt lat="48.71935" lon="1.7882">
        <ele>176.80000305176</ele>
        <time>2011-04-09T06:58:58.000Z</time>
      </trkpt>
      <trkpt lat="48.7194" lon="1.78832">
        <ele>176.80000305176</ele>
        <time>2011-04-09T06:59:05.000Z</time>
      </trkpt>
      <trkpt lat="48.71945" lon="1.78846">
        <ele>177</ele>
        <time>2011-04-09T06:59:12.000Z</time>
      </trkpt>
      <trkpt lat="48.71949" lon="1.78856">
        <ele>177</ele>
        <time>2011-04-09T06:59:18.000Z</time>
      </trkpt>
      <trkpt lat="48.71956" lon="1.7887">
        <ele>177</ele>
        <time>2011-04-09T06:59:26.000Z</time>
      </trkpt>
      <trkpt lat="48.71964" lon="1.78883">
        <ele>176.60000610352</ele>
        <time>2011-04-09T06:59:34.000Z</time>
      </trkpt>
      <trkpt lat="48.71973" lon="1.78896">
        <ele>176.39999389648</ele>
        <time>2011-04-09T06:59:43.000Z</time>
      </trkpt>
      <trkpt lat="48.71984" lon="1.78907">
        <ele>176</ele>
        <time>2011-04-09T06:59:52.000Z</time>
      </trkpt>
      <trkpt lat="48.71996" lon="1.7892">
        <ele>175.39999389648</ele>
        <time>2011-04-09T07:00:02.000Z</time>
      </trkpt>
      <trkpt lat="48.72005" lon="1.78935">
        <ele>175.39999389648</ele>
        <time>2011-04-09T07:00:11.000Z</time>
      </trkpt>
      <trkpt lat="48.72011" lon="1.78945">
        <ele>175.39999389648</ele>
        <time>2011-04-09T07:00:18.000Z</time>
      </trkpt>
      <trkpt lat="48.72016" lon="1.78951">
        <ele>175.19999694824</ele>
        <time>2011-04-09T07:00:22.000Z</time>
      </trkpt>
      <trkpt lat="48.72023" lon="1.78959">
        <ele>174.80000305176</ele>
        <time>2011-04-09T07:00:29.000Z</time>
      </trkpt>
      <trkpt lat="48.72031" lon="1.78971">
        <ele>174.60000610352</ele>
        <time>2011-04-09T07:00:37.000Z</time>
      </trkpt>
      <trkpt lat="48.72043" lon="1.78982">
        <ele>173.80000305176</ele>
        <time>2011-04-09T07:00:46.000Z</time>
      </trkpt>
      <trkpt lat="48.72057" lon="1.78992">
        <ele>172.60000610352</ele>
        <time>2011-04-09T07:00:56.000Z</time>
      </trkpt>
      <trkpt lat="48.72067" lon="1.79001">
        <ele>172</ele>
        <time>2011-04-09T07:01:03.000Z</time>
      </trkpt>
      <trkpt lat="48.7208" lon="1.79009">
        <ele>171</ele>
        <time>2011-04-09T07:01:12.000Z</time>
      </trkpt>
      <trkpt lat="48.72091" lon="1.79017">
        <ele>171.19999694824</ele>
        <time>2011-04-09T07:01:20.000Z</time>
      </trkpt>
      <trkpt lat="48.721" lon="1.79024">
        <ele>171.60000610352</ele>
        <time>2011-04-09T07:01:27.000Z</time>
      </trkpt>
      <trkpt lat="48.72112" lon="1.79031">
        <ele>172</ele>
        <time>2011-04-09T07:01:35.000Z</time>
      </trkpt>
      <trkpt lat="48.72121" lon="1.79037">
        <ele>172.19999694824</ele>
        <time>2011-04-09T07:01:42.000Z</time>
      </trkpt>
      <trkpt lat="48.72129" lon="1.79043">
        <ele>172.80000305176</ele>
        <time>2011-04-09T07:01:48.000Z</time>
      </trkpt>
      <trkpt lat="48.72139" lon="1.7905">
        <ele>173.19999694824</ele>
        <time>2011-04-09T07:01:56.000Z</time>
      </trkpt>
      <trkpt lat="48.72151" lon="1.79056">
        <ele>173.60000610352</ele>
        <time>2011-04-09T07:02:04.000Z</time>
      </trkpt>
      <trkpt lat="48.7216" lon="1.79061">
        <ele>173.80000305176</ele>
        <time>2011-04-09T07:02:11.000Z</time>
      </trkpt>
      <trkpt lat="48.72169" lon="1.79065">
        <ele>174.19999694824</ele>
        <time>2011-04-09T07:02:18.000Z</time>
      </trkpt>
      <trkpt lat="48.72184" lon="1.79069">
        <ele>175.39999389648</ele>
        <time>2011-04-09T07:02:28.000Z</time>
      </trkpt>
      <trkpt lat="48.72198" lon="1.79072">
        <ele>176.39999389648</ele>
        <time>2011-04-09T07:02:38.000Z</time>
      </trkpt>
      <trkpt lat="48.72212" lon="1.79074">
        <ele>177.39999389648</ele>
        <time>2011-04-09T07:02:48.000Z</time>
      </trkpt>
      <trkpt lat="48.72222" lon="1.79075">
        <ele>177.80000305176</ele>
        <time>2011-04-09T07:02:55.000Z</time>
      </trkpt>
      <trkpt lat="48.72232" lon="1.79078">
        <ele>178.60000610352</ele>
        <time>2011-04-09T07:03:02.000Z</time>
      </trkpt>
      <trkpt lat="48.7224" lon="1.79082">
        <ele>179.19999694824</ele>
        <time>2011-04-09T07:03:08.000Z</time>
      </trkpt>
      <trkpt lat="48.72244" lon="1.79084">
        <ele>179.60000610352</ele>
        <time>2011-04-09T07:03:12.000Z</time>
      </trkpt>
      <trkpt lat="48.72251" lon="1.79086">
        <ele>180</ele>
        <time>2011-04-09T07:03:18.000Z</time>
      </trkpt>
      <trkpt lat="48.72258" lon="1.7909">
        <ele>180.19999694824</ele>
        <time>2011-04-09T07:03:23.000Z</time>
      </trkpt>
      <trkpt lat="48.72267" lon="1.79093">
        <ele>180.19999694824</ele>
        <time>2011-04-09T07:03:30.000Z</time>
      </trkpt>
      <trkpt lat="48.72274" lon="1.79095">
        <ele>180.39999389648</ele>
        <time>2011-04-09T07:03:35.000Z</time>
      </trkpt>
      <trkpt lat="48.72286" lon="1.791">
        <ele>180.39999389648</ele>
        <time>2011-04-09T07:03:44.000Z</time>
      </trkpt>
      <trkpt lat="48.72299" lon="1.79104">
        <ele>180.39999389648</ele>
        <time>2011-04-09T07:03:53.000Z</time>
      </trkpt>
      <trkpt lat="48.7231" lon="1.79108">
        <ele>180.39999389648</ele>
        <time>2011-04-09T07:04:01.000Z</time>
      </trkpt>
      <trkpt lat="48.72319" lon="1.79112">
        <ele>180.39999389648</ele>
        <time>2011-04-09T07:04:07.000Z</time>
      </trkpt>
      <trkpt lat="48.72329" lon="1.79116">
        <ele>180.19999694824</ele>
        <time>2011-04-09T07:04:15.000Z</time>
      </trkpt>
      <trkpt lat="48.72335" lon="1.79117">
        <ele>180.19999694824</ele>
        <time>2011-04-09T07:04:19.000Z</time>
      </trkpt>
      <trkpt lat="48.72341" lon="1.79118">
        <ele>180.19999694824</ele>
        <time>2011-04-09T07:04:24.000Z</time>
      </trkpt>
      <trkpt lat="48.7235" lon="1.79121">
        <ele>180.39999389648</ele>
        <time>2011-04-09T07:04:30.000Z</time>
      </trkpt>
      <trkpt lat="48.72355" lon="1.79122">
        <ele>180.39999389648</ele>
        <time>2011-04-09T07:04:34.000Z</time>
      </trkpt>
      <trkpt lat="48.72366" lon="1.79126">
        <ele>180.60000610352</ele>
        <time>2011-04-09T07:04:42.000Z</time>
      </trkpt>
      <trkpt lat="48.72383" lon="1.79134">
        <ele>181</ele>
        <time>2011-04-09T07:04:54.000Z</time>
      </trkpt>
      <trkpt lat="48.724" lon="1.79139">
        <ele>181.19999694824</ele>
        <time>2011-04-09T07:05:06.000Z</time>
      </trkpt>
      <trkpt lat="48.7241" lon="1.79142">
        <ele>181.19999694824</ele>
        <time>2011-04-09T07:05:13.000Z</time>
      </trkpt>
      <trkpt lat="48.72412" lon="1.79143">
        <ele>181.39999389648</ele>
        <time>2011-04-09T07:05:15.000Z</time>
      </trkpt>
      <trkpt lat="48.72423" lon="1.79147">
        <ele>181.39999389648</ele>
        <time>2011-04-09T07:05:23.000Z</time>
      </trkpt>
      <trkpt lat="48.72441" lon="1.79153">
        <ele>181.39999389648</ele>
        <time>2011-04-09T07:05:36.000Z</time>
      </trkpt>
      <trkpt lat="48.72458" lon="1.79159">
        <ele>181.39999389648</ele>
        <time>2011-04-09T07:05:48.000Z</time>
      </trkpt>
      <trkpt lat="48.72472" lon="1.79163">
        <ele>181.19999694824</ele>
        <time>2011-04-09T07:05:58.000Z</time>
      </trkpt>
      <trkpt lat="48.72483" lon="1.79169">
        <ele>181.19999694824</ele>
        <time>2011-04-09T07:06:07.000Z</time>
      </trkpt>
      <trkpt lat="48.72494" lon="1.79173">
        <ele>181.19999694824</ele>
        <time>2011-04-09T07:06:15.000Z</time>
      </trkpt>
      <trkpt lat="48.72507" lon="1.79179">
        <ele>181.60000610352</ele>
        <time>2011-04-09T07:06:24.000Z</time>
      </trkpt>
      <trkpt lat="48.72524" lon="1.79185">
        <ele>182</ele>
        <time>2011-04-09T07:06:36.000Z</time>
      </trkpt>
      <trkpt lat="48.72542" lon="1.7919">
        <ele>182.39999389648</ele>
        <time>2011-04-09T07:06:49.000Z</time>
      </trkpt>
      <trkpt lat="48.72553" lon="1.79195">
        <ele>182.60000610352</ele>
        <time>2011-04-09T07:06:58.000Z</time>
      </trkpt>
      <trkpt lat="48.72568" lon="1.792">
        <ele>183</ele>
        <time>2011-04-09T07:07:09.000Z</time>
      </trkpt>
      <trkpt lat="48.72583" lon="1.79204">
        <ele>183.19999694824</ele>
        <time>2011-04-09T07:07:20.000Z</time>
      </trkpt>
      <trkpt lat="48.72602" lon="1.7921">
        <ele>183.19999694824</ele>
        <time>2011-04-09T07:07:33.000Z</time>
      </trkpt>
      <trkpt lat="48.72619" lon="1.79216">
        <ele>183.19999694824</ele>
        <time>2011-04-09T07:07:45.000Z</time>
      </trkpt>
      <trkpt lat="48.72633" lon="1.79221">
        <ele>183</ele>
        <time>2011-04-09T07:07:55.000Z</time>
      </trkpt>
      <trkpt lat="48.72648" lon="1.79226">
        <ele>183</ele>
        <time>2011-04-09T07:08:05.000Z</time>
      </trkpt>
      <trkpt lat="48.72663" lon="1.7923">
        <ele>182.80000305176</ele>
        <time>2011-04-09T07:08:16.000Z</time>
      </trkpt>
      <trkpt lat="48.7268" lon="1.79237">
        <ele>182.39999389648</ele>
        <time>2011-04-09T07:08:28.000Z</time>
      </trkpt>
      <trkpt lat="48.72692" lon="1.7924">
        <ele>182.19999694824</ele>
        <time>2011-04-09T07:08:36.000Z</time>
      </trkpt>
      <trkpt lat="48.727" lon="1.79243">
        <ele>182</ele>
        <time>2011-04-09T07:08:42.000Z</time>
      </trkpt>
      <trkpt lat="48.72712" lon="1.79249">
        <ele>181.80000305176</ele>
        <time>2011-04-09T07:08:51.000Z</time>
      </trkpt>
      <trkpt lat="48.72724" lon="1.79253">
        <ele>181.60000610352</ele>
        <time>2011-04-09T07:09:00.000Z</time>
      </trkpt>
      <trkpt lat="48.72738" lon="1.79258">
        <ele>181.39999389648</ele>
        <time>2011-04-09T07:09:10.000Z</time>
      </trkpt>
      <trkpt lat="48.72745" lon="1.7926">
        <ele>181.19999694824</ele>
        <time>2011-04-09T07:09:14.000Z</time>
      </trkpt>
      <trkpt lat="48.72751" lon="1.79254">
        <ele>181</ele>
        <time>2011-04-09T07:09:21.000Z</time>
      </trkpt>
      <trkpt lat="48.72753" lon="1.79253">
        <ele>181</ele>
        <time>2011-04-09T07:09:24.000Z</time>
      </trkpt>
      <trkpt lat="48.72754" lon="1.79252">
        <ele>181</ele>
        <time>2011-04-09T07:09:27.000Z</time>
      </trkpt>
      <trkpt lat="48.72765" lon="1.79262">
        <ele>181.39999389648</ele>
        <time>2011-04-09T07:10:11.000Z</time>
      </trkpt>
      <trkpt lat="48.72775" lon="1.79267">
        <ele>181.60000610352</ele>
        <time>2011-04-09T07:10:19.000Z</time>
      </trkpt>
      <trkpt lat="48.72784" lon="1.79271">
        <ele>181.80000305176</ele>
        <time>2011-04-09T07:10:26.000Z</time>
      </trkpt>
      <trkpt lat="48.72802" lon="1.79278">
        <ele>182.19999694824</ele>
        <time>2011-04-09T07:10:39.000Z</time>
      </trkpt>
      <trkpt lat="48.72817" lon="1.79283">
        <ele>182.39999389648</ele>
        <time>2011-04-09T07:10:50.000Z</time>
      </trkpt>
      <trkpt lat="48.72829" lon="1.79287">
        <ele>182.80000305176</ele>
        <time>2011-04-09T07:10:59.000Z</time>
      </trkpt>
      <trkpt lat="48.72835" lon="1.7929">
        <ele>183</ele>
        <time>2011-04-09T07:11:04.000Z</time>
      </trkpt>
      <trkpt lat="48.72851" lon="1.79296">
        <ele>183.19999694824</ele>
        <time>2011-04-09T07:11:15.000Z</time>
      </trkpt>
      <trkpt lat="48.72868" lon="1.79301">
        <ele>183.60000610352</ele>
        <time>2011-04-09T07:11:27.000Z</time>
      </trkpt>
      <trkpt lat="48.72876" lon="1.79303">
        <ele>183.80000305176</ele>
        <time>2011-04-09T07:11:33.000Z</time>
      </trkpt>
      <trkpt lat="48.72887" lon="1.79307">
        <ele>183.80000305176</ele>
        <time>2011-04-09T07:11:41.000Z</time>
      </trkpt>
      <trkpt lat="48.72896" lon="1.7931">
        <ele>184</ele>
        <time>2011-04-09T07:11:47.000Z</time>
      </trkpt>
      <trkpt lat="48.72906" lon="1.79314">
        <ele>184</ele>
        <time>2011-04-09T07:11:54.000Z</time>
      </trkpt>
      <trkpt lat="48.72917" lon="1.79317">
        <ele>184</ele>
        <time>2011-04-09T07:12:01.000Z</time>
      </trkpt>
      <trkpt lat="48.72926" lon="1.7932">
        <ele>183.39999389648</ele>
        <time>2011-04-09T07:12:07.000Z</time>
      </trkpt>
      <trkpt lat="48.72939" lon="1.79326">
        <ele>182.60000610352</ele>
        <time>2011-04-09T07:12:16.000Z</time>
      </trkpt>
      <trkpt lat="48.72948" lon="1.7933">
        <ele>182</ele>
        <time>2011-04-09T07:12:23.000Z</time>
      </trkpt>
      <trkpt lat="48.72958" lon="1.79333">
        <ele>181.39999389648</ele>
        <time>2011-04-09T07:12:30.000Z</time>
      </trkpt>
      <trkpt lat="48.72968" lon="1.79334">
        <ele>180.80000305176</ele>
        <time>2011-04-09T07:12:37.000Z</time>
      </trkpt>
      <trkpt lat="48.7298" lon="1.79339">
        <ele>179.80000305176</ele>
        <time>2011-04-09T07:12:47.000Z</time>
      </trkpt>
      <trkpt lat="48.72988" lon="1.79342">
        <ele>179.19999694824</ele>
        <time>2011-04-09T07:12:53.000Z</time>
      </trkpt>
      <trkpt lat="48.72998" lon="1.79349">
        <ele>178.39999389648</ele>
        <time>2011-04-09T07:13:01.000Z</time>
      </trkpt>
      <trkpt lat="48.7301" lon="1.79354">
        <ele>178.19999694824</ele>
        <time>2011-04-09T07:13:10.000Z</time>
      </trkpt>
      <trkpt lat="48.73012" lon="1.79353">
        <ele>178.19999694824</ele>
        <time>2011-04-09T07:13:12.000Z</time>
      </trkpt>
      <trkpt lat="48.7302" lon="1.79356">
        <ele>178.19999694824</ele>
        <time>2011-04-09T07:13:19.000Z</time>
      </trkpt>
      <trkpt lat="48.73032" lon="1.7936">
        <ele>178.39999389648</ele>
        <time>2011-04-09T07:13:28.000Z</time>
      </trkpt>
      <trkpt lat="48.73043" lon="1.7936">
        <ele>178.60000610352</ele>
        <time>2011-04-09T07:13:36.000Z</time>
      </trkpt>
      <trkpt lat="48.73056" lon="1.79365">
        <ele>179</ele>
        <time>2011-04-09T07:13:46.000Z</time>
      </trkpt>
      <trkpt lat="48.73067" lon="1.79369">
        <ele>179.19999694824</ele>
        <time>2011-04-09T07:13:54.000Z</time>
      </trkpt>
      <trkpt lat="48.73076" lon="1.79372">
        <ele>179.60000610352</ele>
        <time>2011-04-09T07:14:00.000Z</time>
      </trkpt>
      <trkpt lat="48.73087" lon="1.79375">
        <ele>179.80000305176</ele>
        <time>2011-04-09T07:14:07.000Z</time>
      </trkpt>
      <trkpt lat="48.7309" lon="1.79377">
        <ele>179.80000305176</ele>
        <time>2011-04-09T07:14:09.000Z</time>
      </trkpt>
      <trkpt lat="48.73094" lon="1.79379">
        <ele>179.80000305176</ele>
        <time>2011-04-09T07:14:14.000Z</time>
      </trkpt>
      <trkpt lat="48.73095" lon="1.7938">
        <ele>179.80000305176</ele>
        <time>2011-04-09T07:14:17.000Z</time>
      </trkpt>
      <trkpt lat="48.73102" lon="1.79383">
        <ele>179.80000305176</ele>
        <time>2011-04-09T07:14:30.000Z</time>
      </trkpt>
      <trkpt lat="48.73115" lon="1.79389">
        <ele>179.80000305176</ele>
        <time>2011-04-09T07:14:38.000Z</time>
      </trkpt>
      <trkpt lat="48.73123" lon="1.79392">
        <ele>179.80000305176</ele>
        <time>2011-04-09T07:14:43.000Z</time>
      </trkpt>
      <trkpt lat="48.73133" lon="1.79396">
        <ele>179.80000305176</ele>
        <time>2011-04-09T07:14:49.000Z</time>
      </trkpt>
      <trkpt lat="48.7314" lon="1.79398">
        <ele>179.80000305176</ele>
        <time>2011-04-09T07:14:55.000Z</time>
      </trkpt>
      <trkpt lat="48.73148" lon="1.794">
        <ele>179.80000305176</ele>
        <time>2011-04-09T07:15:02.000Z</time>
      </trkpt>
      <trkpt lat="48.7315" lon="1.794">
        <ele>179.80000305176</ele>
        <time>2011-04-09T07:15:03.000Z</time>
      </trkpt>
      <trkpt lat="48.73158" lon="1.79404">
        <ele>179.80000305176</ele>
        <time>2011-04-09T07:15:08.000Z</time>
      </trkpt>
      <trkpt lat="48.73167" lon="1.79407">
        <ele>179.60000610352</ele>
        <time>2011-04-09T07:15:15.000Z</time>
      </trkpt>
      <trkpt lat="48.73169" lon="1.79408">
        <ele>179.60000610352</ele>
        <time>2011-04-09T07:15:16.000Z</time>
      </trkpt>
      <trkpt lat="48.7318" lon="1.7941">
        <ele>179.60000610352</ele>
        <time>2011-04-09T07:15:23.000Z</time>
      </trkpt>
      <trkpt lat="48.73187" lon="1.79412">
        <ele>179.60000610352</ele>
        <time>2011-04-09T07:15:29.000Z</time>
      </trkpt>
      <trkpt lat="48.73193" lon="1.79412">
        <ele>179.60000610352</ele>
        <time>2011-04-09T07:15:34.000Z</time>
      </trkpt>
      <trkpt lat="48.73204" lon="1.79412">
        <ele>179.39999389648</ele>
        <time>2011-04-09T07:15:42.000Z</time>
      </trkpt>
      <trkpt lat="48.73214" lon="1.79417">
        <ele>179.39999389648</ele>
        <time>2011-04-09T07:15:49.000Z</time>
      </trkpt>
      <trkpt lat="48.73228" lon="1.79423">
        <ele>179.19999694824</ele>
        <time>2011-04-09T07:15:59.000Z</time>
      </trkpt>
      <trkpt lat="48.7324" lon="1.7943">
        <ele>179.19999694824</ele>
        <time>2011-04-09T07:16:07.000Z</time>
      </trkpt>
      <trkpt lat="48.73252" lon="1.7944">
        <ele>179.60000610352</ele>
        <time>2011-04-09T07:16:16.000Z</time>
      </trkpt>
      <trkpt lat="48.73254" lon="1.79454">
        <ele>180.19999694824</ele>
        <time>2011-04-09T07:16:23.000Z</time>
      </trkpt>
      <trkpt lat="48.73253" lon="1.79457">
        <ele>180.19999694824</ele>
        <time>2011-04-09T07:16:27.000Z</time>
      </trkpt>
      <trkpt lat="48.73214" lon="1.79535">
        <ele>178.80000305176</ele>
        <time>2011-04-09T08:17:39.000Z</time>
      </trkpt>
      <trkpt lat="48.73209" lon="1.79557">
        <ele>178.19999694824</ele>
        <time>2011-04-09T08:17:48.000Z</time>
      </trkpt>
      <trkpt lat="48.73204" lon="1.79576">
        <ele>177.60000610352</ele>
        <time>2011-04-09T08:17:57.000Z</time>
      </trkpt>
      <trkpt lat="48.73197" lon="1.79598">
        <ele>177.19999694824</ele>
        <time>2011-04-09T08:18:07.000Z</time>
      </trkpt>
      <trkpt lat="48.7319" lon="1.79617">
        <ele>177</ele>
        <time>2011-04-09T08:18:16.000Z</time>
      </trkpt>
      <trkpt lat="48.73181" lon="1.79643">
        <ele>176.80000305176</ele>
        <time>2011-04-09T08:18:28.000Z</time>
      </trkpt>
      <trkpt lat="48.73175" lon="1.79664">
        <ele>176.60000610352</ele>
        <time>2011-04-09T08:18:37.000Z</time>
      </trkpt>
      <trkpt lat="48.73171" lon="1.79682">
        <ele>177</ele>
        <time>2011-04-09T08:18:44.000Z</time>
      </trkpt>
      <trkpt lat="48.73165" lon="1.79699">
        <ele>177.39999389648</ele>
        <time>2011-04-09T08:18:52.000Z</time>
      </trkpt>
      <trkpt lat="48.73161" lon="1.79711">
        <ele>177.80000305176</ele>
        <time>2011-04-09T08:18:58.000Z</time>
      </trkpt>
      <trkpt lat="48.73159" lon="1.79728">
        <ele>178.39999389648</ele>
        <time>2011-04-09T08:19:05.000Z</time>
      </trkpt>
      <trkpt lat="48.73156" lon="1.79749">
        <ele>179.39999389648</ele>
        <time>2011-04-09T08:19:14.000Z</time>
      </trkpt>
      <trkpt lat="48.73148" lon="1.79771">
        <ele>179.60000610352</ele>
        <time>2011-04-09T08:19:24.000Z</time>
      </trkpt>
      <trkpt lat="48.73141" lon="1.79791">
        <ele>179.60000610352</ele>
        <time>2011-04-09T08:19:33.000Z</time>
      </trkpt>
      <trkpt lat="48.73134" lon="1.79809">
        <ele>179.60000610352</ele>
        <time>2011-04-09T08:19:41.000Z</time>
      </trkpt>
      <trkpt lat="48.73126" lon="1.7983">
        <ele>179.39999389648</ele>
        <time>2011-04-09T08:19:51.000Z</time>
      </trkpt>
      <trkpt lat="48.73121" lon="1.79846">
        <ele>179.39999389648</ele>
        <time>2011-04-09T08:20:00.000Z</time>
      </trkpt>
      <trkpt lat="48.73117" lon="1.79858">
        <ele>179.60000610352</ele>
        <time>2011-04-09T08:20:07.000Z</time>
      </trkpt>
      <trkpt lat="48.73113" lon="1.79869">
        <ele>179.60000610352</ele>
        <time>2011-04-09T08:20:12.000Z</time>
      </trkpt>
      <trkpt lat="48.73105" lon="1.79888">
        <ele>179.80000305176</ele>
        <time>2011-04-09T08:20:21.000Z</time>
      </trkpt>
      <trkpt lat="48.73094" lon="1.79918">
        <ele>179.80000305176</ele>
        <time>2011-04-09T08:20:34.000Z</time>
      </trkpt>
      <trkpt lat="48.73089" lon="1.79928">
        <ele>179.60000610352</ele>
        <time>2011-04-09T08:20:40.000Z</time>
      </trkpt>
      <trkpt lat="48.73087" lon="1.79931">
        <ele>179.39999389648</ele>
        <time>2011-04-09T08:20:42.000Z</time>
      </trkpt>
      <trkpt lat="48.73084" lon="1.79943">
        <ele>179.19999694824</ele>
        <time>2011-04-09T08:20:48.000Z</time>
      </trkpt>
      <trkpt lat="48.73083" lon="1.79945">
        <ele>179.19999694824</ele>
        <time>2011-04-09T08:20:49.000Z</time>
      </trkpt>
      <trkpt lat="48.73077" lon="1.79964">
        <ele>179.19999694824</ele>
        <time>2011-04-09T08:20:58.000Z</time>
      </trkpt>
      <trkpt lat="48.7307" lon="1.79983">
        <ele>178.80000305176</ele>
        <time>2011-04-09T08:21:05.000Z</time>
      </trkpt>
      <trkpt lat="48.73062" lon="1.80002">
        <ele>178.39999389648</ele>
        <time>2011-04-09T08:21:13.000Z</time>
      </trkpt>
      <trkpt lat="48.73061" lon="1.80005">
        <ele>178.39999389648</ele>
        <time>2011-04-09T08:21:15.000Z</time>
      </trkpt>
      <trkpt lat="48.73058" lon="1.80012">
        <ele>178.19999694824</ele>
        <time>2011-04-09T08:21:19.000Z</time>
      </trkpt>
      <trkpt lat="48.73054" lon="1.80028">
        <ele>178.19999694824</ele>
        <time>2011-04-09T08:21:27.000Z</time>
      </trkpt>
      <trkpt lat="48.7305" lon="1.8004">
        <ele>178</ele>
        <time>2011-04-09T08:21:33.000Z</time>
      </trkpt>
      <trkpt lat="48.73047" lon="1.80047">
        <ele>177.80000305176</ele>
        <time>2011-04-09T08:21:38.000Z</time>
      </trkpt>
      <trkpt lat="48.73046" lon="1.80049">
        <ele>177.80000305176</ele>
        <time>2011-04-09T08:21:39.000Z</time>
      </trkpt>
      <trkpt lat="48.73042" lon="1.80063">
        <ele>177.60000610352</ele>
        <time>2011-04-09T08:21:45.000Z</time>
      </trkpt>
      <trkpt lat="48.73037" lon="1.80074">
        <ele>177.39999389648</ele>
        <time>2011-04-09T08:21:50.000Z</time>
      </trkpt>
      <trkpt lat="48.73036" lon="1.80077">
        <ele>177.39999389648</ele>
        <time>2011-04-09T08:21:51.000Z</time>
      </trkpt>
      <trkpt lat="48.73031" lon="1.80093">
        <ele>177.39999389648</ele>
        <time>2011-04-09T08:21:58.000Z</time>
      </trkpt>
      <trkpt lat="48.73027" lon="1.80107">
        <ele>177.60000610352</ele>
        <time>2011-04-09T08:22:04.000Z</time>
      </trkpt>
      <trkpt lat="48.73024" lon="1.80118">
        <ele>177.80000305176</ele>
        <time>2011-04-09T08:22:11.000Z</time>
      </trkpt>
      <trkpt lat="48.73016" lon="1.80131">
        <ele>178</ele>
        <time>2011-04-09T08:22:18.000Z</time>
      </trkpt>
      <trkpt lat="48.73012" lon="1.8015">
        <ele>178.60000610352</ele>
        <time>2011-04-09T08:22:26.000Z</time>
      </trkpt>
      <trkpt lat="48.7301" lon="1.80167">
        <ele>179.19999694824</ele>
        <time>2011-04-09T08:22:34.000Z</time>
      </trkpt>
      <trkpt lat="48.73008" lon="1.80175">
        <ele>179</ele>
        <time>2011-04-09T08:22:37.000Z</time>
      </trkpt>
      <trkpt lat="48.73003" lon="1.8019">
        <ele>178.80000305176</ele>
        <time>2011-04-09T08:22:43.000Z</time>
      </trkpt>
      <trkpt lat="48.72996" lon="1.80207">
        <ele>178.19999694824</ele>
        <time>2011-04-09T08:22:51.000Z</time>
      </trkpt>
      <trkpt lat="48.72991" lon="1.80218">
        <ele>178</ele>
        <time>2011-04-09T08:22:57.000Z</time>
      </trkpt>
      <trkpt lat="48.72982" lon="1.80238">
        <ele>177.80000305176</ele>
        <time>2011-04-09T08:23:06.000Z</time>
      </trkpt>
      <trkpt lat="48.72978" lon="1.80254">
        <ele>178</ele>
        <time>2011-04-09T08:23:15.000Z</time>
      </trkpt>
      <trkpt lat="48.72973" lon="1.80267">
        <ele>178</ele>
        <time>2011-04-09T08:23:21.000Z</time>
      </trkpt>
      <trkpt lat="48.72963" lon="1.80277">
        <ele>178</ele>
        <time>2011-04-09T08:23:28.000Z</time>
      </trkpt>
      <trkpt lat="48.72962" lon="1.80278">
        <ele>178</ele>
        <time>2011-04-09T08:23:29.000Z</time>
      </trkpt>
      <trkpt lat="48.72958" lon="1.80293">
        <ele>177.80000305176</ele>
        <time>2011-04-09T08:23:37.000Z</time>
      </trkpt>
      <trkpt lat="48.72957" lon="1.80304">
        <ele>177.80000305176</ele>
        <time>2011-04-09T08:23:43.000Z</time>
      </trkpt>
      <trkpt lat="48.72954" lon="1.80312">
        <ele>177.80000305176</ele>
        <time>2011-04-09T08:23:48.000Z</time>
      </trkpt>
      <trkpt lat="48.72952" lon="1.80318">
        <ele>177.80000305176</ele>
        <time>2011-04-09T08:23:51.000Z</time>
      </trkpt>
      <trkpt lat="48.72948" lon="1.80333">
        <ele>177.60000610352</ele>
        <time>2011-04-09T08:23:59.000Z</time>
      </trkpt>
      <trkpt lat="48.72947" lon="1.80336">
        <ele>177.60000610352</ele>
        <time>2011-04-09T08:24:01.000Z</time>
      </trkpt>
      <trkpt lat="48.7294" lon="1.80348">
        <ele>177.19999694824</ele>
        <time>2011-04-09T08:24:08.000Z</time>
      </trkpt>
      <trkpt lat="48.72933" lon="1.80366">
        <ele>176.60000610352</ele>
        <time>2011-04-09T08:24:17.000Z</time>
      </trkpt>
      <trkpt lat="48.72927" lon="1.8038">
        <ele>176</ele>
        <time>2011-04-09T08:24:24.000Z</time>
      </trkpt>
      <trkpt lat="48.72922" lon="1.80393">
        <ele>175.60000610352</ele>
        <time>2011-04-09T08:24:31.000Z</time>
      </trkpt>
      <trkpt lat="48.72919" lon="1.80399">
        <ele>175.39999389648</ele>
        <time>2011-04-09T08:24:34.000Z</time>
      </trkpt>
      <trkpt lat="48.72913" lon="1.80414">
        <ele>175</ele>
        <time>2011-04-09T08:24:42.000Z</time>
      </trkpt>
      <trkpt lat="48.72911" lon="1.80435">
        <ele>175.19999694824</ele>
        <time>2011-04-09T08:24:50.000Z</time>
      </trkpt>
      <trkpt lat="48.72911" lon="1.80448">
        <ele>175.60000610352</ele>
        <time>2011-04-09T08:24:56.000Z</time>
      </trkpt>
      <trkpt lat="48.72914" lon="1.80466">
        <ele>176</ele>
        <time>2011-04-09T08:25:04.000Z</time>
      </trkpt>
      <trkpt lat="48.72918" lon="1.80487">
        <ele>176.60000610352</ele>
        <time>2011-04-09T08:25:13.000Z</time>
      </trkpt>
      <trkpt lat="48.72921" lon="1.80505">
        <ele>177.19999694824</ele>
        <time>2011-04-09T08:25:21.000Z</time>
      </trkpt>
      <trkpt lat="48.72923" lon="1.80521">
        <ele>178.19999694824</ele>
        <time>2011-04-09T08:25:28.000Z</time>
      </trkpt>
      <trkpt lat="48.72922" lon="1.80542">
        <ele>179.39999389648</ele>
        <time>2011-04-09T08:25:36.000Z</time>
      </trkpt>
      <trkpt lat="48.7292" lon="1.80554">
        <ele>180.19999694824</ele>
        <time>2011-04-09T08:25:41.000Z</time>
      </trkpt>
      <trkpt lat="48.72916" lon="1.80567">
        <ele>180.80000305176</ele>
        <time>2011-04-09T08:25:47.000Z</time>
      </trkpt>
      <trkpt lat="48.72911" lon="1.80581">
        <ele>181.39999389648</ele>
        <time>2011-04-09T08:25:53.000Z</time>
      </trkpt>
      <trkpt lat="48.72909" lon="1.80587">
        <ele>181.60000610352</ele>
        <time>2011-04-09T08:26:00.000Z</time>
      </trkpt>
      <trkpt lat="48.72908" lon="1.8059">
        <ele>181.60000610352</ele>
        <time>2011-04-09T08:26:03.000Z</time>
      </trkpt>
      <trkpt lat="48.729" lon="1.80607">
        <ele>181.39999389648</ele>
        <time>2011-04-09T08:26:11.000Z</time>
      </trkpt>
      <trkpt lat="48.72892" lon="1.80624">
        <ele>181.19999694824</ele>
        <time>2011-04-09T08:26:20.000Z</time>
      </trkpt>
      <trkpt lat="48.72885" lon="1.8064">
        <ele>181</ele>
        <time>2011-04-09T08:26:28.000Z</time>
      </trkpt>
      <trkpt lat="48.72881" lon="1.80648">
        <ele>181</ele>
        <time>2011-04-09T08:26:32.000Z</time>
      </trkpt>
      <trkpt lat="48.72877" lon="1.80657">
        <ele>180.80000305176</ele>
        <time>2011-04-09T08:26:36.000Z</time>
      </trkpt>
      <trkpt lat="48.7287" lon="1.80672">
        <ele>180.60000610352</ele>
        <time>2011-04-09T08:26:44.000Z</time>
      </trkpt>
      <trkpt lat="48.72862" lon="1.8069">
        <ele>180.60000610352</ele>
        <time>2011-04-09T08:26:53.000Z</time>
      </trkpt>
      <trkpt lat="48.72855" lon="1.80704">
        <ele>180.39999389648</ele>
        <time>2011-04-09T08:27:00.000Z</time>
      </trkpt>
      <trkpt lat="48.72848" lon="1.80719">
        <ele>180.39999389648</ele>
        <time>2011-04-09T08:27:08.000Z</time>
      </trkpt>
      <trkpt lat="48.7284" lon="1.80734">
        <ele>180.60000610352</ele>
        <time>2011-04-09T08:27:16.000Z</time>
      </trkpt>
      <trkpt lat="48.72832" lon="1.8075">
        <ele>180.80000305176</ele>
        <time>2011-04-09T08:27:23.000Z</time>
      </trkpt>
      <trkpt lat="48.72824" lon="1.80766">
        <ele>180.80000305176</ele>
        <time>2011-04-09T08:27:32.000Z</time>
      </trkpt>
      <trkpt lat="48.72818" lon="1.80778">
        <ele>180.80000305176</ele>
        <time>2011-04-09T08:27:39.000Z</time>
      </trkpt>
      <trkpt lat="48.72809" lon="1.80797">
        <ele>181</ele>
        <time>2011-04-09T08:27:48.000Z</time>
      </trkpt>
      <trkpt lat="48.72801" lon="1.80816">
        <ele>181.19999694824</ele>
        <time>2011-04-09T08:27:56.000Z</time>
      </trkpt>
      <trkpt lat="48.72794" lon="1.80831">
        <ele>181.39999389648</ele>
        <time>2011-04-09T08:28:04.000Z</time>
      </trkpt>
      <trkpt lat="48.72787" lon="1.80846">
        <ele>181.60000610352</ele>
        <time>2011-04-09T08:28:11.000Z</time>
      </trkpt>
      <trkpt lat="48.72781" lon="1.80859">
        <ele>181.80000305176</ele>
        <time>2011-04-09T08:28:18.000Z</time>
      </trkpt>
      <trkpt lat="48.72776" lon="1.80871">
        <ele>182</ele>
        <time>2011-04-09T08:28:24.000Z</time>
      </trkpt>
      <trkpt lat="48.72766" lon="1.80892">
        <ele>182.39999389648</ele>
        <time>2011-04-09T08:28:32.000Z</time>
      </trkpt>
      <trkpt lat="48.7276" lon="1.80906">
        <ele>182.60000610352</ele>
        <time>2011-04-09T08:28:39.000Z</time>
      </trkpt>
      <trkpt lat="48.72754" lon="1.80919">
        <ele>183</ele>
        <time>2011-04-09T08:28:46.000Z</time>
      </trkpt>
      <trkpt lat="48.72746" lon="1.80935">
        <ele>183.19999694824</ele>
        <time>2011-04-09T08:28:55.000Z</time>
      </trkpt>
      <trkpt lat="48.7274" lon="1.80946">
        <ele>183.19999694824</ele>
        <time>2011-04-09T08:29:01.000Z</time>
      </trkpt>
      <trkpt lat="48.72737" lon="1.80954">
        <ele>183.19999694824</ele>
        <time>2011-04-09T08:29:06.000Z</time>
      </trkpt>
      <trkpt lat="48.72729" lon="1.80969">
        <ele>183.19999694824</ele>
        <time>2011-04-09T08:29:14.000Z</time>
      </trkpt>
      <trkpt lat="48.72725" lon="1.80977">
        <ele>183.19999694824</ele>
        <time>2011-04-09T08:29:19.000Z</time>
      </trkpt>
      <trkpt lat="48.72715" lon="1.80993">
        <ele>183</ele>
        <time>2011-04-09T08:29:28.000Z</time>
      </trkpt>
      <trkpt lat="48.72709" lon="1.81004">
        <ele>183</ele>
        <time>2011-04-09T08:29:34.000Z</time>
      </trkpt>
      <trkpt lat="48.72702" lon="1.81014">
        <ele>182.80000305176</ele>
        <time>2011-04-09T08:29:40.000Z</time>
      </trkpt>
      <trkpt lat="48.72694" lon="1.81032">
        <ele>182.60000610352</ele>
        <time>2011-04-09T08:29:48.000Z</time>
      </trkpt>
      <trkpt lat="48.72688" lon="1.81041">
        <ele>182.39999389648</ele>
        <time>2011-04-09T08:29:53.000Z</time>
      </trkpt>
      <trkpt lat="48.72687" lon="1.81043">
        <ele>182.39999389648</ele>
        <time>2011-04-09T08:29:54.000Z</time>
      </trkpt>
      <trkpt lat="48.72684" lon="1.81047">
        <ele>182.39999389648</ele>
        <time>2011-04-09T08:29:59.000Z</time>
      </trkpt>
      <trkpt lat="48.72678" lon="1.81051">
        <ele>182</ele>
        <time>2011-04-09T08:30:07.000Z</time>
      </trkpt>
      <trkpt lat="48.72671" lon="1.81047">
        <ele>181.60000610352</ele>
        <time>2011-04-09T08:30:12.000Z</time>
      </trkpt>
      <trkpt lat="48.72671" lon="1.81047">
        <ele>181.60000610352</ele>
        <time>2011-04-09T08:30:14.000Z</time>
      </trkpt>
      <trkpt lat="48.72666" lon="1.81044">
        <ele>181.39999389648</ele>
        <time>2011-04-09T08:30:39.000Z</time>
      </trkpt>
      <trkpt lat="48.7266" lon="1.81035">
        <ele>181</ele>
        <time>2011-04-09T08:30:44.000Z</time>
      </trkpt>
      <trkpt lat="48.72658" lon="1.81032">
        <ele>180.80000305176</ele>
        <time>2011-04-09T08:30:46.000Z</time>
      </trkpt>
      <trkpt lat="48.72652" lon="1.81022">
        <ele>180.19999694824</ele>
        <time>2011-04-09T08:30:53.000Z</time>
      </trkpt>
      <trkpt lat="48.72646" lon="1.81021">
        <ele>179.80000305176</ele>
        <time>2011-04-09T08:31:00.000Z</time>
      </trkpt>
      <trkpt lat="48.72645" lon="1.81023">
        <ele>179.80000305176</ele>
        <time>2011-04-09T08:31:04.000Z</time>
      </trkpt>
      <trkpt lat="48.72662" lon="1.81036">
        <ele>181</ele>
        <time>2011-04-09T08:31:55.000Z</time>
      </trkpt>
      <trkpt lat="48.72668" lon="1.81048">
        <ele>181.60000610352</ele>
        <time>2011-04-09T08:32:01.000Z</time>
      </trkpt>
      <trkpt lat="48.72673" lon="1.81056">
        <ele>181.80000305176</ele>
        <time>2011-04-09T08:32:06.000Z</time>
      </trkpt>
      <trkpt lat="48.72681" lon="1.8107">
        <ele>182.39999389648</ele>
        <time>2011-04-09T08:32:16.000Z</time>
      </trkpt>
      <trkpt lat="48.72683" lon="1.81073">
        <ele>182.60000610352</ele>
        <time>2011-04-09T08:32:18.000Z</time>
      </trkpt>
      <trkpt lat="48.72685" lon="1.81078">
        <ele>182.80000305176</ele>
        <time>2011-04-09T08:32:24.000Z</time>
      </trkpt>
      <trkpt lat="48.72681" lon="1.81085">
        <ele>182.60000610352</ele>
        <time>2011-04-09T08:32:35.000Z</time>
      </trkpt>
      <trkpt lat="48.72674" lon="1.81092">
        <ele>182.39999389648</ele>
        <time>2011-04-09T08:32:38.000Z</time>
      </trkpt>
      <trkpt lat="48.72671" lon="1.81095">
        <ele>182.19999694824</ele>
        <time>2011-04-09T08:32:44.000Z</time>
      </trkpt>
      <trkpt lat="48.7267" lon="1.81093">
        <ele>182.19999694824</ele>
        <time>2011-04-09T08:32:48.000Z</time>
      </trkpt>
      <trkpt lat="48.72668" lon="1.81087">
        <ele>182</ele>
        <time>2011-04-09T08:32:54.000Z</time>
      </trkpt>
      <trkpt lat="48.72663" lon="1.8109">
        <ele>181.80000305176</ele>
        <time>2011-04-09T08:32:59.000Z</time>
      </trkpt>
      <trkpt lat="48.72661" lon="1.81091">
        <ele>181.60000610352</ele>
        <time>2011-04-09T08:33:01.000Z</time>
      </trkpt>
      <trkpt lat="48.72659" lon="1.81095">
        <ele>181.60000610352</ele>
        <time>2011-04-09T08:33:05.000Z</time>
      </trkpt>
      <trkpt lat="48.72652" lon="1.81105">
        <ele>181.39999389648</ele>
        <time>2011-04-09T08:33:12.000Z</time>
      </trkpt>
      <trkpt lat="48.7265" lon="1.81121">
        <ele>181.39999389648</ele>
        <time>2011-04-09T08:33:19.000Z</time>
      </trkpt>
      <trkpt lat="48.72646" lon="1.81137">
        <ele>181.39999389648</ele>
        <time>2011-04-09T08:33:26.000Z</time>
      </trkpt>
      <trkpt lat="48.72645" lon="1.81139">
        <ele>181.39999389648</ele>
        <time>2011-04-09T08:33:27.000Z</time>
      </trkpt>
      <trkpt lat="48.72644" lon="1.81148">
        <ele>181.60000610352</ele>
        <time>2011-04-09T08:33:31.000Z</time>
      </trkpt>
      <trkpt lat="48.72639" lon="1.81157">
        <ele>181.39999389648</ele>
        <time>2011-04-09T08:33:37.000Z</time>
      </trkpt>
      <trkpt lat="48.72637" lon="1.81166">
        <ele>181.39999389648</ele>
        <time>2011-04-09T08:33:42.000Z</time>
      </trkpt>
      <trkpt lat="48.72636" lon="1.81171">
        <ele>181.60000610352</ele>
        <time>2011-04-09T08:33:44.000Z</time>
      </trkpt>
      <trkpt lat="48.7263" lon="1.81189">
        <ele>181.60000610352</ele>
        <time>2011-04-09T08:33:52.000Z</time>
      </trkpt>
      <trkpt lat="48.72626" lon="1.81203">
        <ele>181.60000610352</ele>
        <time>2011-04-09T08:33:57.000Z</time>
      </trkpt>
      <trkpt lat="48.72621" lon="1.81213">
        <ele>181.60000610352</ele>
        <time>2011-04-09T08:34:01.000Z</time>
      </trkpt>
      <trkpt lat="48.72617" lon="1.81226">
        <ele>181.60000610352</ele>
        <time>2011-04-09T08:34:08.000Z</time>
      </trkpt>
      <trkpt lat="48.72613" lon="1.81238">
        <ele>181.80000305176</ele>
        <time>2011-04-09T08:34:14.000Z</time>
      </trkpt>
      <trkpt lat="48.72608" lon="1.81253">
        <ele>181.80000305176</ele>
        <time>2011-04-09T08:34:23.000Z</time>
      </trkpt>
      <trkpt lat="48.72605" lon="1.81261">
        <ele>181.80000305176</ele>
        <time>2011-04-09T08:34:28.000Z</time>
      </trkpt>
      <trkpt lat="48.726" lon="1.81277">
        <ele>181.80000305176</ele>
        <time>2011-04-09T08:34:36.000Z</time>
      </trkpt>
      <trkpt lat="48.72598" lon="1.81284">
        <ele>181.80000305176</ele>
        <time>2011-04-09T08:34:38.000Z</time>
      </trkpt>
      <trkpt lat="48.72592" lon="1.81295">
        <ele>181.80000305176</ele>
        <time>2011-04-09T08:34:43.000Z</time>
      </trkpt>
      <trkpt lat="48.72588" lon="1.81313">
        <ele>181.80000305176</ele>
        <time>2011-04-09T08:34:50.000Z</time>
      </trkpt>
      <trkpt lat="48.72585" lon="1.81321">
        <ele>181.80000305176</ele>
        <time>2011-04-09T08:34:55.000Z</time>
      </trkpt>
      <trkpt lat="48.72581" lon="1.81334">
        <ele>181.80000305176</ele>
        <time>2011-04-09T08:35:00.000Z</time>
      </trkpt>
      <trkpt lat="48.72578" lon="1.81343">
        <ele>181.60000610352</ele>
        <time>2011-04-09T08:35:04.000Z</time>
      </trkpt>
      <trkpt lat="48.72571" lon="1.81361">
        <ele>181</ele>
        <time>2011-04-09T08:35:12.000Z</time>
      </trkpt>
      <trkpt lat="48.72567" lon="1.81373">
        <ele>180.60000610352</ele>
        <time>2011-04-09T08:35:17.000Z</time>
      </trkpt>
      <trkpt lat="48.72566" lon="1.81375">
        <ele>180.39999389648</ele>
        <time>2011-04-09T08:35:18.000Z</time>
      </trkpt>
      <trkpt lat="48.72559" lon="1.81389">
        <ele>179.80000305176</ele>
        <time>2011-04-09T08:35:25.000Z</time>
      </trkpt>
      <trkpt lat="48.72558" lon="1.81393">
        <ele>179.80000305176</ele>
        <time>2011-04-09T08:35:28.000Z</time>
      </trkpt>
      <trkpt lat="48.72555" lon="1.81405">
        <ele>179.39999389648</ele>
        <time>2011-04-09T08:35:33.000Z</time>
      </trkpt>
      <trkpt lat="48.72551" lon="1.81418">
        <ele>179</ele>
        <time>2011-04-09T08:35:39.000Z</time>
      </trkpt>
      <trkpt lat="48.72551" lon="1.81421">
        <ele>179</ele>
        <time>2011-04-09T08:35:40.000Z</time>
      </trkpt>
      <trkpt lat="48.72546" lon="1.81433">
        <ele>178.60000610352</ele>
        <time>2011-04-09T08:35:46.000Z</time>
      </trkpt>
      <trkpt lat="48.72545" lon="1.81434">
        <ele>178.39999389648</ele>
        <time>2011-04-09T08:35:47.000Z</time>
      </trkpt>
      <trkpt lat="48.72544" lon="1.81441">
        <ele>178.39999389648</ele>
        <time>2011-04-09T08:35:51.000Z</time>
      </trkpt>
      <trkpt lat="48.72538" lon="1.81458">
        <ele>178</ele>
        <time>2011-04-09T08:35:59.000Z</time>
      </trkpt>
      <trkpt lat="48.72537" lon="1.81463">
        <ele>177.80000305176</ele>
        <time>2011-04-09T08:36:02.000Z</time>
      </trkpt>
      <trkpt lat="48.72528" lon="1.81476">
        <ele>177.39999389648</ele>
        <time>2011-04-09T08:36:10.000Z</time>
      </trkpt>
      <trkpt lat="48.72526" lon="1.81488">
        <ele>177.19999694824</ele>
        <time>2011-04-09T08:36:16.000Z</time>
      </trkpt>
      <trkpt lat="48.72523" lon="1.81495">
        <ele>177</ele>
        <time>2011-04-09T08:36:21.000Z</time>
      </trkpt>
      <trkpt lat="48.72521" lon="1.81514">
        <ele>177.39999389648</ele>
        <time>2011-04-09T08:36:28.000Z</time>
      </trkpt>
      <trkpt lat="48.7252" lon="1.81519">
        <ele>177.39999389648</ele>
        <time>2011-04-09T08:36:30.000Z</time>
      </trkpt>
      <trkpt lat="48.72516" lon="1.81537">
        <ele>178</ele>
        <time>2011-04-09T08:36:37.000Z</time>
      </trkpt>
      <trkpt lat="48.72514" lon="1.81545">
        <ele>178</ele>
        <time>2011-04-09T08:36:41.000Z</time>
      </trkpt>
      <trkpt lat="48.72508" lon="1.81563">
        <ele>178.39999389648</ele>
        <time>2011-04-09T08:36:49.000Z</time>
      </trkpt>
      <trkpt lat="48.72505" lon="1.81568">
        <ele>178.60000610352</ele>
        <time>2011-04-09T08:36:54.000Z</time>
      </trkpt>
      <trkpt lat="48.72499" lon="1.81585">
        <ele>178.80000305176</ele>
        <time>2011-04-09T08:37:07.000Z</time>
      </trkpt>
      <trkpt lat="48.72495" lon="1.81596">
        <ele>178.80000305176</ele>
        <time>2011-04-09T08:37:11.000Z</time>
      </trkpt>
      <trkpt lat="48.72493" lon="1.81603">
        <ele>178.60000610352</ele>
        <time>2011-04-09T08:37:15.000Z</time>
      </trkpt>
      <trkpt lat="48.72493" lon="1.81607">
        <ele>178.80000305176</ele>
        <time>2011-04-09T08:37:18.000Z</time>
      </trkpt>
      <trkpt lat="48.72489" lon="1.81616">
        <ele>178.60000610352</ele>
        <time>2011-04-09T08:37:22.000Z</time>
      </trkpt>
      <trkpt lat="48.72484" lon="1.81627">
        <ele>178.39999389648</ele>
        <time>2011-04-09T08:37:28.000Z</time>
      </trkpt>
      <trkpt lat="48.72483" lon="1.8163">
        <ele>178.39999389648</ele>
        <time>2011-04-09T08:37:29.000Z</time>
      </trkpt>
      <trkpt lat="48.72478" lon="1.81643">
        <ele>178.39999389648</ele>
        <time>2011-04-09T08:37:35.000Z</time>
      </trkpt>
      <trkpt lat="48.72475" lon="1.81655">
        <ele>178.39999389648</ele>
        <time>2011-04-09T08:37:40.000Z</time>
      </trkpt>
      <trkpt lat="48.72471" lon="1.81669">
        <ele>178.60000610352</ele>
        <time>2011-04-09T08:37:47.000Z</time>
      </trkpt>
      <trkpt lat="48.72467" lon="1.81681">
        <ele>178.80000305176</ele>
        <time>2011-04-09T08:37:53.000Z</time>
      </trkpt>
      <trkpt lat="48.72461" lon="1.81695">
        <ele>178.80000305176</ele>
        <time>2011-04-09T08:37:59.000Z</time>
      </trkpt>
      <trkpt lat="48.72457" lon="1.81706">
        <ele>179</ele>
        <time>2011-04-09T08:38:05.000Z</time>
      </trkpt>
      <trkpt lat="48.72454" lon="1.81715">
        <ele>179.19999694824</ele>
        <time>2011-04-09T08:38:11.000Z</time>
      </trkpt>
      <trkpt lat="48.72453" lon="1.81718">
        <ele>179.19999694824</ele>
        <time>2011-04-09T08:38:12.000Z</time>
      </trkpt>
      <trkpt lat="48.72447" lon="1.81738">
        <ele>179.39999389648</ele>
        <time>2011-04-09T08:38:21.000Z</time>
      </trkpt>
      <trkpt lat="48.72445" lon="1.81745">
        <ele>179.39999389648</ele>
        <time>2011-04-09T08:38:26.000Z</time>
      </trkpt>
      <trkpt lat="48.72441" lon="1.8176">
        <ele>179.60000610352</ele>
        <time>2011-04-09T08:38:33.000Z</time>
      </trkpt>
      <trkpt lat="48.72438" lon="1.81768">
        <ele>179.39999389648</ele>
        <time>2011-04-09T08:38:39.000Z</time>
      </trkpt>
      <trkpt lat="48.72436" lon="1.81779">
        <ele>179.60000610352</ele>
        <time>2011-04-09T08:38:46.000Z</time>
      </trkpt>
      <trkpt lat="48.72433" lon="1.81793">
        <ele>179.60000610352</ele>
        <time>2011-04-09T08:38:52.000Z</time>
      </trkpt>
      <trkpt lat="48.72425" lon="1.81799">
        <ele>179.39999389648</ele>
        <time>2011-04-09T08:38:58.000Z</time>
      </trkpt>
      <trkpt lat="48.72418" lon="1.81811">
        <ele>179.39999389648</ele>
        <time>2011-04-09T08:39:04.000Z</time>
      </trkpt>
      <trkpt lat="48.72416" lon="1.81823">
        <ele>179.60000610352</ele>
        <time>2011-04-09T08:39:10.000Z</time>
      </trkpt>
      <trkpt lat="48.72412" lon="1.81837">
        <ele>179.60000610352</ele>
        <time>2011-04-09T08:39:16.000Z</time>
      </trkpt>
      <trkpt lat="48.72406" lon="1.81851">
        <ele>179.19999694824</ele>
        <time>2011-04-09T08:39:22.000Z</time>
      </trkpt>
      <trkpt lat="48.72401" lon="1.81864">
        <ele>179.19999694824</ele>
        <time>2011-04-09T08:39:28.000Z</time>
      </trkpt>
      <trkpt lat="48.724" lon="1.81871">
        <ele>179.19999694824</ele>
        <time>2011-04-09T08:39:32.000Z</time>
      </trkpt>
      <trkpt lat="48.72399" lon="1.81879">
        <ele>179.39999389648</ele>
        <time>2011-04-09T08:39:37.000Z</time>
      </trkpt>
      <trkpt lat="48.72401" lon="1.81892">
        <ele>179.80000305176</ele>
        <time>2011-04-09T08:39:44.000Z</time>
      </trkpt>
      <trkpt lat="48.72399" lon="1.81897">
        <ele>179.80000305176</ele>
        <time>2011-04-09T08:39:46.000Z</time>
      </trkpt>
      <trkpt lat="48.72392" lon="1.81914">
        <ele>179.39999389648</ele>
        <time>2011-04-09T08:39:53.000Z</time>
      </trkpt>
      <trkpt lat="48.72391" lon="1.81915">
        <ele>179.39999389648</ele>
        <time>2011-04-09T08:39:54.000Z</time>
      </trkpt>
      <trkpt lat="48.72387" lon="1.81929">
        <ele>179.39999389648</ele>
        <time>2011-04-09T08:40:01.000Z</time>
      </trkpt>
      <trkpt lat="48.72383" lon="1.81939">
        <ele>179.19999694824</ele>
        <time>2011-04-09T08:40:06.000Z</time>
      </trkpt>
      <trkpt lat="48.72381" lon="1.81953">
        <ele>179.19999694824</ele>
        <time>2011-04-09T08:40:13.000Z</time>
      </trkpt>
      <trkpt lat="48.72378" lon="1.81968">
        <ele>179.39999389648</ele>
        <time>2011-04-09T08:40:20.000Z</time>
      </trkpt>
      <trkpt lat="48.72376" lon="1.81971">
        <ele>179.19999694824</ele>
        <time>2011-04-09T08:40:22.000Z</time>
      </trkpt>
      <trkpt lat="48.72371" lon="1.8198">
        <ele>179</ele>
        <time>2011-04-09T08:40:28.000Z</time>
      </trkpt>
      <trkpt lat="48.72368" lon="1.81984">
        <ele>179</ele>
        <time>2011-04-09T08:40:31.000Z</time>
      </trkpt>
      <trkpt lat="48.72362" lon="1.81997">
        <ele>179</ele>
        <time>2011-04-09T08:40:38.000Z</time>
      </trkpt>
      <trkpt lat="48.72359" lon="1.82006">
        <ele>178.80000305176</ele>
        <time>2011-04-09T08:40:43.000Z</time>
      </trkpt>
      <trkpt lat="48.72358" lon="1.82011">
        <ele>178.80000305176</ele>
        <time>2011-04-09T08:40:47.000Z</time>
      </trkpt>
      <trkpt lat="48.72354" lon="1.82019">
        <ele>178.80000305176</ele>
        <time>2011-04-09T08:40:53.000Z</time>
      </trkpt>
      <trkpt lat="48.7235" lon="1.82037">
        <ele>178.80000305176</ele>
        <time>2011-04-09T08:41:00.000Z</time>
      </trkpt>
      <trkpt lat="48.72345" lon="1.82046">
        <ele>178.80000305176</ele>
        <time>2011-04-09T08:41:06.000Z</time>
      </trkpt>
      <trkpt lat="48.72339" lon="1.82069">
        <ele>179</ele>
        <time>2011-04-09T08:41:14.000Z</time>
      </trkpt>
      <trkpt lat="48.72337" lon="1.82078">
        <ele>179</ele>
        <time>2011-04-09T08:41:18.000Z</time>
      </trkpt>
      <trkpt lat="48.72331" lon="1.82095">
        <ele>179</ele>
        <time>2011-04-09T08:41:27.000Z</time>
      </trkpt>
      <trkpt lat="48.72327" lon="1.8211">
        <ele>179.19999694824</ele>
        <time>2011-04-09T08:41:34.000Z</time>
      </trkpt>
      <trkpt lat="48.72322" lon="1.82126">
        <ele>179.39999389648</ele>
        <time>2011-04-09T08:41:42.000Z</time>
      </trkpt>
      <trkpt lat="48.7232" lon="1.82132">
        <ele>179.39999389648</ele>
        <time>2011-04-09T08:41:45.000Z</time>
      </trkpt>
      <trkpt lat="48.72314" lon="1.82148">
        <ele>179.60000610352</ele>
        <time>2011-04-09T08:41:54.000Z</time>
      </trkpt>
      <trkpt lat="48.7231" lon="1.8216">
        <ele>179.80000305176</ele>
        <time>2011-04-09T08:42:00.000Z</time>
      </trkpt>
      <trkpt lat="48.72305" lon="1.82174">
        <ele>179.80000305176</ele>
        <time>2011-04-09T08:42:07.000Z</time>
      </trkpt>
      <trkpt lat="48.72299" lon="1.82188">
        <ele>179.19999694824</ele>
        <time>2011-04-09T08:42:14.000Z</time>
      </trkpt>
      <trkpt lat="48.72294" lon="1.82201">
        <ele>178.80000305176</ele>
        <time>2011-04-09T08:42:21.000Z</time>
      </trkpt>
      <trkpt lat="48.72289" lon="1.82211">
        <ele>178.60000610352</ele>
        <time>2011-04-09T08:42:27.000Z</time>
      </trkpt>
      <trkpt lat="48.72283" lon="1.82226">
        <ele>178</ele>
        <time>2011-04-09T08:42:35.000Z</time>
      </trkpt>
      <trkpt lat="48.72278" lon="1.82235">
        <ele>177.80000305176</ele>
        <time>2011-04-09T08:42:41.000Z</time>
      </trkpt>
      <trkpt lat="48.72278" lon="1.82235">
        <ele>177.80000305176</ele>
        <time>2011-04-09T08:42:42.000Z</time>
      </trkpt>
      <trkpt lat="48.72277" lon="1.82237">
        <ele>177.80000305176</ele>
        <time>2011-04-09T08:42:46.000Z</time>
      </trkpt>
      <trkpt lat="48.72272" lon="1.82245">
        <ele>177.39999389648</ele>
        <time>2011-04-09T08:42:55.000Z</time>
      </trkpt>
      <trkpt lat="48.72271" lon="1.82248">
        <ele>177.39999389648</ele>
        <time>2011-04-09T08:42:56.000Z</time>
      </trkpt>
      <trkpt lat="48.72269" lon="1.82256">
        <ele>177.19999694824</ele>
        <time>2011-04-09T08:43:00.000Z</time>
      </trkpt>
      <trkpt lat="48.72266" lon="1.82267">
        <ele>176.60000610352</ele>
        <time>2011-04-09T08:43:07.000Z</time>
      </trkpt>
      <trkpt lat="48.72265" lon="1.82274">
        <ele>176.39999389648</ele>
        <time>2011-04-09T08:43:14.000Z</time>
      </trkpt>
      <trkpt lat="48.72268" lon="1.82278">
        <ele>176.19999694824</ele>
        <time>2011-04-09T08:43:19.000Z</time>
      </trkpt>
      <trkpt lat="48.72272" lon="1.82279">
        <ele>176.19999694824</ele>
        <time>2011-04-09T08:43:23.000Z</time>
      </trkpt>
      <trkpt lat="48.72282" lon="1.8228">
        <ele>176.39999389648</ele>
        <time>2011-04-09T08:43:31.000Z</time>
      </trkpt>
      <trkpt lat="48.7229" lon="1.82278">
        <ele>176.60000610352</ele>
        <time>2011-04-09T08:43:37.000Z</time>
      </trkpt>
      <trkpt lat="48.72298" lon="1.82275">
        <ele>176.80000305176</ele>
        <time>2011-04-09T08:43:44.000Z</time>
      </trkpt>
      <trkpt lat="48.72309" lon="1.82268">
        <ele>177.39999389648</ele>
        <time>2011-04-09T08:43:53.000Z</time>
      </trkpt>
      <trkpt lat="48.72318" lon="1.82261">
        <ele>177.80000305176</ele>
        <time>2011-04-09T08:43:58.000Z</time>
      </trkpt>
      <trkpt lat="48.72339" lon="1.82251">
        <ele>179</ele>
        <time>2011-04-09T08:44:04.000Z</time>
      </trkpt>
      <trkpt lat="48.72361" lon="1.82252">
        <ele>179.39999389648</ele>
        <time>2011-04-09T08:44:10.000Z</time>
      </trkpt>
      <trkpt lat="48.7238" lon="1.82256">
        <ele>179.60000610352</ele>
        <time>2011-04-09T08:44:15.000Z</time>
      </trkpt>
      <trkpt lat="48.724" lon="1.8226">
        <ele>179.80000305176</ele>
        <time>2011-04-09T08:44:21.000Z</time>
      </trkpt>
      <trkpt lat="48.72425" lon="1.82262">
        <ele>180.19999694824</ele>
        <time>2011-04-09T08:44:28.000Z</time>
      </trkpt>
      <trkpt lat="48.72455" lon="1.82265">
        <ele>180.80000305176</ele>
        <time>2011-04-09T08:44:36.000Z</time>
      </trkpt>
      <trkpt lat="48.72469" lon="1.82267">
        <ele>181</ele>
        <time>2011-04-09T08:44:40.000Z</time>
      </trkpt>
      <trkpt lat="48.72496" lon="1.82272">
        <ele>181.60000610352</ele>
        <time>2011-04-09T08:44:48.000Z</time>
      </trkpt>
      <trkpt lat="48.72517" lon="1.82275">
        <ele>181.60000610352</ele>
        <time>2011-04-09T08:44:54.000Z</time>
      </trkpt>
      <trkpt lat="48.7254" lon="1.82278">
        <ele>181.80000305176</ele>
        <time>2011-04-09T08:45:00.000Z</time>
      </trkpt>
      <trkpt lat="48.72574" lon="1.82281">
        <ele>182</ele>
        <time>2011-04-09T08:45:09.000Z</time>
      </trkpt>
      <trkpt lat="48.72592" lon="1.82285">
        <ele>181.80000305176</ele>
        <time>2011-04-09T08:45:14.000Z</time>
      </trkpt>
      <trkpt lat="48.72619" lon="1.82289">
        <ele>181.60000610352</ele>
        <time>2011-04-09T08:45:22.000Z</time>
      </trkpt>
      <trkpt lat="48.7264" lon="1.82291">
        <ele>181.39999389648</ele>
        <time>2011-04-09T08:45:28.000Z</time>
      </trkpt>
      <trkpt lat="48.72664" lon="1.82295">
        <ele>181.19999694824</ele>
        <time>2011-04-09T08:45:35.000Z</time>
      </trkpt>
      <trkpt lat="48.72687" lon="1.82297">
        <ele>181.60000610352</ele>
        <time>2011-04-09T08:45:42.000Z</time>
      </trkpt>
      <trkpt lat="48.72708" lon="1.823">
        <ele>182.19999694824</ele>
        <time>2011-04-09T08:45:49.000Z</time>
      </trkpt>
      <trkpt lat="48.72715" lon="1.82302">
        <ele>182.19999694824</ele>
        <time>2011-04-09T08:45:53.000Z</time>
      </trkpt>
      <trkpt lat="48.72717" lon="1.82306">
        <ele>182</ele>
        <time>2011-04-09T08:45:57.000Z</time>
      </trkpt>
      <trkpt lat="48.72719" lon="1.82307">
        <ele>182</ele>
        <time>2011-04-09T08:46:01.000Z</time>
      </trkpt>
      <trkpt lat="48.72723" lon="1.82313">
        <ele>181.60000610352</ele>
        <time>2011-04-09T08:46:08.000Z</time>
      </trkpt>
      <trkpt lat="48.72726" lon="1.82326">
        <ele>180.80000305176</ele>
        <time>2011-04-09T08:46:13.000Z</time>
      </trkpt>
      <trkpt lat="48.72724" lon="1.82343">
        <ele>180.19999694824</ele>
        <time>2011-04-09T08:46:20.000Z</time>
      </trkpt>
      <trkpt lat="48.72721" lon="1.82365">
        <ele>179.80000305176</ele>
        <time>2011-04-09T08:46:29.000Z</time>
      </trkpt>
      <trkpt lat="48.72721" lon="1.82367">
        <ele>179.80000305176</ele>
        <time>2011-04-09T08:46:30.000Z</time>
      </trkpt>
      <trkpt lat="48.72718" lon="1.82383">
        <ele>179.60000610352</ele>
        <time>2011-04-09T08:46:37.000Z</time>
      </trkpt>
      <trkpt lat="48.72717" lon="1.82397">
        <ele>179.39999389648</ele>
        <time>2011-04-09T08:46:43.000Z</time>
      </trkpt>
      <trkpt lat="48.72714" lon="1.82419">
        <ele>179.39999389648</ele>
        <time>2011-04-09T08:46:49.000Z</time>
      </trkpt>
      <trkpt lat="48.72712" lon="1.82449">
        <ele>179.80000305176</ele>
        <time>2011-04-09T08:46:54.000Z</time>
      </trkpt>
      <trkpt lat="48.7271" lon="1.82482">
        <ele>180.19999694824</ele>
        <time>2011-04-09T08:46:59.000Z</time>
      </trkpt>
      <trkpt lat="48.72708" lon="1.82499">
        <ele>180.39999389648</ele>
        <time>2011-04-09T08:47:01.000Z</time>
      </trkpt>
      <trkpt lat="48.72704" lon="1.82534">
        <ele>179.80000305176</ele>
        <time>2011-04-09T08:47:05.000Z</time>
      </trkpt>
      <trkpt lat="48.72697" lon="1.82594">
        <ele>178.80000305176</ele>
        <time>2011-04-09T08:47:12.000Z</time>
      </trkpt>
      <trkpt lat="48.72691" lon="1.82656">
        <ele>178</ele>
        <time>2011-04-09T08:47:19.000Z</time>
      </trkpt>
      <trkpt lat="48.72682" lon="1.82737">
        <ele>178.60000610352</ele>
        <time>2011-04-09T08:47:28.000Z</time>
      </trkpt>
      <trkpt lat="48.72676" lon="1.8279">
        <ele>178.39999389648</ele>
        <time>2011-04-09T08:47:34.000Z</time>
      </trkpt>
      <trkpt lat="48.72668" lon="1.82861">
        <ele>178</ele>
        <time>2011-04-09T08:47:42.000Z</time>
      </trkpt>
      <trkpt lat="48.72663" lon="1.82915">
        <ele>178</ele>
        <time>2011-04-09T08:47:48.000Z</time>
      </trkpt>
      <trkpt lat="48.72657" lon="1.82965">
        <ele>178.60000610352</ele>
        <time>2011-04-09T08:47:54.000Z</time>
      </trkpt>
      <trkpt lat="48.72652" lon="1.83008">
        <ele>179.19999694824</ele>
        <time>2011-04-09T08:47:59.000Z</time>
      </trkpt>
      <trkpt lat="48.72644" lon="1.83069">
        <ele>179.19999694824</ele>
        <time>2011-04-09T08:48:06.000Z</time>
      </trkpt>
      <trkpt lat="48.72638" lon="1.83131">
        <ele>179.60000610352</ele>
        <time>2011-04-09T08:48:13.000Z</time>
      </trkpt>
      <trkpt lat="48.72632" lon="1.83179">
        <ele>180</ele>
        <time>2011-04-09T08:48:19.000Z</time>
      </trkpt>
      <trkpt lat="48.72627" lon="1.83229">
        <ele>180.19999694824</ele>
        <time>2011-04-09T08:48:26.000Z</time>
      </trkpt>
      <trkpt lat="48.72622" lon="1.83271">
        <ele>181</ele>
        <time>2011-04-09T08:48:33.000Z</time>
      </trkpt>
      <trkpt lat="48.72621" lon="1.83293">
        <ele>181.80000305176</ele>
        <time>2011-04-09T08:48:37.000Z</time>
      </trkpt>
      <trkpt lat="48.72617" lon="1.8332">
        <ele>182.80000305176</ele>
        <time>2011-04-09T08:48:42.000Z</time>
      </trkpt>
      <trkpt lat="48.72615" lon="1.83343">
        <ele>183.39999389648</ele>
        <time>2011-04-09T08:48:46.000Z</time>
      </trkpt>
      <trkpt lat="48.72612" lon="1.83378">
        <ele>183.80000305176</ele>
        <time>2011-04-09T08:48:53.000Z</time>
      </trkpt>
      <trkpt lat="48.72608" lon="1.83408">
        <ele>184</ele>
        <time>2011-04-09T08:48:59.000Z</time>
      </trkpt>
      <trkpt lat="48.72605" lon="1.83437">
        <ele>183.80000305176</ele>
        <time>2011-04-09T08:49:05.000Z</time>
      </trkpt>
      <trkpt lat="48.72602" lon="1.83468">
        <ele>183.19999694824</ele>
        <time>2011-04-09T08:49:12.000Z</time>
      </trkpt>
      <trkpt lat="48.72599" lon="1.83496">
        <ele>182.60000610352</ele>
        <time>2011-04-09T08:49:21.000Z</time>
      </trkpt>
      <trkpt lat="48.72597" lon="1.83519">
        <ele>182.60000610352</ele>
        <time>2011-04-09T08:49:28.000Z</time>
      </trkpt>
      <trkpt lat="48.72597" lon="1.83538">
        <ele>182.80000305176</ele>
        <time>2011-04-09T08:49:34.000Z</time>
      </trkpt>
      <trkpt lat="48.72594" lon="1.83552">
        <ele>183</ele>
        <time>2011-04-09T08:49:42.000Z</time>
      </trkpt>
      <trkpt lat="48.72594" lon="1.83562">
        <ele>183.19999694824</ele>
        <time>2011-04-09T08:49:47.000Z</time>
      </trkpt>
      <trkpt lat="48.72591" lon="1.83573">
        <ele>183.39999389648</ele>
        <time>2011-04-09T08:49:53.000Z</time>
      </trkpt>
      <trkpt lat="48.72589" lon="1.83589">
        <ele>183.80000305176</ele>
        <time>2011-04-09T08:50:00.000Z</time>
      </trkpt>
      <trkpt lat="48.72587" lon="1.836">
        <ele>184.19999694824</ele>
        <time>2011-04-09T08:50:06.000Z</time>
      </trkpt>
      <trkpt lat="48.72586" lon="1.83617">
        <ele>185</ele>
        <time>2011-04-09T08:50:14.000Z</time>
      </trkpt>
      <trkpt lat="48.72586" lon="1.83619">
        <ele>185</ele>
        <time>2011-04-09T08:50:15.000Z</time>
      </trkpt>
      <trkpt lat="48.72584" lon="1.83635">
        <ele>185.60000610352</ele>
        <time>2011-04-09T08:50:23.000Z</time>
      </trkpt>
      <trkpt lat="48.72583" lon="1.83652">
        <ele>186.39999389648</ele>
        <time>2011-04-09T08:50:31.000Z</time>
      </trkpt>
      <trkpt lat="48.72582" lon="1.83666">
        <ele>186.80000305176</ele>
        <time>2011-04-09T08:50:37.000Z</time>
      </trkpt>
      <trkpt lat="48.72582" lon="1.83671">
        <ele>187</ele>
        <time>2011-04-09T08:50:40.000Z</time>
      </trkpt>
      <trkpt lat="48.72581" lon="1.83681">
        <ele>187.19999694824</ele>
        <time>2011-04-09T08:50:45.000Z</time>
      </trkpt>
      <trkpt lat="48.72582" lon="1.83687">
        <ele>187.39999389648</ele>
        <time>2011-04-09T08:50:48.000Z</time>
      </trkpt>
      <trkpt lat="48.72579" lon="1.837">
        <ele>187.80000305176</ele>
        <time>2011-04-09T08:50:54.000Z</time>
      </trkpt>
      <trkpt lat="48.72576" lon="1.83713">
        <ele>188</ele>
        <time>2011-04-09T08:50:59.000Z</time>
      </trkpt>
      <trkpt lat="48.72575" lon="1.83716">
        <ele>188.19999694824</ele>
        <time>2011-04-09T08:51:00.000Z</time>
      </trkpt>
      <trkpt lat="48.72575" lon="1.83734">
        <ele>188.60000610352</ele>
        <time>2011-04-09T08:51:08.000Z</time>
      </trkpt>
      <trkpt lat="48.72572" lon="1.83754">
        <ele>189</ele>
        <time>2011-04-09T08:51:17.000Z</time>
      </trkpt>
      <trkpt lat="48.72571" lon="1.83767">
        <ele>189.60000610352</ele>
        <time>2011-04-09T08:51:24.000Z</time>
      </trkpt>
      <trkpt lat="48.72569" lon="1.83778">
        <ele>190</ele>
        <time>2011-04-09T08:51:29.000Z</time>
      </trkpt>
      <trkpt lat="48.72566" lon="1.83788">
        <ele>190.39999389648</ele>
        <time>2011-04-09T08:51:36.000Z</time>
      </trkpt>
      <trkpt lat="48.72566" lon="1.83792">
        <ele>190.60000610352</ele>
        <time>2011-04-09T08:51:40.000Z</time>
      </trkpt>
      <trkpt lat="48.72568" lon="1.83803">
        <ele>191</ele>
        <time>2011-04-09T08:51:59.000Z</time>
      </trkpt>
      <trkpt lat="48.72566" lon="1.83809">
        <ele>191.39999389648</ele>
        <time>2011-04-09T08:52:04.000Z</time>
      </trkpt>
      <trkpt lat="48.72565" lon="1.83821">
        <ele>191.80000305176</ele>
        <time>2011-04-09T08:52:10.000Z</time>
      </trkpt>
      <trkpt lat="48.72564" lon="1.8383">
        <ele>192</ele>
        <time>2011-04-09T08:52:14.000Z</time>
      </trkpt>
      <trkpt lat="48.72562" lon="1.83849">
        <ele>192</ele>
        <time>2011-04-09T08:52:22.000Z</time>
      </trkpt>
      <trkpt lat="48.72561" lon="1.83857">
        <ele>192</ele>
        <time>2011-04-09T08:52:26.000Z</time>
      </trkpt>
      <trkpt lat="48.7256" lon="1.83872">
        <ele>192</ele>
        <time>2011-04-09T08:52:33.000Z</time>
      </trkpt>
      <trkpt lat="48.72559" lon="1.83883">
        <ele>192</ele>
        <time>2011-04-09T08:52:39.000Z</time>
      </trkpt>
      <trkpt lat="48.72558" lon="1.83894">
        <ele>192</ele>
        <time>2011-04-09T08:52:44.000Z</time>
      </trkpt>
      <trkpt lat="48.72556" lon="1.83906">
        <ele>192</ele>
        <time>2011-04-09T08:52:50.000Z</time>
      </trkpt>
      <trkpt lat="48.72555" lon="1.83914">
        <ele>191.80000305176</ele>
        <time>2011-04-09T08:52:53.000Z</time>
      </trkpt>
      <trkpt lat="48.72556" lon="1.83921">
        <ele>192</ele>
        <time>2011-04-09T08:52:57.000Z</time>
      </trkpt>
      <trkpt lat="48.72555" lon="1.83934">
        <ele>192</ele>
        <time>2011-04-09T08:53:04.000Z</time>
      </trkpt>
      <trkpt lat="48.72553" lon="1.83944">
        <ele>192</ele>
        <time>2011-04-09T08:53:09.000Z</time>
      </trkpt>
      <trkpt lat="48.72554" lon="1.83945">
        <ele>192</ele>
        <time>2011-04-09T08:53:10.000Z</time>
      </trkpt>
      <trkpt lat="48.72553" lon="1.83954">
        <ele>192</ele>
        <time>2011-04-09T08:53:18.000Z</time>
      </trkpt>
      <trkpt lat="48.72553" lon="1.8396">
        <ele>192</ele>
        <time>2011-04-09T08:53:21.000Z</time>
      </trkpt>
      <trkpt lat="48.72552" lon="1.83973">
        <ele>192.19999694824</ele>
        <time>2011-04-09T08:53:25.000Z</time>
      </trkpt>
      <trkpt lat="48.72552" lon="1.8398">
        <ele>192.19999694824</ele>
        <time>2011-04-09T08:53:27.000Z</time>
      </trkpt>
      <trkpt lat="48.7255" lon="1.8399">
        <ele>192.19999694824</ele>
        <time>2011-04-09T08:53:31.000Z</time>
      </trkpt>
      <trkpt lat="48.72545" lon="1.84023">
        <ele>192.39999389648</ele>
        <time>2011-04-09T08:53:36.000Z</time>
      </trkpt>
      <trkpt lat="48.72541" lon="1.84051">
        <ele>192.39999389648</ele>
        <time>2011-04-09T08:53:41.000Z</time>
      </trkpt>
      <trkpt lat="48.72535" lon="1.841">
        <ele>192</ele>
        <time>2011-04-09T08:53:49.000Z</time>
      </trkpt>
      <trkpt lat="48.72533" lon="1.84124">
        <ele>191.80000305176</ele>
        <time>2011-04-09T08:53:53.000Z</time>
      </trkpt>
      <trkpt lat="48.7253" lon="1.84158">
        <ele>191.39999389648</ele>
        <time>2011-04-09T08:54:00.000Z</time>
      </trkpt>
      <trkpt lat="48.72527" lon="1.84172">
        <ele>191.19999694824</ele>
        <time>2011-04-09T08:54:04.000Z</time>
      </trkpt>
      <trkpt lat="48.72525" lon="1.84196">
        <ele>190.80000305176</ele>
        <time>2011-04-09T08:54:08.000Z</time>
      </trkpt>
      <trkpt lat="48.72523" lon="1.8422">
        <ele>190.60000610352</ele>
        <time>2011-04-09T08:54:12.000Z</time>
      </trkpt>
      <trkpt lat="48.72517" lon="1.84243">
        <ele>190.60000610352</ele>
        <time>2011-04-09T08:54:16.000Z</time>
      </trkpt>
      <trkpt lat="48.72515" lon="1.84267">
        <ele>190.39999389648</ele>
        <time>2011-04-09T08:54:20.000Z</time>
      </trkpt>
      <trkpt lat="48.72515" lon="1.84299">
        <ele>190</ele>
        <time>2011-04-09T08:54:26.000Z</time>
      </trkpt>
      <trkpt lat="48.72516" lon="1.84338">
        <ele>189.80000305176</ele>
        <time>2011-04-09T08:54:33.000Z</time>
      </trkpt>
      <trkpt lat="48.72518" lon="1.8436">
        <ele>189.60000610352</ele>
        <time>2011-04-09T08:54:37.000Z</time>
      </trkpt>
      <trkpt lat="48.72522" lon="1.84387">
        <ele>189.60000610352</ele>
        <time>2011-04-09T08:54:42.000Z</time>
      </trkpt>
      <trkpt lat="48.72527" lon="1.84422">
        <ele>189.60000610352</ele>
        <time>2011-04-09T08:54:48.000Z</time>
      </trkpt>
      <trkpt lat="48.72529" lon="1.84442">
        <ele>190.19999694824</ele>
        <time>2011-04-09T08:54:51.000Z</time>
      </trkpt>
      <trkpt lat="48.72533" lon="1.84481">
        <ele>191</ele>
        <time>2011-04-09T08:54:58.000Z</time>
      </trkpt>
      <trkpt lat="48.72537" lon="1.84514">
        <ele>191.80000305176</ele>
        <time>2011-04-09T08:55:04.000Z</time>
      </trkpt>
      <trkpt lat="48.72539" lon="1.8454">
        <ele>192.19999694824</ele>
        <time>2011-04-09T08:55:09.000Z</time>
      </trkpt>
      <trkpt lat="48.72541" lon="1.84558">
        <ele>192.39999389648</ele>
        <time>2011-04-09T08:55:14.000Z</time>
      </trkpt>
      <trkpt lat="48.72543" lon="1.84576">
        <ele>192.80000305176</ele>
        <time>2011-04-09T08:55:19.000Z</time>
      </trkpt>
      <trkpt lat="48.72548" lon="1.84598">
        <ele>192.80000305176</ele>
        <time>2011-04-09T08:55:24.000Z</time>
      </trkpt>
      <trkpt lat="48.7255" lon="1.84618">
        <ele>192.80000305176</ele>
        <time>2011-04-09T08:55:30.000Z</time>
      </trkpt>
      <trkpt lat="48.72551" lon="1.84634">
        <ele>192.60000610352</ele>
        <time>2011-04-09T08:55:36.000Z</time>
      </trkpt>
      <trkpt lat="48.72553" lon="1.8465">
        <ele>192.60000610352</ele>
        <time>2011-04-09T08:55:43.000Z</time>
      </trkpt>
      <trkpt lat="48.72554" lon="1.84655">
        <ele>192.60000610352</ele>
        <time>2011-04-09T08:55:46.000Z</time>
      </trkpt>
      <trkpt lat="48.72555" lon="1.84668">
        <ele>192.60000610352</ele>
        <time>2011-04-09T08:55:52.000Z</time>
      </trkpt>
      <trkpt lat="48.72554" lon="1.84673">
        <ele>192.39999389648</ele>
        <time>2011-04-09T08:55:54.000Z</time>
      </trkpt>
      <trkpt lat="48.72556" lon="1.84689">
        <ele>191.80000305176</ele>
        <time>2011-04-09T08:56:02.000Z</time>
      </trkpt>
      <trkpt lat="48.72555" lon="1.84701">
        <ele>191.39999389648</ele>
        <time>2011-04-09T08:56:07.000Z</time>
      </trkpt>
      <trkpt lat="48.72556" lon="1.84711">
        <ele>191</ele>
        <time>2011-04-09T08:56:11.000Z</time>
      </trkpt>
      <trkpt lat="48.72557" lon="1.84719">
        <ele>190.60000610352</ele>
        <time>2011-04-09T08:56:14.000Z</time>
      </trkpt>
      <trkpt lat="48.72557" lon="1.84731">
        <ele>190.19999694824</ele>
        <time>2011-04-09T08:56:19.000Z</time>
      </trkpt>
      <trkpt lat="48.72558" lon="1.84734">
        <ele>190.19999694824</ele>
        <time>2011-04-09T08:56:21.000Z</time>
      </trkpt>
      <trkpt lat="48.72562" lon="1.84762">
        <ele>189.60000610352</ele>
        <time>2011-04-09T08:56:31.000Z</time>
      </trkpt>
      <trkpt lat="48.72564" lon="1.84779">
        <ele>189.39999389648</ele>
        <time>2011-04-09T08:56:38.000Z</time>
      </trkpt>
      <trkpt lat="48.72567" lon="1.84799">
        <ele>189.39999389648</ele>
        <time>2011-04-09T08:56:45.000Z</time>
      </trkpt>
      <trkpt lat="48.72568" lon="1.84814">
        <ele>189.19999694824</ele>
        <time>2011-04-09T08:56:51.000Z</time>
      </trkpt>
      <trkpt lat="48.72569" lon="1.84822">
        <ele>189.19999694824</ele>
        <time>2011-04-09T08:56:55.000Z</time>
      </trkpt>
      <trkpt lat="48.7257" lon="1.84831">
        <ele>189</ele>
        <time>2011-04-09T08:56:59.000Z</time>
      </trkpt>
      <trkpt lat="48.72572" lon="1.84848">
        <ele>188.80000305176</ele>
        <time>2011-04-09T08:57:06.000Z</time>
      </trkpt>
      <trkpt lat="48.72572" lon="1.8485">
        <ele>188.80000305176</ele>
        <time>2011-04-09T08:57:07.000Z</time>
      </trkpt>
      <trkpt lat="48.72573" lon="1.8486">
        <ele>188.80000305176</ele>
        <time>2011-04-09T08:57:12.000Z</time>
      </trkpt>
      <trkpt lat="48.72575" lon="1.84872">
        <ele>188.60000610352</ele>
        <time>2011-04-09T08:57:18.000Z</time>
      </trkpt>
      <trkpt lat="48.72576" lon="1.84875">
        <ele>188.60000610352</ele>
        <time>2011-04-09T08:57:19.000Z</time>
      </trkpt>
      <trkpt lat="48.72577" lon="1.8489">
        <ele>188.39999389648</ele>
        <time>2011-04-09T08:57:26.000Z</time>
      </trkpt>
      <trkpt lat="48.72578" lon="1.84899">
        <ele>188.19999694824</ele>
        <time>2011-04-09T08:57:29.000Z</time>
      </trkpt>
      <trkpt lat="48.72579" lon="1.84909">
        <ele>188</ele>
        <time>2011-04-09T08:57:33.000Z</time>
      </trkpt>
      <trkpt lat="48.7258" lon="1.84916">
        <ele>188</ele>
        <time>2011-04-09T08:57:36.000Z</time>
      </trkpt>
      <trkpt lat="48.72581" lon="1.84928">
        <ele>188</ele>
        <time>2011-04-09T08:57:42.000Z</time>
      </trkpt>
      <trkpt lat="48.72581" lon="1.84938">
        <ele>188.19999694824</ele>
        <time>2011-04-09T08:57:47.000Z</time>
      </trkpt>
      <trkpt lat="48.72582" lon="1.84953">
        <ele>188.39999389648</ele>
        <time>2011-04-09T08:57:54.000Z</time>
      </trkpt>
      <trkpt lat="48.72582" lon="1.84955">
        <ele>188.39999389648</ele>
        <time>2011-04-09T08:57:55.000Z</time>
      </trkpt>
      <trkpt lat="48.72582" lon="1.84964">
        <ele>188.39999389648</ele>
        <time>2011-04-09T08:57:59.000Z</time>
      </trkpt>
      <trkpt lat="48.72582" lon="1.84977">
        <ele>188.60000610352</ele>
        <time>2011-04-09T08:58:04.000Z</time>
      </trkpt>
      <trkpt lat="48.72583" lon="1.8499">
        <ele>188.80000305176</ele>
        <time>2011-04-09T08:58:10.000Z</time>
      </trkpt>
      <trkpt lat="48.72584" lon="1.85005">
        <ele>188.80000305176</ele>
        <time>2011-04-09T08:58:17.000Z</time>
      </trkpt>
      <trkpt lat="48.72586" lon="1.85013">
        <ele>188.80000305176</ele>
        <time>2011-04-09T08:58:21.000Z</time>
      </trkpt>
      <trkpt lat="48.72588" lon="1.85029">
        <ele>189</ele>
        <time>2011-04-09T08:58:28.000Z</time>
      </trkpt>
      <trkpt lat="48.72589" lon="1.85045">
        <ele>189.19999694824</ele>
        <time>2011-04-09T08:58:33.000Z</time>
      </trkpt>
      <trkpt lat="48.72591" lon="1.85057">
        <ele>189.19999694824</ele>
        <time>2011-04-09T08:58:39.000Z</time>
      </trkpt>
      <trkpt lat="48.72591" lon="1.85071">
        <ele>189.39999389648</ele>
        <time>2011-04-09T08:58:45.000Z</time>
      </trkpt>
      <trkpt lat="48.72592" lon="1.85085">
        <ele>189.39999389648</ele>
        <time>2011-04-09T08:58:52.000Z</time>
      </trkpt>
      <trkpt lat="48.72592" lon="1.85097">
        <ele>189.39999389648</ele>
        <time>2011-04-09T08:58:58.000Z</time>
      </trkpt>
      <trkpt lat="48.72595" lon="1.85113">
        <ele>189</ele>
        <time>2011-04-09T08:59:04.000Z</time>
      </trkpt>
      <trkpt lat="48.72601" lon="1.85134">
        <ele>188.80000305176</ele>
        <time>2011-04-09T08:59:12.000Z</time>
      </trkpt>
      <trkpt lat="48.72603" lon="1.85142">
        <ele>188.60000610352</ele>
        <time>2011-04-09T08:59:15.000Z</time>
      </trkpt>
      <trkpt lat="48.72609" lon="1.85164">
        <ele>188.19999694824</ele>
        <time>2011-04-09T08:59:24.000Z</time>
      </trkpt>
      <trkpt lat="48.72616" lon="1.85183">
        <ele>188.19999694824</ele>
        <time>2011-04-09T08:59:32.000Z</time>
      </trkpt>
      <trkpt lat="48.72621" lon="1.85197">
        <ele>188.19999694824</ele>
        <time>2011-04-09T08:59:38.000Z</time>
      </trkpt>
      <trkpt lat="48.72625" lon="1.85209">
        <ele>188.19999694824</ele>
        <time>2011-04-09T08:59:43.000Z</time>
      </trkpt>
      <trkpt lat="48.72631" lon="1.85228">
        <ele>188.19999694824</ele>
        <time>2011-04-09T08:59:50.000Z</time>
      </trkpt>
      <trkpt lat="48.72634" lon="1.85242">
        <ele>188.19999694824</ele>
        <time>2011-04-09T08:59:55.000Z</time>
      </trkpt>
      <trkpt lat="48.72638" lon="1.85258">
        <ele>188.19999694824</ele>
        <time>2011-04-09T09:00:01.000Z</time>
      </trkpt>
      <trkpt lat="48.72641" lon="1.85268">
        <ele>188.19999694824</ele>
        <time>2011-04-09T09:00:06.000Z</time>
      </trkpt>
      <trkpt lat="48.72643" lon="1.85275">
        <ele>188</ele>
        <time>2011-04-09T09:00:09.000Z</time>
      </trkpt>
      <trkpt lat="48.72648" lon="1.85289">
        <ele>188</ele>
        <time>2011-04-09T09:00:14.000Z</time>
      </trkpt>
      <trkpt lat="48.72649" lon="1.85299">
        <ele>188</ele>
        <time>2011-04-09T09:00:18.000Z</time>
      </trkpt>
      <trkpt lat="48.72654" lon="1.85312">
        <ele>188</ele>
        <time>2011-04-09T09:00:24.000Z</time>
      </trkpt>
      <trkpt lat="48.72657" lon="1.85326">
        <ele>188</ele>
        <time>2011-04-09T09:00:30.000Z</time>
      </trkpt>
      <trkpt lat="48.72661" lon="1.8534">
        <ele>187.80000305176</ele>
        <time>2011-04-09T09:00:36.000Z</time>
      </trkpt>
      <trkpt lat="48.72666" lon="1.85353">
        <ele>187.60000610352</ele>
        <time>2011-04-09T09:00:42.000Z</time>
      </trkpt>
      <trkpt lat="48.72667" lon="1.85358">
        <ele>187.60000610352</ele>
        <time>2011-04-09T09:00:44.000Z</time>
      </trkpt>
      <trkpt lat="48.72672" lon="1.85374">
        <ele>187.39999389648</ele>
        <time>2011-04-09T09:00:52.000Z</time>
      </trkpt>
      <trkpt lat="48.72676" lon="1.85392">
        <ele>187.19999694824</ele>
        <time>2011-04-09T09:00:59.000Z</time>
      </trkpt>
      <trkpt lat="48.72682" lon="1.8541">
        <ele>187</ele>
        <time>2011-04-09T09:01:06.000Z</time>
      </trkpt>
      <trkpt lat="48.72688" lon="1.85429">
        <ele>187</ele>
        <time>2011-04-09T09:01:13.000Z</time>
      </trkpt>
      <trkpt lat="48.72689" lon="1.85431">
        <ele>187</ele>
        <time>2011-04-09T09:01:14.000Z</time>
      </trkpt>
      <trkpt lat="48.72692" lon="1.8544">
        <ele>187</ele>
        <time>2011-04-09T09:01:18.000Z</time>
      </trkpt>
      <trkpt lat="48.72698" lon="1.85462">
        <ele>186.80000305176</ele>
        <time>2011-04-09T09:01:27.000Z</time>
      </trkpt>
      <trkpt lat="48.72704" lon="1.85481">
        <ele>186.60000610352</ele>
        <time>2011-04-09T09:01:35.000Z</time>
      </trkpt>
      <trkpt lat="48.72708" lon="1.85494">
        <ele>186.39999389648</ele>
        <time>2011-04-09T09:01:40.000Z</time>
      </trkpt>
      <trkpt lat="48.72711" lon="1.85508">
        <ele>186.19999694824</ele>
        <time>2011-04-09T09:01:45.000Z</time>
      </trkpt>
      <trkpt lat="48.72716" lon="1.85523">
        <ele>186.19999694824</ele>
        <time>2011-04-09T09:01:52.000Z</time>
      </trkpt>
      <trkpt lat="48.72719" lon="1.85538">
        <ele>186.19999694824</ele>
        <time>2011-04-09T09:01:58.000Z</time>
      </trkpt>
      <trkpt lat="48.72724" lon="1.85558">
        <ele>186</ele>
        <time>2011-04-09T09:02:06.000Z</time>
      </trkpt>
      <trkpt lat="48.7273" lon="1.85573">
        <ele>186</ele>
        <time>2011-04-09T09:02:13.000Z</time>
      </trkpt>
      <trkpt lat="48.72734" lon="1.85587">
        <ele>186</ele>
        <time>2011-04-09T09:02:19.000Z</time>
      </trkpt>
      <trkpt lat="48.72737" lon="1.85601">
        <ele>186</ele>
        <time>2011-04-09T09:02:25.000Z</time>
      </trkpt>
      <trkpt lat="48.72741" lon="1.85612">
        <ele>186</ele>
        <time>2011-04-09T09:02:30.000Z</time>
      </trkpt>
      <trkpt lat="48.72744" lon="1.85627">
        <ele>185.80000305176</ele>
        <time>2011-04-09T09:02:36.000Z</time>
      </trkpt>
      <trkpt lat="48.72745" lon="1.85634">
        <ele>185.80000305176</ele>
        <time>2011-04-09T09:02:38.000Z</time>
      </trkpt>
      <trkpt lat="48.72747" lon="1.85645">
        <ele>185.80000305176</ele>
        <time>2011-04-09T09:02:43.000Z</time>
      </trkpt>
      <trkpt lat="48.72751" lon="1.8566">
        <ele>185.80000305176</ele>
        <time>2011-04-09T09:02:50.000Z</time>
      </trkpt>
      <trkpt lat="48.72754" lon="1.85667">
        <ele>186</ele>
        <time>2011-04-09T09:02:53.000Z</time>
      </trkpt>
      <trkpt lat="48.72758" lon="1.85683">
        <ele>186.39999389648</ele>
        <time>2011-04-09T09:02:59.000Z</time>
      </trkpt>
      <trkpt lat="48.72764" lon="1.85701">
        <ele>186.80000305176</ele>
        <time>2011-04-09T09:03:06.000Z</time>
      </trkpt>
      <trkpt lat="48.72768" lon="1.8571">
        <ele>187</ele>
        <time>2011-04-09T09:03:10.000Z</time>
      </trkpt>
      <trkpt lat="48.72772" lon="1.85728">
        <ele>187.60000610352</ele>
        <time>2011-04-09T09:03:17.000Z</time>
      </trkpt>
      <trkpt lat="48.72775" lon="1.8574">
        <ele>188</ele>
        <time>2011-04-09T09:03:22.000Z</time>
      </trkpt>
      <trkpt lat="48.72779" lon="1.85757">
        <ele>188.39999389648</ele>
        <time>2011-04-09T09:03:29.000Z</time>
      </trkpt>
      <trkpt lat="48.72783" lon="1.85772">
        <ele>188.60000610352</ele>
        <time>2011-04-09T09:03:35.000Z</time>
      </trkpt>
      <trkpt lat="48.72788" lon="1.85785">
        <ele>189</ele>
        <time>2011-04-09T09:03:41.000Z</time>
      </trkpt>
      <trkpt lat="48.7279" lon="1.85789">
        <ele>189</ele>
        <time>2011-04-09T09:03:43.000Z</time>
      </trkpt>
      <trkpt lat="48.72795" lon="1.85803">
        <ele>189.39999389648</ele>
        <time>2011-04-09T09:03:49.000Z</time>
      </trkpt>
      <trkpt lat="48.72796" lon="1.85814">
        <ele>189.60000610352</ele>
        <time>2011-04-09T09:03:55.000Z</time>
      </trkpt>
      <trkpt lat="48.728" lon="1.85822">
        <ele>189.80000305176</ele>
        <time>2011-04-09T09:04:00.000Z</time>
      </trkpt>
      <trkpt lat="48.72805" lon="1.85835">
        <ele>190.19999694824</ele>
        <time>2011-04-09T09:04:06.000Z</time>
      </trkpt>
      <trkpt lat="48.72809" lon="1.85847">
        <ele>190.60000610352</ele>
        <time>2011-04-09T09:04:12.000Z</time>
      </trkpt>
      <trkpt lat="48.72813" lon="1.85858">
        <ele>190.80000305176</ele>
        <time>2011-04-09T09:04:16.000Z</time>
      </trkpt>
      <trkpt lat="48.72817" lon="1.85869">
        <ele>191</ele>
        <time>2011-04-09T09:04:20.000Z</time>
      </trkpt>
      <trkpt lat="48.72823" lon="1.85884">
        <ele>191.39999389648</ele>
        <time>2011-04-09T09:04:26.000Z</time>
      </trkpt>
      <trkpt lat="48.72828" lon="1.85903">
        <ele>191.60000610352</ele>
        <time>2011-04-09T09:04:33.000Z</time>
      </trkpt>
      <trkpt lat="48.72833" lon="1.85919">
        <ele>191.80000305176</ele>
        <time>2011-04-09T09:04:39.000Z</time>
      </trkpt>
      <trkpt lat="48.72834" lon="1.85925">
        <ele>191.80000305176</ele>
        <time>2011-04-09T09:04:41.000Z</time>
      </trkpt>
      <trkpt lat="48.72837" lon="1.85935">
        <ele>191.60000610352</ele>
        <time>2011-04-09T09:04:45.000Z</time>
      </trkpt>
      <trkpt lat="48.72842" lon="1.8595">
        <ele>191.39999389648</ele>
        <time>2011-04-09T09:04:51.000Z</time>
      </trkpt>
      <trkpt lat="48.72847" lon="1.85965">
        <ele>191.39999389648</ele>
        <time>2011-04-09T09:04:58.000Z</time>
      </trkpt>
      <trkpt lat="48.7285" lon="1.85976">
        <ele>191.19999694824</ele>
        <time>2011-04-09T09:05:03.000Z</time>
      </trkpt>
      <trkpt lat="48.72852" lon="1.85982">
        <ele>191.19999694824</ele>
        <time>2011-04-09T09:05:06.000Z</time>
      </trkpt>
      <trkpt lat="48.72856" lon="1.85991">
        <ele>191</ele>
        <time>2011-04-09T09:05:10.000Z</time>
      </trkpt>
      <trkpt lat="48.72861" lon="1.86007">
        <ele>190.80000305176</ele>
        <time>2011-04-09T09:05:16.000Z</time>
      </trkpt>
      <trkpt lat="48.72863" lon="1.8602">
        <ele>190.60000610352</ele>
        <time>2011-04-09T09:05:20.000Z</time>
      </trkpt>
      <trkpt lat="48.72868" lon="1.86042">
        <ele>190.39999389648</ele>
        <time>2011-04-09T09:05:28.000Z</time>
      </trkpt>
      <trkpt lat="48.7287" lon="1.86047">
        <ele>190.39999389648</ele>
        <time>2011-04-09T09:05:30.000Z</time>
      </trkpt>
      <trkpt lat="48.72875" lon="1.86057">
        <ele>190.19999694824</ele>
        <time>2011-04-09T09:05:35.000Z</time>
      </trkpt>
      <trkpt lat="48.72886" lon="1.86078">
        <ele>190</ele>
        <time>2011-04-09T09:05:45.000Z</time>
      </trkpt>
      <trkpt lat="48.72895" lon="1.86092">
        <ele>189.80000305176</ele>
        <time>2011-04-09T09:05:53.000Z</time>
      </trkpt>
      <trkpt lat="48.72905" lon="1.86105">
        <ele>189.80000305176</ele>
        <time>2011-04-09T09:06:00.000Z</time>
      </trkpt>
      <trkpt lat="48.72911" lon="1.86113">
        <ele>189.80000305176</ele>
        <time>2011-04-09T09:06:05.000Z</time>
      </trkpt>
      <trkpt lat="48.72918" lon="1.8612">
        <ele>189.80000305176</ele>
        <time>2011-04-09T09:06:10.000Z</time>
      </trkpt>
      <trkpt lat="48.72919" lon="1.86121">
        <ele>189.80000305176</ele>
        <time>2011-04-09T09:06:11.000Z</time>
      </trkpt>
      <trkpt lat="48.72928" lon="1.86128">
        <ele>189.80000305176</ele>
        <time>2011-04-09T09:06:17.000Z</time>
      </trkpt>
      <trkpt lat="48.72939" lon="1.86133">
        <ele>189.80000305176</ele>
        <time>2011-04-09T09:06:23.000Z</time>
      </trkpt>
      <trkpt lat="48.72949" lon="1.86139">
        <ele>189.60000610352</ele>
        <time>2011-04-09T09:06:29.000Z</time>
      </trkpt>
      <trkpt lat="48.72957" lon="1.86145">
        <ele>189.60000610352</ele>
        <time>2011-04-09T09:06:34.000Z</time>
      </trkpt>
      <trkpt lat="48.72965" lon="1.86152">
        <ele>189.39999389648</ele>
        <time>2011-04-09T09:06:39.000Z</time>
      </trkpt>
      <trkpt lat="48.72966" lon="1.86152">
        <ele>189.39999389648</ele>
        <time>2011-04-09T09:06:40.000Z</time>
      </trkpt>
      <trkpt lat="48.72974" lon="1.86157">
        <ele>189.19999694824</ele>
        <time>2011-04-09T09:06:45.000Z</time>
      </trkpt>
      <trkpt lat="48.72981" lon="1.86165">
        <ele>189.19999694824</ele>
        <time>2011-04-09T09:06:51.000Z</time>
      </trkpt>
      <trkpt lat="48.72986" lon="1.86169">
        <ele>189</ele>
        <time>2011-04-09T09:06:54.000Z</time>
      </trkpt>
      <trkpt lat="48.72997" lon="1.86178">
        <ele>188.80000305176</ele>
        <time>2011-04-09T09:07:02.000Z</time>
      </trkpt>
      <trkpt lat="48.73005" lon="1.86184">
        <ele>188.60000610352</ele>
        <time>2011-04-09T09:07:07.000Z</time>
      </trkpt>
      <trkpt lat="48.73011" lon="1.86191">
        <ele>188.39999389648</ele>
        <time>2011-04-09T09:07:13.000Z</time>
      </trkpt>
      <trkpt lat="48.73016" lon="1.86193">
        <ele>188.39999389648</ele>
        <time>2011-04-09T09:07:16.000Z</time>
      </trkpt>
      <trkpt lat="48.73018" lon="1.86194">
        <ele>188.39999389648</ele>
        <time>2011-04-09T09:07:18.000Z</time>
      </trkpt>
      <trkpt lat="48.73028" lon="1.86199">
        <ele>188.19999694824</ele>
        <time>2011-04-09T09:07:26.000Z</time>
      </trkpt>
      <trkpt lat="48.73029" lon="1.86199">
        <ele>188.19999694824</ele>
        <time>2011-04-09T09:07:27.000Z</time>
      </trkpt>
      <trkpt lat="48.73042" lon="1.86201">
        <ele>188</ele>
        <time>2011-04-09T09:07:34.000Z</time>
      </trkpt>
      <trkpt lat="48.73054" lon="1.86211">
        <ele>188.19999694824</ele>
        <time>2011-04-09T09:07:40.000Z</time>
      </trkpt>
      <trkpt lat="48.73061" lon="1.86216">
        <ele>188.19999694824</ele>
        <time>2011-04-09T09:07:44.000Z</time>
      </trkpt>
      <trkpt lat="48.73073" lon="1.8622">
        <ele>188.19999694824</ele>
        <time>2011-04-09T09:07:51.000Z</time>
      </trkpt>
      <trkpt lat="48.73086" lon="1.86231">
        <ele>188.39999389648</ele>
        <time>2011-04-09T09:07:58.000Z</time>
      </trkpt>
      <trkpt lat="48.73095" lon="1.86237">
        <ele>188.60000610352</ele>
        <time>2011-04-09T09:08:04.000Z</time>
      </trkpt>
      <trkpt lat="48.73097" lon="1.86237">
        <ele>188.60000610352</ele>
        <time>2011-04-09T09:08:05.000Z</time>
      </trkpt>
      <trkpt lat="48.7311" lon="1.86243">
        <ele>188.80000305176</ele>
        <time>2011-04-09T09:08:13.000Z</time>
      </trkpt>
      <trkpt lat="48.73121" lon="1.86253">
        <ele>188.80000305176</ele>
        <time>2011-04-09T09:08:19.000Z</time>
      </trkpt>
      <trkpt lat="48.73128" lon="1.8626">
        <ele>188.60000610352</ele>
        <time>2011-04-09T09:08:23.000Z</time>
      </trkpt>
      <trkpt lat="48.73138" lon="1.8627">
        <ele>188.19999694824</ele>
        <time>2011-04-09T09:08:29.000Z</time>
      </trkpt>
      <trkpt lat="48.73147" lon="1.86278">
        <ele>188</ele>
        <time>2011-04-09T09:08:34.000Z</time>
      </trkpt>
      <trkpt lat="48.73156" lon="1.86286">
        <ele>187.60000610352</ele>
        <time>2011-04-09T09:08:39.000Z</time>
      </trkpt>
      <trkpt lat="48.73164" lon="1.86291">
        <ele>187.39999389648</ele>
        <time>2011-04-09T09:08:45.000Z</time>
      </trkpt>
      <trkpt lat="48.73174" lon="1.86297">
        <ele>187.19999694824</ele>
        <time>2011-04-09T09:08:50.000Z</time>
      </trkpt>
      <trkpt lat="48.73183" lon="1.86304">
        <ele>187.19999694824</ele>
        <time>2011-04-09T09:08:56.000Z</time>
      </trkpt>
      <trkpt lat="48.73192" lon="1.86311">
        <ele>187</ele>
        <time>2011-04-09T09:09:01.000Z</time>
      </trkpt>
      <trkpt lat="48.73199" lon="1.86316">
        <ele>187</ele>
        <time>2011-04-09T09:09:05.000Z</time>
      </trkpt>
      <trkpt lat="48.73211" lon="1.86326">
        <ele>187</ele>
        <time>2011-04-09T09:09:11.000Z</time>
      </trkpt>
      <trkpt lat="48.73217" lon="1.8633">
        <ele>187.19999694824</ele>
        <time>2011-04-09T09:09:14.000Z</time>
      </trkpt>
      <trkpt lat="48.73223" lon="1.86334">
        <ele>187.19999694824</ele>
        <time>2011-04-09T09:09:18.000Z</time>
      </trkpt>
      <trkpt lat="48.73232" lon="1.86343">
        <ele>186.80000305176</ele>
        <time>2011-04-09T09:09:25.000Z</time>
      </trkpt>
      <trkpt lat="48.73236" lon="1.86346">
        <ele>186.80000305176</ele>
        <time>2011-04-09T09:09:28.000Z</time>
      </trkpt>
      <trkpt lat="48.73245" lon="1.86353">
        <ele>186.60000610352</ele>
        <time>2011-04-09T09:09:35.000Z</time>
      </trkpt>
      <trkpt lat="48.73248" lon="1.86352">
        <ele>186.80000305176</ele>
        <time>2011-04-09T09:09:37.000Z</time>
      </trkpt>
      <trkpt lat="48.73261" lon="1.8636">
        <ele>186</ele>
        <time>2011-04-09T09:09:45.000Z</time>
      </trkpt>
      <trkpt lat="48.73263" lon="1.86361">
        <ele>185.80000305176</ele>
        <time>2011-04-09T09:09:46.000Z</time>
      </trkpt>
      <trkpt lat="48.73274" lon="1.86367">
        <ele>185.19999694824</ele>
        <time>2011-04-09T09:09:53.000Z</time>
      </trkpt>
      <trkpt lat="48.73287" lon="1.86379">
        <ele>184</ele>
        <time>2011-04-09T09:10:01.000Z</time>
      </trkpt>
      <trkpt lat="48.73295" lon="1.86381">
        <ele>183.80000305176</ele>
        <time>2011-04-09T09:10:07.000Z</time>
      </trkpt>
      <trkpt lat="48.73303" lon="1.86376">
        <ele>183.80000305176</ele>
        <time>2011-04-09T09:10:13.000Z</time>
      </trkpt>
      <trkpt lat="48.73309" lon="1.86367">
        <ele>184</ele>
        <time>2011-04-09T09:10:20.000Z</time>
      </trkpt>
      <trkpt lat="48.7331" lon="1.8636">
        <ele>184.39999389648</ele>
        <time>2011-04-09T09:10:24.000Z</time>
      </trkpt>
      <trkpt lat="48.73311" lon="1.86359">
        <ele>184.39999389648</ele>
        <time>2011-04-09T09:10:25.000Z</time>
      </trkpt>
      <trkpt lat="48.73314" lon="1.86354">
        <ele>184.60000610352</ele>
        <time>2011-04-09T09:10:31.000Z</time>
      </trkpt>
      <trkpt lat="48.73314" lon="1.86352">
        <ele>184.60000610352</ele>
        <time>2011-04-09T09:10:32.000Z</time>
      </trkpt>
      <trkpt lat="48.73316" lon="1.86344">
        <ele>185</ele>
        <time>2011-04-09T09:10:36.000Z</time>
      </trkpt>
      <trkpt lat="48.73319" lon="1.86333">
        <ele>185.39999389648</ele>
        <time>2011-04-09T09:10:42.000Z</time>
      </trkpt>
      <trkpt lat="48.7332" lon="1.86322">
        <ele>185.80000305176</ele>
        <time>2011-04-09T09:10:49.000Z</time>
      </trkpt>
      <trkpt lat="48.73321" lon="1.86321">
        <ele>185.80000305176</ele>
        <time>2011-04-09T09:10:50.000Z</time>
      </trkpt>
      <trkpt lat="48.73323" lon="1.86312">
        <ele>186</ele>
        <time>2011-04-09T09:10:54.000Z</time>
      </trkpt>
      <trkpt lat="48.73326" lon="1.863">
        <ele>186.19999694824</ele>
        <time>2011-04-09T09:10:59.000Z</time>
      </trkpt>
      <trkpt lat="48.7333" lon="1.86285">
        <ele>186.60000610352</ele>
        <time>2011-04-09T09:11:06.000Z</time>
      </trkpt>
      <trkpt lat="48.73329" lon="1.86282">
        <ele>186.80000305176</ele>
        <time>2011-04-09T09:11:08.000Z</time>
      </trkpt>
      <trkpt lat="48.73331" lon="1.86274">
        <ele>187</ele>
        <time>2011-04-09T09:11:12.000Z</time>
      </trkpt>
      <trkpt lat="48.7333" lon="1.86271">
        <ele>187.19999694824</ele>
        <time>2011-04-09T09:11:14.000Z</time>
      </trkpt>
      <trkpt lat="48.73335" lon="1.86252">
        <ele>187.80000305176</ele>
        <time>2011-04-09T09:11:21.000Z</time>
      </trkpt>
      <trkpt lat="48.7334" lon="1.8624">
        <ele>187.80000305176</ele>
        <time>2011-04-09T09:11:27.000Z</time>
      </trkpt>
      <trkpt lat="48.73348" lon="1.86224">
        <ele>187.39999389648</ele>
        <time>2011-04-09T09:11:34.000Z</time>
      </trkpt>
      <trkpt lat="48.7335" lon="1.8622">
        <ele>187.39999389648</ele>
        <time>2011-04-09T09:11:36.000Z</time>
      </trkpt>
      <trkpt lat="48.73356" lon="1.86213">
        <ele>187</ele>
        <time>2011-04-09T09:11:40.000Z</time>
      </trkpt>
      <trkpt lat="48.73366" lon="1.86201">
        <ele>186.39999389648</ele>
        <time>2011-04-09T09:11:47.000Z</time>
      </trkpt>
      <trkpt lat="48.73367" lon="1.86199">
        <ele>186.19999694824</ele>
        <time>2011-04-09T09:11:48.000Z</time>
      </trkpt>
      <trkpt lat="48.73377" lon="1.86186">
        <ele>185.39999389648</ele>
        <time>2011-04-09T09:11:55.000Z</time>
      </trkpt>
      <trkpt lat="48.73381" lon="1.86173">
        <ele>185</ele>
        <time>2011-04-09T09:12:01.000Z</time>
      </trkpt>
      <trkpt lat="48.73382" lon="1.86165">
        <ele>184.80000305176</ele>
        <time>2011-04-09T09:12:05.000Z</time>
      </trkpt>
      <trkpt lat="48.73389" lon="1.86147">
        <ele>184.39999389648</ele>
        <time>2011-04-09T09:12:12.000Z</time>
      </trkpt>
      <trkpt lat="48.73394" lon="1.86133">
        <ele>184</ele>
        <time>2011-04-09T09:12:18.000Z</time>
      </trkpt>
      <trkpt lat="48.73397" lon="1.86126">
        <ele>183.80000305176</ele>
        <time>2011-04-09T09:12:22.000Z</time>
      </trkpt>
      <trkpt lat="48.73398" lon="1.86122">
        <ele>183.80000305176</ele>
        <time>2011-04-09T09:12:24.000Z</time>
      </trkpt>
      <trkpt lat="48.73404" lon="1.86108">
        <ele>183.39999389648</ele>
        <time>2011-04-09T09:12:29.000Z</time>
      </trkpt>
      <trkpt lat="48.73411" lon="1.86093">
        <ele>183.19999694824</ele>
        <time>2011-04-09T09:12:35.000Z</time>
      </trkpt>
      <trkpt lat="48.73417" lon="1.86079">
        <ele>183</ele>
        <time>2011-04-09T09:12:41.000Z</time>
      </trkpt>
      <trkpt lat="48.73422" lon="1.86065">
        <ele>182.80000305176</ele>
        <time>2011-04-09T09:12:47.000Z</time>
      </trkpt>
      <trkpt lat="48.73427" lon="1.86047">
        <ele>182.80000305176</ele>
        <time>2011-04-09T09:12:55.000Z</time>
      </trkpt>
      <trkpt lat="48.73432" lon="1.86032">
        <ele>182.60000610352</ele>
        <time>2011-04-09T09:13:01.000Z</time>
      </trkpt>
      <trkpt lat="48.73441" lon="1.86019">
        <ele>182</ele>
        <time>2011-04-09T09:13:07.000Z</time>
      </trkpt>
      <trkpt lat="48.73451" lon="1.86006">
        <ele>181</ele>
        <time>2011-04-09T09:13:15.000Z</time>
      </trkpt>
      <trkpt lat="48.73454" lon="1.85997">
        <ele>181</ele>
        <time>2011-04-09T09:13:19.000Z</time>
      </trkpt>
      <trkpt lat="48.73455" lon="1.85988">
        <ele>181</ele>
        <time>2011-04-09T09:13:25.000Z</time>
      </trkpt>
      <trkpt lat="48.73455" lon="1.85985">
        <ele>181</ele>
        <time>2011-04-09T09:13:26.000Z</time>
      </trkpt>
      <trkpt lat="48.73455" lon="1.85972">
        <ele>181.19999694824</ele>
        <time>2011-04-09T09:13:31.000Z</time>
      </trkpt>
      <trkpt lat="48.73454" lon="1.85966">
        <ele>181.39999389648</ele>
        <time>2011-04-09T09:13:33.000Z</time>
      </trkpt>
      <trkpt lat="48.73453" lon="1.85956">
        <ele>181.60000610352</ele>
        <time>2011-04-09T09:13:37.000Z</time>
      </trkpt>
      <trkpt lat="48.73452" lon="1.85951">
        <ele>181.80000305176</ele>
        <time>2011-04-09T09:13:40.000Z</time>
      </trkpt>
      <trkpt lat="48.73453" lon="1.85937">
        <ele>181.80000305176</ele>
        <time>2011-04-09T09:13:44.000Z</time>
      </trkpt>
      <trkpt lat="48.73456" lon="1.85918">
        <ele>182</ele>
        <time>2011-04-09T09:13:51.000Z</time>
      </trkpt>
      <trkpt lat="48.73457" lon="1.85911">
        <ele>182.19999694824</ele>
        <time>2011-04-09T09:13:53.000Z</time>
      </trkpt>
      <trkpt lat="48.7346" lon="1.85899">
        <ele>182.19999694824</ele>
        <time>2011-04-09T09:13:58.000Z</time>
      </trkpt>
      <trkpt lat="48.73463" lon="1.85889">
        <ele>182.39999389648</ele>
        <time>2011-04-09T09:14:03.000Z</time>
      </trkpt>
      <trkpt lat="48.73462" lon="1.85884">
        <ele>182.60000610352</ele>
        <time>2011-04-09T09:14:05.000Z</time>
      </trkpt>
      <trkpt lat="48.73464" lon="1.85869">
        <ele>182.80000305176</ele>
        <time>2011-04-09T09:14:11.000Z</time>
      </trkpt>
      <trkpt lat="48.73467" lon="1.8586">
        <ele>183</ele>
        <time>2011-04-09T09:14:15.000Z</time>
      </trkpt>
      <trkpt lat="48.73473" lon="1.85855">
        <ele>183</ele>
        <time>2011-04-09T09:14:20.000Z</time>
      </trkpt>
      <trkpt lat="48.7348" lon="1.85842">
        <ele>183.19999694824</ele>
        <time>2011-04-09T09:14:26.000Z</time>
      </trkpt>
      <trkpt lat="48.73488" lon="1.85829">
        <ele>183.19999694824</ele>
        <time>2011-04-09T09:14:33.000Z</time>
      </trkpt>
      <trkpt lat="48.73498" lon="1.85816">
        <ele>183.19999694824</ele>
        <time>2011-04-09T09:14:40.000Z</time>
      </trkpt>
      <trkpt lat="48.73508" lon="1.85808">
        <ele>183</ele>
        <time>2011-04-09T09:14:45.000Z</time>
      </trkpt>
      <trkpt lat="48.73519" lon="1.85797">
        <ele>182.80000305176</ele>
        <time>2011-04-09T09:14:51.000Z</time>
      </trkpt>
      <trkpt lat="48.73522" lon="1.85789">
        <ele>182.80000305176</ele>
        <time>2011-04-09T09:14:56.000Z</time>
      </trkpt>
      <trkpt lat="48.73532" lon="1.85775">
        <ele>182.80000305176</ele>
        <time>2011-04-09T09:15:04.000Z</time>
      </trkpt>
      <trkpt lat="48.7353" lon="1.85763">
        <ele>183</ele>
        <time>2011-04-09T09:15:11.000Z</time>
      </trkpt>
      <trkpt lat="48.73528" lon="1.85753">
        <ele>183.19999694824</ele>
        <time>2011-04-09T09:15:16.000Z</time>
      </trkpt>
      <trkpt lat="48.73528" lon="1.85752">
        <ele>183.19999694824</ele>
        <time>2011-04-09T09:15:19.000Z</time>
      </trkpt>
      <trkpt lat="48.73528" lon="1.85736">
        <ele>183.39999389648</ele>
        <time>2011-04-09T09:15:41.000Z</time>
      </trkpt>
      <trkpt lat="48.73526" lon="1.85724">
        <ele>183.60000610352</ele>
        <time>2011-04-09T09:15:46.000Z</time>
      </trkpt>
      <trkpt lat="48.73523" lon="1.85717">
        <ele>183.80000305176</ele>
        <time>2011-04-09T09:15:50.000Z</time>
      </trkpt>
      <trkpt lat="48.73522" lon="1.85713">
        <ele>184</ele>
        <time>2011-04-09T09:15:52.000Z</time>
      </trkpt>
      <trkpt lat="48.73517" lon="1.857">
        <ele>184.19999694824</ele>
        <time>2011-04-09T09:15:58.000Z</time>
      </trkpt>
      <trkpt lat="48.73517" lon="1.85687">
        <ele>184.39999389648</ele>
        <time>2011-04-09T09:16:03.000Z</time>
      </trkpt>
      <trkpt lat="48.73516" lon="1.8568">
        <ele>184.60000610352</ele>
        <time>2011-04-09T09:16:06.000Z</time>
      </trkpt>
      <trkpt lat="48.73514" lon="1.8567">
        <ele>184.60000610352</ele>
        <time>2011-04-09T09:16:10.000Z</time>
      </trkpt>
      <trkpt lat="48.73512" lon="1.85663">
        <ele>184.80000305176</ele>
        <time>2011-04-09T09:16:13.000Z</time>
      </trkpt>
      <trkpt lat="48.73512" lon="1.85647">
        <ele>184.80000305176</ele>
        <time>2011-04-09T09:16:19.000Z</time>
      </trkpt>
      <trkpt lat="48.7351" lon="1.85642">
        <ele>184.80000305176</ele>
        <time>2011-04-09T09:16:21.000Z</time>
      </trkpt>
      <trkpt lat="48.73505" lon="1.8562">
        <ele>184.80000305176</ele>
        <time>2011-04-09T09:16:30.000Z</time>
      </trkpt>
      <trkpt lat="48.73502" lon="1.85604">
        <ele>184.80000305176</ele>
        <time>2011-04-09T09:16:37.000Z</time>
      </trkpt>
      <trkpt lat="48.73502" lon="1.85599">
        <ele>184.80000305176</ele>
        <time>2011-04-09T09:16:39.000Z</time>
      </trkpt>
      <trkpt lat="48.735" lon="1.85586">
        <ele>185</ele>
        <time>2011-04-09T09:16:46.000Z</time>
      </trkpt>
      <trkpt lat="48.73498" lon="1.85578">
        <ele>184.80000305176</ele>
        <time>2011-04-09T09:16:51.000Z</time>
      </trkpt>
      <trkpt lat="48.73498" lon="1.85578">
        <ele>184.80000305176</ele>
        <time>2011-04-09T09:16:53.000Z</time>
      </trkpt>
      <trkpt lat="48.73497" lon="1.85571">
        <ele>184.80000305176</ele>
        <time>2011-04-09T09:17:00.000Z</time>
      </trkpt>
      <trkpt lat="48.73493" lon="1.85558">
        <ele>184.60000610352</ele>
        <time>2011-04-09T09:17:05.000Z</time>
      </trkpt>
      <trkpt lat="48.73492" lon="1.85546">
        <ele>184.39999389648</ele>
        <time>2011-04-09T09:17:10.000Z</time>
      </trkpt>
      <trkpt lat="48.73489" lon="1.85529">
        <ele>184.19999694824</ele>
        <time>2011-04-09T09:17:17.000Z</time>
      </trkpt>
      <trkpt lat="48.73488" lon="1.85523">
        <ele>184</ele>
        <time>2011-04-09T09:17:19.000Z</time>
      </trkpt>
      <trkpt lat="48.73486" lon="1.85509">
        <ele>183.80000305176</ele>
        <time>2011-04-09T09:17:25.000Z</time>
      </trkpt>
      <trkpt lat="48.73483" lon="1.85495">
        <ele>183.60000610352</ele>
        <time>2011-04-09T09:17:31.000Z</time>
      </trkpt>
      <trkpt lat="48.73482" lon="1.85491">
        <ele>183.39999389648</ele>
        <time>2011-04-09T09:17:35.000Z</time>
      </trkpt>
      <trkpt lat="48.73482" lon="1.85487">
        <ele>183.39999389648</ele>
        <time>2011-04-09T09:17:38.000Z</time>
      </trkpt>
      <trkpt lat="48.73481" lon="1.85485">
        <ele>183.39999389648</ele>
        <time>2011-04-09T09:17:39.000Z</time>
      </trkpt>
      <trkpt lat="48.73479" lon="1.85467">
        <ele>183</ele>
        <time>2011-04-09T09:17:45.000Z</time>
      </trkpt>
      <trkpt lat="48.73477" lon="1.85451">
        <ele>182.60000610352</ele>
        <time>2011-04-09T09:17:51.000Z</time>
      </trkpt>
      <trkpt lat="48.73476" lon="1.85449">
        <ele>182.60000610352</ele>
        <time>2011-04-09T09:17:52.000Z</time>
      </trkpt>
      <trkpt lat="48.73473" lon="1.85437">
        <ele>182.39999389648</ele>
        <time>2011-04-09T09:17:57.000Z</time>
      </trkpt>
      <trkpt lat="48.73471" lon="1.85431">
        <ele>182.19999694824</ele>
        <time>2011-04-09T09:18:00.000Z</time>
      </trkpt>
      <trkpt lat="48.73469" lon="1.85424">
        <ele>182</ele>
        <time>2011-04-09T09:18:03.000Z</time>
      </trkpt>
      <trkpt lat="48.73467" lon="1.85404">
        <ele>181.19999694824</ele>
        <time>2011-04-09T09:18:11.000Z</time>
      </trkpt>
      <trkpt lat="48.73465" lon="1.85388">
        <ele>180.19999694824</ele>
        <time>2011-04-09T09:18:18.000Z</time>
      </trkpt>
      <trkpt lat="48.73465" lon="1.85381">
        <ele>179.80000305176</ele>
        <time>2011-04-09T09:18:21.000Z</time>
      </trkpt>
      <trkpt lat="48.73464" lon="1.85365">
        <ele>179</ele>
        <time>2011-04-09T09:18:28.000Z</time>
      </trkpt>
      <trkpt lat="48.73461" lon="1.85354">
        <ele>178.39999389648</ele>
        <time>2011-04-09T09:18:33.000Z</time>
      </trkpt>
      <trkpt lat="48.73458" lon="1.8534">
        <ele>177.80000305176</ele>
        <time>2011-04-09T09:18:40.000Z</time>
      </trkpt>
      <trkpt lat="48.73456" lon="1.85325">
        <ele>176.80000305176</ele>
        <time>2011-04-09T09:18:46.000Z</time>
      </trkpt>
      <trkpt lat="48.73455" lon="1.85321">
        <ele>176.39999389648</ele>
        <time>2011-04-09T09:18:48.000Z</time>
      </trkpt>
      <trkpt lat="48.73451" lon="1.85306">
        <ele>175.19999694824</ele>
        <time>2011-04-09T09:18:55.000Z</time>
      </trkpt>
      <trkpt lat="48.73448" lon="1.8529">
        <ele>173.60000610352</ele>
        <time>2011-04-09T09:19:01.000Z</time>
      </trkpt>
      <trkpt lat="48.73447" lon="1.85277">
        <ele>172.39999389648</ele>
        <time>2011-04-09T09:19:07.000Z</time>
      </trkpt>
      <trkpt lat="48.73442" lon="1.85263">
        <ele>171.19999694824</ele>
        <time>2011-04-09T09:19:14.000Z</time>
      </trkpt>
      <trkpt lat="48.73441" lon="1.8525">
        <ele>169.80000305176</ele>
        <time>2011-04-09T09:19:21.000Z</time>
      </trkpt>
      <trkpt lat="48.7344" lon="1.85244">
        <ele>169.60000610352</ele>
        <time>2011-04-09T09:19:25.000Z</time>
      </trkpt>
      <trkpt lat="48.73439" lon="1.85236">
        <ele>169.39999389648</ele>
        <time>2011-04-09T09:19:29.000Z</time>
      </trkpt>
      <trkpt lat="48.73435" lon="1.85224">
        <ele>169</ele>
        <time>2011-04-09T09:19:36.000Z</time>
      </trkpt>
      <trkpt lat="48.73434" lon="1.85218">
        <ele>168.80000305176</ele>
        <time>2011-04-09T09:19:39.000Z</time>
      </trkpt>
      <trkpt lat="48.73432" lon="1.85207">
        <ele>168.39999389648</ele>
        <time>2011-04-09T09:19:44.000Z</time>
      </trkpt>
      <trkpt lat="48.73431" lon="1.85194">
        <ele>167.80000305176</ele>
        <time>2011-04-09T09:19:50.000Z</time>
      </trkpt>
      <trkpt lat="48.7343" lon="1.85192">
        <ele>167.80000305176</ele>
        <time>2011-04-09T09:19:51.000Z</time>
      </trkpt>
      <trkpt lat="48.73431" lon="1.85175">
        <ele>167.19999694824</ele>
        <time>2011-04-09T09:19:58.000Z</time>
      </trkpt>
      <trkpt lat="48.73432" lon="1.85173">
        <ele>167.19999694824</ele>
        <time>2011-04-09T09:19:59.000Z</time>
      </trkpt>
      <trkpt lat="48.73437" lon="1.85175">
        <ele>167.19999694824</ele>
        <time>2011-04-09T09:20:06.000Z</time>
      </trkpt>
      <trkpt lat="48.73439" lon="1.85176">
        <ele>167.19999694824</ele>
        <time>2011-04-09T09:20:07.000Z</time>
      </trkpt>
      <trkpt lat="48.73445" lon="1.85183">
        <ele>167.60000610352</ele>
        <time>2011-04-09T09:20:12.000Z</time>
      </trkpt>
      <trkpt lat="48.73453" lon="1.85191">
        <ele>167.80000305176</ele>
        <time>2011-04-09T09:20:19.000Z</time>
      </trkpt>
      <trkpt lat="48.7346" lon="1.85195">
        <ele>168</ele>
        <time>2011-04-09T09:20:26.000Z</time>
      </trkpt>
      <trkpt lat="48.73471" lon="1.85205">
        <ele>168.19999694824</ele>
        <time>2011-04-09T09:20:32.000Z</time>
      </trkpt>
      <trkpt lat="48.73478" lon="1.85214">
        <ele>168.60000610352</ele>
        <time>2011-04-09T09:20:37.000Z</time>
      </trkpt>
      <trkpt lat="48.73486" lon="1.85215">
        <ele>168.60000610352</ele>
        <time>2011-04-09T09:20:43.000Z</time>
      </trkpt>
      <trkpt lat="48.73488" lon="1.85215">
        <ele>168.60000610352</ele>
        <time>2011-04-09T09:20:45.000Z</time>
      </trkpt>
      <trkpt lat="48.73496" lon="1.85217">
        <ele>168.80000305176</ele>
        <time>2011-04-09T09:20:51.000Z</time>
      </trkpt>
      <trkpt lat="48.73502" lon="1.85226">
        <ele>169</ele>
        <time>2011-04-09T09:20:55.000Z</time>
      </trkpt>
      <trkpt lat="48.73507" lon="1.85232">
        <ele>169</ele>
        <time>2011-04-09T09:20:59.000Z</time>
      </trkpt>
      <trkpt lat="48.73518" lon="1.85244">
        <ele>169.19999694824</ele>
        <time>2011-04-09T09:21:07.000Z</time>
      </trkpt>
      <trkpt lat="48.73522" lon="1.85248">
        <ele>169</ele>
        <time>2011-04-09T09:21:11.000Z</time>
      </trkpt>
      <trkpt lat="48.73531" lon="1.85257">
        <ele>169</ele>
        <time>2011-04-09T09:21:17.000Z</time>
      </trkpt>
      <trkpt lat="48.73541" lon="1.85267">
        <ele>168.80000305176</ele>
        <time>2011-04-09T09:21:23.000Z</time>
      </trkpt>
      <trkpt lat="48.73551" lon="1.85275">
        <ele>168.39999389648</ele>
        <time>2011-04-09T09:21:28.000Z</time>
      </trkpt>
      <trkpt lat="48.73558" lon="1.85281">
        <ele>168</ele>
        <time>2011-04-09T09:21:33.000Z</time>
      </trkpt>
      <trkpt lat="48.73567" lon="1.85284">
        <ele>167.39999389648</ele>
        <time>2011-04-09T09:21:38.000Z</time>
      </trkpt>
      <trkpt lat="48.73579" lon="1.85283">
        <ele>166.39999389648</ele>
        <time>2011-04-09T09:21:46.000Z</time>
      </trkpt>
      <trkpt lat="48.73589" lon="1.85282">
        <ele>166</ele>
        <time>2011-04-09T09:21:52.000Z</time>
      </trkpt>
      <trkpt lat="48.73602" lon="1.8529">
        <ele>165.60000610352</ele>
        <time>2011-04-09T09:21:57.000Z</time>
      </trkpt>
      <trkpt lat="48.73612" lon="1.85296">
        <ele>165</ele>
        <time>2011-04-09T09:22:03.000Z</time>
      </trkpt>
      <trkpt lat="48.73626" lon="1.85302">
        <ele>164.39999389648</ele>
        <time>2011-04-09T09:22:10.000Z</time>
      </trkpt>
      <trkpt lat="48.73635" lon="1.85307">
        <ele>163.80000305176</ele>
        <time>2011-04-09T09:22:15.000Z</time>
      </trkpt>
      <trkpt lat="48.73652" lon="1.85314">
        <ele>162.80000305176</ele>
        <time>2011-04-09T09:22:24.000Z</time>
      </trkpt>
      <trkpt lat="48.73665" lon="1.85317">
        <ele>162.19999694824</ele>
        <time>2011-04-09T09:22:31.000Z</time>
      </trkpt>
      <trkpt lat="48.73676" lon="1.85321">
        <ele>161.39999389648</ele>
        <time>2011-04-09T09:22:37.000Z</time>
      </trkpt>
      <trkpt lat="48.73686" lon="1.85325">
        <ele>161</ele>
        <time>2011-04-09T09:22:43.000Z</time>
      </trkpt>
      <trkpt lat="48.73695" lon="1.8533">
        <ele>160.39999389648</ele>
        <time>2011-04-09T09:22:48.000Z</time>
      </trkpt>
      <trkpt lat="48.73698" lon="1.85331">
        <ele>160.19999694824</ele>
        <time>2011-04-09T09:22:50.000Z</time>
      </trkpt>
      <trkpt lat="48.73708" lon="1.85337">
        <ele>160</ele>
        <time>2011-04-09T09:22:56.000Z</time>
      </trkpt>
      <trkpt lat="48.73717" lon="1.85346">
        <ele>160</ele>
        <time>2011-04-09T09:23:01.000Z</time>
      </trkpt>
      <trkpt lat="48.73726" lon="1.85359">
        <ele>159.80000305176</ele>
        <time>2011-04-09T09:23:08.000Z</time>
      </trkpt>
      <trkpt lat="48.7373" lon="1.85367">
        <ele>159.80000305176</ele>
        <time>2011-04-09T09:23:14.000Z</time>
      </trkpt>
      <trkpt lat="48.73736" lon="1.85371">
        <ele>159.60000610352</ele>
        <time>2011-04-09T09:23:19.000Z</time>
      </trkpt>
      <trkpt lat="48.73742" lon="1.85378">
        <ele>159.19999694824</ele>
        <time>2011-04-09T09:23:24.000Z</time>
      </trkpt>
      <trkpt lat="48.7375" lon="1.85385">
        <ele>159</ele>
        <time>2011-04-09T09:23:29.000Z</time>
      </trkpt>
      <trkpt lat="48.73757" lon="1.85392">
        <ele>158.80000305176</ele>
        <time>2011-04-09T09:23:34.000Z</time>
      </trkpt>
      <trkpt lat="48.73768" lon="1.85394">
        <ele>158.60000610352</ele>
        <time>2011-04-09T09:23:40.000Z</time>
      </trkpt>
      <trkpt lat="48.73778" lon="1.85391">
        <ele>158.39999389648</ele>
        <time>2011-04-09T09:23:45.000Z</time>
      </trkpt>
      <trkpt lat="48.73785" lon="1.85382">
        <ele>158.19999694824</ele>
        <time>2011-04-09T09:23:50.000Z</time>
      </trkpt>
      <trkpt lat="48.73785" lon="1.85381">
        <ele>158.19999694824</ele>
        <time>2011-04-09T09:23:56.000Z</time>
      </trkpt>
      <trkpt lat="48.73782" lon="1.85384">
        <ele>158.19999694824</ele>
        <time>2011-04-09T09:24:05.000Z</time>
      </trkpt>
      <trkpt lat="48.73781" lon="1.85385">
        <ele>158.39999389648</ele>
        <time>2011-04-09T09:24:06.000Z</time>
      </trkpt>
      <trkpt lat="48.73783" lon="1.85385">
        <ele>158.19999694824</ele>
        <time>2011-04-09T09:24:16.000Z</time>
      </trkpt>
      <trkpt lat="48.73786" lon="1.8539">
        <ele>158.39999389648</ele>
        <time>2011-04-09T09:24:32.000Z</time>
      </trkpt>
      <trkpt lat="48.73787" lon="1.85385">
        <ele>158.19999694824</ele>
        <time>2011-04-09T09:24:35.000Z</time>
      </trkpt>
      <trkpt lat="48.73792" lon="1.85377">
        <ele>158</ele>
        <time>2011-04-09T09:24:40.000Z</time>
      </trkpt>
      <trkpt lat="48.738" lon="1.85361">
        <ele>157.19999694824</ele>
        <time>2011-04-09T09:24:49.000Z</time>
      </trkpt>
      <trkpt lat="48.73808" lon="1.85346">
        <ele>156.60000610352</ele>
        <time>2011-04-09T09:24:57.000Z</time>
      </trkpt>
      <trkpt lat="48.73818" lon="1.85322">
        <ele>155.60000610352</ele>
        <time>2011-04-09T09:25:08.000Z</time>
      </trkpt>
      <trkpt lat="48.73824" lon="1.85306">
        <ele>155.19999694824</ele>
        <time>2011-04-09T09:25:16.000Z</time>
      </trkpt>
      <trkpt lat="48.7383" lon="1.85292">
        <ele>154.60000610352</ele>
        <time>2011-04-09T09:25:23.000Z</time>
      </trkpt>
      <trkpt lat="48.73835" lon="1.85281">
        <ele>154.39999389648</ele>
        <time>2011-04-09T09:25:28.000Z</time>
      </trkpt>
      <trkpt lat="48.7384" lon="1.8527">
        <ele>155</ele>
        <time>2011-04-09T09:25:32.000Z</time>
      </trkpt>
      <trkpt lat="48.73847" lon="1.85255">
        <ele>156</ele>
        <time>2011-04-09T09:25:39.000Z</time>
      </trkpt>
      <trkpt lat="48.73855" lon="1.8524">
        <ele>157.19999694824</ele>
        <time>2011-04-09T09:25:47.000Z</time>
      </trkpt>
      <trkpt lat="48.73855" lon="1.8524">
        <ele>157.19999694824</ele>
        <time>2011-04-09T09:25:49.000Z</time>
      </trkpt>
      <trkpt lat="48.73864" lon="1.85247">
        <ele>158.39999389648</ele>
        <time>2011-04-09T09:27:03.000Z</time>
      </trkpt>
      <trkpt lat="48.73869" lon="1.85266">
        <ele>159</ele>
        <time>2011-04-09T09:27:11.000Z</time>
      </trkpt>
      <trkpt lat="48.73876" lon="1.85287">
        <ele>159.80000305176</ele>
        <time>2011-04-09T09:27:20.000Z</time>
      </trkpt>
      <trkpt lat="48.7388" lon="1.853">
        <ele>160.19999694824</ele>
        <time>2011-04-09T09:27:26.000Z</time>
      </trkpt>
      <trkpt lat="48.73883" lon="1.85309">
        <ele>160.39999389648</ele>
        <time>2011-04-09T09:27:31.000Z</time>
      </trkpt>
      <trkpt lat="48.73887" lon="1.8532">
        <ele>160.80000305176</ele>
        <time>2011-04-09T09:27:36.000Z</time>
      </trkpt>
      <trkpt lat="48.73889" lon="1.85328">
        <ele>161</ele>
        <time>2011-04-09T09:27:39.000Z</time>
      </trkpt>
      <trkpt lat="48.73893" lon="1.85344">
        <ele>161.39999389648</ele>
        <time>2011-04-09T09:27:47.000Z</time>
      </trkpt>
      <trkpt lat="48.73899" lon="1.85356">
        <ele>162.19999694824</ele>
        <time>2011-04-09T09:27:54.000Z</time>
      </trkpt>
      <trkpt lat="48.73906" lon="1.85373">
        <ele>163</ele>
        <time>2011-04-09T09:28:02.000Z</time>
      </trkpt>
      <trkpt lat="48.73908" lon="1.8538">
        <ele>163.19999694824</ele>
        <time>2011-04-09T09:28:07.000Z</time>
      </trkpt>
      <trkpt lat="48.73911" lon="1.8539">
        <ele>163.39999389648</ele>
        <time>2011-04-09T09:28:13.000Z</time>
      </trkpt>
      <trkpt lat="48.73915" lon="1.85402">
        <ele>163.80000305176</ele>
        <time>2011-04-09T09:28:19.000Z</time>
      </trkpt>
      <trkpt lat="48.73918" lon="1.85413">
        <ele>163.80000305176</ele>
        <time>2011-04-09T09:28:24.000Z</time>
      </trkpt>
      <trkpt lat="48.7392" lon="1.85419">
        <ele>163.80000305176</ele>
        <time>2011-04-09T09:28:27.000Z</time>
      </trkpt>
      <trkpt lat="48.73924" lon="1.85437">
        <ele>163</ele>
        <time>2011-04-09T09:28:35.000Z</time>
      </trkpt>
      <trkpt lat="48.73925" lon="1.85439">
        <ele>163</ele>
        <time>2011-04-09T09:28:36.000Z</time>
      </trkpt>
      <trkpt lat="48.73932" lon="1.85441">
        <ele>162.60000610352</ele>
        <time>2011-04-09T09:28:42.000Z</time>
      </trkpt>
      <trkpt lat="48.73934" lon="1.85432">
        <ele>162.80000305176</ele>
        <time>2011-04-09T09:28:46.000Z</time>
      </trkpt>
      <trkpt lat="48.73937" lon="1.85414">
        <ele>163.19999694824</ele>
        <time>2011-04-09T09:28:54.000Z</time>
      </trkpt>
      <trkpt lat="48.73936" lon="1.85413">
        <ele>163.19999694824</ele>
        <time>2011-04-09T09:28:56.000Z</time>
      </trkpt>
      <trkpt lat="48.73936" lon="1.85401">
        <ele>163.60000610352</ele>
        <time>2011-04-09T09:29:40.000Z</time>
      </trkpt>
      <trkpt lat="48.73937" lon="1.85393">
        <ele>163.80000305176</ele>
        <time>2011-04-09T09:29:42.000Z</time>
      </trkpt>
      <trkpt lat="48.73938" lon="1.85382">
        <ele>164</ele>
        <time>2011-04-09T09:29:47.000Z</time>
      </trkpt>
      <trkpt lat="48.73939" lon="1.85379">
        <ele>164</ele>
        <time>2011-04-09T09:29:48.000Z</time>
      </trkpt>
      <trkpt lat="48.7394" lon="1.85369">
        <ele>164.39999389648</ele>
        <time>2011-04-09T09:29:53.000Z</time>
      </trkpt>
      <trkpt lat="48.7394" lon="1.85362">
        <ele>164.60000610352</ele>
        <time>2011-04-09T09:29:57.000Z</time>
      </trkpt>
      <trkpt lat="48.73941" lon="1.85351">
        <ele>164.80000305176</ele>
        <time>2011-04-09T09:30:02.000Z</time>
      </trkpt>
      <trkpt lat="48.73941" lon="1.85339">
        <ele>165.19999694824</ele>
        <time>2011-04-09T09:30:08.000Z</time>
      </trkpt>
      <trkpt lat="48.73944" lon="1.85321">
        <ele>166</ele>
        <time>2011-04-09T09:30:15.000Z</time>
      </trkpt>
      <trkpt lat="48.73947" lon="1.85306">
        <ele>166.80000305176</ele>
        <time>2011-04-09T09:30:21.000Z</time>
      </trkpt>
      <trkpt lat="48.73951" lon="1.85292">
        <ele>167.60000610352</ele>
        <time>2011-04-09T09:30:28.000Z</time>
      </trkpt>
      <trkpt lat="48.73952" lon="1.85289">
        <ele>167.80000305176</ele>
        <time>2011-04-09T09:30:30.000Z</time>
      </trkpt>
      <trkpt lat="48.73962" lon="1.85276">
        <ele>169.19999694824</ele>
        <time>2011-04-09T09:30:38.000Z</time>
      </trkpt>
      <trkpt lat="48.73972" lon="1.85261">
        <ele>170.60000610352</ele>
        <time>2011-04-09T09:30:47.000Z</time>
      </trkpt>
      <trkpt lat="48.73974" lon="1.85257">
        <ele>171</ele>
        <time>2011-04-09T09:30:49.000Z</time>
      </trkpt>
      <trkpt lat="48.73986" lon="1.85239">
        <ele>172.80000305176</ele>
        <time>2011-04-09T09:30:59.000Z</time>
      </trkpt>
      <trkpt lat="48.73991" lon="1.85223">
        <ele>173.60000610352</ele>
        <time>2011-04-09T09:31:07.000Z</time>
      </trkpt>
      <trkpt lat="48.73994" lon="1.85215">
        <ele>174.19999694824</ele>
        <time>2011-04-09T09:31:11.000Z</time>
      </trkpt>
      <trkpt lat="48.74002" lon="1.85203">
        <ele>175</ele>
        <time>2011-04-09T09:31:17.000Z</time>
      </trkpt>
      <trkpt lat="48.74004" lon="1.85195">
        <ele>174.80000305176</ele>
        <time>2011-04-09T09:31:20.000Z</time>
      </trkpt>
      <trkpt lat="48.74008" lon="1.85181">
        <ele>175</ele>
        <time>2011-04-09T09:31:27.000Z</time>
      </trkpt>
      <trkpt lat="48.74013" lon="1.85162">
        <ele>175</ele>
        <time>2011-04-09T09:31:35.000Z</time>
      </trkpt>
      <trkpt lat="48.74014" lon="1.85144">
        <ele>175.39999389648</ele>
        <time>2011-04-09T09:31:42.000Z</time>
      </trkpt>
      <trkpt lat="48.74016" lon="1.85127">
        <ele>175.80000305176</ele>
        <time>2011-04-09T09:31:48.000Z</time>
      </trkpt>
      <trkpt lat="48.74017" lon="1.8511">
        <ele>176.19999694824</ele>
        <time>2011-04-09T09:31:54.000Z</time>
      </trkpt>
      <trkpt lat="48.74019" lon="1.8509">
        <ele>176.80000305176</ele>
        <time>2011-04-09T09:32:02.000Z</time>
      </trkpt>
      <trkpt lat="48.74022" lon="1.85074">
        <ele>176.80000305176</ele>
        <time>2011-04-09T09:32:09.000Z</time>
      </trkpt>
      <trkpt lat="48.74023" lon="1.8506">
        <ele>176.60000610352</ele>
        <time>2011-04-09T09:32:15.000Z</time>
      </trkpt>
      <trkpt lat="48.74027" lon="1.85045">
        <ele>176.39999389648</ele>
        <time>2011-04-09T09:32:22.000Z</time>
      </trkpt>
      <trkpt lat="48.74033" lon="1.85034">
        <ele>176.39999389648</ele>
        <time>2011-04-09T09:32:28.000Z</time>
      </trkpt>
      <trkpt lat="48.74042" lon="1.85025">
        <ele>176.60000610352</ele>
        <time>2011-04-09T09:32:35.000Z</time>
      </trkpt>
      <trkpt lat="48.74049" lon="1.85015">
        <ele>176.60000610352</ele>
        <time>2011-04-09T09:32:41.000Z</time>
      </trkpt>
      <trkpt lat="48.74052" lon="1.85011">
        <ele>176.80000305176</ele>
        <time>2011-04-09T09:32:44.000Z</time>
      </trkpt>
      <trkpt lat="48.74054" lon="1.85008">
        <ele>176.80000305176</ele>
        <time>2011-04-09T09:32:49.000Z</time>
      </trkpt>
      <trkpt lat="48.7406" lon="1.85002">
        <ele>177</ele>
        <time>2011-04-09T09:33:02.000Z</time>
      </trkpt>
      <trkpt lat="48.74067" lon="1.84995">
        <ele>177.39999389648</ele>
        <time>2011-04-09T09:33:08.000Z</time>
      </trkpt>
      <trkpt lat="48.74073" lon="1.84988">
        <ele>177.80000305176</ele>
        <time>2011-04-09T09:33:14.000Z</time>
      </trkpt>
      <trkpt lat="48.74081" lon="1.84984">
        <ele>178.19999694824</ele>
        <time>2011-04-09T09:33:20.000Z</time>
      </trkpt>
      <trkpt lat="48.74091" lon="1.84979">
        <ele>178.60000610352</ele>
        <time>2011-04-09T09:33:26.000Z</time>
      </trkpt>
      <trkpt lat="48.741" lon="1.84978">
        <ele>179</ele>
        <time>2011-04-09T09:33:33.000Z</time>
      </trkpt>
      <trkpt lat="48.74106" lon="1.84977">
        <ele>179.19999694824</ele>
        <time>2011-04-09T09:33:37.000Z</time>
      </trkpt>
      <trkpt lat="48.74112" lon="1.84979">
        <ele>179.19999694824</ele>
        <time>2011-04-09T09:33:43.000Z</time>
      </trkpt>
      <trkpt lat="48.74115" lon="1.8498">
        <ele>179.39999389648</ele>
        <time>2011-04-09T09:33:45.000Z</time>
      </trkpt>
      <trkpt lat="48.74122" lon="1.84985">
        <ele>179.39999389648</ele>
        <time>2011-04-09T09:33:51.000Z</time>
      </trkpt>
      <trkpt lat="48.74127" lon="1.84988">
        <ele>179.60000610352</ele>
        <time>2011-04-09T09:33:54.000Z</time>
      </trkpt>
      <trkpt lat="48.74136" lon="1.84988">
        <ele>180</ele>
        <time>2011-04-09T09:34:00.000Z</time>
      </trkpt>
      <trkpt lat="48.74147" lon="1.84988">
        <ele>180.19999694824</ele>
        <time>2011-04-09T09:34:06.000Z</time>
      </trkpt>
      <trkpt lat="48.7415" lon="1.84987">
        <ele>180.39999389648</ele>
        <time>2011-04-09T09:34:08.000Z</time>
      </trkpt>
      <trkpt lat="48.74158" lon="1.84983">
        <ele>180.60000610352</ele>
        <time>2011-04-09T09:34:16.000Z</time>
      </trkpt>
      <trkpt lat="48.74165" lon="1.84982">
        <ele>180.80000305176</ele>
        <time>2011-04-09T09:34:22.000Z</time>
      </trkpt>
      <trkpt lat="48.74169" lon="1.8498">
        <ele>181</ele>
        <time>2011-04-09T09:34:26.000Z</time>
      </trkpt>
      <trkpt lat="48.74172" lon="1.8498">
        <ele>181</ele>
        <time>2011-04-09T09:34:30.000Z</time>
      </trkpt>
      <trkpt lat="48.74177" lon="1.84982">
        <ele>181</ele>
        <time>2011-04-09T09:34:34.000Z</time>
      </trkpt>
      <trkpt lat="48.74184" lon="1.84981">
        <ele>181.19999694824</ele>
        <time>2011-04-09T09:34:39.000Z</time>
      </trkpt>
      <trkpt lat="48.74196" lon="1.84979">
        <ele>181.39999389648</ele>
        <time>2011-04-09T09:34:47.000Z</time>
      </trkpt>
      <trkpt lat="48.74205" lon="1.84978">
        <ele>181.60000610352</ele>
        <time>2011-04-09T09:34:53.000Z</time>
      </trkpt>
      <trkpt lat="48.74206" lon="1.84978">
        <ele>181.60000610352</ele>
        <time>2011-04-09T09:34:54.000Z</time>
      </trkpt>
      <trkpt lat="48.74215" lon="1.84978">
        <ele>181.80000305176</ele>
        <time>2011-04-09T09:35:02.000Z</time>
      </trkpt>
      <trkpt lat="48.74227" lon="1.84974">
        <ele>182</ele>
        <time>2011-04-09T09:35:10.000Z</time>
      </trkpt>
      <trkpt lat="48.74234" lon="1.84972">
        <ele>182.19999694824</ele>
        <time>2011-04-09T09:35:14.000Z</time>
      </trkpt>
      <trkpt lat="48.74241" lon="1.84971">
        <ele>182.39999389648</ele>
        <time>2011-04-09T09:35:19.000Z</time>
      </trkpt>
      <trkpt lat="48.74249" lon="1.84967">
        <ele>182.60000610352</ele>
        <time>2011-04-09T09:35:24.000Z</time>
      </trkpt>
      <trkpt lat="48.74256" lon="1.84964">
        <ele>182.60000610352</ele>
        <time>2011-04-09T09:35:30.000Z</time>
      </trkpt>
      <trkpt lat="48.74263" lon="1.84966">
        <ele>182.60000610352</ele>
        <time>2011-04-09T09:35:35.000Z</time>
      </trkpt>
      <trkpt lat="48.74265" lon="1.84966">
        <ele>182.60000610352</ele>
        <time>2011-04-09T09:35:36.000Z</time>
      </trkpt>
      <trkpt lat="48.74276" lon="1.84961">
        <ele>182.39999389648</ele>
        <time>2011-04-09T09:35:44.000Z</time>
      </trkpt>
      <trkpt lat="48.74281" lon="1.84959">
        <ele>182.39999389648</ele>
        <time>2011-04-09T09:35:47.000Z</time>
      </trkpt>
      <trkpt lat="48.74291" lon="1.84952">
        <ele>182.19999694824</ele>
        <time>2011-04-09T09:35:54.000Z</time>
      </trkpt>
      <trkpt lat="48.743" lon="1.8495">
        <ele>182</ele>
        <time>2011-04-09T09:35:59.000Z</time>
      </trkpt>
      <trkpt lat="48.74314" lon="1.84955">
        <ele>181.60000610352</ele>
        <time>2011-04-09T09:36:08.000Z</time>
      </trkpt>
      <trkpt lat="48.74323" lon="1.84956">
        <ele>181.60000610352</ele>
        <time>2011-04-09T09:36:14.000Z</time>
      </trkpt>
      <trkpt lat="48.74331" lon="1.84958">
        <ele>181.39999389648</ele>
        <time>2011-04-09T09:36:21.000Z</time>
      </trkpt>
      <trkpt lat="48.74342" lon="1.84959">
        <ele>181.19999694824</ele>
        <time>2011-04-09T09:36:26.000Z</time>
      </trkpt>
      <trkpt lat="48.74357" lon="1.84955">
        <ele>180.80000305176</ele>
        <time>2011-04-09T09:36:31.000Z</time>
      </trkpt>
      <trkpt lat="48.74362" lon="1.84958">
        <ele>180.80000305176</ele>
        <time>2011-04-09T09:36:36.000Z</time>
      </trkpt>
      <trkpt lat="48.74371" lon="1.84958">
        <ele>180.80000305176</ele>
        <time>2011-04-09T09:36:43.000Z</time>
      </trkpt>
      <trkpt lat="48.74381" lon="1.84956">
        <ele>180.39999389648</ele>
        <time>2011-04-09T09:36:50.000Z</time>
      </trkpt>
      <trkpt lat="48.7439" lon="1.84957">
        <ele>180.39999389648</ele>
        <time>2011-04-09T09:36:55.000Z</time>
      </trkpt>
      <trkpt lat="48.74401" lon="1.8496">
        <ele>180.19999694824</ele>
        <time>2011-04-09T09:37:01.000Z</time>
      </trkpt>
      <trkpt lat="48.74413" lon="1.84962">
        <ele>180</ele>
        <time>2011-04-09T09:37:08.000Z</time>
      </trkpt>
      <trkpt lat="48.74423" lon="1.84957">
        <ele>179.80000305176</ele>
        <time>2011-04-09T09:37:15.000Z</time>
      </trkpt>
      <trkpt lat="48.74429" lon="1.84955">
        <ele>179.80000305176</ele>
        <time>2011-04-09T09:37:19.000Z</time>
      </trkpt>
      <trkpt lat="48.74434" lon="1.84952">
        <ele>179.60000610352</ele>
        <time>2011-04-09T09:37:22.000Z</time>
      </trkpt>
      <trkpt lat="48.74444" lon="1.84947">
        <ele>179.60000610352</ele>
        <time>2011-04-09T09:37:27.000Z</time>
      </trkpt>
      <trkpt lat="48.74448" lon="1.84945">
        <ele>179.39999389648</ele>
        <time>2011-04-09T09:37:30.000Z</time>
      </trkpt>
      <trkpt lat="48.74453" lon="1.84941">
        <ele>179.39999389648</ele>
        <time>2011-04-09T09:37:34.000Z</time>
      </trkpt>
      <trkpt lat="48.74462" lon="1.84933">
        <ele>179.19999694824</ele>
        <time>2011-04-09T09:37:41.000Z</time>
      </trkpt>
      <trkpt lat="48.74473" lon="1.84928">
        <ele>179</ele>
        <time>2011-04-09T09:37:48.000Z</time>
      </trkpt>
      <trkpt lat="48.74486" lon="1.84923">
        <ele>179</ele>
        <time>2011-04-09T09:37:56.000Z</time>
      </trkpt>
      <trkpt lat="48.74496" lon="1.84918">
        <ele>179</ele>
        <time>2011-04-09T09:38:02.000Z</time>
      </trkpt>
      <trkpt lat="48.74505" lon="1.84913">
        <ele>178.80000305176</ele>
        <time>2011-04-09T09:38:08.000Z</time>
      </trkpt>
      <trkpt lat="48.74513" lon="1.84909">
        <ele>178.60000610352</ele>
        <time>2011-04-09T09:38:14.000Z</time>
      </trkpt>
      <trkpt lat="48.74525" lon="1.84902">
        <ele>178.60000610352</ele>
        <time>2011-04-09T09:38:21.000Z</time>
      </trkpt>
      <trkpt lat="48.74535" lon="1.84896">
        <ele>178.39999389648</ele>
        <time>2011-04-09T09:38:27.000Z</time>
      </trkpt>
      <trkpt lat="48.74546" lon="1.84892">
        <ele>178.39999389648</ele>
        <time>2011-04-09T09:38:34.000Z</time>
      </trkpt>
      <trkpt lat="48.74551" lon="1.8489">
        <ele>178.39999389648</ele>
        <time>2011-04-09T09:38:38.000Z</time>
      </trkpt>
      <trkpt lat="48.7456" lon="1.84887">
        <ele>178.39999389648</ele>
        <time>2011-04-09T09:38:45.000Z</time>
      </trkpt>
      <trkpt lat="48.74566" lon="1.84884">
        <ele>178.39999389648</ele>
        <time>2011-04-09T09:38:49.000Z</time>
      </trkpt>
      <trkpt lat="48.74573" lon="1.84878">
        <ele>178.39999389648</ele>
        <time>2011-04-09T09:38:55.000Z</time>
      </trkpt>
      <trkpt lat="48.74582" lon="1.84872">
        <ele>178.19999694824</ele>
        <time>2011-04-09T09:39:01.000Z</time>
      </trkpt>
      <trkpt lat="48.74583" lon="1.84871">
        <ele>178.19999694824</ele>
        <time>2011-04-09T09:39:02.000Z</time>
      </trkpt>
      <trkpt lat="48.74591" lon="1.84867">
        <ele>177.80000305176</ele>
        <time>2011-04-09T09:39:08.000Z</time>
      </trkpt>
      <trkpt lat="48.74592" lon="1.84865">
        <ele>177.80000305176</ele>
        <time>2011-04-09T09:39:10.000Z</time>
      </trkpt>
      <trkpt lat="48.74596" lon="1.84859">
        <ele>177.39999389648</ele>
        <time>2011-04-09T09:39:18.000Z</time>
      </trkpt>
      <trkpt lat="48.74598" lon="1.84858">
        <ele>177.19999694824</ele>
        <time>2011-04-09T09:39:19.000Z</time>
      </trkpt>
      <trkpt lat="48.74607" lon="1.8485">
        <ele>176.60000610352</ele>
        <time>2011-04-09T09:39:26.000Z</time>
      </trkpt>
      <trkpt lat="48.74618" lon="1.84843">
        <ele>176</ele>
        <time>2011-04-09T09:39:34.000Z</time>
      </trkpt>
      <trkpt lat="48.74626" lon="1.84837">
        <ele>175.39999389648</ele>
        <time>2011-04-09T09:39:40.000Z</time>
      </trkpt>
      <trkpt lat="48.74634" lon="1.84832">
        <ele>175</ele>
        <time>2011-04-09T09:39:46.000Z</time>
      </trkpt>
      <trkpt lat="48.74642" lon="1.84827">
        <ele>174.60000610352</ele>
        <time>2011-04-09T09:39:52.000Z</time>
      </trkpt>
      <trkpt lat="48.74657" lon="1.84818">
        <ele>173.60000610352</ele>
        <time>2011-04-09T09:40:02.000Z</time>
      </trkpt>
      <trkpt lat="48.74668" lon="1.84812">
        <ele>173.19999694824</ele>
        <time>2011-04-09T09:40:09.000Z</time>
      </trkpt>
      <trkpt lat="48.74671" lon="1.84809">
        <ele>173</ele>
        <time>2011-04-09T09:40:11.000Z</time>
      </trkpt>
      <trkpt lat="48.7468" lon="1.84803">
        <ele>172.80000305176</ele>
        <time>2011-04-09T09:40:19.000Z</time>
      </trkpt>
      <trkpt lat="48.74689" lon="1.848">
        <ele>172.60000610352</ele>
        <time>2011-04-09T09:40:25.000Z</time>
      </trkpt>
      <trkpt lat="48.74697" lon="1.84794">
        <ele>172.60000610352</ele>
        <time>2011-04-09T09:40:31.000Z</time>
      </trkpt>
      <trkpt lat="48.74707" lon="1.84786">
        <ele>172.60000610352</ele>
        <time>2011-04-09T09:40:39.000Z</time>
      </trkpt>
      <trkpt lat="48.74715" lon="1.84782">
        <ele>172.60000610352</ele>
        <time>2011-04-09T09:40:44.000Z</time>
      </trkpt>
      <trkpt lat="48.74725" lon="1.84776">
        <ele>172.80000305176</ele>
        <time>2011-04-09T09:40:50.000Z</time>
      </trkpt>
      <trkpt lat="48.74734" lon="1.8477">
        <ele>173</ele>
        <time>2011-04-09T09:40:56.000Z</time>
      </trkpt>
      <trkpt lat="48.74739" lon="1.84766">
        <ele>173.19999694824</ele>
        <time>2011-04-09T09:41:01.000Z</time>
      </trkpt>
      <trkpt lat="48.74748" lon="1.84758">
        <ele>173.60000610352</ele>
        <time>2011-04-09T09:41:08.000Z</time>
      </trkpt>
      <trkpt lat="48.74755" lon="1.84752">
        <ele>174.19999694824</ele>
        <time>2011-04-09T09:41:14.000Z</time>
      </trkpt>
      <trkpt lat="48.74758" lon="1.84751">
        <ele>174.19999694824</ele>
        <time>2011-04-09T09:41:18.000Z</time>
      </trkpt>
      <trkpt lat="48.7476" lon="1.84749">
        <ele>174.39999389648</ele>
        <time>2011-04-09T09:41:24.000Z</time>
      </trkpt>
      <trkpt lat="48.74769" lon="1.84742">
        <ele>175</ele>
        <time>2011-04-09T09:41:29.000Z</time>
      </trkpt>
      <trkpt lat="48.74776" lon="1.84736">
        <ele>175.39999389648</ele>
        <time>2011-04-09T09:41:35.000Z</time>
      </trkpt>
      <trkpt lat="48.74784" lon="1.84727">
        <ele>176</ele>
        <time>2011-04-09T09:41:41.000Z</time>
      </trkpt>
      <trkpt lat="48.74792" lon="1.84717">
        <ele>176.60000610352</ele>
        <time>2011-04-09T09:41:49.000Z</time>
      </trkpt>
      <trkpt lat="48.74796" lon="1.84712">
        <ele>176.80000305176</ele>
        <time>2011-04-09T09:41:52.000Z</time>
      </trkpt>
      <trkpt lat="48.748" lon="1.84706">
        <ele>177.19999694824</ele>
        <time>2011-04-09T09:41:56.000Z</time>
      </trkpt>
      <trkpt lat="48.7481" lon="1.84693">
        <ele>178</ele>
        <time>2011-04-09T09:42:05.000Z</time>
      </trkpt>
      <trkpt lat="48.74819" lon="1.84681">
        <ele>178.80000305176</ele>
        <time>2011-04-09T09:42:12.000Z</time>
      </trkpt>
      <trkpt lat="48.74826" lon="1.84672">
        <ele>179.39999389648</ele>
        <time>2011-04-09T09:42:18.000Z</time>
      </trkpt>
      <trkpt lat="48.74834" lon="1.84665">
        <ele>180</ele>
        <time>2011-04-09T09:42:24.000Z</time>
      </trkpt>
      <trkpt lat="48.74842" lon="1.84655">
        <ele>180</ele>
        <time>2011-04-09T09:42:31.000Z</time>
      </trkpt>
      <trkpt lat="48.74849" lon="1.84646">
        <ele>180</ele>
        <time>2011-04-09T09:42:37.000Z</time>
      </trkpt>
      <trkpt lat="48.74862" lon="1.84631">
        <ele>179.80000305176</ele>
        <time>2011-04-09T09:42:47.000Z</time>
      </trkpt>
      <trkpt lat="48.7487" lon="1.8462">
        <ele>179.80000305176</ele>
        <time>2011-04-09T09:42:54.000Z</time>
      </trkpt>
      <trkpt lat="48.74873" lon="1.84614">
        <ele>179.80000305176</ele>
        <time>2011-04-09T09:42:57.000Z</time>
      </trkpt>
      <trkpt lat="48.74878" lon="1.84603">
        <ele>179.80000305176</ele>
        <time>2011-04-09T09:43:02.000Z</time>
      </trkpt>
      <trkpt lat="48.74885" lon="1.8458">
        <ele>179.80000305176</ele>
        <time>2011-04-09T09:43:10.000Z</time>
      </trkpt>
      <trkpt lat="48.74889" lon="1.84567">
        <ele>179.80000305176</ele>
        <time>2011-04-09T09:43:16.000Z</time>
      </trkpt>
      <trkpt lat="48.74892" lon="1.8456">
        <ele>179.60000610352</ele>
        <time>2011-04-09T09:43:20.000Z</time>
      </trkpt>
      <trkpt lat="48.74897" lon="1.84539">
        <ele>179.39999389648</ele>
        <time>2011-04-09T09:43:29.000Z</time>
      </trkpt>
      <trkpt lat="48.749" lon="1.84522">
        <ele>179.39999389648</ele>
        <time>2011-04-09T09:43:37.000Z</time>
      </trkpt>
      <trkpt lat="48.74903" lon="1.84502">
        <ele>179.60000610352</ele>
        <time>2011-04-09T09:43:46.000Z</time>
      </trkpt>
      <trkpt lat="48.74904" lon="1.84484">
        <ele>178.80000305176</ele>
        <time>2011-04-09T09:43:53.000Z</time>
      </trkpt>
      <trkpt lat="48.74906" lon="1.84465">
        <ele>177.60000610352</ele>
        <time>2011-04-09T09:44:02.000Z</time>
      </trkpt>
      <trkpt lat="48.74907" lon="1.84454">
        <ele>177</ele>
        <time>2011-04-09T09:44:07.000Z</time>
      </trkpt>
      <trkpt lat="48.74907" lon="1.84452">
        <ele>177</ele>
        <time>2011-04-09T09:44:08.000Z</time>
      </trkpt>
      <trkpt lat="48.74907" lon="1.84434">
        <ele>176</ele>
        <time>2011-04-09T09:44:16.000Z</time>
      </trkpt>
      <trkpt lat="48.7491" lon="1.84419">
        <ele>174.80000305176</ele>
        <time>2011-04-09T09:44:23.000Z</time>
      </trkpt>
      <trkpt lat="48.74912" lon="1.84411">
        <ele>174.39999389648</ele>
        <time>2011-04-09T09:44:28.000Z</time>
      </trkpt>
      <trkpt lat="48.74911" lon="1.8441">
        <ele>174.39999389648</ele>
        <time>2011-04-09T09:44:31.000Z</time>
      </trkpt>
      <trkpt lat="48.74919" lon="1.84423">
        <ele>174</ele>
        <time>2011-04-09T09:44:45.000Z</time>
      </trkpt>
      <trkpt lat="48.74927" lon="1.84438">
        <ele>174</ele>
        <time>2011-04-09T09:44:52.000Z</time>
      </trkpt>
      <trkpt lat="48.74933" lon="1.84451">
        <ele>174.19999694824</ele>
        <time>2011-04-09T09:44:59.000Z</time>
      </trkpt>
      <trkpt lat="48.74945" lon="1.84466">
        <ele>174</ele>
        <time>2011-04-09T09:45:09.000Z</time>
      </trkpt>
      <trkpt lat="48.74946" lon="1.84467">
        <ele>173.80000305176</ele>
        <time>2011-04-09T09:45:13.000Z</time>
      </trkpt>
      <trkpt lat="48.7495" lon="1.84471">
        <ele>173.60000610352</ele>
        <time>2011-04-09T09:45:18.000Z</time>
      </trkpt>
      <trkpt lat="48.7496" lon="1.84482">
        <ele>173.39999389648</ele>
        <time>2011-04-09T09:45:25.000Z</time>
      </trkpt>
      <trkpt lat="48.74972" lon="1.84495">
        <ele>173.19999694824</ele>
        <time>2011-04-09T09:45:34.000Z</time>
      </trkpt>
      <trkpt lat="48.7498" lon="1.84501">
        <ele>172.80000305176</ele>
        <time>2011-04-09T09:45:40.000Z</time>
      </trkpt>
      <trkpt lat="48.74991" lon="1.84511">
        <ele>172.60000610352</ele>
        <time>2011-04-09T09:45:48.000Z</time>
      </trkpt>
      <trkpt lat="48.74999" lon="1.84521">
        <ele>172.80000305176</ele>
        <time>2011-04-09T09:45:55.000Z</time>
      </trkpt>
      <trkpt lat="48.75009" lon="1.84528">
        <ele>172.19999694824</ele>
        <time>2011-04-09T09:46:02.000Z</time>
      </trkpt>
      <trkpt lat="48.75019" lon="1.84537">
        <ele>171.60000610352</ele>
        <time>2011-04-09T09:46:09.000Z</time>
      </trkpt>
      <trkpt lat="48.75025" lon="1.84542">
        <ele>171.60000610352</ele>
        <time>2011-04-09T09:46:13.000Z</time>
      </trkpt>
      <trkpt lat="48.75034" lon="1.84553">
        <ele>171.39999389648</ele>
        <time>2011-04-09T09:46:20.000Z</time>
      </trkpt>
      <trkpt lat="48.75038" lon="1.84557">
        <ele>171.19999694824</ele>
        <time>2011-04-09T09:46:23.000Z</time>
      </trkpt>
      <trkpt lat="48.75046" lon="1.84564">
        <ele>171.19999694824</ele>
        <time>2011-04-09T09:46:29.000Z</time>
      </trkpt>
      <trkpt lat="48.75056" lon="1.84574">
        <ele>171</ele>
        <time>2011-04-09T09:46:38.000Z</time>
      </trkpt>
      <trkpt lat="48.75067" lon="1.84583">
        <ele>170.60000610352</ele>
        <time>2011-04-09T09:46:47.000Z</time>
      </trkpt>
      <trkpt lat="48.75071" lon="1.84586">
        <ele>170.39999389648</ele>
        <time>2011-04-09T09:46:50.000Z</time>
      </trkpt>
      <trkpt lat="48.75078" lon="1.8459">
        <ele>170</ele>
        <time>2011-04-09T09:46:55.000Z</time>
      </trkpt>
      <trkpt lat="48.7509" lon="1.84597">
        <ele>169.60000610352</ele>
        <time>2011-04-09T09:47:04.000Z</time>
      </trkpt>
      <trkpt lat="48.751" lon="1.84606">
        <ele>169.60000610352</ele>
        <time>2011-04-09T09:47:12.000Z</time>
      </trkpt>
      <trkpt lat="48.7511" lon="1.84617">
        <ele>169.60000610352</ele>
        <time>2011-04-09T09:47:21.000Z</time>
      </trkpt>
      <trkpt lat="48.75117" lon="1.8463">
        <ele>169.80000305176</ele>
        <time>2011-04-09T09:47:28.000Z</time>
      </trkpt>
      <trkpt lat="48.75123" lon="1.84643">
        <ele>170.19999694824</ele>
        <time>2011-04-09T09:47:35.000Z</time>
      </trkpt>
      <trkpt lat="48.75129" lon="1.84656">
        <ele>170.39999389648</ele>
        <time>2011-04-09T09:47:42.000Z</time>
      </trkpt>
      <trkpt lat="48.7513" lon="1.8466">
        <ele>170.39999389648</ele>
        <time>2011-04-09T09:47:44.000Z</time>
      </trkpt>
      <trkpt lat="48.75131" lon="1.84664">
        <ele>170.60000610352</ele>
        <time>2011-04-09T09:47:46.000Z</time>
      </trkpt>
      <trkpt lat="48.75135" lon="1.84677">
        <ele>170.39999389648</ele>
        <time>2011-04-09T09:47:53.000Z</time>
      </trkpt>
      <trkpt lat="48.75137" lon="1.84696">
        <ele>170</ele>
        <time>2011-04-09T09:48:03.000Z</time>
      </trkpt>
      <trkpt lat="48.75138" lon="1.84712">
        <ele>170</ele>
        <time>2011-04-09T09:48:11.000Z</time>
      </trkpt>
      <trkpt lat="48.75139" lon="1.84721">
        <ele>170</ele>
        <time>2011-04-09T09:48:15.000Z</time>
      </trkpt>
      <trkpt lat="48.75139" lon="1.84737">
        <ele>169.80000305176</ele>
        <time>2011-04-09T09:48:22.000Z</time>
      </trkpt>
      <trkpt lat="48.75138" lon="1.84755">
        <ele>170</ele>
        <time>2011-04-09T09:48:29.000Z</time>
      </trkpt>
      <trkpt lat="48.75138" lon="1.84776">
        <ele>170</ele>
        <time>2011-04-09T09:48:38.000Z</time>
      </trkpt>
      <trkpt lat="48.75142" lon="1.84799">
        <ele>169.60000610352</ele>
        <time>2011-04-09T09:48:49.000Z</time>
      </trkpt>
      <trkpt lat="48.75142" lon="1.84813">
        <ele>169.60000610352</ele>
        <time>2011-04-09T09:48:56.000Z</time>
      </trkpt>
      <trkpt lat="48.75143" lon="1.84817">
        <ele>169.60000610352</ele>
        <time>2011-04-09T09:48:59.000Z</time>
      </trkpt>
      <trkpt lat="48.75147" lon="1.8483">
        <ele>169.19999694824</ele>
        <time>2011-04-09T09:49:07.000Z</time>
      </trkpt>
      <trkpt lat="48.75157" lon="1.84846">
        <ele>169.39999389648</ele>
        <time>2011-04-09T09:49:17.000Z</time>
      </trkpt>
      <trkpt lat="48.75163" lon="1.84856">
        <ele>169.60000610352</ele>
        <time>2011-04-09T09:49:23.000Z</time>
      </trkpt>
      <trkpt lat="48.75171" lon="1.84863">
        <ele>170</ele>
        <time>2011-04-09T09:49:29.000Z</time>
      </trkpt>
      <trkpt lat="48.75178" lon="1.8487">
        <ele>170.80000305176</ele>
        <time>2011-04-09T09:49:35.000Z</time>
      </trkpt>
      <trkpt lat="48.75184" lon="1.84878">
        <ele>171.19999694824</ele>
        <time>2011-04-09T09:49:41.000Z</time>
      </trkpt>
      <trkpt lat="48.75182" lon="1.84884">
        <ele>171.80000305176</ele>
        <time>2011-04-09T09:49:47.000Z</time>
      </trkpt>
      <trkpt lat="48.75181" lon="1.84891">
        <ele>172.19999694824</ele>
        <time>2011-04-09T09:49:52.000Z</time>
      </trkpt>
      <trkpt lat="48.7518" lon="1.84896">
        <ele>172.39999389648</ele>
        <time>2011-04-09T09:49:55.000Z</time>
      </trkpt>
      <trkpt lat="48.75179" lon="1.84909">
        <ele>173.39999389648</ele>
        <time>2011-04-09T09:50:01.000Z</time>
      </trkpt>
      <trkpt lat="48.75179" lon="1.84911">
        <ele>173.60000610352</ele>
        <time>2011-04-09T09:50:02.000Z</time>
      </trkpt>
      <trkpt lat="48.75179" lon="1.84922">
        <ele>174</ele>
        <time>2011-04-09T09:50:08.000Z</time>
      </trkpt>
      <trkpt lat="48.75178" lon="1.84927">
        <ele>174.19999694824</ele>
        <time>2011-04-09T09:50:10.000Z</time>
      </trkpt>
      <trkpt lat="48.75177" lon="1.84935">
        <ele>174.39999389648</ele>
        <time>2011-04-09T09:50:16.000Z</time>
      </trkpt>
      <trkpt lat="48.75176" lon="1.84935">
        <ele>174.39999389648</ele>
        <time>2011-04-09T09:50:17.000Z</time>
      </trkpt>
      <trkpt lat="48.75169" lon="1.84944">
        <ele>174.60000610352</ele>
        <time>2011-04-09T09:52:20.000Z</time>
      </trkpt>
      <trkpt lat="48.7517" lon="1.84961">
        <ele>175</ele>
        <time>2011-04-09T09:52:26.000Z</time>
      </trkpt>
      <trkpt lat="48.75171" lon="1.84975">
        <ele>175.19999694824</ele>
        <time>2011-04-09T09:52:33.000Z</time>
      </trkpt>
      <trkpt lat="48.7517" lon="1.8499">
        <ele>175.60000610352</ele>
        <time>2011-04-09T09:52:40.000Z</time>
      </trkpt>
      <trkpt lat="48.75169" lon="1.84994">
        <ele>175.80000305176</ele>
        <time>2011-04-09T09:52:42.000Z</time>
      </trkpt>
      <trkpt lat="48.75168" lon="1.85003">
        <ele>175.80000305176</ele>
        <time>2011-04-09T09:52:46.000Z</time>
      </trkpt>
      <trkpt lat="48.75167" lon="1.85017">
        <ele>175</ele>
        <time>2011-04-09T09:52:52.000Z</time>
      </trkpt>
      <trkpt lat="48.75167" lon="1.85024">
        <ele>174.80000305176</ele>
        <time>2011-04-09T09:52:56.000Z</time>
      </trkpt>
      <trkpt lat="48.75167" lon="1.85027">
        <ele>174.60000610352</ele>
        <time>2011-04-09T09:52:57.000Z</time>
      </trkpt>
      <trkpt lat="48.75164" lon="1.85047">
        <ele>173.60000610352</ele>
        <time>2011-04-09T09:53:05.000Z</time>
      </trkpt>
      <trkpt lat="48.75165" lon="1.85061">
        <ele>173</ele>
        <time>2011-04-09T09:53:10.000Z</time>
      </trkpt>
      <trkpt lat="48.75165" lon="1.8508">
        <ele>172.19999694824</ele>
        <time>2011-04-09T09:53:17.000Z</time>
      </trkpt>
      <trkpt lat="48.75166" lon="1.85095">
        <ele>171.60000610352</ele>
        <time>2011-04-09T09:53:23.000Z</time>
      </trkpt>
      <trkpt lat="48.75166" lon="1.85112">
        <ele>171.19999694824</ele>
        <time>2011-04-09T09:53:30.000Z</time>
      </trkpt>
      <trkpt lat="48.75166" lon="1.8512">
        <ele>171</ele>
        <time>2011-04-09T09:53:34.000Z</time>
      </trkpt>
      <trkpt lat="48.75168" lon="1.85136">
        <ele>170.60000610352</ele>
        <time>2011-04-09T09:53:41.000Z</time>
      </trkpt>
      <trkpt lat="48.75169" lon="1.85152">
        <ele>170.19999694824</ele>
        <time>2011-04-09T09:53:47.000Z</time>
      </trkpt>
      <trkpt lat="48.75168" lon="1.85159">
        <ele>170</ele>
        <time>2011-04-09T09:53:49.000Z</time>
      </trkpt>
      <trkpt lat="48.7517" lon="1.85175">
        <ele>169.39999389648</ele>
        <time>2011-04-09T09:53:56.000Z</time>
      </trkpt>
      <trkpt lat="48.75173" lon="1.85189">
        <ele>168.60000610352</ele>
        <time>2011-04-09T09:54:02.000Z</time>
      </trkpt>
      <trkpt lat="48.75175" lon="1.85205">
        <ele>167.60000610352</ele>
        <time>2011-04-09T09:54:09.000Z</time>
      </trkpt>
      <trkpt lat="48.75178" lon="1.85218">
        <ele>166.80000305176</ele>
        <time>2011-04-09T09:54:16.000Z</time>
      </trkpt>
      <trkpt lat="48.75183" lon="1.85232">
        <ele>166.19999694824</ele>
        <time>2011-04-09T09:54:23.000Z</time>
      </trkpt>
      <trkpt lat="48.75188" lon="1.85245">
        <ele>165.39999389648</ele>
        <time>2011-04-09T09:54:30.000Z</time>
      </trkpt>
      <trkpt lat="48.75189" lon="1.85247">
        <ele>165.39999389648</ele>
        <time>2011-04-09T09:54:31.000Z</time>
      </trkpt>
      <trkpt lat="48.75192" lon="1.85255">
        <ele>164.80000305176</ele>
        <time>2011-04-09T09:54:35.000Z</time>
      </trkpt>
      <trkpt lat="48.75193" lon="1.85265">
        <ele>163.80000305176</ele>
        <time>2011-04-09T09:54:40.000Z</time>
      </trkpt>
      <trkpt lat="48.75197" lon="1.85272">
        <ele>163.39999389648</ele>
        <time>2011-04-09T09:54:44.000Z</time>
      </trkpt>
      <trkpt lat="48.75204" lon="1.85288">
        <ele>162</ele>
        <time>2011-04-09T09:54:52.000Z</time>
      </trkpt>
      <trkpt lat="48.75204" lon="1.85292">
        <ele>161.80000305176</ele>
        <time>2011-04-09T09:54:54.000Z</time>
      </trkpt>
      <trkpt lat="48.75208" lon="1.85306">
        <ele>160.80000305176</ele>
        <time>2011-04-09T09:55:00.000Z</time>
      </trkpt>
      <trkpt lat="48.75209" lon="1.85311">
        <ele>160.39999389648</ele>
        <time>2011-04-09T09:55:02.000Z</time>
      </trkpt>
      <trkpt lat="48.75213" lon="1.85321">
        <ele>159.60000610352</ele>
        <time>2011-04-09T09:55:08.000Z</time>
      </trkpt>
      <trkpt lat="48.75216" lon="1.85332">
        <ele>158.80000305176</ele>
        <time>2011-04-09T09:55:13.000Z</time>
      </trkpt>
      <trkpt lat="48.75217" lon="1.85343">
        <ele>157.80000305176</ele>
        <time>2011-04-09T09:55:17.000Z</time>
      </trkpt>
      <trkpt lat="48.7522" lon="1.85361">
        <ele>156</ele>
        <time>2011-04-09T09:55:24.000Z</time>
      </trkpt>
      <trkpt lat="48.75221" lon="1.85375">
        <ele>154.80000305176</ele>
        <time>2011-04-09T09:55:29.000Z</time>
      </trkpt>
      <trkpt lat="48.7522" lon="1.85387">
        <ele>153.60000610352</ele>
        <time>2011-04-09T09:55:34.000Z</time>
      </trkpt>
      <trkpt lat="48.75221" lon="1.85403">
        <ele>152</ele>
        <time>2011-04-09T09:55:40.000Z</time>
      </trkpt>
      <trkpt lat="48.75223" lon="1.85421">
        <ele>150.60000610352</ele>
        <time>2011-04-09T09:55:48.000Z</time>
      </trkpt>
      <trkpt lat="48.75224" lon="1.85428">
        <ele>150</ele>
        <time>2011-04-09T09:55:52.000Z</time>
      </trkpt>
      <trkpt lat="48.75227" lon="1.85436">
        <ele>149.60000610352</ele>
        <time>2011-04-09T09:55:57.000Z</time>
      </trkpt>
      <trkpt lat="48.75227" lon="1.85447">
        <ele>148.80000305176</ele>
        <time>2011-04-09T09:56:03.000Z</time>
      </trkpt>
      <trkpt lat="48.75227" lon="1.85448">
        <ele>148.60000610352</ele>
        <time>2011-04-09T09:56:04.000Z</time>
      </trkpt>
      <trkpt lat="48.75229" lon="1.8546">
        <ele>147.80000305176</ele>
        <time>2011-04-09T09:56:10.000Z</time>
      </trkpt>
      <trkpt lat="48.75229" lon="1.85462">
        <ele>147.60000610352</ele>
        <time>2011-04-09T09:56:11.000Z</time>
      </trkpt>
      <trkpt lat="48.7523" lon="1.85468">
        <ele>147.19999694824</ele>
        <time>2011-04-09T09:56:14.000Z</time>
      </trkpt>
      <trkpt lat="48.75233" lon="1.85483">
        <ele>146</ele>
        <time>2011-04-09T09:56:20.000Z</time>
      </trkpt>
      <trkpt lat="48.75232" lon="1.85489">
        <ele>145.60000610352</ele>
        <time>2011-04-09T09:56:23.000Z</time>
      </trkpt>
      <trkpt lat="48.75234" lon="1.855">
        <ele>144.80000305176</ele>
        <time>2011-04-09T09:56:28.000Z</time>
      </trkpt>
      <trkpt lat="48.75236" lon="1.85516">
        <ele>143.39999389648</ele>
        <time>2011-04-09T09:56:36.000Z</time>
      </trkpt>
      <trkpt lat="48.75237" lon="1.8552">
        <ele>143.19999694824</ele>
        <time>2011-04-09T09:56:41.000Z</time>
      </trkpt>
      <trkpt lat="48.75241" lon="1.85522">
        <ele>143.19999694824</ele>
        <time>2011-04-09T09:56:45.000Z</time>
      </trkpt>
      <trkpt lat="48.75247" lon="1.85525">
        <ele>143.19999694824</ele>
        <time>2011-04-09T09:56:52.000Z</time>
      </trkpt>
      <trkpt lat="48.75257" lon="1.85529">
        <ele>142.80000305176</ele>
        <time>2011-04-09T09:56:59.000Z</time>
      </trkpt>
      <trkpt lat="48.75263" lon="1.85532">
        <ele>142.19999694824</ele>
        <time>2011-04-09T09:57:04.000Z</time>
      </trkpt>
      <trkpt lat="48.75272" lon="1.85535">
        <ele>141.39999389648</ele>
        <time>2011-04-09T09:57:10.000Z</time>
      </trkpt>
      <trkpt lat="48.75286" lon="1.85541">
        <ele>140.39999389648</ele>
        <time>2011-04-09T09:57:19.000Z</time>
      </trkpt>
      <trkpt lat="48.75295" lon="1.85544">
        <ele>140</ele>
        <time>2011-04-09T09:57:24.000Z</time>
      </trkpt>
      <trkpt lat="48.75308" lon="1.8555">
        <ele>139.19999694824</ele>
        <time>2011-04-09T09:57:33.000Z</time>
      </trkpt>
      <trkpt lat="48.75317" lon="1.85557">
        <ele>138.60000610352</ele>
        <time>2011-04-09T09:57:39.000Z</time>
      </trkpt>
      <trkpt lat="48.75326" lon="1.85563">
        <ele>138.19999694824</ele>
        <time>2011-04-09T09:57:46.000Z</time>
      </trkpt>
      <trkpt lat="48.75338" lon="1.85573">
        <ele>138.19999694824</ele>
        <time>2011-04-09T09:57:55.000Z</time>
      </trkpt>
      <trkpt lat="48.75345" lon="1.85579">
        <ele>138.19999694824</ele>
        <time>2011-04-09T09:58:02.000Z</time>
      </trkpt>
      <trkpt lat="48.75355" lon="1.85588">
        <ele>138.39999389648</ele>
        <time>2011-04-09T09:58:10.000Z</time>
      </trkpt>
      <trkpt lat="48.75362" lon="1.85595">
        <ele>138.39999389648</ele>
        <time>2011-04-09T09:58:15.000Z</time>
      </trkpt>
      <trkpt lat="48.75369" lon="1.85601">
        <ele>138.39999389648</ele>
        <time>2011-04-09T09:58:21.000Z</time>
      </trkpt>
      <trkpt lat="48.75377" lon="1.85606">
        <ele>138.60000610352</ele>
        <time>2011-04-09T09:58:28.000Z</time>
      </trkpt>
      <trkpt lat="48.75383" lon="1.85612">
        <ele>138.60000610352</ele>
        <time>2011-04-09T09:58:34.000Z</time>
      </trkpt>
      <trkpt lat="48.75385" lon="1.85613">
        <ele>138.60000610352</ele>
        <time>2011-04-09T09:58:36.000Z</time>
      </trkpt>
      <trkpt lat="48.75392" lon="1.8562">
        <ele>138.60000610352</ele>
        <time>2011-04-09T09:58:42.000Z</time>
      </trkpt>
      <trkpt lat="48.75401" lon="1.85629">
        <ele>138.60000610352</ele>
        <time>2011-04-09T09:58:49.000Z</time>
      </trkpt>
      <trkpt lat="48.7541" lon="1.85637">
        <ele>138.60000610352</ele>
        <time>2011-04-09T09:58:55.000Z</time>
      </trkpt>
      <trkpt lat="48.7542" lon="1.85645">
        <ele>138.39999389648</ele>
        <time>2011-04-09T09:59:03.000Z</time>
      </trkpt>
      <trkpt lat="48.75424" lon="1.85649">
        <ele>138.19999694824</ele>
        <time>2011-04-09T09:59:06.000Z</time>
      </trkpt>
      <trkpt lat="48.75433" lon="1.85656">
        <ele>137.80000305176</ele>
        <time>2011-04-09T09:59:12.000Z</time>
      </trkpt>
      <trkpt lat="48.75442" lon="1.85661">
        <ele>137.39999389648</ele>
        <time>2011-04-09T09:59:19.000Z</time>
      </trkpt>
      <trkpt lat="48.75444" lon="1.85662">
        <ele>137.39999389648</ele>
        <time>2011-04-09T09:59:20.000Z</time>
      </trkpt>
      <trkpt lat="48.75452" lon="1.85669">
        <ele>137</ele>
        <time>2011-04-09T09:59:27.000Z</time>
      </trkpt>
      <trkpt lat="48.75461" lon="1.85676">
        <ele>136.60000610352</ele>
        <time>2011-04-09T09:59:34.000Z</time>
      </trkpt>
      <trkpt lat="48.75471" lon="1.85683">
        <ele>136.19999694824</ele>
        <time>2011-04-09T09:59:41.000Z</time>
      </trkpt>
      <trkpt lat="48.75482" lon="1.85689">
        <ele>135.60000610352</ele>
        <time>2011-04-09T09:59:49.000Z</time>
      </trkpt>
      <trkpt lat="48.75492" lon="1.85693">
        <ele>135.19999694824</ele>
        <time>2011-04-09T09:59:56.000Z</time>
      </trkpt>
      <trkpt lat="48.75493" lon="1.85694">
        <ele>135.19999694824</ele>
        <time>2011-04-09T09:59:57.000Z</time>
      </trkpt>
      <trkpt lat="48.75498" lon="1.85698">
        <ele>134.80000305176</ele>
        <time>2011-04-09T10:00:02.000Z</time>
      </trkpt>
      <trkpt lat="48.75506" lon="1.85703">
        <ele>134.39999389648</ele>
        <time>2011-04-09T10:00:09.000Z</time>
      </trkpt>
      <trkpt lat="48.75514" lon="1.85708">
        <ele>134.19999694824</ele>
        <time>2011-04-09T10:00:15.000Z</time>
      </trkpt>
      <trkpt lat="48.75526" lon="1.85715">
        <ele>133.80000305176</ele>
        <time>2011-04-09T10:00:24.000Z</time>
      </trkpt>
      <trkpt lat="48.75538" lon="1.85722">
        <ele>133.19999694824</ele>
        <time>2011-04-09T10:00:32.000Z</time>
      </trkpt>
      <trkpt lat="48.75549" lon="1.8573">
        <ele>133</ele>
        <time>2011-04-09T10:00:40.000Z</time>
      </trkpt>
      <trkpt lat="48.7556" lon="1.85738">
        <ele>132.60000610352</ele>
        <time>2011-04-09T10:00:48.000Z</time>
      </trkpt>
      <trkpt lat="48.7557" lon="1.85744">
        <ele>132.19999694824</ele>
        <time>2011-04-09T10:00:55.000Z</time>
      </trkpt>
      <trkpt lat="48.75585" lon="1.85754">
        <ele>131.80000305176</ele>
        <time>2011-04-09T10:01:05.000Z</time>
      </trkpt>
      <trkpt lat="48.75596" lon="1.85762">
        <ele>131.19999694824</ele>
        <time>2011-04-09T10:01:13.000Z</time>
      </trkpt>
      <trkpt lat="48.756" lon="1.85765">
        <ele>131</ele>
        <time>2011-04-09T10:01:16.000Z</time>
      </trkpt>
      <trkpt lat="48.75605" lon="1.85767">
        <ele>130.80000305176</ele>
        <time>2011-04-09T10:01:20.000Z</time>
      </trkpt>
      <trkpt lat="48.75613" lon="1.85774">
        <ele>130.39999389648</ele>
        <time>2011-04-09T10:01:27.000Z</time>
      </trkpt>
      <trkpt lat="48.75619" lon="1.85778">
        <ele>130</ele>
        <time>2011-04-09T10:01:34.000Z</time>
      </trkpt>
      <trkpt lat="48.75628" lon="1.85784">
        <ele>129.60000610352</ele>
        <time>2011-04-09T10:01:39.000Z</time>
      </trkpt>
      <trkpt lat="48.75639" lon="1.85791">
        <ele>129</ele>
        <time>2011-04-09T10:01:47.000Z</time>
      </trkpt>
      <trkpt lat="48.75645" lon="1.85794">
        <ele>128.80000305176</ele>
        <time>2011-04-09T10:01:52.000Z</time>
      </trkpt>
      <trkpt lat="48.75649" lon="1.85797">
        <ele>128.60000610352</ele>
        <time>2011-04-09T10:01:55.000Z</time>
      </trkpt>
      <trkpt lat="48.75654" lon="1.858">
        <ele>128.39999389648</ele>
        <time>2011-04-09T10:02:00.000Z</time>
      </trkpt>
      <trkpt lat="48.75669" lon="1.85808">
        <ele>127.80000305176</ele>
        <time>2011-04-09T10:02:09.000Z</time>
      </trkpt>
      <trkpt lat="48.75679" lon="1.8581">
        <ele>127.40000152588</ele>
        <time>2011-04-09T10:02:16.000Z</time>
      </trkpt>
      <trkpt lat="48.75686" lon="1.85807">
        <ele>127.40000152588</ele>
        <time>2011-04-09T10:02:21.000Z</time>
      </trkpt>
      <trkpt lat="48.75695" lon="1.85801">
        <ele>127.40000152588</ele>
        <time>2011-04-09T10:02:28.000Z</time>
      </trkpt>
      <trkpt lat="48.75703" lon="1.8579">
        <ele>127.40000152588</ele>
        <time>2011-04-09T10:02:35.000Z</time>
      </trkpt>
      <trkpt lat="48.75704" lon="1.85773">
        <ele>127.59999847412</ele>
        <time>2011-04-09T10:02:40.000Z</time>
      </trkpt>
      <trkpt lat="48.75703" lon="1.85745">
        <ele>128.19999694824</ele>
        <time>2011-04-09T10:02:46.000Z</time>
      </trkpt>
      <trkpt lat="48.75699" lon="1.85712">
        <ele>129.19999694824</ele>
        <time>2011-04-09T10:02:52.000Z</time>
      </trkpt>
      <trkpt lat="48.75697" lon="1.85677">
        <ele>129.80000305176</ele>
        <time>2011-04-09T10:02:58.000Z</time>
      </trkpt>
      <trkpt lat="48.75701" lon="1.85638">
        <ele>130.19999694824</ele>
        <time>2011-04-09T10:03:05.000Z</time>
      </trkpt>
      <trkpt lat="48.7571" lon="1.85599">
        <ele>130.19999694824</ele>
        <time>2011-04-09T10:03:12.000Z</time>
      </trkpt>
      <trkpt lat="48.75728" lon="1.85551">
        <ele>129.80000305176</ele>
        <time>2011-04-09T10:03:21.000Z</time>
      </trkpt>
      <trkpt lat="48.75745" lon="1.85514">
        <ele>129</ele>
        <time>2011-04-09T10:03:29.000Z</time>
      </trkpt>
      <trkpt lat="48.75766" lon="1.85472">
        <ele>128.19999694824</ele>
        <time>2011-04-09T10:03:38.000Z</time>
      </trkpt>
      <trkpt lat="48.75788" lon="1.85427">
        <ele>127</ele>
        <time>2011-04-09T10:03:47.000Z</time>
      </trkpt>
      <trkpt lat="48.75805" lon="1.85391">
        <ele>126.59999847412</ele>
        <time>2011-04-09T10:03:54.000Z</time>
      </trkpt>
      <trkpt lat="48.75826" lon="1.85351">
        <ele>126</ele>
        <time>2011-04-09T10:04:03.000Z</time>
      </trkpt>
      <trkpt lat="48.75839" lon="1.85327">
        <ele>125.80000305176</ele>
        <time>2011-04-09T10:04:08.000Z</time>
      </trkpt>
      <trkpt lat="48.75859" lon="1.85286">
        <ele>125.80000305176</ele>
        <time>2011-04-09T10:04:17.000Z</time>
      </trkpt>
      <trkpt lat="48.75876" lon="1.85249">
        <ele>125.80000305176</ele>
        <time>2011-04-09T10:04:25.000Z</time>
      </trkpt>
      <trkpt lat="48.75888" lon="1.85219">
        <ele>125.59999847412</ele>
        <time>2011-04-09T10:04:31.000Z</time>
      </trkpt>
      <trkpt lat="48.75902" lon="1.85178">
        <ele>125.40000152588</ele>
        <time>2011-04-09T10:04:39.000Z</time>
      </trkpt>
      <trkpt lat="48.75911" lon="1.85154">
        <ele>125.40000152588</ele>
        <time>2011-04-09T10:04:44.000Z</time>
      </trkpt>
      <trkpt lat="48.75924" lon="1.85129">
        <ele>125.40000152588</ele>
        <time>2011-04-09T10:04:50.000Z</time>
      </trkpt>
      <trkpt lat="48.75938" lon="1.85089">
        <ele>125.80000305176</ele>
        <time>2011-04-09T10:04:57.000Z</time>
      </trkpt>
      <trkpt lat="48.7594" lon="1.85084">
        <ele>125.80000305176</ele>
        <time>2011-04-09T10:04:58.000Z</time>
      </trkpt>
      <trkpt lat="48.7595" lon="1.85035">
        <ele>125</ele>
        <time>2011-04-09T10:05:07.000Z</time>
      </trkpt>
      <trkpt lat="48.75951" lon="1.85022">
        <ele>125</ele>
        <time>2011-04-09T10:05:10.000Z</time>
      </trkpt>
      <trkpt lat="48.75948" lon="1.85011">
        <ele>125</ele>
        <time>2011-04-09T10:05:14.000Z</time>
      </trkpt>
      <trkpt lat="48.75951" lon="1.8501">
        <ele>124.80000305176</ele>
        <time>2011-04-09T10:05:18.000Z</time>
      </trkpt>
      <trkpt lat="48.75956" lon="1.85014">
        <ele>124.59999847412</ele>
        <time>2011-04-09T10:05:23.000Z</time>
      </trkpt>
      <trkpt lat="48.7596" lon="1.85014">
        <ele>124.40000152588</ele>
        <time>2011-04-09T10:05:25.000Z</time>
      </trkpt>
      <trkpt lat="48.75976" lon="1.85009">
        <ele>123.40000152588</ele>
        <time>2011-04-09T10:05:32.000Z</time>
      </trkpt>
      <trkpt lat="48.75999" lon="1.85">
        <ele>122</ele>
        <time>2011-04-09T10:05:39.000Z</time>
      </trkpt>
      <trkpt lat="48.76018" lon="1.84995">
        <ele>121</ele>
        <time>2011-04-09T10:05:44.000Z</time>
      </trkpt>
      <trkpt lat="48.76038" lon="1.84989">
        <ele>120.19999694824</ele>
        <time>2011-04-09T10:05:49.000Z</time>
      </trkpt>
      <trkpt lat="48.76056" lon="1.84983">
        <ele>119.40000152588</ele>
        <time>2011-04-09T10:05:54.000Z</time>
      </trkpt>
      <trkpt lat="48.76084" lon="1.84977">
        <ele>118.19999694824</ele>
        <time>2011-04-09T10:06:01.000Z</time>
      </trkpt>
      <trkpt lat="48.76104" lon="1.84972">
        <ele>117.80000305176</ele>
        <time>2011-04-09T10:06:06.000Z</time>
      </trkpt>
      <trkpt lat="48.76142" lon="1.84968">
        <ele>116.80000305176</ele>
        <time>2011-04-09T10:06:15.000Z</time>
      </trkpt>
      <trkpt lat="48.76165" lon="1.84971">
        <ele>116.40000152588</ele>
        <time>2011-04-09T10:06:22.000Z</time>
      </trkpt>
      <trkpt lat="48.76168" lon="1.84972">
        <ele>116.19999694824</ele>
        <time>2011-04-09T10:06:24.000Z</time>
      </trkpt>
      <trkpt lat="48.76178" lon="1.84977">
        <ele>115.80000305176</ele>
        <time>2011-04-09T10:06:29.000Z</time>
      </trkpt>
      <trkpt lat="48.76185" lon="1.84982">
        <ele>115.59999847412</ele>
        <time>2011-04-09T10:06:33.000Z</time>
      </trkpt>
      <trkpt lat="48.76192" lon="1.84989">
        <ele>115.40000152588</ele>
        <time>2011-04-09T10:06:39.000Z</time>
      </trkpt>
      <trkpt lat="48.76202" lon="1.84998">
        <ele>115</ele>
        <time>2011-04-09T10:06:46.000Z</time>
      </trkpt>
      <trkpt lat="48.76207" lon="1.85004">
        <ele>115</ele>
        <time>2011-04-09T10:06:50.000Z</time>
      </trkpt>
      <trkpt lat="48.76213" lon="1.8501">
        <ele>114.80000305176</ele>
        <time>2011-04-09T10:06:55.000Z</time>
      </trkpt>
      <trkpt lat="48.76222" lon="1.85016">
        <ele>114.40000152588</ele>
        <time>2011-04-09T10:07:01.000Z</time>
      </trkpt>
      <trkpt lat="48.76233" lon="1.85026">
        <ele>114</ele>
        <time>2011-04-09T10:07:10.000Z</time>
      </trkpt>
      <trkpt lat="48.76248" lon="1.85041">
        <ele>113.40000152588</ele>
        <time>2011-04-09T10:07:21.000Z</time>
      </trkpt>
      <trkpt lat="48.76257" lon="1.8505">
        <ele>113</ele>
        <time>2011-04-09T10:07:28.000Z</time>
      </trkpt>
      <trkpt lat="48.76265" lon="1.85044">
        <ele>112.59999847412</ele>
        <time>2011-04-09T10:07:34.000Z</time>
      </trkpt>
      <trkpt lat="48.76266" lon="1.85042">
        <ele>112.59999847412</ele>
        <time>2011-04-09T10:07:35.000Z</time>
      </trkpt>
      <trkpt lat="48.76276" lon="1.85019">
        <ele>112.40000152588</ele>
        <time>2011-04-09T10:07:44.000Z</time>
      </trkpt>
      <trkpt lat="48.76285" lon="1.84998">
        <ele>112.19999694824</ele>
        <time>2011-04-09T10:07:50.000Z</time>
      </trkpt>
      <trkpt lat="48.76294" lon="1.84976">
        <ele>111.80000305176</ele>
        <time>2011-04-09T10:07:55.000Z</time>
      </trkpt>
      <trkpt lat="48.76302" lon="1.84949">
        <ele>111.40000152588</ele>
        <time>2011-04-09T10:08:00.000Z</time>
      </trkpt>
      <trkpt lat="48.76313" lon="1.8491">
        <ele>110.80000305176</ele>
        <time>2011-04-09T10:08:08.000Z</time>
      </trkpt>
      <trkpt lat="48.76319" lon="1.84885">
        <ele>110</ele>
        <time>2011-04-09T10:08:14.000Z</time>
      </trkpt>
      <trkpt lat="48.76319" lon="1.84869">
        <ele>109.80000305176</ele>
        <time>2011-04-09T10:08:17.000Z</time>
      </trkpt>
      <trkpt lat="48.76304" lon="1.84839">
        <ele>110.40000152588</ele>
        <time>2011-04-09T10:08:25.000Z</time>
      </trkpt>
      <trkpt lat="48.76292" lon="1.84816">
        <ele>111.40000152588</ele>
        <time>2011-04-09T10:08:31.000Z</time>
      </trkpt>
      <trkpt lat="48.76286" lon="1.8479">
        <ele>112</ele>
        <time>2011-04-09T10:08:36.000Z</time>
      </trkpt>
      <trkpt lat="48.7628" lon="1.84755">
        <ele>112.59999847412</ele>
        <time>2011-04-09T10:08:43.000Z</time>
      </trkpt>
      <trkpt lat="48.76266" lon="1.84732">
        <ele>113.19999694824</ele>
        <time>2011-04-09T10:08:49.000Z</time>
      </trkpt>
      <trkpt lat="48.76245" lon="1.84712">
        <ele>114</ele>
        <time>2011-04-09T10:08:56.000Z</time>
      </trkpt>
      <trkpt lat="48.76222" lon="1.84689">
        <ele>114</ele>
        <time>2011-04-09T10:09:04.000Z</time>
      </trkpt>
      <trkpt lat="48.76215" lon="1.84664">
        <ele>112.80000305176</ele>
        <time>2011-04-09T10:09:09.000Z</time>
      </trkpt>
      <trkpt lat="48.76207" lon="1.84618">
        <ele>111.40000152588</ele>
        <time>2011-04-09T10:09:17.000Z</time>
      </trkpt>
      <trkpt lat="48.76198" lon="1.84599">
        <ele>110.80000305176</ele>
        <time>2011-04-09T10:09:22.000Z</time>
      </trkpt>
      <trkpt lat="48.76184" lon="1.84572">
        <ele>110.19999694824</ele>
        <time>2011-04-09T10:09:28.000Z</time>
      </trkpt>
      <trkpt lat="48.7618" lon="1.84546">
        <ele>109.40000152588</ele>
        <time>2011-04-09T10:09:33.000Z</time>
      </trkpt>
      <trkpt lat="48.76184" lon="1.84524">
        <ele>108.40000152588</ele>
        <time>2011-04-09T10:09:37.000Z</time>
      </trkpt>
      <trkpt lat="48.76195" lon="1.84482">
        <ele>107</ele>
        <time>2011-04-09T10:09:45.000Z</time>
      </trkpt>
      <trkpt lat="48.76196" lon="1.84459">
        <ele>106.40000152588</ele>
        <time>2011-04-09T10:09:50.000Z</time>
      </trkpt>
      <trkpt lat="48.76195" lon="1.84448">
        <ele>106.19999694824</ele>
        <time>2011-04-09T10:09:56.000Z</time>
      </trkpt>
      <trkpt lat="48.76192" lon="1.84438">
        <ele>105.80000305176</ele>
        <time>2011-04-09T10:10:02.000Z</time>
      </trkpt>
      <trkpt lat="48.76184" lon="1.84421">
        <ele>105.59999847412</ele>
        <time>2011-04-09T10:10:11.000Z</time>
      </trkpt>
      <trkpt lat="48.76177" lon="1.84408">
        <ele>105.59999847412</ele>
        <time>2011-04-09T10:10:19.000Z</time>
      </trkpt>
      <trkpt lat="48.76174" lon="1.84402">
        <ele>105.59999847412</ele>
        <time>2011-04-09T10:10:23.000Z</time>
      </trkpt>
      <trkpt lat="48.76168" lon="1.84395">
        <ele>105.59999847412</ele>
        <time>2011-04-09T10:10:29.000Z</time>
      </trkpt>
      <trkpt lat="48.76167" lon="1.84393">
        <ele>105.59999847412</ele>
        <time>2011-04-09T10:10:30.000Z</time>
      </trkpt>
      <trkpt lat="48.76158" lon="1.84381">
        <ele>105.80000305176</ele>
        <time>2011-04-09T10:10:39.000Z</time>
      </trkpt>
      <trkpt lat="48.76154" lon="1.84374">
        <ele>106</ele>
        <time>2011-04-09T10:10:44.000Z</time>
      </trkpt>
      <trkpt lat="48.76148" lon="1.84363">
        <ele>106.19999694824</ele>
        <time>2011-04-09T10:10:51.000Z</time>
      </trkpt>
      <trkpt lat="48.76145" lon="1.84357">
        <ele>106.40000152588</ele>
        <time>2011-04-09T10:10:55.000Z</time>
      </trkpt>
      <trkpt lat="48.76136" lon="1.84337">
        <ele>106.80000305176</ele>
        <time>2011-04-09T10:11:07.000Z</time>
      </trkpt>
      <trkpt lat="48.76128" lon="1.84324">
        <ele>107.59999847412</ele>
        <time>2011-04-09T10:11:16.000Z</time>
      </trkpt>
      <trkpt lat="48.76123" lon="1.84314">
        <ele>108.40000152588</ele>
        <time>2011-04-09T10:11:22.000Z</time>
      </trkpt>
      <trkpt lat="48.76116" lon="1.84306">
        <ele>109.19999694824</ele>
        <time>2011-04-09T10:11:29.000Z</time>
      </trkpt>
      <trkpt lat="48.76112" lon="1.84295">
        <ele>110.19999694824</ele>
        <time>2011-04-09T10:11:35.000Z</time>
      </trkpt>
      <trkpt lat="48.76107" lon="1.84284">
        <ele>111.19999694824</ele>
        <time>2011-04-09T10:11:43.000Z</time>
      </trkpt>
      <trkpt lat="48.76103" lon="1.84275">
        <ele>112.19999694824</ele>
        <time>2011-04-09T10:11:49.000Z</time>
      </trkpt>
      <trkpt lat="48.76098" lon="1.84261">
        <ele>113.40000152588</ele>
        <time>2011-04-09T10:11:57.000Z</time>
      </trkpt>
      <trkpt lat="48.76095" lon="1.84248">
        <ele>114.59999847412</ele>
        <time>2011-04-09T10:12:04.000Z</time>
      </trkpt>
      <trkpt lat="48.76099" lon="1.84239">
        <ele>114</ele>
        <time>2011-04-09T10:12:10.000Z</time>
      </trkpt>
      <trkpt lat="48.76102" lon="1.84237">
        <ele>113.80000305176</ele>
        <time>2011-04-09T10:12:12.000Z</time>
      </trkpt>
      <trkpt lat="48.76107" lon="1.84228">
        <ele>113.40000152588</ele>
        <time>2011-04-09T10:12:17.000Z</time>
      </trkpt>
      <trkpt lat="48.76114" lon="1.84218">
        <ele>112.59999847412</ele>
        <time>2011-04-09T10:12:24.000Z</time>
      </trkpt>
      <trkpt lat="48.76118" lon="1.84208">
        <ele>112.19999694824</ele>
        <time>2011-04-09T10:12:30.000Z</time>
      </trkpt>
      <trkpt lat="48.76127" lon="1.84198">
        <ele>111.40000152588</ele>
        <time>2011-04-09T10:12:37.000Z</time>
      </trkpt>
      <trkpt lat="48.76135" lon="1.84192">
        <ele>110.40000152588</ele>
        <time>2011-04-09T10:12:44.000Z</time>
      </trkpt>
      <trkpt lat="48.76136" lon="1.8419">
        <ele>110.40000152588</ele>
        <time>2011-04-09T10:12:45.000Z</time>
      </trkpt>
      <trkpt lat="48.76146" lon="1.84178">
        <ele>109.19999694824</ele>
        <time>2011-04-09T10:12:51.000Z</time>
      </trkpt>
      <trkpt lat="48.76157" lon="1.84167">
        <ele>108</ele>
        <time>2011-04-09T10:12:56.000Z</time>
      </trkpt>
      <trkpt lat="48.76173" lon="1.84151">
        <ele>105.80000305176</ele>
        <time>2011-04-09T10:13:02.000Z</time>
      </trkpt>
      <trkpt lat="48.76185" lon="1.84139">
        <ele>104.80000305176</ele>
        <time>2011-04-09T10:13:08.000Z</time>
      </trkpt>
      <trkpt lat="48.76201" lon="1.84122">
        <ele>103.59999847412</ele>
        <time>2011-04-09T10:13:14.000Z</time>
      </trkpt>
      <trkpt lat="48.76218" lon="1.84107">
        <ele>102.40000152588</ele>
        <time>2011-04-09T10:13:20.000Z</time>
      </trkpt>
      <trkpt lat="48.76231" lon="1.84091">
        <ele>101.59999847412</ele>
        <time>2011-04-09T10:13:26.000Z</time>
      </trkpt>
      <trkpt lat="48.76245" lon="1.84076">
        <ele>101.19999694824</ele>
        <time>2011-04-09T10:13:32.000Z</time>
      </trkpt>
      <trkpt lat="48.76266" lon="1.8405">
        <ele>100.80000305176</ele>
        <time>2011-04-09T10:13:39.000Z</time>
      </trkpt>
      <trkpt lat="48.76286" lon="1.84033">
        <ele>99.800003051758</ele>
        <time>2011-04-09T10:13:45.000Z</time>
      </trkpt>
      <trkpt lat="48.76299" lon="1.84019">
        <ele>99.199996948242</ele>
        <time>2011-04-09T10:13:50.000Z</time>
      </trkpt>
      <trkpt lat="48.76316" lon="1.84007">
        <ele>98.199996948242</ele>
        <time>2011-04-09T10:13:55.000Z</time>
      </trkpt>
      <trkpt lat="48.76337" lon="1.83989">
        <ele>97</ele>
        <time>2011-04-09T10:14:01.000Z</time>
      </trkpt>
      <trkpt lat="48.76347" lon="1.83981">
        <ele>96.800003051758</ele>
        <time>2011-04-09T10:14:06.000Z</time>
      </trkpt>
      <trkpt lat="48.76355" lon="1.83974">
        <ele>96.599998474121</ele>
        <time>2011-04-09T10:14:13.000Z</time>
      </trkpt>
      <trkpt lat="48.76362" lon="1.83969">
        <ele>96.400001525879</ele>
        <time>2011-04-09T10:14:19.000Z</time>
      </trkpt>
      <trkpt lat="48.7637" lon="1.83965">
        <ele>96</ele>
        <time>2011-04-09T10:14:25.000Z</time>
      </trkpt>
      <trkpt lat="48.7638" lon="1.83955">
        <ele>95.599998474121</ele>
        <time>2011-04-09T10:14:34.000Z</time>
      </trkpt>
      <trkpt lat="48.76384" lon="1.83952">
        <ele>95.599998474121</ele>
        <time>2011-04-09T10:14:41.000Z</time>
      </trkpt>
      <trkpt lat="48.76396" lon="1.83938">
        <ele>95</ele>
        <time>2011-04-09T10:15:25.000Z</time>
      </trkpt>
      <trkpt lat="48.76398" lon="1.83936">
        <ele>95</ele>
        <time>2011-04-09T10:15:28.000Z</time>
      </trkpt>
      <trkpt lat="48.76399" lon="1.83923">
        <ele>95</ele>
        <time>2011-04-09T10:16:19.000Z</time>
      </trkpt>
      <trkpt lat="48.76402" lon="1.83911">
        <ele>94.800003051758</ele>
        <time>2011-04-09T10:16:24.000Z</time>
      </trkpt>
      <trkpt lat="48.76408" lon="1.83895">
        <ele>94.800003051758</ele>
        <time>2011-04-09T10:16:30.000Z</time>
      </trkpt>
      <trkpt lat="48.76414" lon="1.83879">
        <ele>95</ele>
        <time>2011-04-09T10:16:37.000Z</time>
      </trkpt>
      <trkpt lat="48.76423" lon="1.83862">
        <ele>95.199996948242</ele>
        <time>2011-04-09T10:16:45.000Z</time>
      </trkpt>
      <trkpt lat="48.76429" lon="1.83847">
        <ele>95.599998474121</ele>
        <time>2011-04-09T10:16:52.000Z</time>
      </trkpt>
      <trkpt lat="48.76434" lon="1.83834">
        <ele>95.800003051758</ele>
        <time>2011-04-09T10:16:58.000Z</time>
      </trkpt>
      <trkpt lat="48.76441" lon="1.8382">
        <ele>96.599998474121</ele>
        <time>2011-04-09T10:17:04.000Z</time>
      </trkpt>
      <trkpt lat="48.76448" lon="1.83802">
        <ele>97.400001525879</ele>
        <time>2011-04-09T10:17:10.000Z</time>
      </trkpt>
      <trkpt lat="48.76454" lon="1.8378">
        <ele>98.599998474121</ele>
        <time>2011-04-09T10:17:18.000Z</time>
      </trkpt>
      <trkpt lat="48.76459" lon="1.83768">
        <ele>99</ele>
        <time>2011-04-09T10:17:24.000Z</time>
      </trkpt>
      <trkpt lat="48.76465" lon="1.83754">
        <ele>99.599998474121</ele>
        <time>2011-04-09T10:17:31.000Z</time>
      </trkpt>
      <trkpt lat="48.76469" lon="1.83743">
        <ele>99.599998474121</ele>
        <time>2011-04-09T10:17:36.000Z</time>
      </trkpt>
      <trkpt lat="48.76475" lon="1.83723">
        <ele>99.400001525879</ele>
        <time>2011-04-09T10:17:45.000Z</time>
      </trkpt>
      <trkpt lat="48.76476" lon="1.83717">
        <ele>99.400001525879</ele>
        <time>2011-04-09T10:17:49.000Z</time>
      </trkpt>
      <trkpt lat="48.76483" lon="1.83702">
        <ele>99.199996948242</ele>
        <time>2011-04-09T10:17:58.000Z</time>
      </trkpt>
      <trkpt lat="48.76489" lon="1.83687">
        <ele>99</ele>
        <time>2011-04-09T10:18:05.000Z</time>
      </trkpt>
      <trkpt lat="48.76497" lon="1.83667">
        <ele>99</ele>
        <time>2011-04-09T10:18:14.000Z</time>
      </trkpt>
      <trkpt lat="48.76507" lon="1.83651">
        <ele>99.199996948242</ele>
        <time>2011-04-09T10:18:19.000Z</time>
      </trkpt>
      <trkpt lat="48.7652" lon="1.83616">
        <ele>100.19999694824</ele>
        <time>2011-04-09T10:18:26.000Z</time>
      </trkpt>
      <trkpt lat="48.76535" lon="1.83571">
        <ele>101</ele>
        <time>2011-04-09T10:18:35.000Z</time>
      </trkpt>
      <trkpt lat="48.76548" lon="1.83525">
        <ele>101.19999694824</ele>
        <time>2011-04-09T10:18:44.000Z</time>
      </trkpt>
      <trkpt lat="48.76561" lon="1.83473">
        <ele>101.59999847412</ele>
        <time>2011-04-09T10:18:54.000Z</time>
      </trkpt>
      <trkpt lat="48.7657" lon="1.83435">
        <ele>102</ele>
        <time>2011-04-09T10:19:01.000Z</time>
      </trkpt>
      <trkpt lat="48.76576" lon="1.83405">
        <ele>102.19999694824</ele>
        <time>2011-04-09T10:19:06.000Z</time>
      </trkpt>
      <trkpt lat="48.76581" lon="1.83378">
        <ele>102.40000152588</ele>
        <time>2011-04-09T10:19:11.000Z</time>
      </trkpt>
      <trkpt lat="48.76588" lon="1.83341">
        <ele>102.80000305176</ele>
        <time>2011-04-09T10:19:18.000Z</time>
      </trkpt>
      <trkpt lat="48.76594" lon="1.83311">
        <ele>103</ele>
        <time>2011-04-09T10:19:24.000Z</time>
      </trkpt>
      <trkpt lat="48.766" lon="1.83271">
        <ele>103.19999694824</ele>
        <time>2011-04-09T10:19:32.000Z</time>
      </trkpt>
      <trkpt lat="48.76604" lon="1.83258">
        <ele>103.40000152588</ele>
        <time>2011-04-09T10:19:35.000Z</time>
      </trkpt>
      <trkpt lat="48.76614" lon="1.8326">
        <ele>103</ele>
        <time>2011-04-09T10:19:39.000Z</time>
      </trkpt>
      <trkpt lat="48.76626" lon="1.83277">
        <ele>102.80000305176</ele>
        <time>2011-04-09T10:19:44.000Z</time>
      </trkpt>
      <trkpt lat="48.76632" lon="1.83284">
        <ele>102.59999847412</ele>
        <time>2011-04-09T10:19:46.000Z</time>
      </trkpt>
      <trkpt lat="48.76647" lon="1.83303">
        <ele>102.19999694824</ele>
        <time>2011-04-09T10:19:51.000Z</time>
      </trkpt>
      <trkpt lat="48.76666" lon="1.8333">
        <ele>102</ele>
        <time>2011-04-09T10:19:58.000Z</time>
      </trkpt>
      <trkpt lat="48.76671" lon="1.83339">
        <ele>101.59999847412</ele>
        <time>2011-04-09T10:20:02.000Z</time>
      </trkpt>
      <trkpt lat="48.76675" lon="1.83348">
        <ele>101.19999694824</ele>
        <time>2011-04-09T10:20:06.000Z</time>
      </trkpt>
      <trkpt lat="48.76689" lon="1.83369">
        <ele>100</ele>
        <time>2011-04-09T10:20:12.000Z</time>
      </trkpt>
      <trkpt lat="48.76712" lon="1.83396">
        <ele>98.400001525879</ele>
        <time>2011-04-09T10:20:21.000Z</time>
      </trkpt>
      <trkpt lat="48.76723" lon="1.83411">
        <ele>97.800003051758</ele>
        <time>2011-04-09T10:20:25.000Z</time>
      </trkpt>
      <trkpt lat="48.76743" lon="1.83435">
        <ele>97</ele>
        <time>2011-04-09T10:20:33.000Z</time>
      </trkpt>
      <trkpt lat="48.76756" lon="1.83432">
        <ele>96.800003051758</ele>
        <time>2011-04-09T10:20:37.000Z</time>
      </trkpt>
      <trkpt lat="48.76768" lon="1.83413">
        <ele>96.800003051758</ele>
        <time>2011-04-09T10:20:42.000Z</time>
      </trkpt>
      <trkpt lat="48.76781" lon="1.83393">
        <ele>97</ele>
        <time>2011-04-09T10:20:47.000Z</time>
      </trkpt>
      <trkpt lat="48.76796" lon="1.83371">
        <ele>97.199996948242</ele>
        <time>2011-04-09T10:20:53.000Z</time>
      </trkpt>
      <trkpt lat="48.76815" lon="1.83335">
        <ele>97.400001525879</ele>
        <time>2011-04-09T10:21:01.000Z</time>
      </trkpt>
      <trkpt lat="48.7683" lon="1.83306">
        <ele>98.199996948242</ele>
        <time>2011-04-09T10:21:08.000Z</time>
      </trkpt>
      <trkpt lat="48.76846" lon="1.83276">
        <ele>99.199996948242</ele>
        <time>2011-04-09T10:21:15.000Z</time>
      </trkpt>
      <trkpt lat="48.76859" lon="1.83249">
        <ele>100</ele>
        <time>2011-04-09T10:21:21.000Z</time>
      </trkpt>
      <trkpt lat="48.76869" lon="1.8323">
        <ele>100</ele>
        <time>2011-04-09T10:21:27.000Z</time>
      </trkpt>
      <trkpt lat="48.76874" lon="1.8322">
        <ele>100.19999694824</ele>
        <time>2011-04-09T10:21:32.000Z</time>
      </trkpt>
      <trkpt lat="48.76883" lon="1.83204">
        <ele>100.19999694824</ele>
        <time>2011-04-09T10:21:40.000Z</time>
      </trkpt>
      <trkpt lat="48.76888" lon="1.83195">
        <ele>100.19999694824</ele>
        <time>2011-04-09T10:21:45.000Z</time>
      </trkpt>
      <trkpt lat="48.76891" lon="1.8319">
        <ele>100.19999694824</ele>
        <time>2011-04-09T10:21:48.000Z</time>
      </trkpt>
      <trkpt lat="48.76896" lon="1.83179">
        <ele>100.40000152588</ele>
        <time>2011-04-09T10:21:54.000Z</time>
      </trkpt>
      <trkpt lat="48.76897" lon="1.83177">
        <ele>100.40000152588</ele>
        <time>2011-04-09T10:21:58.000Z</time>
      </trkpt>
      <trkpt lat="48.76894" lon="1.83188">
        <ele>100.19999694824</ele>
        <time>2011-04-09T10:22:14.000Z</time>
      </trkpt>
      <trkpt lat="48.76887" lon="1.83203">
        <ele>100.19999694824</ele>
        <time>2011-04-09T10:22:20.000Z</time>
      </trkpt>
      <trkpt lat="48.76875" lon="1.83224">
        <ele>100</ele>
        <time>2011-04-09T10:22:30.000Z</time>
      </trkpt>
      <trkpt lat="48.76865" lon="1.83243">
        <ele>100</ele>
        <time>2011-04-09T10:22:37.000Z</time>
      </trkpt>
      <trkpt lat="48.76858" lon="1.83255">
        <ele>99.800003051758</ele>
        <time>2011-04-09T10:22:43.000Z</time>
      </trkpt>
      <trkpt lat="48.76849" lon="1.83271">
        <ele>99.400001525879</ele>
        <time>2011-04-09T10:22:51.000Z</time>
      </trkpt>
      <trkpt lat="48.76846" lon="1.83276">
        <ele>99.199996948242</ele>
        <time>2011-04-09T10:22:56.000Z</time>
      </trkpt>
      <trkpt lat="48.76843" lon="1.83283">
        <ele>99</ele>
        <time>2011-04-09T10:23:02.000Z</time>
      </trkpt>
      <trkpt lat="48.76836" lon="1.83295">
        <ele>98.599998474121</ele>
        <time>2011-04-09T10:23:07.000Z</time>
      </trkpt>
      <trkpt lat="48.76828" lon="1.83311">
        <ele>98</ele>
        <time>2011-04-09T10:23:16.000Z</time>
      </trkpt>
      <trkpt lat="48.76816" lon="1.83332">
        <ele>97.400001525879</ele>
        <time>2011-04-09T10:23:26.000Z</time>
      </trkpt>
      <trkpt lat="48.76809" lon="1.83344">
        <ele>97.400001525879</ele>
        <time>2011-04-09T10:23:32.000Z</time>
      </trkpt>
      <trkpt lat="48.76804" lon="1.83353">
        <ele>97.199996948242</ele>
        <time>2011-04-09T10:23:37.000Z</time>
      </trkpt>
      <trkpt lat="48.76803" lon="1.83355">
        <ele>97.199996948242</ele>
        <time>2011-04-09T10:23:40.000Z</time>
      </trkpt>
      <trkpt lat="48.76801" lon="1.83359">
        <ele>97.199996948242</ele>
        <time>2011-04-09T10:23:44.000Z</time>
      </trkpt>
      <trkpt lat="48.76794" lon="1.83373">
        <ele>97.199996948242</ele>
        <time>2011-04-09T10:23:50.000Z</time>
      </trkpt>
      <trkpt lat="48.76788" lon="1.83384">
        <ele>97</ele>
        <time>2011-04-09T10:23:56.000Z</time>
      </trkpt>
      <trkpt lat="48.76781" lon="1.83396">
        <ele>97</ele>
        <time>2011-04-09T10:24:02.000Z</time>
      </trkpt>
      <trkpt lat="48.76776" lon="1.83406">
        <ele>96.800003051758</ele>
        <time>2011-04-09T10:24:07.000Z</time>
      </trkpt>
      <trkpt lat="48.76769" lon="1.83417">
        <ele>96.599998474121</ele>
        <time>2011-04-09T10:24:12.000Z</time>
      </trkpt>
      <trkpt lat="48.76765" lon="1.83424">
        <ele>96.800003051758</ele>
        <time>2011-04-09T10:24:16.000Z</time>
      </trkpt>
      <trkpt lat="48.76759" lon="1.83434">
        <ele>96.800003051758</ele>
        <time>2011-04-09T10:24:22.000Z</time>
      </trkpt>
      <trkpt lat="48.76753" lon="1.83441">
        <ele>96.800003051758</ele>
        <time>2011-04-09T10:24:27.000Z</time>
      </trkpt>
      <trkpt lat="48.76752" lon="1.83443">
        <ele>96.800003051758</ele>
        <time>2011-04-09T10:24:29.000Z</time>
      </trkpt>
      <trkpt lat="48.76754" lon="1.83454">
        <ele>96.800003051758</ele>
        <time>2011-04-09T10:24:35.000Z</time>
      </trkpt>
      <trkpt lat="48.76762" lon="1.83469">
        <ele>96.599998474121</ele>
        <time>2011-04-09T10:24:43.000Z</time>
      </trkpt>
      <trkpt lat="48.76776" lon="1.83488">
        <ele>96.400001525879</ele>
        <time>2011-04-09T10:24:53.000Z</time>
      </trkpt>
      <trkpt lat="48.76785" lon="1.83503">
        <ele>96</ele>
        <time>2011-04-09T10:25:01.000Z</time>
      </trkpt>
      <trkpt lat="48.76791" lon="1.83513">
        <ele>95.800003051758</ele>
        <time>2011-04-09T10:25:07.000Z</time>
      </trkpt>
      <trkpt lat="48.76801" lon="1.83525">
        <ele>95.400001525879</ele>
        <time>2011-04-09T10:25:15.000Z</time>
      </trkpt>
      <trkpt lat="48.76809" lon="1.83536">
        <ele>95</ele>
        <time>2011-04-09T10:25:22.000Z</time>
      </trkpt>
      <trkpt lat="48.76817" lon="1.83548">
        <ele>94.800003051758</ele>
        <time>2011-04-09T10:25:29.000Z</time>
      </trkpt>
      <trkpt lat="48.76823" lon="1.83559">
        <ele>94.400001525879</ele>
        <time>2011-04-09T10:25:35.000Z</time>
      </trkpt>
      <trkpt lat="48.76826" lon="1.83562">
        <ele>94.400001525879</ele>
        <time>2011-04-09T10:25:37.000Z</time>
      </trkpt>
      <trkpt lat="48.7683" lon="1.83574">
        <ele>94</ele>
        <time>2011-04-09T10:25:44.000Z</time>
      </trkpt>
      <trkpt lat="48.76839" lon="1.83586">
        <ele>93.800003051758</ele>
        <time>2011-04-09T10:25:53.000Z</time>
      </trkpt>
      <trkpt lat="48.76852" lon="1.83604">
        <ele>94</ele>
        <time>2011-04-09T10:26:03.000Z</time>
      </trkpt>
      <trkpt lat="48.76867" lon="1.83625">
        <ele>94</ele>
        <time>2011-04-09T10:26:15.000Z</time>
      </trkpt>
      <trkpt lat="48.76879" lon="1.83643">
        <ele>94</ele>
        <time>2011-04-09T10:26:25.000Z</time>
      </trkpt>
      <trkpt lat="48.7688" lon="1.83645">
        <ele>94</ele>
        <time>2011-04-09T10:26:28.000Z</time>
      </trkpt>
      <trkpt lat="48.76884" lon="1.83652">
        <ele>94.199996948242</ele>
        <time>2011-04-09T10:26:35.000Z</time>
      </trkpt>
      <trkpt lat="48.76892" lon="1.83663">
        <ele>94.199996948242</ele>
        <time>2011-04-09T10:26:42.000Z</time>
      </trkpt>
      <trkpt lat="48.76896" lon="1.83671">
        <ele>94</ele>
        <time>2011-04-09T10:26:46.000Z</time>
      </trkpt>
      <trkpt lat="48.76907" lon="1.83685">
        <ele>93.400001525879</ele>
        <time>2011-04-09T10:26:52.000Z</time>
      </trkpt>
      <trkpt lat="48.76919" lon="1.83702">
        <ele>92.599998474121</ele>
        <time>2011-04-09T10:27:00.000Z</time>
      </trkpt>
      <trkpt lat="48.76927" lon="1.83715">
        <ele>91.800003051758</ele>
        <time>2011-04-09T10:27:07.000Z</time>
      </trkpt>
      <trkpt lat="48.76931" lon="1.83721">
        <ele>91.599998474121</ele>
        <time>2011-04-09T10:27:11.000Z</time>
      </trkpt>
      <trkpt lat="48.76932" lon="1.83722">
        <ele>91.400001525879</ele>
        <time>2011-04-09T10:27:14.000Z</time>
      </trkpt>
      <trkpt lat="48.76936" lon="1.83722">
        <ele>91.400001525879</ele>
        <time>2011-04-09T10:27:19.000Z</time>
      </trkpt>
      <trkpt lat="48.76943" lon="1.83717">
        <ele>91.400001525879</ele>
        <time>2011-04-09T10:27:23.000Z</time>
      </trkpt>
      <trkpt lat="48.76944" lon="1.83715">
        <ele>91.400001525879</ele>
        <time>2011-04-09T10:27:24.000Z</time>
      </trkpt>
      <trkpt lat="48.76952" lon="1.837">
        <ele>91.599998474121</ele>
        <time>2011-04-09T10:27:32.000Z</time>
      </trkpt>
      <trkpt lat="48.76959" lon="1.83688">
        <ele>91.800003051758</ele>
        <time>2011-04-09T10:27:40.000Z</time>
      </trkpt>
      <trkpt lat="48.76966" lon="1.83677">
        <ele>91.800003051758</ele>
        <time>2011-04-09T10:27:47.000Z</time>
      </trkpt>
      <trkpt lat="48.76972" lon="1.83666">
        <ele>91.800003051758</ele>
        <time>2011-04-09T10:27:53.000Z</time>
      </trkpt>
      <trkpt lat="48.76975" lon="1.8366">
        <ele>91.800003051758</ele>
        <time>2011-04-09T10:27:56.000Z</time>
      </trkpt>
      <trkpt lat="48.7698" lon="1.83655">
        <ele>91.599998474121</ele>
        <time>2011-04-09T10:28:00.000Z</time>
      </trkpt>
      <trkpt lat="48.76984" lon="1.83645">
        <ele>91.599998474121</ele>
        <time>2011-04-09T10:28:06.000Z</time>
      </trkpt>
      <trkpt lat="48.76986" lon="1.83641">
        <ele>91.599998474121</ele>
        <time>2011-04-09T10:28:10.000Z</time>
      </trkpt>
      <trkpt lat="48.76994" lon="1.83626">
        <ele>91.599998474121</ele>
        <time>2011-04-09T10:28:19.000Z</time>
      </trkpt>
      <trkpt lat="48.77" lon="1.83617">
        <ele>91.599998474121</ele>
        <time>2011-04-09T10:28:24.000Z</time>
      </trkpt>
      <trkpt lat="48.77006" lon="1.83605">
        <ele>91.599998474121</ele>
        <time>2011-04-09T10:28:29.000Z</time>
      </trkpt>
      <trkpt lat="48.77021" lon="1.83579">
        <ele>91.599998474121</ele>
        <time>2011-04-09T10:28:37.000Z</time>
      </trkpt>
      <trkpt lat="48.77033" lon="1.83557">
        <ele>91.599998474121</ele>
        <time>2011-04-09T10:28:43.000Z</time>
      </trkpt>
      <trkpt lat="48.77046" lon="1.8354">
        <ele>91.599998474121</ele>
        <time>2011-04-09T10:28:48.000Z</time>
      </trkpt>
      <trkpt lat="48.77065" lon="1.83504">
        <ele>91.800003051758</ele>
        <time>2011-04-09T10:28:56.000Z</time>
      </trkpt>
      <trkpt lat="48.77078" lon="1.8348">
        <ele>92</ele>
        <time>2011-04-09T10:29:01.000Z</time>
      </trkpt>
      <trkpt lat="48.77092" lon="1.83453">
        <ele>92</ele>
        <time>2011-04-09T10:29:06.000Z</time>
      </trkpt>
      <trkpt lat="48.77115" lon="1.8341">
        <ele>92.400001525879</ele>
        <time>2011-04-09T10:29:14.000Z</time>
      </trkpt>
      <trkpt lat="48.7714" lon="1.83364">
        <ele>93</ele>
        <time>2011-04-09T10:29:22.000Z</time>
      </trkpt>
      <trkpt lat="48.77167" lon="1.83315">
        <ele>93.400001525879</ele>
        <time>2011-04-09T10:29:30.000Z</time>
      </trkpt>
      <trkpt lat="48.77183" lon="1.83274">
        <ele>94.599998474121</ele>
        <time>2011-04-09T10:29:36.000Z</time>
      </trkpt>
      <trkpt lat="48.77204" lon="1.83216">
        <ele>95.800003051758</ele>
        <time>2011-04-09T10:29:44.000Z</time>
      </trkpt>
      <trkpt lat="48.77207" lon="1.83208">
        <ele>96</ele>
        <time>2011-04-09T10:29:45.000Z</time>
      </trkpt>
      <trkpt lat="48.77237" lon="1.83165">
        <ele>96</ele>
        <time>2011-04-09T10:29:52.000Z</time>
      </trkpt>
      <trkpt lat="48.77265" lon="1.83133">
        <ele>95.800003051758</ele>
        <time>2011-04-09T10:29:58.000Z</time>
      </trkpt>
      <trkpt lat="48.77296" lon="1.83096">
        <ele>96.199996948242</ele>
        <time>2011-04-09T10:30:05.000Z</time>
      </trkpt>
      <trkpt lat="48.77307" lon="1.83084">
        <ele>96.199996948242</ele>
        <time>2011-04-09T10:30:08.000Z</time>
      </trkpt>
      <trkpt lat="48.77326" lon="1.83068">
        <ele>97</ele>
        <time>2011-04-09T10:30:14.000Z</time>
      </trkpt>
      <trkpt lat="48.77333" lon="1.83058">
        <ele>97.199996948242</ele>
        <time>2011-04-09T10:30:19.000Z</time>
      </trkpt>
      <trkpt lat="48.77332" lon="1.83056">
        <ele>97.199996948242</ele>
        <time>2011-04-09T10:30:23.000Z</time>
      </trkpt>
      <trkpt lat="48.77328" lon="1.83048">
        <ele>97.199996948242</ele>
        <time>2011-04-09T10:30:49.000Z</time>
      </trkpt>
      <trkpt lat="48.77317" lon="1.83035">
        <ele>97.199996948242</ele>
        <time>2011-04-09T10:30:57.000Z</time>
      </trkpt>
      <trkpt lat="48.77312" lon="1.83028">
        <ele>97.199996948242</ele>
        <time>2011-04-09T10:31:02.000Z</time>
      </trkpt>
      <trkpt lat="48.77301" lon="1.83014">
        <ele>97.199996948242</ele>
        <time>2011-04-09T10:31:08.000Z</time>
      </trkpt>
      <trkpt lat="48.77279" lon="1.82979">
        <ele>97.599998474121</ele>
        <time>2011-04-09T10:31:16.000Z</time>
      </trkpt>
      <trkpt lat="48.77253" lon="1.82948">
        <ele>98.199996948242</ele>
        <time>2011-04-09T10:31:24.000Z</time>
      </trkpt>
      <trkpt lat="48.77225" lon="1.82922">
        <ele>99.400001525879</ele>
        <time>2011-04-09T10:31:31.000Z</time>
      </trkpt>
      <trkpt lat="48.77186" lon="1.82895">
        <ele>101.19999694824</ele>
        <time>2011-04-09T10:31:40.000Z</time>
      </trkpt>
      <trkpt lat="48.77159" lon="1.82866">
        <ele>103</ele>
        <time>2011-04-09T10:31:47.000Z</time>
      </trkpt>
      <trkpt lat="48.77139" lon="1.82838">
        <ele>104.40000152588</ele>
        <time>2011-04-09T10:31:53.000Z</time>
      </trkpt>
      <trkpt lat="48.77125" lon="1.82816">
        <ele>105.40000152588</ele>
        <time>2011-04-09T10:31:58.000Z</time>
      </trkpt>
      <trkpt lat="48.77104" lon="1.82786">
        <ele>107</ele>
        <time>2011-04-09T10:32:05.000Z</time>
      </trkpt>
      <trkpt lat="48.77101" lon="1.82782">
        <ele>107.19999694824</ele>
        <time>2011-04-09T10:32:06.000Z</time>
      </trkpt>
      <trkpt lat="48.77096" lon="1.82773">
        <ele>107.59999847412</ele>
        <time>2011-04-09T10:32:08.000Z</time>
      </trkpt>
      <trkpt lat="48.7708" lon="1.8275">
        <ele>109</ele>
        <time>2011-04-09T10:32:15.000Z</time>
      </trkpt>
      <trkpt lat="48.77065" lon="1.82727">
        <ele>109.80000305176</ele>
        <time>2011-04-09T10:32:22.000Z</time>
      </trkpt>
      <trkpt lat="48.77059" lon="1.82715">
        <ele>110.19999694824</ele>
        <time>2011-04-09T10:32:27.000Z</time>
      </trkpt>
      <trkpt lat="48.7705" lon="1.82705">
        <ele>110.59999847412</ele>
        <time>2011-04-09T10:32:33.000Z</time>
      </trkpt>
      <trkpt lat="48.77042" lon="1.82694">
        <ele>111</ele>
        <time>2011-04-09T10:32:38.000Z</time>
      </trkpt>
      <trkpt lat="48.77034" lon="1.82686">
        <ele>111.40000152588</ele>
        <time>2011-04-09T10:32:43.000Z</time>
      </trkpt>
      <trkpt lat="48.77033" lon="1.82686">
        <ele>111.59999847412</ele>
        <time>2011-04-09T10:32:44.000Z</time>
      </trkpt>
      <trkpt lat="48.77027" lon="1.8268">
        <ele>111.80000305176</ele>
        <time>2011-04-09T10:32:50.000Z</time>
      </trkpt>
      <trkpt lat="48.77021" lon="1.82672">
        <ele>112.19999694824</ele>
        <time>2011-04-09T10:32:57.000Z</time>
      </trkpt>
      <trkpt lat="48.77011" lon="1.82662">
        <ele>112.80000305176</ele>
        <time>2011-04-09T10:33:06.000Z</time>
      </trkpt>
      <trkpt lat="48.77001" lon="1.82654">
        <ele>113.40000152588</ele>
        <time>2011-04-09T10:33:15.000Z</time>
      </trkpt>
      <trkpt lat="48.76992" lon="1.82647">
        <ele>113.80000305176</ele>
        <time>2011-04-09T10:33:23.000Z</time>
      </trkpt>
      <trkpt lat="48.76983" lon="1.82637">
        <ele>114.59999847412</ele>
        <time>2011-04-09T10:33:30.000Z</time>
      </trkpt>
      <trkpt lat="48.76978" lon="1.82631">
        <ele>115</ele>
        <time>2011-04-09T10:33:35.000Z</time>
      </trkpt>
      <trkpt lat="48.76972" lon="1.82624">
        <ele>115.40000152588</ele>
        <time>2011-04-09T10:33:40.000Z</time>
      </trkpt>
      <trkpt lat="48.76967" lon="1.82619">
        <ele>115.80000305176</ele>
        <time>2011-04-09T10:33:44.000Z</time>
      </trkpt>
      <trkpt lat="48.76952" lon="1.82603">
        <ele>117</ele>
        <time>2011-04-09T10:33:56.000Z</time>
      </trkpt>
      <trkpt lat="48.76944" lon="1.82594">
        <ele>117.59999847412</ele>
        <time>2011-04-09T10:34:02.000Z</time>
      </trkpt>
      <trkpt lat="48.76936" lon="1.82587">
        <ele>118</ele>
        <time>2011-04-09T10:34:08.000Z</time>
      </trkpt>
      <trkpt lat="48.76927" lon="1.82576">
        <ele>118.80000305176</ele>
        <time>2011-04-09T10:34:16.000Z</time>
      </trkpt>
      <trkpt lat="48.76925" lon="1.82564">
        <ele>119.19999694824</ele>
        <time>2011-04-09T10:34:22.000Z</time>
      </trkpt>
      <trkpt lat="48.76917" lon="1.82551">
        <ele>120</ele>
        <time>2011-04-09T10:34:30.000Z</time>
      </trkpt>
      <trkpt lat="48.76907" lon="1.82544">
        <ele>120.40000152588</ele>
        <time>2011-04-09T10:34:37.000Z</time>
      </trkpt>
      <trkpt lat="48.76897" lon="1.82543">
        <ele>120.59999847412</ele>
        <time>2011-04-09T10:34:44.000Z</time>
      </trkpt>
      <trkpt lat="48.76893" lon="1.82541">
        <ele>120.80000305176</ele>
        <time>2011-04-09T10:34:48.000Z</time>
      </trkpt>
      <trkpt lat="48.76884" lon="1.82543">
        <ele>120.80000305176</ele>
        <time>2011-04-09T10:34:56.000Z</time>
      </trkpt>
      <trkpt lat="48.76876" lon="1.82547">
        <ele>120.59999847412</ele>
        <time>2011-04-09T10:35:01.000Z</time>
      </trkpt>
      <trkpt lat="48.76865" lon="1.8255">
        <ele>120.59999847412</ele>
        <time>2011-04-09T10:35:07.000Z</time>
      </trkpt>
      <trkpt lat="48.7685" lon="1.82552">
        <ele>120.59999847412</ele>
        <time>2011-04-09T10:35:16.000Z</time>
      </trkpt>
      <trkpt lat="48.76841" lon="1.8255">
        <ele>120.80000305176</ele>
        <time>2011-04-09T10:35:22.000Z</time>
      </trkpt>
      <trkpt lat="48.76829" lon="1.82547">
        <ele>121</ele>
        <time>2011-04-09T10:35:31.000Z</time>
      </trkpt>
      <trkpt lat="48.76821" lon="1.82539">
        <ele>121.40000152588</ele>
        <time>2011-04-09T10:35:38.000Z</time>
      </trkpt>
      <trkpt lat="48.76819" lon="1.8253">
        <ele>121.80000305176</ele>
        <time>2011-04-09T10:35:43.000Z</time>
      </trkpt>
      <trkpt lat="48.76815" lon="1.82524">
        <ele>122.19999694824</ele>
        <time>2011-04-09T10:35:48.000Z</time>
      </trkpt>
      <trkpt lat="48.76814" lon="1.82523">
        <ele>122.19999694824</ele>
        <time>2011-04-09T10:35:49.000Z</time>
      </trkpt>
      <trkpt lat="48.76809" lon="1.82513">
        <ele>122.59999847412</ele>
        <time>2011-04-09T10:35:54.000Z</time>
      </trkpt>
      <trkpt lat="48.76801" lon="1.82502">
        <ele>123</ele>
        <time>2011-04-09T10:36:02.000Z</time>
      </trkpt>
      <trkpt lat="48.76796" lon="1.82489">
        <ele>123</ele>
        <time>2011-04-09T10:36:08.000Z</time>
      </trkpt>
      <trkpt lat="48.76796" lon="1.82472">
        <ele>123.19999694824</ele>
        <time>2011-04-09T10:36:15.000Z</time>
      </trkpt>
      <trkpt lat="48.76792" lon="1.82453">
        <ele>123.19999694824</ele>
        <time>2011-04-09T10:36:24.000Z</time>
      </trkpt>
      <trkpt lat="48.7679" lon="1.82436">
        <ele>123.19999694824</ele>
        <time>2011-04-09T10:36:31.000Z</time>
      </trkpt>
      <trkpt lat="48.76787" lon="1.82421">
        <ele>123.40000152588</ele>
        <time>2011-04-09T10:36:38.000Z</time>
      </trkpt>
      <trkpt lat="48.76782" lon="1.8241">
        <ele>123.40000152588</ele>
        <time>2011-04-09T10:36:44.000Z</time>
      </trkpt>
      <trkpt lat="48.7678" lon="1.82401">
        <ele>123.59999847412</ele>
        <time>2011-04-09T10:36:48.000Z</time>
      </trkpt>
      <trkpt lat="48.76779" lon="1.82391">
        <ele>124</ele>
        <time>2011-04-09T10:36:54.000Z</time>
      </trkpt>
      <trkpt lat="48.76774" lon="1.82389">
        <ele>124</ele>
        <time>2011-04-09T10:36:58.000Z</time>
      </trkpt>
      <trkpt lat="48.76763" lon="1.82387">
        <ele>124</ele>
        <time>2011-04-09T10:37:06.000Z</time>
      </trkpt>
      <trkpt lat="48.76755" lon="1.82387">
        <ele>124</ele>
        <time>2011-04-09T10:37:12.000Z</time>
      </trkpt>
      <trkpt lat="48.76745" lon="1.82387">
        <ele>124.19999694824</ele>
        <time>2011-04-09T10:37:19.000Z</time>
      </trkpt>
      <trkpt lat="48.76733" lon="1.82387">
        <ele>124.59999847412</ele>
        <time>2011-04-09T10:37:28.000Z</time>
      </trkpt>
      <trkpt lat="48.76731" lon="1.82386">
        <ele>124.59999847412</ele>
        <time>2011-04-09T10:37:29.000Z</time>
      </trkpt>
      <trkpt lat="48.76723" lon="1.82385">
        <ele>124.80000305176</ele>
        <time>2011-04-09T10:37:34.000Z</time>
      </trkpt>
      <trkpt lat="48.76711" lon="1.82382">
        <ele>125.40000152588</ele>
        <time>2011-04-09T10:37:43.000Z</time>
      </trkpt>
      <trkpt lat="48.76697" lon="1.8238">
        <ele>125.80000305176</ele>
        <time>2011-04-09T10:37:52.000Z</time>
      </trkpt>
      <trkpt lat="48.76688" lon="1.82379">
        <ele>126.19999694824</ele>
        <time>2011-04-09T10:37:58.000Z</time>
      </trkpt>
      <trkpt lat="48.76676" lon="1.82376">
        <ele>126.59999847412</ele>
        <time>2011-04-09T10:38:07.000Z</time>
      </trkpt>
      <trkpt lat="48.76671" lon="1.82374">
        <ele>126.80000305176</ele>
        <time>2011-04-09T10:38:13.000Z</time>
      </trkpt>
      <trkpt lat="48.76671" lon="1.82374">
        <ele>126.80000305176</ele>
        <time>2011-04-09T10:38:14.000Z</time>
      </trkpt>
      <trkpt lat="48.76662" lon="1.82367">
        <ele>127</ele>
        <time>2011-04-09T10:40:20.000Z</time>
      </trkpt>
      <trkpt lat="48.7665" lon="1.82368">
        <ele>126.80000305176</ele>
        <time>2011-04-09T10:40:28.000Z</time>
      </trkpt>
      <trkpt lat="48.76635" lon="1.82367">
        <ele>126.40000152588</ele>
        <time>2011-04-09T10:40:38.000Z</time>
      </trkpt>
      <trkpt lat="48.76629" lon="1.82368">
        <ele>126.40000152588</ele>
        <time>2011-04-09T10:40:42.000Z</time>
      </trkpt>
      <trkpt lat="48.76619" lon="1.82369">
        <ele>126.19999694824</ele>
        <time>2011-04-09T10:40:49.000Z</time>
      </trkpt>
      <trkpt lat="48.76607" lon="1.82371">
        <ele>125.80000305176</ele>
        <time>2011-04-09T10:40:57.000Z</time>
      </trkpt>
      <trkpt lat="48.76604" lon="1.82372">
        <ele>125.80000305176</ele>
        <time>2011-04-09T10:40:59.000Z</time>
      </trkpt>
      <trkpt lat="48.76591" lon="1.82377">
        <ele>125.59999847412</ele>
        <time>2011-04-09T10:41:08.000Z</time>
      </trkpt>
      <trkpt lat="48.76573" lon="1.82384">
        <ele>125.40000152588</ele>
        <time>2011-04-09T10:41:20.000Z</time>
      </trkpt>
      <trkpt lat="48.76565" lon="1.82389">
        <ele>125.40000152588</ele>
        <time>2011-04-09T10:41:27.000Z</time>
      </trkpt>
      <trkpt lat="48.76552" lon="1.82397">
        <ele>125.40000152588</ele>
        <time>2011-04-09T10:41:37.000Z</time>
      </trkpt>
      <trkpt lat="48.7654" lon="1.82403">
        <ele>125.40000152588</ele>
        <time>2011-04-09T10:41:46.000Z</time>
      </trkpt>
      <trkpt lat="48.76526" lon="1.82413">
        <ele>125</ele>
        <time>2011-04-09T10:41:56.000Z</time>
      </trkpt>
      <trkpt lat="48.76514" lon="1.8242">
        <ele>124.80000305176</ele>
        <time>2011-04-09T10:42:05.000Z</time>
      </trkpt>
      <trkpt lat="48.76496" lon="1.82432">
        <ele>124.59999847412</ele>
        <time>2011-04-09T10:42:17.000Z</time>
      </trkpt>
      <trkpt lat="48.76482" lon="1.8244">
        <ele>124.19999694824</ele>
        <time>2011-04-09T10:42:27.000Z</time>
      </trkpt>
      <trkpt lat="48.76468" lon="1.82449">
        <ele>124</ele>
        <time>2011-04-09T10:42:36.000Z</time>
      </trkpt>
      <trkpt lat="48.76454" lon="1.82458">
        <ele>123.59999847412</ele>
        <time>2011-04-09T10:42:44.000Z</time>
      </trkpt>
      <trkpt lat="48.76446" lon="1.82462">
        <ele>123.40000152588</ele>
        <time>2011-04-09T10:42:48.000Z</time>
      </trkpt>
      <trkpt lat="48.76434" lon="1.82469">
        <ele>123.19999694824</ele>
        <time>2011-04-09T10:42:55.000Z</time>
      </trkpt>
      <trkpt lat="48.76417" lon="1.82478">
        <ele>122.80000305176</ele>
        <time>2011-04-09T10:43:05.000Z</time>
      </trkpt>
      <trkpt lat="48.764" lon="1.82488">
        <ele>123.19999694824</ele>
        <time>2011-04-09T10:43:15.000Z</time>
      </trkpt>
      <trkpt lat="48.76386" lon="1.82496">
        <ele>123.80000305176</ele>
        <time>2011-04-09T10:43:24.000Z</time>
      </trkpt>
      <trkpt lat="48.76374" lon="1.82504">
        <ele>124.40000152588</ele>
        <time>2011-04-09T10:43:32.000Z</time>
      </trkpt>
      <trkpt lat="48.76364" lon="1.82511">
        <ele>124.80000305176</ele>
        <time>2011-04-09T10:43:39.000Z</time>
      </trkpt>
      <trkpt lat="48.76364" lon="1.82511">
        <ele>124.80000305176</ele>
        <time>2011-04-09T10:43:42.000Z</time>
      </trkpt>
      <trkpt lat="48.76358" lon="1.82515">
        <ele>125</ele>
        <time>2011-04-09T10:45:35.000Z</time>
      </trkpt>
      <trkpt lat="48.76358" lon="1.82525">
        <ele>124.80000305176</ele>
        <time>2011-04-09T10:45:38.000Z</time>
      </trkpt>
      <trkpt lat="48.76358" lon="1.82527">
        <ele>124.59999847412</ele>
        <time>2011-04-09T10:45:39.000Z</time>
      </trkpt>
      <trkpt lat="48.76357" lon="1.82545">
        <ele>124.19999694824</ele>
        <time>2011-04-09T10:45:46.000Z</time>
      </trkpt>
      <trkpt lat="48.76353" lon="1.82559">
        <ele>124</ele>
        <time>2011-04-09T10:45:52.000Z</time>
      </trkpt>
      <trkpt lat="48.7635" lon="1.82573">
        <ele>123.59999847412</ele>
        <time>2011-04-09T10:45:58.000Z</time>
      </trkpt>
      <trkpt lat="48.76347" lon="1.82589">
        <ele>123.19999694824</ele>
        <time>2011-04-09T10:46:06.000Z</time>
      </trkpt>
      <trkpt lat="48.76347" lon="1.82594">
        <ele>123</ele>
        <time>2011-04-09T10:46:11.000Z</time>
      </trkpt>
      <trkpt lat="48.76346" lon="1.82601">
        <ele>122.80000305176</ele>
        <time>2011-04-09T10:46:16.000Z</time>
      </trkpt>
      <trkpt lat="48.76344" lon="1.82613">
        <ele>122.59999847412</ele>
        <time>2011-04-09T10:46:21.000Z</time>
      </trkpt>
      <trkpt lat="48.76341" lon="1.82629">
        <ele>122</ele>
        <time>2011-04-09T10:46:29.000Z</time>
      </trkpt>
      <trkpt lat="48.76338" lon="1.82641">
        <ele>121.59999847412</ele>
        <time>2011-04-09T10:46:36.000Z</time>
      </trkpt>
      <trkpt lat="48.76337" lon="1.82656">
        <ele>121.19999694824</ele>
        <time>2011-04-09T10:46:44.000Z</time>
      </trkpt>
      <trkpt lat="48.76335" lon="1.82666">
        <ele>120.80000305176</ele>
        <time>2011-04-09T10:46:49.000Z</time>
      </trkpt>
      <trkpt lat="48.76334" lon="1.82673">
        <ele>120.59999847412</ele>
        <time>2011-04-09T10:46:53.000Z</time>
      </trkpt>
      <trkpt lat="48.7633" lon="1.82688">
        <ele>120.19999694824</ele>
        <time>2011-04-09T10:47:00.000Z</time>
      </trkpt>
      <trkpt lat="48.76329" lon="1.82702">
        <ele>119.80000305176</ele>
        <time>2011-04-09T10:47:07.000Z</time>
      </trkpt>
      <trkpt lat="48.76325" lon="1.82713">
        <ele>119.40000152588</ele>
        <time>2011-04-09T10:47:13.000Z</time>
      </trkpt>
      <trkpt lat="48.76322" lon="1.82725">
        <ele>119</ele>
        <time>2011-04-09T10:47:19.000Z</time>
      </trkpt>
      <trkpt lat="48.7632" lon="1.82735">
        <ele>118.80000305176</ele>
        <time>2011-04-09T10:47:24.000Z</time>
      </trkpt>
      <trkpt lat="48.76316" lon="1.82752">
        <ele>118.40000152588</ele>
        <time>2011-04-09T10:47:32.000Z</time>
      </trkpt>
      <trkpt lat="48.76314" lon="1.82766">
        <ele>118.19999694824</ele>
        <time>2011-04-09T10:47:39.000Z</time>
      </trkpt>
      <trkpt lat="48.76312" lon="1.8278">
        <ele>117.80000305176</ele>
        <time>2011-04-09T10:47:46.000Z</time>
      </trkpt>
      <trkpt lat="48.7631" lon="1.82792">
        <ele>117.59999847412</ele>
        <time>2011-04-09T10:47:51.000Z</time>
      </trkpt>
      <trkpt lat="48.76307" lon="1.82803">
        <ele>117.40000152588</ele>
        <time>2011-04-09T10:47:56.000Z</time>
      </trkpt>
      <trkpt lat="48.76303" lon="1.82824">
        <ele>117</ele>
        <time>2011-04-09T10:48:05.000Z</time>
      </trkpt>
      <trkpt lat="48.763" lon="1.82838">
        <ele>116.80000305176</ele>
        <time>2011-04-09T10:48:12.000Z</time>
      </trkpt>
      <trkpt lat="48.76299" lon="1.82843">
        <ele>116.80000305176</ele>
        <time>2011-04-09T10:48:16.000Z</time>
      </trkpt>
      <trkpt lat="48.76296" lon="1.82853">
        <ele>116.80000305176</ele>
        <time>2011-04-09T10:48:23.000Z</time>
      </trkpt>
      <trkpt lat="48.76293" lon="1.82863">
        <ele>116.80000305176</ele>
        <time>2011-04-09T10:48:28.000Z</time>
      </trkpt>
      <trkpt lat="48.76291" lon="1.82868">
        <ele>116.80000305176</ele>
        <time>2011-04-09T10:48:31.000Z</time>
      </trkpt>
      <trkpt lat="48.76287" lon="1.82882">
        <ele>116.59999847412</ele>
        <time>2011-04-09T10:48:39.000Z</time>
      </trkpt>
      <trkpt lat="48.76285" lon="1.82888">
        <ele>116.59999847412</ele>
        <time>2011-04-09T10:48:44.000Z</time>
      </trkpt>
      <trkpt lat="48.76282" lon="1.82894">
        <ele>116.59999847412</ele>
        <time>2011-04-09T10:48:48.000Z</time>
      </trkpt>
      <trkpt lat="48.76272" lon="1.82918">
        <ele>116.40000152588</ele>
        <time>2011-04-09T10:49:01.000Z</time>
      </trkpt>
      <trkpt lat="48.76266" lon="1.82931">
        <ele>116.19999694824</ele>
        <time>2011-04-09T10:49:09.000Z</time>
      </trkpt>
      <trkpt lat="48.7626" lon="1.82942">
        <ele>116.19999694824</ele>
        <time>2011-04-09T10:49:15.000Z</time>
      </trkpt>
      <trkpt lat="48.76254" lon="1.82956">
        <ele>116</ele>
        <time>2011-04-09T10:49:23.000Z</time>
      </trkpt>
      <trkpt lat="48.76249" lon="1.82966">
        <ele>115.80000305176</ele>
        <time>2011-04-09T10:49:29.000Z</time>
      </trkpt>
      <trkpt lat="48.76245" lon="1.82976">
        <ele>115.40000152588</ele>
        <time>2011-04-09T10:49:35.000Z</time>
      </trkpt>
      <trkpt lat="48.76243" lon="1.82979">
        <ele>115.40000152588</ele>
        <time>2011-04-09T10:49:37.000Z</time>
      </trkpt>
      <trkpt lat="48.76237" lon="1.82994">
        <ele>115</ele>
        <time>2011-04-09T10:49:45.000Z</time>
      </trkpt>
      <trkpt lat="48.7623" lon="1.8301">
        <ele>114.80000305176</ele>
        <time>2011-04-09T10:49:54.000Z</time>
      </trkpt>
      <trkpt lat="48.76225" lon="1.8302">
        <ele>114.59999847412</ele>
        <time>2011-04-09T10:50:01.000Z</time>
      </trkpt>
      <trkpt lat="48.76219" lon="1.83034">
        <ele>114.19999694824</ele>
        <time>2011-04-09T10:50:09.000Z</time>
      </trkpt>
      <trkpt lat="48.76213" lon="1.83047">
        <ele>113.80000305176</ele>
        <time>2011-04-09T10:50:17.000Z</time>
      </trkpt>
      <trkpt lat="48.76208" lon="1.83059">
        <ele>113.40000152588</ele>
        <time>2011-04-09T10:50:24.000Z</time>
      </trkpt>
      <trkpt lat="48.76202" lon="1.83073">
        <ele>113</ele>
        <time>2011-04-09T10:50:32.000Z</time>
      </trkpt>
      <trkpt lat="48.762" lon="1.83078">
        <ele>112.80000305176</ele>
        <time>2011-04-09T10:50:35.000Z</time>
      </trkpt>
      <trkpt lat="48.762" lon="1.83079">
        <ele>112.80000305176</ele>
        <time>2011-04-09T10:50:38.000Z</time>
      </trkpt>
      <trkpt lat="48.76209" lon="1.8307">
        <ele>113.19999694824</ele>
        <time>2011-04-09T10:50:51.000Z</time>
      </trkpt>
      <trkpt lat="48.76215" lon="1.83058">
        <ele>113.59999847412</ele>
        <time>2011-04-09T10:50:57.000Z</time>
      </trkpt>
      <trkpt lat="48.76216" lon="1.83055">
        <ele>113.59999847412</ele>
        <time>2011-04-09T10:50:59.000Z</time>
      </trkpt>
      <trkpt lat="48.76221" lon="1.83044">
        <ele>114</ele>
        <time>2011-04-09T10:51:06.000Z</time>
      </trkpt>
      <trkpt lat="48.76228" lon="1.83029">
        <ele>114.40000152588</ele>
        <time>2011-04-09T10:51:14.000Z</time>
      </trkpt>
      <trkpt lat="48.76233" lon="1.83019">
        <ele>114.59999847412</ele>
        <time>2011-04-09T10:51:20.000Z</time>
      </trkpt>
      <trkpt lat="48.76239" lon="1.83006">
        <ele>114.80000305176</ele>
        <time>2011-04-09T10:51:26.000Z</time>
      </trkpt>
      <trkpt lat="48.76243" lon="1.82996">
        <ele>115</ele>
        <time>2011-04-09T10:51:31.000Z</time>
      </trkpt>
      <trkpt lat="48.76247" lon="1.82985">
        <ele>115.19999694824</ele>
        <time>2011-04-09T10:51:37.000Z</time>
      </trkpt>
      <trkpt lat="48.76247" lon="1.82983">
        <ele>115.19999694824</ele>
        <time>2011-04-09T10:51:38.000Z</time>
      </trkpt>
      <trkpt lat="48.76253" lon="1.82968">
        <ele>115.59999847412</ele>
        <time>2011-04-09T10:51:45.000Z</time>
      </trkpt>
      <trkpt lat="48.76259" lon="1.82953">
        <ele>116</ele>
        <time>2011-04-09T10:51:52.000Z</time>
      </trkpt>
      <trkpt lat="48.76266" lon="1.82935">
        <ele>116.19999694824</ele>
        <time>2011-04-09T10:52:01.000Z</time>
      </trkpt>
      <trkpt lat="48.76276" lon="1.82913">
        <ele>116.40000152588</ele>
        <time>2011-04-09T10:52:12.000Z</time>
      </trkpt>
      <trkpt lat="48.76286" lon="1.82889">
        <ele>116.59999847412</ele>
        <time>2011-04-09T10:52:24.000Z</time>
      </trkpt>
      <trkpt lat="48.7629" lon="1.82865">
        <ele>116.80000305176</ele>
        <time>2011-04-09T10:52:35.000Z</time>
      </trkpt>
      <trkpt lat="48.76283" lon="1.8285">
        <ele>117.59999847412</ele>
        <time>2011-04-09T10:52:43.000Z</time>
      </trkpt>
      <trkpt lat="48.76278" lon="1.82844">
        <ele>118</ele>
        <time>2011-04-09T10:52:47.000Z</time>
      </trkpt>
      <trkpt lat="48.76267" lon="1.82833">
        <ele>118.80000305176</ele>
        <time>2011-04-09T10:52:55.000Z</time>
      </trkpt>
      <trkpt lat="48.76262" lon="1.82826">
        <ele>119.19999694824</ele>
        <time>2011-04-09T10:52:59.000Z</time>
      </trkpt>
      <trkpt lat="48.76258" lon="1.82822">
        <ele>119.59999847412</ele>
        <time>2011-04-09T10:53:03.000Z</time>
      </trkpt>
      <trkpt lat="48.76249" lon="1.82809">
        <ele>120.19999694824</ele>
        <time>2011-04-09T10:53:12.000Z</time>
      </trkpt>
      <trkpt lat="48.76241" lon="1.82799">
        <ele>120.40000152588</ele>
        <time>2011-04-09T10:53:18.000Z</time>
      </trkpt>
      <trkpt lat="48.76232" lon="1.8279">
        <ele>120.59999847412</ele>
        <time>2011-04-09T10:53:24.000Z</time>
      </trkpt>
      <trkpt lat="48.76224" lon="1.82782">
        <ele>120.80000305176</ele>
        <time>2011-04-09T10:53:30.000Z</time>
      </trkpt>
      <trkpt lat="48.76219" lon="1.82776">
        <ele>120.80000305176</ele>
        <time>2011-04-09T10:53:36.000Z</time>
      </trkpt>
      <trkpt lat="48.76213" lon="1.82772">
        <ele>121</ele>
        <time>2011-04-09T10:53:41.000Z</time>
      </trkpt>
      <trkpt lat="48.76206" lon="1.82764">
        <ele>121.19999694824</ele>
        <time>2011-04-09T10:53:47.000Z</time>
      </trkpt>
      <trkpt lat="48.76199" lon="1.82756">
        <ele>121.40000152588</ele>
        <time>2011-04-09T10:53:53.000Z</time>
      </trkpt>
      <trkpt lat="48.7619" lon="1.82746">
        <ele>121.59999847412</ele>
        <time>2011-04-09T10:54:01.000Z</time>
      </trkpt>
      <trkpt lat="48.76181" lon="1.82736">
        <ele>122</ele>
        <time>2011-04-09T10:54:08.000Z</time>
      </trkpt>
      <trkpt lat="48.76171" lon="1.82726">
        <ele>122.40000152588</ele>
        <time>2011-04-09T10:54:16.000Z</time>
      </trkpt>
      <trkpt lat="48.76163" lon="1.82717">
        <ele>122.80000305176</ele>
        <time>2011-04-09T10:54:23.000Z</time>
      </trkpt>
      <trkpt lat="48.76155" lon="1.82708">
        <ele>123.40000152588</ele>
        <time>2011-04-09T10:54:29.000Z</time>
      </trkpt>
      <trkpt lat="48.76146" lon="1.82699">
        <ele>124</ele>
        <time>2011-04-09T10:54:34.000Z</time>
      </trkpt>
      <trkpt lat="48.76125" lon="1.82676">
        <ele>125.59999847412</ele>
        <time>2011-04-09T10:54:41.000Z</time>
      </trkpt>
      <trkpt lat="48.76104" lon="1.82652">
        <ele>127.19999694824</ele>
        <time>2011-04-09T10:54:49.000Z</time>
      </trkpt>
      <trkpt lat="48.76088" lon="1.82631">
        <ele>128.19999694824</ele>
        <time>2011-04-09T10:54:56.000Z</time>
      </trkpt>
      <trkpt lat="48.76084" lon="1.82628">
        <ele>128.39999389648</ele>
        <time>2011-04-09T10:54:59.000Z</time>
      </trkpt>
      <trkpt lat="48.76077" lon="1.82625">
        <ele>128.19999694824</ele>
        <time>2011-04-09T10:55:06.000Z</time>
      </trkpt>
      <trkpt lat="48.76073" lon="1.82623">
        <ele>128</ele>
        <time>2011-04-09T10:55:11.000Z</time>
      </trkpt>
      <trkpt lat="48.76059" lon="1.8261">
        <ele>127.59999847412</ele>
        <time>2011-04-09T10:55:22.000Z</time>
      </trkpt>
      <trkpt lat="48.76051" lon="1.82601">
        <ele>127.40000152588</ele>
        <time>2011-04-09T10:55:28.000Z</time>
      </trkpt>
      <trkpt lat="48.76048" lon="1.82592">
        <ele>127.40000152588</ele>
        <time>2011-04-09T10:55:35.000Z</time>
      </trkpt>
      <trkpt lat="48.76077" lon="1.82582">
        <ele>128.80000305176</ele>
        <time>2011-04-09T11:00:02.000Z</time>
      </trkpt>
      <trkpt lat="48.76084" lon="1.82583">
        <ele>128.80000305176</ele>
        <time>2011-04-09T11:00:06.000Z</time>
      </trkpt>
      <trkpt lat="48.76089" lon="1.82584">
        <ele>128.60000610352</ele>
        <time>2011-04-09T11:00:09.000Z</time>
      </trkpt>
      <trkpt lat="48.76101" lon="1.82585">
        <ele>128.19999694824</ele>
        <time>2011-04-09T11:00:17.000Z</time>
      </trkpt>
      <trkpt lat="48.76102" lon="1.82585">
        <ele>128.19999694824</ele>
        <time>2011-04-09T11:00:21.000Z</time>
      </trkpt>
      <trkpt lat="48.761" lon="1.82586">
        <ele>128.19999694824</ele>
        <time>2011-04-09T11:01:19.000Z</time>
      </trkpt>
      <trkpt lat="48.76093" lon="1.82585">
        <ele>128.60000610352</ele>
        <time>2011-04-09T11:01:23.000Z</time>
      </trkpt>
      <trkpt lat="48.76085" lon="1.82583">
        <ele>128.80000305176</ele>
        <time>2011-04-09T11:01:28.000Z</time>
      </trkpt>
      <trkpt lat="48.76077" lon="1.82582">
        <ele>128.80000305176</ele>
        <time>2011-04-09T11:01:35.000Z</time>
      </trkpt>
      <trkpt lat="48.76067" lon="1.82582">
        <ele>128.39999389648</ele>
        <time>2011-04-09T11:01:42.000Z</time>
      </trkpt>
      <trkpt lat="48.7606" lon="1.82582">
        <ele>128.19999694824</ele>
        <time>2011-04-09T11:01:47.000Z</time>
      </trkpt>
      <trkpt lat="48.76048" lon="1.82582">
        <ele>127.80000305176</ele>
        <time>2011-04-09T11:01:55.000Z</time>
      </trkpt>
      <trkpt lat="48.7604" lon="1.82583">
        <ele>127.40000152588</ele>
        <time>2011-04-09T11:02:01.000Z</time>
      </trkpt>
      <trkpt lat="48.76026" lon="1.82572">
        <ele>127.40000152588</ele>
        <time>2011-04-09T11:02:10.000Z</time>
      </trkpt>
      <trkpt lat="48.7602" lon="1.82568">
        <ele>127.40000152588</ele>
        <time>2011-04-09T11:02:15.000Z</time>
      </trkpt>
      <trkpt lat="48.76011" lon="1.82564">
        <ele>127.19999694824</ele>
        <time>2011-04-09T11:02:23.000Z</time>
      </trkpt>
      <trkpt lat="48.75997" lon="1.82552">
        <ele>127.40000152588</ele>
        <time>2011-04-09T11:02:34.000Z</time>
      </trkpt>
      <trkpt lat="48.75985" lon="1.82543">
        <ele>127.40000152588</ele>
        <time>2011-04-09T11:02:43.000Z</time>
      </trkpt>
      <trkpt lat="48.75973" lon="1.82535">
        <ele>127.40000152588</ele>
        <time>2011-04-09T11:02:52.000Z</time>
      </trkpt>
      <trkpt lat="48.75962" lon="1.82528">
        <ele>127.19999694824</ele>
        <time>2011-04-09T11:03:01.000Z</time>
      </trkpt>
      <trkpt lat="48.75954" lon="1.8252">
        <ele>127.19999694824</ele>
        <time>2011-04-09T11:03:08.000Z</time>
      </trkpt>
      <trkpt lat="48.75945" lon="1.82514">
        <ele>127</ele>
        <time>2011-04-09T11:03:14.000Z</time>
      </trkpt>
      <trkpt lat="48.75935" lon="1.82504">
        <ele>126.59999847412</ele>
        <time>2011-04-09T11:03:22.000Z</time>
      </trkpt>
      <trkpt lat="48.75926" lon="1.82496">
        <ele>126.59999847412</ele>
        <time>2011-04-09T11:03:30.000Z</time>
      </trkpt>
      <trkpt lat="48.75915" lon="1.8249">
        <ele>126.59999847412</ele>
        <time>2011-04-09T11:03:37.000Z</time>
      </trkpt>
      <trkpt lat="48.75904" lon="1.82484">
        <ele>127.40000152588</ele>
        <time>2011-04-09T11:03:46.000Z</time>
      </trkpt>
      <trkpt lat="48.75893" lon="1.82478">
        <ele>128.19999694824</ele>
        <time>2011-04-09T11:03:54.000Z</time>
      </trkpt>
      <trkpt lat="48.75882" lon="1.82474">
        <ele>128.60000610352</ele>
        <time>2011-04-09T11:04:02.000Z</time>
      </trkpt>
      <trkpt lat="48.75875" lon="1.82473">
        <ele>129</ele>
        <time>2011-04-09T11:04:08.000Z</time>
      </trkpt>
      <trkpt lat="48.75874" lon="1.82472">
        <ele>129</ele>
        <time>2011-04-09T11:04:09.000Z</time>
      </trkpt>
      <trkpt lat="48.75865" lon="1.82465">
        <ele>130</ele>
        <time>2011-04-09T11:04:16.000Z</time>
      </trkpt>
      <trkpt lat="48.75853" lon="1.82456">
        <ele>131</ele>
        <time>2011-04-09T11:04:24.000Z</time>
      </trkpt>
      <trkpt lat="48.75842" lon="1.82444">
        <ele>132.39999389648</ele>
        <time>2011-04-09T11:04:32.000Z</time>
      </trkpt>
      <trkpt lat="48.75832" lon="1.82433">
        <ele>133.39999389648</ele>
        <time>2011-04-09T11:04:39.000Z</time>
      </trkpt>
      <trkpt lat="48.75822" lon="1.82422">
        <ele>133.19999694824</ele>
        <time>2011-04-09T11:04:47.000Z</time>
      </trkpt>
      <trkpt lat="48.75807" lon="1.82406">
        <ele>133.39999389648</ele>
        <time>2011-04-09T11:04:58.000Z</time>
      </trkpt>
      <trkpt lat="48.75794" lon="1.82392">
        <ele>133.80000305176</ele>
        <time>2011-04-09T11:05:08.000Z</time>
      </trkpt>
      <trkpt lat="48.75781" lon="1.82377">
        <ele>134.19999694824</ele>
        <time>2011-04-09T11:05:19.000Z</time>
      </trkpt>
      <trkpt lat="48.75766" lon="1.82358">
        <ele>134.80000305176</ele>
        <time>2011-04-09T11:05:31.000Z</time>
      </trkpt>
      <trkpt lat="48.75752" lon="1.82341">
        <ele>135.19999694824</ele>
        <time>2011-04-09T11:05:43.000Z</time>
      </trkpt>
      <trkpt lat="48.75741" lon="1.8233">
        <ele>135.60000610352</ele>
        <time>2011-04-09T11:05:52.000Z</time>
      </trkpt>
      <trkpt lat="48.75731" lon="1.82318">
        <ele>136</ele>
        <time>2011-04-09T11:06:01.000Z</time>
      </trkpt>
      <trkpt lat="48.75726" lon="1.82312">
        <ele>136.19999694824</ele>
        <time>2011-04-09T11:06:07.000Z</time>
      </trkpt>
      <trkpt lat="48.75716" lon="1.82304">
        <ele>136.19999694824</ele>
        <time>2011-04-09T11:06:15.000Z</time>
      </trkpt>
      <trkpt lat="48.75707" lon="1.82295">
        <ele>136</ele>
        <time>2011-04-09T11:06:22.000Z</time>
      </trkpt>
      <trkpt lat="48.75697" lon="1.82285">
        <ele>135.80000305176</ele>
        <time>2011-04-09T11:06:30.000Z</time>
      </trkpt>
      <trkpt lat="48.75685" lon="1.82272">
        <ele>135.60000610352</ele>
        <time>2011-04-09T11:06:39.000Z</time>
      </trkpt>
      <trkpt lat="48.75677" lon="1.82259">
        <ele>135.60000610352</ele>
        <time>2011-04-09T11:06:47.000Z</time>
      </trkpt>
      <trkpt lat="48.75671" lon="1.82247">
        <ele>136.19999694824</ele>
        <time>2011-04-09T11:06:54.000Z</time>
      </trkpt>
      <trkpt lat="48.75664" lon="1.82238">
        <ele>137.19999694824</ele>
        <time>2011-04-09T11:07:01.000Z</time>
      </trkpt>
      <trkpt lat="48.75653" lon="1.82224">
        <ele>139.19999694824</ele>
        <time>2011-04-09T11:07:11.000Z</time>
      </trkpt>
      <trkpt lat="48.75644" lon="1.82217">
        <ele>139.80000305176</ele>
        <time>2011-04-09T11:07:18.000Z</time>
      </trkpt>
      <trkpt lat="48.75632" lon="1.82198">
        <ele>142</ele>
        <time>2011-04-09T11:07:29.000Z</time>
      </trkpt>
      <trkpt lat="48.75623" lon="1.82186">
        <ele>143.19999694824</ele>
        <time>2011-04-09T11:07:36.000Z</time>
      </trkpt>
      <trkpt lat="48.75615" lon="1.82176">
        <ele>143.60000610352</ele>
        <time>2011-04-09T11:07:43.000Z</time>
      </trkpt>
      <trkpt lat="48.75608" lon="1.82168">
        <ele>144</ele>
        <time>2011-04-09T11:07:48.000Z</time>
      </trkpt>
      <trkpt lat="48.75601" lon="1.8216">
        <ele>144</ele>
        <time>2011-04-09T11:07:54.000Z</time>
      </trkpt>
      <trkpt lat="48.75598" lon="1.82156">
        <ele>143.80000305176</ele>
        <time>2011-04-09T11:07:58.000Z</time>
      </trkpt>
      <trkpt lat="48.75591" lon="1.82145">
        <ele>143.80000305176</ele>
        <time>2011-04-09T11:08:06.000Z</time>
      </trkpt>
      <trkpt lat="48.7559" lon="1.82143">
        <ele>143.80000305176</ele>
        <time>2011-04-09T11:08:07.000Z</time>
      </trkpt>
      <trkpt lat="48.75574" lon="1.8213">
        <ele>142.60000610352</ele>
        <time>2011-04-09T11:08:15.000Z</time>
      </trkpt>
      <trkpt lat="48.75565" lon="1.82121">
        <ele>141.80000305176</ele>
        <time>2011-04-09T11:08:22.000Z</time>
      </trkpt>
      <trkpt lat="48.75554" lon="1.82106">
        <ele>141</ele>
        <time>2011-04-09T11:08:31.000Z</time>
      </trkpt>
      <trkpt lat="48.75543" lon="1.8209">
        <ele>140.19999694824</ele>
        <time>2011-04-09T11:08:40.000Z</time>
      </trkpt>
      <trkpt lat="48.75533" lon="1.82077">
        <ele>139.39999389648</ele>
        <time>2011-04-09T11:08:48.000Z</time>
      </trkpt>
      <trkpt lat="48.75523" lon="1.82056">
        <ele>139.19999694824</ele>
        <time>2011-04-09T11:08:57.000Z</time>
      </trkpt>
      <trkpt lat="48.75516" lon="1.82042">
        <ele>138.80000305176</ele>
        <time>2011-04-09T11:09:04.000Z</time>
      </trkpt>
      <trkpt lat="48.7551" lon="1.82033">
        <ele>138.60000610352</ele>
        <time>2011-04-09T11:09:09.000Z</time>
      </trkpt>
      <trkpt lat="48.75512" lon="1.82024">
        <ele>139.60000610352</ele>
        <time>2011-04-09T11:09:15.000Z</time>
      </trkpt>
      <trkpt lat="48.75512" lon="1.82023">
        <ele>139.60000610352</ele>
        <time>2011-04-09T11:09:18.000Z</time>
      </trkpt>
      <trkpt lat="48.75511" lon="1.82016">
        <ele>139.80000305176</ele>
        <time>2011-04-09T11:09:37.000Z</time>
      </trkpt>
      <trkpt lat="48.75509" lon="1.82011">
        <ele>140</ele>
        <time>2011-04-09T11:09:41.000Z</time>
      </trkpt>
      <trkpt lat="48.75518" lon="1.81999">
        <ele>142.60000610352</ele>
        <time>2011-04-09T11:10:00.000Z</time>
      </trkpt>
      <trkpt lat="48.75525" lon="1.81999">
        <ele>144</ele>
        <time>2011-04-09T11:10:04.000Z</time>
      </trkpt>
      <trkpt lat="48.75529" lon="1.81998">
        <ele>145</ele>
        <time>2011-04-09T11:10:07.000Z</time>
      </trkpt>
      <trkpt lat="48.7554" lon="1.81993">
        <ele>147.60000610352</ele>
        <time>2011-04-09T11:10:14.000Z</time>
      </trkpt>
      <trkpt lat="48.75543" lon="1.81991">
        <ele>148.19999694824</ele>
        <time>2011-04-09T11:10:16.000Z</time>
      </trkpt>
      <trkpt lat="48.75548" lon="1.81988">
        <ele>149.60000610352</ele>
        <time>2011-04-09T11:10:20.000Z</time>
      </trkpt>
      <trkpt lat="48.75555" lon="1.81977">
        <ele>152.19999694824</ele>
        <time>2011-04-09T11:10:27.000Z</time>
      </trkpt>
      <trkpt lat="48.75559" lon="1.81971">
        <ele>153.39999389648</ele>
        <time>2011-04-09T11:10:31.000Z</time>
      </trkpt>
      <trkpt lat="48.75561" lon="1.81963">
        <ele>154.60000610352</ele>
        <time>2011-04-09T11:10:36.000Z</time>
      </trkpt>
      <trkpt lat="48.7556" lon="1.8195">
        <ele>155.39999389648</ele>
        <time>2011-04-09T11:10:44.000Z</time>
      </trkpt>
      <trkpt lat="48.7556" lon="1.81941">
        <ele>156.19999694824</ele>
        <time>2011-04-09T11:10:48.000Z</time>
      </trkpt>
      <trkpt lat="48.75561" lon="1.81928">
        <ele>157.80000305176</ele>
        <time>2011-04-09T11:10:52.000Z</time>
      </trkpt>
      <trkpt lat="48.75564" lon="1.81922">
        <ele>159</ele>
        <time>2011-04-09T11:10:55.000Z</time>
      </trkpt>
      <trkpt lat="48.75567" lon="1.819">
        <ele>161.80000305176</ele>
        <time>2011-04-09T11:11:02.000Z</time>
      </trkpt>
      <trkpt lat="48.75574" lon="1.8189">
        <ele>164.19999694824</ele>
        <time>2011-04-09T11:11:08.000Z</time>
      </trkpt>
      <trkpt lat="48.75585" lon="1.8188">
        <ele>167.60000610352</ele>
        <time>2011-04-09T11:11:14.000Z</time>
      </trkpt>
      <trkpt lat="48.75593" lon="1.81869">
        <ele>169.39999389648</ele>
        <time>2011-04-09T11:11:19.000Z</time>
      </trkpt>
      <trkpt lat="48.75595" lon="1.81866">
        <ele>169.80000305176</ele>
        <time>2011-04-09T11:11:20.000Z</time>
      </trkpt>
      <trkpt lat="48.75597" lon="1.81862">
        <ele>170.19999694824</ele>
        <time>2011-04-09T11:11:22.000Z</time>
      </trkpt>
      <trkpt lat="48.75601" lon="1.81853">
        <ele>171.19999694824</ele>
        <time>2011-04-09T11:11:28.000Z</time>
      </trkpt>
      <trkpt lat="48.75604" lon="1.8185">
        <ele>171.60000610352</ele>
        <time>2011-04-09T11:11:30.000Z</time>
      </trkpt>
      <trkpt lat="48.75614" lon="1.81828">
        <ele>173.80000305176</ele>
        <time>2011-04-09T11:11:37.000Z</time>
      </trkpt>
      <trkpt lat="48.75613" lon="1.81816">
        <ele>174.39999389648</ele>
        <time>2011-04-09T11:11:42.000Z</time>
      </trkpt>
      <trkpt lat="48.75612" lon="1.81802">
        <ele>175.19999694824</ele>
        <time>2011-04-09T11:11:49.000Z</time>
      </trkpt>
      <trkpt lat="48.75605" lon="1.81789">
        <ele>175.39999389648</ele>
        <time>2011-04-09T11:11:57.000Z</time>
      </trkpt>
      <trkpt lat="48.756" lon="1.81779">
        <ele>175.80000305176</ele>
        <time>2011-04-09T11:12:03.000Z</time>
      </trkpt>
      <trkpt lat="48.756" lon="1.81771">
        <ele>176.39999389648</ele>
        <time>2011-04-09T11:12:08.000Z</time>
      </trkpt>
      <trkpt lat="48.75599" lon="1.81766">
        <ele>176.60000610352</ele>
        <time>2011-04-09T11:12:11.000Z</time>
      </trkpt>
      <trkpt lat="48.75597" lon="1.81752">
        <ele>177.39999389648</ele>
        <time>2011-04-09T11:12:18.000Z</time>
      </trkpt>
      <trkpt lat="48.75598" lon="1.81744">
        <ele>177.80000305176</ele>
        <time>2011-04-09T11:12:22.000Z</time>
      </trkpt>
      <trkpt lat="48.75601" lon="1.81737">
        <ele>178.19999694824</ele>
        <time>2011-04-09T11:12:26.000Z</time>
      </trkpt>
      <trkpt lat="48.75609" lon="1.81726">
        <ele>178.80000305176</ele>
        <time>2011-04-09T11:12:34.000Z</time>
      </trkpt>
      <trkpt lat="48.7561" lon="1.81722">
        <ele>179</ele>
        <time>2011-04-09T11:12:36.000Z</time>
      </trkpt>
      <trkpt lat="48.75617" lon="1.81707">
        <ele>179.60000610352</ele>
        <time>2011-04-09T11:12:44.000Z</time>
      </trkpt>
      <trkpt lat="48.7562" lon="1.817">
        <ele>180</ele>
        <time>2011-04-09T11:12:49.000Z</time>
      </trkpt>
      <trkpt lat="48.75625" lon="1.81687">
        <ele>180.39999389648</ele>
        <time>2011-04-09T11:12:55.000Z</time>
      </trkpt>
      <trkpt lat="48.75626" lon="1.81685">
        <ele>180.39999389648</ele>
        <time>2011-04-09T11:12:56.000Z</time>
      </trkpt>
      <trkpt lat="48.75627" lon="1.81683">
        <ele>180.60000610352</ele>
        <time>2011-04-09T11:13:00.000Z</time>
      </trkpt>
      <trkpt lat="48.75629" lon="1.81674">
        <ele>180.80000305176</ele>
        <time>2011-04-09T11:13:12.000Z</time>
      </trkpt>
      <trkpt lat="48.75637" lon="1.81662">
        <ele>181.19999694824</ele>
        <time>2011-04-09T11:13:18.000Z</time>
      </trkpt>
      <trkpt lat="48.75642" lon="1.81655">
        <ele>181.19999694824</ele>
        <time>2011-04-09T11:13:24.000Z</time>
      </trkpt>
      <trkpt lat="48.75646" lon="1.81646">
        <ele>181.19999694824</ele>
        <time>2011-04-09T11:13:30.000Z</time>
      </trkpt>
      <trkpt lat="48.75645" lon="1.81642">
        <ele>181</ele>
        <time>2011-04-09T11:13:33.000Z</time>
      </trkpt>
      <trkpt lat="48.75647" lon="1.81638">
        <ele>181</ele>
        <time>2011-04-09T11:13:35.000Z</time>
      </trkpt>
      <trkpt lat="48.75653" lon="1.81623">
        <ele>181</ele>
        <time>2011-04-09T11:13:43.000Z</time>
      </trkpt>
      <trkpt lat="48.75658" lon="1.81614">
        <ele>181</ele>
        <time>2011-04-09T11:13:50.000Z</time>
      </trkpt>
      <trkpt lat="48.75658" lon="1.81614">
        <ele>181</ele>
        <time>2011-04-09T11:13:51.000Z</time>
      </trkpt>
      <trkpt lat="48.75663" lon="1.81592">
        <ele>181</ele>
        <time>2011-04-09T11:14:37.000Z</time>
      </trkpt>
      <trkpt lat="48.75665" lon="1.81586">
        <ele>180.80000305176</ele>
        <time>2011-04-09T11:14:40.000Z</time>
      </trkpt>
      <trkpt lat="48.75672" lon="1.81574">
        <ele>180.80000305176</ele>
        <time>2011-04-09T11:14:48.000Z</time>
      </trkpt>
      <trkpt lat="48.75678" lon="1.81561">
        <ele>180.60000610352</ele>
        <time>2011-04-09T11:14:56.000Z</time>
      </trkpt>
      <trkpt lat="48.75679" lon="1.81559">
        <ele>180.60000610352</ele>
        <time>2011-04-09T11:14:57.000Z</time>
      </trkpt>
      <trkpt lat="48.75687" lon="1.81548">
        <ele>180.60000610352</ele>
        <time>2011-04-09T11:15:05.000Z</time>
      </trkpt>
      <trkpt lat="48.75692" lon="1.81538">
        <ele>180.60000610352</ele>
        <time>2011-04-09T11:15:11.000Z</time>
      </trkpt>
      <trkpt lat="48.75692" lon="1.81537">
        <ele>180.60000610352</ele>
        <time>2011-04-09T11:15:14.000Z</time>
      </trkpt>
      <trkpt lat="48.75695" lon="1.81522">
        <ele>180.39999389648</ele>
        <time>2011-04-09T11:15:51.000Z</time>
      </trkpt>
      <trkpt lat="48.757" lon="1.8151">
        <ele>180.39999389648</ele>
        <time>2011-04-09T11:15:56.000Z</time>
      </trkpt>
      <trkpt lat="48.757" lon="1.81508">
        <ele>180.39999389648</ele>
        <time>2011-04-09T11:15:57.000Z</time>
      </trkpt>
      <trkpt lat="48.75702" lon="1.81502">
        <ele>180.39999389648</ele>
        <time>2011-04-09T11:16:00.000Z</time>
      </trkpt>
      <trkpt lat="48.75705" lon="1.81493">
        <ele>180.39999389648</ele>
        <time>2011-04-09T11:16:05.000Z</time>
      </trkpt>
      <trkpt lat="48.7571" lon="1.81483">
        <ele>180.60000610352</ele>
        <time>2011-04-09T11:16:11.000Z</time>
      </trkpt>
      <trkpt lat="48.75713" lon="1.81474">
        <ele>180.60000610352</ele>
        <time>2011-04-09T11:16:16.000Z</time>
      </trkpt>
      <trkpt lat="48.75719" lon="1.81462">
        <ele>180.80000305176</ele>
        <time>2011-04-09T11:16:24.000Z</time>
      </trkpt>
      <trkpt lat="48.75724" lon="1.81452">
        <ele>181</ele>
        <time>2011-04-09T11:16:31.000Z</time>
      </trkpt>
      <trkpt lat="48.75727" lon="1.81445">
        <ele>181.19999694824</ele>
        <time>2011-04-09T11:16:35.000Z</time>
      </trkpt>
      <trkpt lat="48.75734" lon="1.81433">
        <ele>181.39999389648</ele>
        <time>2011-04-09T11:16:43.000Z</time>
      </trkpt>
      <trkpt lat="48.75738" lon="1.81421">
        <ele>181.60000610352</ele>
        <time>2011-04-09T11:16:49.000Z</time>
      </trkpt>
      <trkpt lat="48.75745" lon="1.81407">
        <ele>181.80000305176</ele>
        <time>2011-04-09T11:16:57.000Z</time>
      </trkpt>
      <trkpt lat="48.75747" lon="1.81404">
        <ele>182</ele>
        <time>2011-04-09T11:16:59.000Z</time>
      </trkpt>
      <trkpt lat="48.75752" lon="1.8139">
        <ele>182.39999389648</ele>
        <time>2011-04-09T11:17:07.000Z</time>
      </trkpt>
      <trkpt lat="48.75761" lon="1.81373">
        <ele>183</ele>
        <time>2011-04-09T11:17:16.000Z</time>
      </trkpt>
      <trkpt lat="48.75766" lon="1.81362">
        <ele>183.39999389648</ele>
        <time>2011-04-09T11:17:22.000Z</time>
      </trkpt>
      <trkpt lat="48.75772" lon="1.81347">
        <ele>184</ele>
        <time>2011-04-09T11:17:30.000Z</time>
      </trkpt>
      <trkpt lat="48.75779" lon="1.81337">
        <ele>184.60000610352</ele>
        <time>2011-04-09T11:17:37.000Z</time>
      </trkpt>
      <trkpt lat="48.75786" lon="1.81324">
        <ele>185.39999389648</ele>
        <time>2011-04-09T11:17:44.000Z</time>
      </trkpt>
      <trkpt lat="48.75793" lon="1.81307">
        <ele>186.39999389648</ele>
        <time>2011-04-09T11:17:53.000Z</time>
      </trkpt>
      <trkpt lat="48.75801" lon="1.8129">
        <ele>187.39999389648</ele>
        <time>2011-04-09T11:18:02.000Z</time>
      </trkpt>
      <trkpt lat="48.75805" lon="1.81277">
        <ele>188</ele>
        <time>2011-04-09T11:18:08.000Z</time>
      </trkpt>
      <trkpt lat="48.7581" lon="1.81263">
        <ele>188.80000305176</ele>
        <time>2011-04-09T11:18:15.000Z</time>
      </trkpt>
      <trkpt lat="48.75818" lon="1.81247">
        <ele>189.80000305176</ele>
        <time>2011-04-09T11:18:24.000Z</time>
      </trkpt>
      <trkpt lat="48.75824" lon="1.81233">
        <ele>190.60000610352</ele>
        <time>2011-04-09T11:18:32.000Z</time>
      </trkpt>
      <trkpt lat="48.75831" lon="1.81223">
        <ele>191.39999389648</ele>
        <time>2011-04-09T11:18:38.000Z</time>
      </trkpt>
      <trkpt lat="48.75837" lon="1.81207">
        <ele>191.80000305176</ele>
        <time>2011-04-09T11:18:46.000Z</time>
      </trkpt>
      <trkpt lat="48.75843" lon="1.81195">
        <ele>191.80000305176</ele>
        <time>2011-04-09T11:18:53.000Z</time>
      </trkpt>
      <trkpt lat="48.75846" lon="1.8118">
        <ele>192</ele>
        <time>2011-04-09T11:19:00.000Z</time>
      </trkpt>
      <trkpt lat="48.75851" lon="1.81167">
        <ele>192</ele>
        <time>2011-04-09T11:19:07.000Z</time>
      </trkpt>
      <trkpt lat="48.75854" lon="1.81156">
        <ele>191.80000305176</ele>
        <time>2011-04-09T11:19:12.000Z</time>
      </trkpt>
      <trkpt lat="48.75855" lon="1.81153">
        <ele>191.60000610352</ele>
        <time>2011-04-09T11:19:16.000Z</time>
      </trkpt>
      <trkpt lat="48.75861" lon="1.81141">
        <ele>191.19999694824</ele>
        <time>2011-04-09T11:19:23.000Z</time>
      </trkpt>
      <trkpt lat="48.75864" lon="1.81135">
        <ele>191</ele>
        <time>2011-04-09T11:19:27.000Z</time>
      </trkpt>
      <trkpt lat="48.75873" lon="1.81121">
        <ele>190.60000610352</ele>
        <time>2011-04-09T11:19:35.000Z</time>
      </trkpt>
      <trkpt lat="48.75877" lon="1.81111">
        <ele>190.60000610352</ele>
        <time>2011-04-09T11:19:40.000Z</time>
      </trkpt>
      <trkpt lat="48.75879" lon="1.811">
        <ele>190.39999389648</ele>
        <time>2011-04-09T11:19:44.000Z</time>
      </trkpt>
      <trkpt lat="48.75885" lon="1.81088">
        <ele>190.19999694824</ele>
        <time>2011-04-09T11:19:51.000Z</time>
      </trkpt>
      <trkpt lat="48.7589" lon="1.81077">
        <ele>190.19999694824</ele>
        <time>2011-04-09T11:19:57.000Z</time>
      </trkpt>
      <trkpt lat="48.75894" lon="1.81068">
        <ele>190</ele>
        <time>2011-04-09T11:20:02.000Z</time>
      </trkpt>
      <trkpt lat="48.75899" lon="1.81058">
        <ele>190</ele>
        <time>2011-04-09T11:20:08.000Z</time>
      </trkpt>
      <trkpt lat="48.75904" lon="1.81048">
        <ele>190</ele>
        <time>2011-04-09T11:20:14.000Z</time>
      </trkpt>
      <trkpt lat="48.7591" lon="1.81034">
        <ele>190.19999694824</ele>
        <time>2011-04-09T11:20:21.000Z</time>
      </trkpt>
      <trkpt lat="48.75915" lon="1.81023">
        <ele>190.60000610352</ele>
        <time>2011-04-09T11:20:27.000Z</time>
      </trkpt>
      <trkpt lat="48.7592" lon="1.81008">
        <ele>190.60000610352</ele>
        <time>2011-04-09T11:20:34.000Z</time>
      </trkpt>
      <trkpt lat="48.75927" lon="1.80995">
        <ele>190</ele>
        <time>2011-04-09T11:20:42.000Z</time>
      </trkpt>
      <trkpt lat="48.75932" lon="1.80982">
        <ele>189.39999389648</ele>
        <time>2011-04-09T11:20:48.000Z</time>
      </trkpt>
      <trkpt lat="48.75936" lon="1.80972">
        <ele>189</ele>
        <time>2011-04-09T11:20:53.000Z</time>
      </trkpt>
      <trkpt lat="48.75938" lon="1.80967">
        <ele>188.80000305176</ele>
        <time>2011-04-09T11:20:56.000Z</time>
      </trkpt>
      <trkpt lat="48.75944" lon="1.80952">
        <ele>188.19999694824</ele>
        <time>2011-04-09T11:21:03.000Z</time>
      </trkpt>
      <trkpt lat="48.75948" lon="1.8094">
        <ele>187.80000305176</ele>
        <time>2011-04-09T11:21:09.000Z</time>
      </trkpt>
      <trkpt lat="48.75955" lon="1.80925">
        <ele>187.19999694824</ele>
        <time>2011-04-09T11:21:17.000Z</time>
      </trkpt>
      <trkpt lat="48.75961" lon="1.80914">
        <ele>186.80000305176</ele>
        <time>2011-04-09T11:21:23.000Z</time>
      </trkpt>
      <trkpt lat="48.75965" lon="1.8091">
        <ele>186.60000610352</ele>
        <time>2011-04-09T11:21:26.000Z</time>
      </trkpt>
      <trkpt lat="48.75968" lon="1.80896">
        <ele>186.19999694824</ele>
        <time>2011-04-09T11:21:33.000Z</time>
      </trkpt>
      <trkpt lat="48.75972" lon="1.80885">
        <ele>185.80000305176</ele>
        <time>2011-04-09T11:21:39.000Z</time>
      </trkpt>
      <trkpt lat="48.75973" lon="1.80872">
        <ele>185.60000610352</ele>
        <time>2011-04-09T11:21:44.000Z</time>
      </trkpt>
      <trkpt lat="48.75976" lon="1.80867">
        <ele>185.39999389648</ele>
        <time>2011-04-09T11:21:48.000Z</time>
      </trkpt>
      <trkpt lat="48.75977" lon="1.80851">
        <ele>185.19999694824</ele>
        <time>2011-04-09T11:21:56.000Z</time>
      </trkpt>
      <trkpt lat="48.75978" lon="1.80844">
        <ele>185</ele>
        <time>2011-04-09T11:21:59.000Z</time>
      </trkpt>
      <trkpt lat="48.7598" lon="1.80829">
        <ele>184.80000305176</ele>
        <time>2011-04-09T11:22:06.000Z</time>
      </trkpt>
      <trkpt lat="48.75982" lon="1.80813">
        <ele>184.60000610352</ele>
        <time>2011-04-09T11:22:12.000Z</time>
      </trkpt>
      <trkpt lat="48.75983" lon="1.80799">
        <ele>184.39999389648</ele>
        <time>2011-04-09T11:22:18.000Z</time>
      </trkpt>
      <trkpt lat="48.75985" lon="1.80785">
        <ele>184.19999694824</ele>
        <time>2011-04-09T11:22:26.000Z</time>
      </trkpt>
      <trkpt lat="48.75985" lon="1.80783">
        <ele>184.19999694824</ele>
        <time>2011-04-09T11:22:27.000Z</time>
      </trkpt>
      <trkpt lat="48.75983" lon="1.80755">
        <ele>184</ele>
        <time>2011-04-09T11:22:37.000Z</time>
      </trkpt>
      <trkpt lat="48.75982" lon="1.80745">
        <ele>183.80000305176</ele>
        <time>2011-04-09T11:22:43.000Z</time>
      </trkpt>
      <trkpt lat="48.75982" lon="1.80745">
        <ele>183.80000305176</ele>
        <time>2011-04-09T11:22:44.000Z</time>
      </trkpt>
      <trkpt lat="48.75975" lon="1.80735">
        <ele>183.80000305176</ele>
        <time>2011-04-09T11:23:02.000Z</time>
      </trkpt>
      <trkpt lat="48.75973" lon="1.80732">
        <ele>183.80000305176</ele>
        <time>2011-04-09T11:23:03.000Z</time>
      </trkpt>
      <trkpt lat="48.75972" lon="1.80732">
        <ele>183.80000305176</ele>
        <time>2011-04-09T11:23:06.000Z</time>
      </trkpt>
      <trkpt lat="48.75967" lon="1.80728">
        <ele>183.80000305176</ele>
        <time>2011-04-09T11:23:12.000Z</time>
      </trkpt>
      <trkpt lat="48.75958" lon="1.80724">
        <ele>183.80000305176</ele>
        <time>2011-04-09T11:23:17.000Z</time>
      </trkpt>
      <trkpt lat="48.75949" lon="1.80718">
        <ele>183.60000610352</ele>
        <time>2011-04-09T11:23:24.000Z</time>
      </trkpt>
      <trkpt lat="48.7594" lon="1.80709">
        <ele>183.60000610352</ele>
        <time>2011-04-09T11:23:31.000Z</time>
      </trkpt>
      <trkpt lat="48.75931" lon="1.80703">
        <ele>183.39999389648</ele>
        <time>2011-04-09T11:23:38.000Z</time>
      </trkpt>
      <trkpt lat="48.75924" lon="1.80699">
        <ele>183.39999389648</ele>
        <time>2011-04-09T11:23:46.000Z</time>
      </trkpt>
      <trkpt lat="48.75916" lon="1.80694">
        <ele>183.19999694824</ele>
        <time>2011-04-09T11:23:52.000Z</time>
      </trkpt>
      <trkpt lat="48.75909" lon="1.80686">
        <ele>181.60000610352</ele>
        <time>2011-04-09T11:23:58.000Z</time>
      </trkpt>
      <trkpt lat="48.759" lon="1.80677">
        <ele>179.80000305176</ele>
        <time>2011-04-09T11:24:04.000Z</time>
      </trkpt>
      <trkpt lat="48.75898" lon="1.80675">
        <ele>179.39999389648</ele>
        <time>2011-04-09T11:24:06.000Z</time>
      </trkpt>
      <trkpt lat="48.75896" lon="1.80674">
        <ele>179</ele>
        <time>2011-04-09T11:24:10.000Z</time>
      </trkpt>
      <trkpt lat="48.75889" lon="1.80683">
        <ele>177.80000305176</ele>
        <time>2011-04-09T11:24:32.000Z</time>
      </trkpt>
      <trkpt lat="48.75886" lon="1.80685">
        <ele>177.19999694824</ele>
        <time>2011-04-09T11:24:34.000Z</time>
      </trkpt>
      <trkpt lat="48.75876" lon="1.8068">
        <ele>175.19999694824</ele>
        <time>2011-04-09T11:24:41.000Z</time>
      </trkpt>
      <trkpt lat="48.75867" lon="1.80673">
        <ele>173.39999389648</ele>
        <time>2011-04-09T11:24:48.000Z</time>
      </trkpt>
      <trkpt lat="48.75857" lon="1.80667">
        <ele>171.39999389648</ele>
        <time>2011-04-09T11:24:56.000Z</time>
      </trkpt>
      <trkpt lat="48.75844" lon="1.80663">
        <ele>169</ele>
        <time>2011-04-09T11:25:04.000Z</time>
      </trkpt>
      <trkpt lat="48.75834" lon="1.80657">
        <ele>166.80000305176</ele>
        <time>2011-04-09T11:25:11.000Z</time>
      </trkpt>
      <trkpt lat="48.75826" lon="1.80642">
        <ele>166.19999694824</ele>
        <time>2011-04-09T11:25:20.000Z</time>
      </trkpt>
      <trkpt lat="48.75824" lon="1.80637">
        <ele>166</ele>
        <time>2011-04-09T11:25:22.000Z</time>
      </trkpt>
      <trkpt lat="48.75824" lon="1.80636">
        <ele>166</ele>
        <time>2011-04-09T11:25:25.000Z</time>
      </trkpt>
      <trkpt lat="48.75823" lon="1.80612">
        <ele>165.80000305176</ele>
        <time>2011-04-09T11:26:15.000Z</time>
      </trkpt>
      <trkpt lat="48.75824" lon="1.80603">
        <ele>165.80000305176</ele>
        <time>2011-04-09T11:26:19.000Z</time>
      </trkpt>
      <trkpt lat="48.75824" lon="1.80592">
        <ele>165.60000610352</ele>
        <time>2011-04-09T11:26:26.000Z</time>
      </trkpt>
      <trkpt lat="48.75824" lon="1.80592">
        <ele>165.60000610352</ele>
        <time>2011-04-09T11:26:27.000Z</time>
      </trkpt>
      <trkpt lat="48.75827" lon="1.8059">
        <ele>165.80000305176</ele>
        <time>2011-04-09T11:27:12.000Z</time>
      </trkpt>
      <trkpt lat="48.75833" lon="1.80586">
        <ele>166</ele>
        <time>2011-04-09T11:27:17.000Z</time>
      </trkpt>
      <trkpt lat="48.75835" lon="1.80585">
        <ele>166.19999694824</ele>
        <time>2011-04-09T11:27:18.000Z</time>
      </trkpt>
      <trkpt lat="48.75835" lon="1.80588">
        <ele>166.19999694824</ele>
        <time>2011-04-09T11:27:22.000Z</time>
      </trkpt>
      <trkpt lat="48.75833" lon="1.80586">
        <ele>166</ele>
        <time>2011-04-09T11:27:55.000Z</time>
      </trkpt>
      <trkpt lat="48.75827" lon="1.80581">
        <ele>165.60000610352</ele>
        <time>2011-04-09T11:27:58.000Z</time>
      </trkpt>
      <trkpt lat="48.75822" lon="1.80566">
        <ele>165.19999694824</ele>
        <time>2011-04-09T11:28:06.000Z</time>
      </trkpt>
      <trkpt lat="48.75814" lon="1.80553">
        <ele>164.60000610352</ele>
        <time>2011-04-09T11:28:14.000Z</time>
      </trkpt>
      <trkpt lat="48.75812" lon="1.80549">
        <ele>164.39999389648</ele>
        <time>2011-04-09T11:28:16.000Z</time>
      </trkpt>
      <trkpt lat="48.75813" lon="1.80541">
        <ele>164.19999694824</ele>
        <time>2011-04-09T11:28:20.000Z</time>
      </trkpt>
      <trkpt lat="48.75815" lon="1.80533">
        <ele>164.19999694824</ele>
        <time>2011-04-09T11:28:25.000Z</time>
      </trkpt>
      <trkpt lat="48.75815" lon="1.8053">
        <ele>164.19999694824</ele>
        <time>2011-04-09T11:28:27.000Z</time>
      </trkpt>
      <trkpt lat="48.75824" lon="1.8052">
        <ele>164.19999694824</ele>
        <time>2011-04-09T11:28:32.000Z</time>
      </trkpt>
      <trkpt lat="48.75833" lon="1.80508">
        <ele>164</ele>
        <time>2011-04-09T11:28:38.000Z</time>
      </trkpt>
      <trkpt lat="48.75834" lon="1.80506">
        <ele>164.19999694824</ele>
        <time>2011-04-09T11:28:41.000Z</time>
      </trkpt>
      <trkpt lat="48.75839" lon="1.80501">
        <ele>165</ele>
        <time>2011-04-09T11:28:47.000Z</time>
      </trkpt>
      <trkpt lat="48.7584" lon="1.805">
        <ele>165</ele>
        <time>2011-04-09T11:28:49.000Z</time>
      </trkpt>
      <trkpt lat="48.75842" lon="1.80489">
        <ele>165.39999389648</ele>
        <time>2011-04-09T11:29:36.000Z</time>
      </trkpt>
      <trkpt lat="48.75839" lon="1.80481">
        <ele>165.19999694824</ele>
        <time>2011-04-09T11:29:40.000Z</time>
      </trkpt>
      <trkpt lat="48.75838" lon="1.80478">
        <ele>165.19999694824</ele>
        <time>2011-04-09T11:29:42.000Z</time>
      </trkpt>
      <trkpt lat="48.75832" lon="1.80471">
        <ele>164.60000610352</ele>
        <time>2011-04-09T11:29:49.000Z</time>
      </trkpt>
      <trkpt lat="48.75827" lon="1.80467">
        <ele>164.60000610352</ele>
        <time>2011-04-09T11:29:55.000Z</time>
      </trkpt>
      <trkpt lat="48.75813" lon="1.80466">
        <ele>164.19999694824</ele>
        <time>2011-04-09T11:30:10.000Z</time>
      </trkpt>
      <trkpt lat="48.75808" lon="1.80466">
        <ele>164</ele>
        <time>2011-04-09T11:30:14.000Z</time>
      </trkpt>
      <trkpt lat="48.75808" lon="1.80467">
        <ele>164</ele>
        <time>2011-04-09T11:30:15.000Z</time>
      </trkpt>
      <trkpt lat="48.75806" lon="1.80441">
        <ele>164.39999389648</ele>
        <time>2011-04-09T11:45:25.000Z</time>
      </trkpt>
      <trkpt lat="48.75807" lon="1.80443">
        <ele>164.39999389648</ele>
        <time>2011-04-09T11:45:26.000Z</time>
      </trkpt>
      <trkpt lat="48.75808" lon="1.80445">
        <ele>164.39999389648</ele>
        <time>2011-04-09T11:48:43.000Z</time>
      </trkpt>
      <trkpt lat="48.75808" lon="1.80445">
        <ele>164.39999389648</ele>
        <time>2011-04-09T11:48:44.000Z</time>
      </trkpt>
      <trkpt lat="48.75808" lon="1.80446">
        <ele>164.39999389648</ele>
        <time>2011-04-09T11:48:45.000Z</time>
      </trkpt>
      <trkpt lat="48.75509" lon="1.82028">
        <ele>138.80000305176</ele>
        <time>2011-04-09T13:03:47.000Z</time>
      </trkpt>
      <trkpt lat="48.75509" lon="1.82028">
        <ele>138.80000305176</ele>
        <time>2011-04-09T13:03:47.000Z</time>
      </trkpt>
      <trkpt lat="48.75501" lon="1.82023">
        <ele>137.39999389648</ele>
        <time>2011-04-09T13:03:52.000Z</time>
      </trkpt>
      <trkpt lat="48.75493" lon="1.82011">
        <ele>137.39999389648</ele>
        <time>2011-04-09T13:04:00.000Z</time>
      </trkpt>
      <trkpt lat="48.75489" lon="1.82003">
        <ele>137.39999389648</ele>
        <time>2011-04-09T13:04:05.000Z</time>
      </trkpt>
      <trkpt lat="48.75483" lon="1.81987">
        <ele>137.39999389648</ele>
        <time>2011-04-09T13:04:12.000Z</time>
      </trkpt>
      <trkpt lat="48.75475" lon="1.81971">
        <ele>136.80000305176</ele>
        <time>2011-04-09T13:04:19.000Z</time>
      </trkpt>
      <trkpt lat="48.7547" lon="1.81953">
        <ele>136.60000610352</ele>
        <time>2011-04-09T13:04:24.000Z</time>
      </trkpt>
      <trkpt lat="48.75465" lon="1.81935">
        <ele>136.39999389648</ele>
        <time>2011-04-09T13:04:30.000Z</time>
      </trkpt>
      <trkpt lat="48.75463" lon="1.81918">
        <ele>136.39999389648</ele>
        <time>2011-04-09T13:04:36.000Z</time>
      </trkpt>
      <trkpt lat="48.75461" lon="1.81901">
        <ele>137.19999694824</ele>
        <time>2011-04-09T13:04:43.000Z</time>
      </trkpt>
      <trkpt lat="48.75459" lon="1.81887">
        <ele>137.60000610352</ele>
        <time>2011-04-09T13:04:49.000Z</time>
      </trkpt>
      <trkpt lat="48.75455" lon="1.81871">
        <ele>137.80000305176</ele>
        <time>2011-04-09T13:04:56.000Z</time>
      </trkpt>
      <trkpt lat="48.75452" lon="1.81856">
        <ele>138</ele>
        <time>2011-04-09T13:05:02.000Z</time>
      </trkpt>
      <trkpt lat="48.75445" lon="1.81846">
        <ele>136.80000305176</ele>
        <time>2011-04-09T13:05:08.000Z</time>
      </trkpt>
      <trkpt lat="48.75434" lon="1.81832">
        <ele>135</ele>
        <time>2011-04-09T13:05:16.000Z</time>
      </trkpt>
      <trkpt lat="48.75426" lon="1.81823">
        <ele>133.80000305176</ele>
        <time>2011-04-09T13:05:22.000Z</time>
      </trkpt>
      <trkpt lat="48.75417" lon="1.81812">
        <ele>132.39999389648</ele>
        <time>2011-04-09T13:05:29.000Z</time>
      </trkpt>
      <trkpt lat="48.75409" lon="1.81801">
        <ele>133.19999694824</ele>
        <time>2011-04-09T13:05:36.000Z</time>
      </trkpt>
      <trkpt lat="48.75405" lon="1.81796">
        <ele>133.39999389648</ele>
        <time>2011-04-09T13:05:39.000Z</time>
      </trkpt>
      <trkpt lat="48.75399" lon="1.81786">
        <ele>134</ele>
        <time>2011-04-09T13:05:46.000Z</time>
      </trkpt>
      <trkpt lat="48.75395" lon="1.81782">
        <ele>134.19999694824</ele>
        <time>2011-04-09T13:05:49.000Z</time>
      </trkpt>
      <trkpt lat="48.75387" lon="1.81764">
        <ele>135</ele>
        <time>2011-04-09T13:05:57.000Z</time>
      </trkpt>
      <trkpt lat="48.75386" lon="1.81763">
        <ele>135</ele>
        <time>2011-04-09T13:05:58.000Z</time>
      </trkpt>
      <trkpt lat="48.75376" lon="1.81757">
        <ele>135</ele>
        <time>2011-04-09T13:06:06.000Z</time>
      </trkpt>
      <trkpt lat="48.75368" lon="1.81752">
        <ele>135</ele>
        <time>2011-04-09T13:06:12.000Z</time>
      </trkpt>
      <trkpt lat="48.75367" lon="1.81751">
        <ele>135</ele>
        <time>2011-04-09T13:06:13.000Z</time>
      </trkpt>
      <trkpt lat="48.75363" lon="1.8175">
        <ele>135</ele>
        <time>2011-04-09T13:06:16.000Z</time>
      </trkpt>
      <trkpt lat="48.75353" lon="1.8174">
        <ele>135.19999694824</ele>
        <time>2011-04-09T13:06:24.000Z</time>
      </trkpt>
      <trkpt lat="48.75349" lon="1.81729">
        <ele>135.80000305176</ele>
        <time>2011-04-09T13:06:29.000Z</time>
      </trkpt>
      <trkpt lat="48.75348" lon="1.81727">
        <ele>135.80000305176</ele>
        <time>2011-04-09T13:06:30.000Z</time>
      </trkpt>
      <trkpt lat="48.75348" lon="1.81723">
        <ele>136.19999694824</ele>
        <time>2011-04-09T13:06:32.000Z</time>
      </trkpt>
      <trkpt lat="48.75341" lon="1.81709">
        <ele>137</ele>
        <time>2011-04-09T13:06:39.000Z</time>
      </trkpt>
      <trkpt lat="48.75338" lon="1.81702">
        <ele>137.39999389648</ele>
        <time>2011-04-09T13:06:43.000Z</time>
      </trkpt>
      <trkpt lat="48.75332" lon="1.81691">
        <ele>138.19999694824</ele>
        <time>2011-04-09T13:06:50.000Z</time>
      </trkpt>
      <trkpt lat="48.75329" lon="1.81685">
        <ele>138.60000610352</ele>
        <time>2011-04-09T13:06:54.000Z</time>
      </trkpt>
      <trkpt lat="48.75327" lon="1.81682">
        <ele>139</ele>
        <time>2011-04-09T13:06:56.000Z</time>
      </trkpt>
      <trkpt lat="48.75322" lon="1.8167">
        <ele>139.80000305176</ele>
        <time>2011-04-09T13:07:02.000Z</time>
      </trkpt>
      <trkpt lat="48.7531" lon="1.81663">
        <ele>140.60000610352</ele>
        <time>2011-04-09T13:07:09.000Z</time>
      </trkpt>
      <trkpt lat="48.75298" lon="1.8165">
        <ele>141.39999389648</ele>
        <time>2011-04-09T13:07:16.000Z</time>
      </trkpt>
      <trkpt lat="48.75293" lon="1.81639">
        <ele>142</ele>
        <time>2011-04-09T13:07:22.000Z</time>
      </trkpt>
      <trkpt lat="48.75286" lon="1.81628">
        <ele>142.60000610352</ele>
        <time>2011-04-09T13:07:28.000Z</time>
      </trkpt>
      <trkpt lat="48.75281" lon="1.81615">
        <ele>143.39999389648</ele>
        <time>2011-04-09T13:07:35.000Z</time>
      </trkpt>
      <trkpt lat="48.75271" lon="1.81602">
        <ele>144.19999694824</ele>
        <time>2011-04-09T13:07:43.000Z</time>
      </trkpt>
      <trkpt lat="48.75266" lon="1.81593">
        <ele>145</ele>
        <time>2011-04-09T13:07:48.000Z</time>
      </trkpt>
      <trkpt lat="48.75258" lon="1.81584">
        <ele>145.60000610352</ele>
        <time>2011-04-09T13:07:53.000Z</time>
      </trkpt>
      <trkpt lat="48.7525" lon="1.81572">
        <ele>146.39999389648</ele>
        <time>2011-04-09T13:08:00.000Z</time>
      </trkpt>
      <trkpt lat="48.75248" lon="1.8157">
        <ele>146.39999389648</ele>
        <time>2011-04-09T13:08:01.000Z</time>
      </trkpt>
      <trkpt lat="48.75243" lon="1.81564">
        <ele>146.80000305176</ele>
        <time>2011-04-09T13:08:06.000Z</time>
      </trkpt>
      <trkpt lat="48.75236" lon="1.81557">
        <ele>147.39999389648</ele>
        <time>2011-04-09T13:08:12.000Z</time>
      </trkpt>
      <trkpt lat="48.7523" lon="1.81548">
        <ele>148</ele>
        <time>2011-04-09T13:08:17.000Z</time>
      </trkpt>
      <trkpt lat="48.75224" lon="1.81538">
        <ele>148.80000305176</ele>
        <time>2011-04-09T13:08:24.000Z</time>
      </trkpt>
      <trkpt lat="48.75223" lon="1.81536">
        <ele>149</ele>
        <time>2011-04-09T13:08:25.000Z</time>
      </trkpt>
      <trkpt lat="48.75216" lon="1.81527">
        <ele>149.80000305176</ele>
        <time>2011-04-09T13:08:32.000Z</time>
      </trkpt>
      <trkpt lat="48.75209" lon="1.81518">
        <ele>150.39999389648</ele>
        <time>2011-04-09T13:08:38.000Z</time>
      </trkpt>
      <trkpt lat="48.75202" lon="1.81506">
        <ele>151.39999389648</ele>
        <time>2011-04-09T13:08:45.000Z</time>
      </trkpt>
      <trkpt lat="48.75196" lon="1.81494">
        <ele>152.60000610352</ele>
        <time>2011-04-09T13:08:50.000Z</time>
      </trkpt>
      <trkpt lat="48.75189" lon="1.81481">
        <ele>154</ele>
        <time>2011-04-09T13:08:57.000Z</time>
      </trkpt>
      <trkpt lat="48.75181" lon="1.8147">
        <ele>155.19999694824</ele>
        <time>2011-04-09T13:09:04.000Z</time>
      </trkpt>
      <trkpt lat="48.75177" lon="1.81464">
        <ele>156.19999694824</ele>
        <time>2011-04-09T13:09:07.000Z</time>
      </trkpt>
      <trkpt lat="48.7517" lon="1.81451">
        <ele>157.80000305176</ele>
        <time>2011-04-09T13:09:13.000Z</time>
      </trkpt>
      <trkpt lat="48.75164" lon="1.81447">
        <ele>158.39999389648</ele>
        <time>2011-04-09T13:09:16.000Z</time>
      </trkpt>
      <trkpt lat="48.75157" lon="1.81433">
        <ele>160.19999694824</ele>
        <time>2011-04-09T13:09:23.000Z</time>
      </trkpt>
      <trkpt lat="48.75153" lon="1.81423">
        <ele>161.39999389648</ele>
        <time>2011-04-09T13:09:28.000Z</time>
      </trkpt>
      <trkpt lat="48.75145" lon="1.81423">
        <ele>162</ele>
        <time>2011-04-09T13:09:33.000Z</time>
      </trkpt>
      <trkpt lat="48.75138" lon="1.81407">
        <ele>163.60000610352</ele>
        <time>2011-04-09T13:09:38.000Z</time>
      </trkpt>
      <trkpt lat="48.75129" lon="1.81396">
        <ele>165</ele>
        <time>2011-04-09T13:09:44.000Z</time>
      </trkpt>
      <trkpt lat="48.75123" lon="1.81394">
        <ele>165.60000610352</ele>
        <time>2011-04-09T13:09:49.000Z</time>
      </trkpt>
      <trkpt lat="48.75119" lon="1.81391">
        <ele>166.19999694824</ele>
        <time>2011-04-09T13:09:52.000Z</time>
      </trkpt>
      <trkpt lat="48.7511" lon="1.8139">
        <ele>167</ele>
        <time>2011-04-09T13:09:59.000Z</time>
      </trkpt>
      <trkpt lat="48.75102" lon="1.81383">
        <ele>168.19999694824</ele>
        <time>2011-04-09T13:10:05.000Z</time>
      </trkpt>
      <trkpt lat="48.75093" lon="1.81382">
        <ele>169</ele>
        <time>2011-04-09T13:10:10.000Z</time>
      </trkpt>
      <trkpt lat="48.75084" lon="1.81376">
        <ele>170.19999694824</ele>
        <time>2011-04-09T13:10:16.000Z</time>
      </trkpt>
      <trkpt lat="48.7508" lon="1.81377">
        <ele>170.39999389648</ele>
        <time>2011-04-09T13:10:19.000Z</time>
      </trkpt>
      <trkpt lat="48.75072" lon="1.81374">
        <ele>170.80000305176</ele>
        <time>2011-04-09T13:10:25.000Z</time>
      </trkpt>
      <trkpt lat="48.75066" lon="1.81371">
        <ele>171.39999389648</ele>
        <time>2011-04-09T13:10:29.000Z</time>
      </trkpt>
      <trkpt lat="48.75055" lon="1.81362">
        <ele>172.60000610352</ele>
        <time>2011-04-09T13:10:36.000Z</time>
      </trkpt>
      <trkpt lat="48.7505" lon="1.81356">
        <ele>173.19999694824</ele>
        <time>2011-04-09T13:10:41.000Z</time>
      </trkpt>
      <trkpt lat="48.75044" lon="1.81345">
        <ele>174.39999389648</ele>
        <time>2011-04-09T13:10:47.000Z</time>
      </trkpt>
      <trkpt lat="48.75042" lon="1.81344">
        <ele>174.39999389648</ele>
        <time>2011-04-09T13:10:48.000Z</time>
      </trkpt>
      <trkpt lat="48.75036" lon="1.81336">
        <ele>175.39999389648</ele>
        <time>2011-04-09T13:10:55.000Z</time>
      </trkpt>
      <trkpt lat="48.75026" lon="1.81328">
        <ele>176</ele>
        <time>2011-04-09T13:11:01.000Z</time>
      </trkpt>
      <trkpt lat="48.75019" lon="1.81323">
        <ele>176.39999389648</ele>
        <time>2011-04-09T13:11:07.000Z</time>
      </trkpt>
      <trkpt lat="48.75011" lon="1.81317">
        <ele>176.80000305176</ele>
        <time>2011-04-09T13:11:13.000Z</time>
      </trkpt>
      <trkpt lat="48.75003" lon="1.81311">
        <ele>177</ele>
        <time>2011-04-09T13:11:19.000Z</time>
      </trkpt>
      <trkpt lat="48.74998" lon="1.81306">
        <ele>177.19999694824</ele>
        <time>2011-04-09T13:11:24.000Z</time>
      </trkpt>
      <trkpt lat="48.74994" lon="1.81303">
        <ele>177.39999389648</ele>
        <time>2011-04-09T13:11:27.000Z</time>
      </trkpt>
      <trkpt lat="48.7499" lon="1.81298">
        <ele>177.60000610352</ele>
        <time>2011-04-09T13:11:32.000Z</time>
      </trkpt>
      <trkpt lat="48.74978" lon="1.8129">
        <ele>178</ele>
        <time>2011-04-09T13:11:41.000Z</time>
      </trkpt>
      <trkpt lat="48.74971" lon="1.81285">
        <ele>178.19999694824</ele>
        <time>2011-04-09T13:11:46.000Z</time>
      </trkpt>
      <trkpt lat="48.7496" lon="1.81279">
        <ele>178.39999389648</ele>
        <time>2011-04-09T13:11:54.000Z</time>
      </trkpt>
      <trkpt lat="48.74954" lon="1.81276">
        <ele>178.39999389648</ele>
        <time>2011-04-09T13:11:59.000Z</time>
      </trkpt>
      <trkpt lat="48.74944" lon="1.81271">
        <ele>178.60000610352</ele>
        <time>2011-04-09T13:12:06.000Z</time>
      </trkpt>
      <trkpt lat="48.74943" lon="1.81269">
        <ele>178.60000610352</ele>
        <time>2011-04-09T13:12:07.000Z</time>
      </trkpt>
      <trkpt lat="48.74936" lon="1.81267">
        <ele>178.80000305176</ele>
        <time>2011-04-09T13:12:13.000Z</time>
      </trkpt>
      <trkpt lat="48.74935" lon="1.81266">
        <ele>178.80000305176</ele>
        <time>2011-04-09T13:12:14.000Z</time>
      </trkpt>
      <trkpt lat="48.74928" lon="1.81257">
        <ele>178.80000305176</ele>
        <time>2011-04-09T13:12:22.000Z</time>
      </trkpt>
      <trkpt lat="48.74921" lon="1.81252">
        <ele>178.80000305176</ele>
        <time>2011-04-09T13:12:28.000Z</time>
      </trkpt>
      <trkpt lat="48.74911" lon="1.81241">
        <ele>179</ele>
        <time>2011-04-09T13:12:35.000Z</time>
      </trkpt>
      <trkpt lat="48.74906" lon="1.81237">
        <ele>179.19999694824</ele>
        <time>2011-04-09T13:12:39.000Z</time>
      </trkpt>
      <trkpt lat="48.749" lon="1.81228">
        <ele>179.39999389648</ele>
        <time>2011-04-09T13:12:45.000Z</time>
      </trkpt>
      <trkpt lat="48.7489" lon="1.81217">
        <ele>179.60000610352</ele>
        <time>2011-04-09T13:12:53.000Z</time>
      </trkpt>
      <trkpt lat="48.7488" lon="1.81206">
        <ele>179.80000305176</ele>
        <time>2011-04-09T13:13:01.000Z</time>
      </trkpt>
      <trkpt lat="48.74871" lon="1.81199">
        <ele>180.19999694824</ele>
        <time>2011-04-09T13:13:08.000Z</time>
      </trkpt>
      <trkpt lat="48.74863" lon="1.8119">
        <ele>180.19999694824</ele>
        <time>2011-04-09T13:13:15.000Z</time>
      </trkpt>
      <trkpt lat="48.74856" lon="1.81182">
        <ele>180.39999389648</ele>
        <time>2011-04-09T13:13:20.000Z</time>
      </trkpt>
      <trkpt lat="48.74848" lon="1.81173">
        <ele>180.60000610352</ele>
        <time>2011-04-09T13:13:27.000Z</time>
      </trkpt>
      <trkpt lat="48.74837" lon="1.81161">
        <ele>180.60000610352</ele>
        <time>2011-04-09T13:13:36.000Z</time>
      </trkpt>
      <trkpt lat="48.74826" lon="1.81147">
        <ele>181.19999694824</ele>
        <time>2011-04-09T13:13:45.000Z</time>
      </trkpt>
      <trkpt lat="48.74814" lon="1.81133">
        <ele>181.80000305176</ele>
        <time>2011-04-09T13:13:55.000Z</time>
      </trkpt>
      <trkpt lat="48.74808" lon="1.81128">
        <ele>182.19999694824</ele>
        <time>2011-04-09T13:14:00.000Z</time>
      </trkpt>
      <trkpt lat="48.74798" lon="1.81122">
        <ele>183</ele>
        <time>2011-04-09T13:14:07.000Z</time>
      </trkpt>
      <trkpt lat="48.74795" lon="1.81119">
        <ele>183.19999694824</ele>
        <time>2011-04-09T13:14:10.000Z</time>
      </trkpt>
      <trkpt lat="48.74785" lon="1.81113">
        <ele>183.80000305176</ele>
        <time>2011-04-09T13:14:17.000Z</time>
      </trkpt>
      <trkpt lat="48.7478" lon="1.81101">
        <ele>184</ele>
        <time>2011-04-09T13:14:23.000Z</time>
      </trkpt>
      <trkpt lat="48.74772" lon="1.8109">
        <ele>184.19999694824</ele>
        <time>2011-04-09T13:14:30.000Z</time>
      </trkpt>
      <trkpt lat="48.74764" lon="1.81078">
        <ele>184.60000610352</ele>
        <time>2011-04-09T13:14:37.000Z</time>
      </trkpt>
      <trkpt lat="48.74753" lon="1.81059">
        <ele>184.60000610352</ele>
        <time>2011-04-09T13:14:47.000Z</time>
      </trkpt>
      <trkpt lat="48.7475" lon="1.81055">
        <ele>184.60000610352</ele>
        <time>2011-04-09T13:14:52.000Z</time>
      </trkpt>
      <trkpt lat="48.74744" lon="1.81047">
        <ele>184.19999694824</ele>
        <time>2011-04-09T13:14:58.000Z</time>
      </trkpt>
      <trkpt lat="48.74742" lon="1.81042">
        <ele>184</ele>
        <time>2011-04-09T13:15:01.000Z</time>
      </trkpt>
      <trkpt lat="48.74738" lon="1.81034">
        <ele>183.80000305176</ele>
        <time>2011-04-09T13:15:05.000Z</time>
      </trkpt>
      <trkpt lat="48.74732" lon="1.81025">
        <ele>183.60000610352</ele>
        <time>2011-04-09T13:15:10.000Z</time>
      </trkpt>
      <trkpt lat="48.74725" lon="1.81011">
        <ele>183.19999694824</ele>
        <time>2011-04-09T13:15:18.000Z</time>
      </trkpt>
      <trkpt lat="48.74717" lon="1.80997">
        <ele>183</ele>
        <time>2011-04-09T13:15:25.000Z</time>
      </trkpt>
      <trkpt lat="48.74714" lon="1.80986">
        <ele>183.19999694824</ele>
        <time>2011-04-09T13:15:30.000Z</time>
      </trkpt>
      <trkpt lat="48.74711" lon="1.80977">
        <ele>183.39999389648</ele>
        <time>2011-04-09T13:15:35.000Z</time>
      </trkpt>
      <trkpt lat="48.74701" lon="1.80962">
        <ele>184</ele>
        <time>2011-04-09T13:15:44.000Z</time>
      </trkpt>
      <trkpt lat="48.74696" lon="1.8095">
        <ele>184.60000610352</ele>
        <time>2011-04-09T13:15:50.000Z</time>
      </trkpt>
      <trkpt lat="48.7469" lon="1.80939">
        <ele>185.19999694824</ele>
        <time>2011-04-09T13:15:56.000Z</time>
      </trkpt>
      <trkpt lat="48.74687" lon="1.80932">
        <ele>185.60000610352</ele>
        <time>2011-04-09T13:15:59.000Z</time>
      </trkpt>
      <trkpt lat="48.74683" lon="1.80923">
        <ele>186.19999694824</ele>
        <time>2011-04-09T13:16:03.000Z</time>
      </trkpt>
      <trkpt lat="48.74675" lon="1.80912">
        <ele>187.19999694824</ele>
        <time>2011-04-09T13:16:09.000Z</time>
      </trkpt>
      <trkpt lat="48.74666" lon="1.80898">
        <ele>188</ele>
        <time>2011-04-09T13:16:16.000Z</time>
      </trkpt>
      <trkpt lat="48.74656" lon="1.80885">
        <ele>188.60000610352</ele>
        <time>2011-04-09T13:16:25.000Z</time>
      </trkpt>
      <trkpt lat="48.74654" lon="1.80882">
        <ele>188.80000305176</ele>
        <time>2011-04-09T13:16:27.000Z</time>
      </trkpt>
      <trkpt lat="48.74646" lon="1.80868">
        <ele>189.39999389648</ele>
        <time>2011-04-09T13:16:34.000Z</time>
      </trkpt>
      <trkpt lat="48.74638" lon="1.80856">
        <ele>190</ele>
        <time>2011-04-09T13:16:41.000Z</time>
      </trkpt>
      <trkpt lat="48.74634" lon="1.80851">
        <ele>190.19999694824</ele>
        <time>2011-04-09T13:16:45.000Z</time>
      </trkpt>
      <trkpt lat="48.74627" lon="1.80844">
        <ele>190.80000305176</ele>
        <time>2011-04-09T13:16:51.000Z</time>
      </trkpt>
      <trkpt lat="48.7462" lon="1.80837">
        <ele>191.19999694824</ele>
        <time>2011-04-09T13:16:57.000Z</time>
      </trkpt>
      <trkpt lat="48.74615" lon="1.80829">
        <ele>191.39999389648</ele>
        <time>2011-04-09T13:17:02.000Z</time>
      </trkpt>
      <trkpt lat="48.74606" lon="1.80818">
        <ele>191.80000305176</ele>
        <time>2011-04-09T13:17:09.000Z</time>
      </trkpt>
      <trkpt lat="48.74601" lon="1.80809">
        <ele>192</ele>
        <time>2011-04-09T13:17:14.000Z</time>
      </trkpt>
      <trkpt lat="48.74592" lon="1.80796">
        <ele>192</ele>
        <time>2011-04-09T13:17:22.000Z</time>
      </trkpt>
      <trkpt lat="48.74584" lon="1.80788">
        <ele>192.19999694824</ele>
        <time>2011-04-09T13:17:28.000Z</time>
      </trkpt>
      <trkpt lat="48.74578" lon="1.8078">
        <ele>192</ele>
        <time>2011-04-09T13:17:33.000Z</time>
      </trkpt>
      <trkpt lat="48.7457" lon="1.80771">
        <ele>191.80000305176</ele>
        <time>2011-04-09T13:17:39.000Z</time>
      </trkpt>
      <trkpt lat="48.74567" lon="1.80765">
        <ele>191.60000610352</ele>
        <time>2011-04-09T13:17:42.000Z</time>
      </trkpt>
      <trkpt lat="48.74565" lon="1.80759">
        <ele>191.39999389648</ele>
        <time>2011-04-09T13:17:46.000Z</time>
      </trkpt>
      <trkpt lat="48.74559" lon="1.80751">
        <ele>191.19999694824</ele>
        <time>2011-04-09T13:17:52.000Z</time>
      </trkpt>
      <trkpt lat="48.74552" lon="1.80746">
        <ele>191.19999694824</ele>
        <time>2011-04-09T13:17:57.000Z</time>
      </trkpt>
      <trkpt lat="48.74543" lon="1.80741">
        <ele>191.19999694824</ele>
        <time>2011-04-09T13:18:03.000Z</time>
      </trkpt>
      <trkpt lat="48.74534" lon="1.80727">
        <ele>191.19999694824</ele>
        <time>2011-04-09T13:18:10.000Z</time>
      </trkpt>
      <trkpt lat="48.74523" lon="1.80718">
        <ele>191.39999389648</ele>
        <time>2011-04-09T13:18:17.000Z</time>
      </trkpt>
      <trkpt lat="48.74514" lon="1.80713">
        <ele>191.60000610352</ele>
        <time>2011-04-09T13:18:23.000Z</time>
      </trkpt>
      <trkpt lat="48.74513" lon="1.80712">
        <ele>191.60000610352</ele>
        <time>2011-04-09T13:18:26.000Z</time>
      </trkpt>
      <trkpt lat="48.7451" lon="1.8071">
        <ele>191.60000610352</ele>
        <time>2011-04-09T13:18:31.000Z</time>
      </trkpt>
      <trkpt lat="48.74503" lon="1.80701">
        <ele>191.80000305176</ele>
        <time>2011-04-09T13:18:36.000Z</time>
      </trkpt>
      <trkpt lat="48.745" lon="1.80701">
        <ele>191.80000305176</ele>
        <time>2011-04-09T13:18:40.000Z</time>
      </trkpt>
      <trkpt lat="48.74496" lon="1.80699">
        <ele>191.80000305176</ele>
        <time>2011-04-09T13:18:46.000Z</time>
      </trkpt>
      <trkpt lat="48.7449" lon="1.80697">
        <ele>191.60000610352</ele>
        <time>2011-04-09T13:18:52.000Z</time>
      </trkpt>
      <trkpt lat="48.74476" lon="1.80691">
        <ele>191.19999694824</ele>
        <time>2011-04-09T13:18:58.000Z</time>
      </trkpt>
      <trkpt lat="48.74468" lon="1.80689">
        <ele>191</ele>
        <time>2011-04-09T13:19:03.000Z</time>
      </trkpt>
      <trkpt lat="48.74457" lon="1.80692">
        <ele>190.80000305176</ele>
        <time>2011-04-09T13:19:09.000Z</time>
      </trkpt>
      <trkpt lat="48.74446" lon="1.80696">
        <ele>190.60000610352</ele>
        <time>2011-04-09T13:19:16.000Z</time>
      </trkpt>
      <trkpt lat="48.74438" lon="1.80697">
        <ele>190.39999389648</ele>
        <time>2011-04-09T13:19:21.000Z</time>
      </trkpt>
      <trkpt lat="48.74432" lon="1.807">
        <ele>190.39999389648</ele>
        <time>2011-04-09T13:19:25.000Z</time>
      </trkpt>
      <trkpt lat="48.74416" lon="1.80704">
        <ele>190.19999694824</ele>
        <time>2011-04-09T13:19:33.000Z</time>
      </trkpt>
      <trkpt lat="48.74403" lon="1.80705">
        <ele>190.19999694824</ele>
        <time>2011-04-09T13:19:40.000Z</time>
      </trkpt>
      <trkpt lat="48.744" lon="1.80705">
        <ele>190.19999694824</ele>
        <time>2011-04-09T13:19:43.000Z</time>
      </trkpt>
      <trkpt lat="48.74392" lon="1.80705">
        <ele>190.19999694824</ele>
        <time>2011-04-09T13:19:50.000Z</time>
      </trkpt>
      <trkpt lat="48.74392" lon="1.80705">
        <ele>190.19999694824</ele>
        <time>2011-04-09T13:19:51.000Z</time>
      </trkpt>
      <trkpt lat="48.74384" lon="1.80708">
        <ele>190.39999389648</ele>
        <time>2011-04-09T13:20:09.000Z</time>
      </trkpt>
      <trkpt lat="48.74371" lon="1.80709">
        <ele>190.39999389648</ele>
        <time>2011-04-09T13:20:15.000Z</time>
      </trkpt>
      <trkpt lat="48.74364" lon="1.80713">
        <ele>190.60000610352</ele>
        <time>2011-04-09T13:20:20.000Z</time>
      </trkpt>
      <trkpt lat="48.74355" lon="1.80713">
        <ele>190.60000610352</ele>
        <time>2011-04-09T13:20:25.000Z</time>
      </trkpt>
      <trkpt lat="48.74348" lon="1.80713">
        <ele>190.60000610352</ele>
        <time>2011-04-09T13:20:29.000Z</time>
      </trkpt>
      <trkpt lat="48.74336" lon="1.80716">
        <ele>190.80000305176</ele>
        <time>2011-04-09T13:20:36.000Z</time>
      </trkpt>
      <trkpt lat="48.74327" lon="1.80717">
        <ele>191</ele>
        <time>2011-04-09T13:20:42.000Z</time>
      </trkpt>
      <trkpt lat="48.74317" lon="1.80719">
        <ele>191</ele>
        <time>2011-04-09T13:20:48.000Z</time>
      </trkpt>
      <trkpt lat="48.74308" lon="1.80721">
        <ele>191.19999694824</ele>
        <time>2011-04-09T13:20:54.000Z</time>
      </trkpt>
      <trkpt lat="48.74298" lon="1.80723">
        <ele>191.19999694824</ele>
        <time>2011-04-09T13:21:01.000Z</time>
      </trkpt>
      <trkpt lat="48.74287" lon="1.80723">
        <ele>191.19999694824</ele>
        <time>2011-04-09T13:21:07.000Z</time>
      </trkpt>
      <trkpt lat="48.74277" lon="1.80726">
        <ele>191.39999389648</ele>
        <time>2011-04-09T13:21:12.000Z</time>
      </trkpt>
      <trkpt lat="48.74266" lon="1.8073">
        <ele>191.39999389648</ele>
        <time>2011-04-09T13:21:19.000Z</time>
      </trkpt>
      <trkpt lat="48.74255" lon="1.80731">
        <ele>191.39999389648</ele>
        <time>2011-04-09T13:21:25.000Z</time>
      </trkpt>
      <trkpt lat="48.74248" lon="1.80733">
        <ele>191.60000610352</ele>
        <time>2011-04-09T13:21:30.000Z</time>
      </trkpt>
      <trkpt lat="48.74239" lon="1.80735">
        <ele>191.60000610352</ele>
        <time>2011-04-09T13:21:37.000Z</time>
      </trkpt>
      <trkpt lat="48.74237" lon="1.80735">
        <ele>191.60000610352</ele>
        <time>2011-04-09T13:21:38.000Z</time>
      </trkpt>
      <trkpt lat="48.74223" lon="1.80737">
        <ele>191.80000305176</ele>
        <time>2011-04-09T13:21:47.000Z</time>
      </trkpt>
      <trkpt lat="48.74211" lon="1.80738">
        <ele>192</ele>
        <time>2011-04-09T13:21:54.000Z</time>
      </trkpt>
      <trkpt lat="48.74201" lon="1.80741">
        <ele>192.19999694824</ele>
        <time>2011-04-09T13:22:01.000Z</time>
      </trkpt>
      <trkpt lat="48.74189" lon="1.80745">
        <ele>192.39999389648</ele>
        <time>2011-04-09T13:22:08.000Z</time>
      </trkpt>
      <trkpt lat="48.74181" lon="1.80747">
        <ele>192.60000610352</ele>
        <time>2011-04-09T13:22:13.000Z</time>
      </trkpt>
      <trkpt lat="48.74169" lon="1.80749">
        <ele>192.80000305176</ele>
        <time>2011-04-09T13:22:20.000Z</time>
      </trkpt>
      <trkpt lat="48.74159" lon="1.80751">
        <ele>192.80000305176</ele>
        <time>2011-04-09T13:22:26.000Z</time>
      </trkpt>
      <trkpt lat="48.74151" lon="1.80751">
        <ele>192.60000610352</ele>
        <time>2011-04-09T13:22:30.000Z</time>
      </trkpt>
      <trkpt lat="48.74138" lon="1.80756">
        <ele>192.39999389648</ele>
        <time>2011-04-09T13:22:37.000Z</time>
      </trkpt>
      <trkpt lat="48.74127" lon="1.80757">
        <ele>192.19999694824</ele>
        <time>2011-04-09T13:22:43.000Z</time>
      </trkpt>
      <trkpt lat="48.74115" lon="1.80758">
        <ele>192</ele>
        <time>2011-04-09T13:22:50.000Z</time>
      </trkpt>
      <trkpt lat="48.74113" lon="1.80758">
        <ele>192</ele>
        <time>2011-04-09T13:22:52.000Z</time>
      </trkpt>
      <trkpt lat="48.74102" lon="1.80759">
        <ele>191.80000305176</ele>
        <time>2011-04-09T13:22:58.000Z</time>
      </trkpt>
      <trkpt lat="48.74092" lon="1.80761">
        <ele>191.60000610352</ele>
        <time>2011-04-09T13:23:04.000Z</time>
      </trkpt>
      <trkpt lat="48.7408" lon="1.80762">
        <ele>191.39999389648</ele>
        <time>2011-04-09T13:23:10.000Z</time>
      </trkpt>
      <trkpt lat="48.7407" lon="1.80762">
        <ele>191.39999389648</ele>
        <time>2011-04-09T13:23:16.000Z</time>
      </trkpt>
      <trkpt lat="48.74063" lon="1.80765">
        <ele>191.39999389648</ele>
        <time>2011-04-09T13:23:20.000Z</time>
      </trkpt>
      <trkpt lat="48.74052" lon="1.80766">
        <ele>191.19999694824</ele>
        <time>2011-04-09T13:23:26.000Z</time>
      </trkpt>
      <trkpt lat="48.74047" lon="1.80767">
        <ele>191.19999694824</ele>
        <time>2011-04-09T13:23:29.000Z</time>
      </trkpt>
      <trkpt lat="48.74036" lon="1.80771">
        <ele>191.39999389648</ele>
        <time>2011-04-09T13:23:35.000Z</time>
      </trkpt>
      <trkpt lat="48.74019" lon="1.80775">
        <ele>191.39999389648</ele>
        <time>2011-04-09T13:23:44.000Z</time>
      </trkpt>
      <trkpt lat="48.74009" lon="1.80777">
        <ele>191.39999389648</ele>
        <time>2011-04-09T13:23:49.000Z</time>
      </trkpt>
      <trkpt lat="48.74006" lon="1.80778">
        <ele>191.39999389648</ele>
        <time>2011-04-09T13:23:51.000Z</time>
      </trkpt>
      <trkpt lat="48.73999" lon="1.80778">
        <ele>191.19999694824</ele>
        <time>2011-04-09T13:23:55.000Z</time>
      </trkpt>
      <trkpt lat="48.73986" lon="1.80783">
        <ele>192</ele>
        <time>2011-04-09T13:24:02.000Z</time>
      </trkpt>
      <trkpt lat="48.73976" lon="1.80785">
        <ele>192.19999694824</ele>
        <time>2011-04-09T13:24:07.000Z</time>
      </trkpt>
      <trkpt lat="48.73965" lon="1.80785">
        <ele>192.60000610352</ele>
        <time>2011-04-09T13:24:13.000Z</time>
      </trkpt>
      <trkpt lat="48.73954" lon="1.80787">
        <ele>193.19999694824</ele>
        <time>2011-04-09T13:24:19.000Z</time>
      </trkpt>
      <trkpt lat="48.73938" lon="1.8079">
        <ele>193.80000305176</ele>
        <time>2011-04-09T13:24:27.000Z</time>
      </trkpt>
      <trkpt lat="48.73929" lon="1.80791">
        <ele>194</ele>
        <time>2011-04-09T13:24:31.000Z</time>
      </trkpt>
      <trkpt lat="48.73917" lon="1.80793">
        <ele>194.39999389648</ele>
        <time>2011-04-09T13:24:38.000Z</time>
      </trkpt>
      <trkpt lat="48.73912" lon="1.80794">
        <ele>194.60000610352</ele>
        <time>2011-04-09T13:24:42.000Z</time>
      </trkpt>
      <trkpt lat="48.73906" lon="1.80798">
        <ele>194.80000305176</ele>
        <time>2011-04-09T13:24:46.000Z</time>
      </trkpt>
      <trkpt lat="48.73895" lon="1.808">
        <ele>195</ele>
        <time>2011-04-09T13:24:52.000Z</time>
      </trkpt>
      <trkpt lat="48.73889" lon="1.808">
        <ele>195</ele>
        <time>2011-04-09T13:24:56.000Z</time>
      </trkpt>
      <trkpt lat="48.73885" lon="1.80798">
        <ele>195</ele>
        <time>2011-04-09T13:25:02.000Z</time>
      </trkpt>
      <trkpt lat="48.73865" lon="1.80801">
        <ele>195.19999694824</ele>
        <time>2011-04-09T13:25:42.000Z</time>
      </trkpt>
      <trkpt lat="48.73856" lon="1.80802">
        <ele>195.39999389648</ele>
        <time>2011-04-09T13:25:47.000Z</time>
      </trkpt>
      <trkpt lat="48.73847" lon="1.80805">
        <ele>195.39999389648</ele>
        <time>2011-04-09T13:25:53.000Z</time>
      </trkpt>
      <trkpt lat="48.73835" lon="1.80805">
        <ele>195.60000610352</ele>
        <time>2011-04-09T13:26:00.000Z</time>
      </trkpt>
      <trkpt lat="48.73823" lon="1.80808">
        <ele>195.60000610352</ele>
        <time>2011-04-09T13:26:07.000Z</time>
      </trkpt>
      <trkpt lat="48.73815" lon="1.8081">
        <ele>195.60000610352</ele>
        <time>2011-04-09T13:26:12.000Z</time>
      </trkpt>
      <trkpt lat="48.73807" lon="1.80816">
        <ele>195.60000610352</ele>
        <time>2011-04-09T13:26:16.000Z</time>
      </trkpt>
      <trkpt lat="48.73796" lon="1.8082">
        <ele>195.39999389648</ele>
        <time>2011-04-09T13:26:23.000Z</time>
      </trkpt>
      <trkpt lat="48.73788" lon="1.80824">
        <ele>195.39999389648</ele>
        <time>2011-04-09T13:26:28.000Z</time>
      </trkpt>
      <trkpt lat="48.73781" lon="1.80825">
        <ele>195.39999389648</ele>
        <time>2011-04-09T13:26:32.000Z</time>
      </trkpt>
      <trkpt lat="48.73771" lon="1.80827">
        <ele>195.19999694824</ele>
        <time>2011-04-09T13:26:38.000Z</time>
      </trkpt>
      <trkpt lat="48.73766" lon="1.80828">
        <ele>195.19999694824</ele>
        <time>2011-04-09T13:26:42.000Z</time>
      </trkpt>
      <trkpt lat="48.73758" lon="1.80828">
        <ele>195</ele>
        <time>2011-04-09T13:26:47.000Z</time>
      </trkpt>
      <trkpt lat="48.73751" lon="1.80831">
        <ele>195</ele>
        <time>2011-04-09T13:26:51.000Z</time>
      </trkpt>
      <trkpt lat="48.73737" lon="1.80836">
        <ele>195</ele>
        <time>2011-04-09T13:26:59.000Z</time>
      </trkpt>
      <trkpt lat="48.73729" lon="1.80837">
        <ele>195.19999694824</ele>
        <time>2011-04-09T13:27:03.000Z</time>
      </trkpt>
      <trkpt lat="48.73721" lon="1.80836">
        <ele>195.19999694824</ele>
        <time>2011-04-09T13:27:08.000Z</time>
      </trkpt>
      <trkpt lat="48.7371" lon="1.80838">
        <ele>195.39999389648</ele>
        <time>2011-04-09T13:27:15.000Z</time>
      </trkpt>
      <trkpt lat="48.73708" lon="1.80839">
        <ele>195.39999389648</ele>
        <time>2011-04-09T13:27:16.000Z</time>
      </trkpt>
      <trkpt lat="48.73698" lon="1.80841">
        <ele>195.39999389648</ele>
        <time>2011-04-09T13:27:23.000Z</time>
      </trkpt>
      <trkpt lat="48.73689" lon="1.80842">
        <ele>195.60000610352</ele>
        <time>2011-04-09T13:27:28.000Z</time>
      </trkpt>
      <trkpt lat="48.73678" lon="1.80845">
        <ele>195.60000610352</ele>
        <time>2011-04-09T13:27:34.000Z</time>
      </trkpt>
      <trkpt lat="48.73669" lon="1.80847">
        <ele>195.60000610352</ele>
        <time>2011-04-09T13:27:40.000Z</time>
      </trkpt>
      <trkpt lat="48.73663" lon="1.80849">
        <ele>195.39999389648</ele>
        <time>2011-04-09T13:27:43.000Z</time>
      </trkpt>
      <trkpt lat="48.73655" lon="1.80852">
        <ele>195</ele>
        <time>2011-04-09T13:27:48.000Z</time>
      </trkpt>
      <trkpt lat="48.73654" lon="1.80853">
        <ele>195</ele>
        <time>2011-04-09T13:27:49.000Z</time>
      </trkpt>
      <trkpt lat="48.73643" lon="1.80856">
        <ele>194.60000610352</ele>
        <time>2011-04-09T13:27:55.000Z</time>
      </trkpt>
      <trkpt lat="48.73637" lon="1.80856">
        <ele>194.39999389648</ele>
        <time>2011-04-09T13:28:00.000Z</time>
      </trkpt>
      <trkpt lat="48.73634" lon="1.80857">
        <ele>194.19999694824</ele>
        <time>2011-04-09T13:28:02.000Z</time>
      </trkpt>
      <trkpt lat="48.73624" lon="1.80859">
        <ele>193.80000305176</ele>
        <time>2011-04-09T13:28:09.000Z</time>
      </trkpt>
      <trkpt lat="48.73612" lon="1.80858">
        <ele>193.60000610352</ele>
        <time>2011-04-09T13:28:16.000Z</time>
      </trkpt>
      <trkpt lat="48.73601" lon="1.80859">
        <ele>193.19999694824</ele>
        <time>2011-04-09T13:28:22.000Z</time>
      </trkpt>
      <trkpt lat="48.73597" lon="1.80857">
        <ele>193</ele>
        <time>2011-04-09T13:28:25.000Z</time>
      </trkpt>
      <trkpt lat="48.73588" lon="1.8086">
        <ele>192.80000305176</ele>
        <time>2011-04-09T13:28:33.000Z</time>
      </trkpt>
      <trkpt lat="48.73587" lon="1.80861">
        <ele>192.60000610352</ele>
        <time>2011-04-09T13:28:38.000Z</time>
      </trkpt>
      <trkpt lat="48.73587" lon="1.8086">
        <ele>192.80000305176</ele>
        <time>2011-04-09T13:28:41.000Z</time>
      </trkpt>
      <trkpt lat="48.73586" lon="1.80862">
        <ele>192.60000610352</ele>
        <time>2011-04-09T13:28:45.000Z</time>
      </trkpt>
      <trkpt lat="48.73587" lon="1.80862">
        <ele>192.60000610352</ele>
        <time>2011-04-09T13:28:46.000Z</time>
      </trkpt>
      <trkpt lat="48.7358" lon="1.80855">
        <ele>192.80000305176</ele>
        <time>2011-04-09T13:29:10.000Z</time>
      </trkpt>
      <trkpt lat="48.73577" lon="1.80858">
        <ele>192.80000305176</ele>
        <time>2011-04-09T13:29:15.000Z</time>
      </trkpt>
      <trkpt lat="48.73574" lon="1.80846">
        <ele>193</ele>
        <time>2011-04-09T13:31:08.000Z</time>
      </trkpt>
      <trkpt lat="48.7357" lon="1.80839">
        <ele>193.19999694824</ele>
        <time>2011-04-09T13:31:12.000Z</time>
      </trkpt>
      <trkpt lat="48.73568" lon="1.80832">
        <ele>193.19999694824</ele>
        <time>2011-04-09T13:31:18.000Z</time>
      </trkpt>
      <trkpt lat="48.73567" lon="1.80827">
        <ele>193.39999389648</ele>
        <time>2011-04-09T13:31:48.000Z</time>
      </trkpt>
      <trkpt lat="48.73577" lon="1.80812">
        <ele>193.39999389648</ele>
        <time>2011-04-09T13:31:53.000Z</time>
      </trkpt>
      <trkpt lat="48.73578" lon="1.80805">
        <ele>193.60000610352</ele>
        <time>2011-04-09T13:31:56.000Z</time>
      </trkpt>
      <trkpt lat="48.73578" lon="1.80795">
        <ele>193.80000305176</ele>
        <time>2011-04-09T13:32:00.000Z</time>
      </trkpt>
      <trkpt lat="48.7358" lon="1.8078">
        <ele>194.19999694824</ele>
        <time>2011-04-09T13:32:07.000Z</time>
      </trkpt>
      <trkpt lat="48.73579" lon="1.80767">
        <ele>194.39999389648</ele>
        <time>2011-04-09T13:32:12.000Z</time>
      </trkpt>
      <trkpt lat="48.73579" lon="1.8076">
        <ele>194.60000610352</ele>
        <time>2011-04-09T13:32:16.000Z</time>
      </trkpt>
      <trkpt lat="48.7358" lon="1.8074">
        <ele>195</ele>
        <time>2011-04-09T13:32:24.000Z</time>
      </trkpt>
      <trkpt lat="48.73576" lon="1.80718">
        <ele>195.19999694824</ele>
        <time>2011-04-09T13:32:28.000Z</time>
      </trkpt>
      <trkpt lat="48.73576" lon="1.80692">
        <ele>195.39999389648</ele>
        <time>2011-04-09T13:32:33.000Z</time>
      </trkpt>
      <trkpt lat="48.73572" lon="1.80668">
        <ele>195.60000610352</ele>
        <time>2011-04-09T13:32:37.000Z</time>
      </trkpt>
      <trkpt lat="48.73569" lon="1.80647">
        <ele>195.80000305176</ele>
        <time>2011-04-09T13:32:40.000Z</time>
      </trkpt>
      <trkpt lat="48.73567" lon="1.80632">
        <ele>196</ele>
        <time>2011-04-09T13:32:42.000Z</time>
      </trkpt>
      <trkpt lat="48.73562" lon="1.80587">
        <ele>196.39999389648</ele>
        <time>2011-04-09T13:32:48.000Z</time>
      </trkpt>
      <trkpt lat="48.73563" lon="1.8058">
        <ele>196.39999389648</ele>
        <time>2011-04-09T13:32:49.000Z</time>
      </trkpt>
      <trkpt lat="48.7356" lon="1.80558">
        <ele>196.19999694824</ele>
        <time>2011-04-09T13:32:52.000Z</time>
      </trkpt>
      <trkpt lat="48.73559" lon="1.80515">
        <ele>196</ele>
        <time>2011-04-09T13:32:58.000Z</time>
      </trkpt>
      <trkpt lat="48.73558" lon="1.80485">
        <ele>195.60000610352</ele>
        <time>2011-04-09T13:33:03.000Z</time>
      </trkpt>
      <trkpt lat="48.73555" lon="1.80458">
        <ele>195</ele>
        <time>2011-04-09T13:33:07.000Z</time>
      </trkpt>
      <trkpt lat="48.73554" lon="1.80439">
        <ele>194.60000610352</ele>
        <time>2011-04-09T13:33:10.000Z</time>
      </trkpt>
      <trkpt lat="48.73548" lon="1.80412">
        <ele>194.19999694824</ele>
        <time>2011-04-09T13:33:14.000Z</time>
      </trkpt>
      <trkpt lat="48.73547" lon="1.80385">
        <ele>194.39999389648</ele>
        <time>2011-04-09T13:33:18.000Z</time>
      </trkpt>
      <trkpt lat="48.73545" lon="1.80337">
        <ele>195</ele>
        <time>2011-04-09T13:33:25.000Z</time>
      </trkpt>
      <trkpt lat="48.73548" lon="1.80305">
        <ele>194.60000610352</ele>
        <time>2011-04-09T13:33:30.000Z</time>
      </trkpt>
      <trkpt lat="48.73549" lon="1.80286">
        <ele>194.19999694824</ele>
        <time>2011-04-09T13:33:33.000Z</time>
      </trkpt>
      <trkpt lat="48.73551" lon="1.80254">
        <ele>193.60000610352</ele>
        <time>2011-04-09T13:33:38.000Z</time>
      </trkpt>
      <trkpt lat="48.73551" lon="1.80232">
        <ele>193.60000610352</ele>
        <time>2011-04-09T13:33:41.000Z</time>
      </trkpt>
      <trkpt lat="48.7355" lon="1.80198">
        <ele>193.39999389648</ele>
        <time>2011-04-09T13:33:46.000Z</time>
      </trkpt>
      <trkpt lat="48.73548" lon="1.8017">
        <ele>193.39999389648</ele>
        <time>2011-04-09T13:33:50.000Z</time>
      </trkpt>
      <trkpt lat="48.73546" lon="1.80142">
        <ele>192.80000305176</ele>
        <time>2011-04-09T13:33:54.000Z</time>
      </trkpt>
      <trkpt lat="48.73543" lon="1.80112">
        <ele>192</ele>
        <time>2011-04-09T13:33:58.000Z</time>
      </trkpt>
      <trkpt lat="48.73543" lon="1.80097">
        <ele>191.80000305176</ele>
        <time>2011-04-09T13:34:00.000Z</time>
      </trkpt>
      <trkpt lat="48.73541" lon="1.80066">
        <ele>191.19999694824</ele>
        <time>2011-04-09T13:34:04.000Z</time>
      </trkpt>
      <trkpt lat="48.7354" lon="1.80033">
        <ele>190.80000305176</ele>
        <time>2011-04-09T13:34:09.000Z</time>
      </trkpt>
      <trkpt lat="48.73539" lon="1.80013">
        <ele>190.60000610352</ele>
        <time>2011-04-09T13:34:13.000Z</time>
      </trkpt>
      <trkpt lat="48.73537" lon="1.79979">
        <ele>190.60000610352</ele>
        <time>2011-04-09T13:34:19.000Z</time>
      </trkpt>
      <trkpt lat="48.73535" lon="1.79968">
        <ele>190.80000305176</ele>
        <time>2011-04-09T13:34:21.000Z</time>
      </trkpt>
      <trkpt lat="48.73532" lon="1.79932">
        <ele>191</ele>
        <time>2011-04-09T13:34:27.000Z</time>
      </trkpt>
      <trkpt lat="48.73532" lon="1.79919">
        <ele>191</ele>
        <time>2011-04-09T13:34:29.000Z</time>
      </trkpt>
      <trkpt lat="48.73531" lon="1.79905">
        <ele>191.19999694824</ele>
        <time>2011-04-09T13:34:31.000Z</time>
      </trkpt>
      <trkpt lat="48.73529" lon="1.79882">
        <ele>191.80000305176</ele>
        <time>2011-04-09T13:34:35.000Z</time>
      </trkpt>
      <trkpt lat="48.7353" lon="1.79865">
        <ele>192.19999694824</ele>
        <time>2011-04-09T13:34:38.000Z</time>
      </trkpt>
      <trkpt lat="48.73526" lon="1.79805">
        <ele>192.39999389648</ele>
        <time>2011-04-09T13:34:48.000Z</time>
      </trkpt>
      <trkpt lat="48.73526" lon="1.79793">
        <ele>192.19999694824</ele>
        <time>2011-04-09T13:34:51.000Z</time>
      </trkpt>
      <trkpt lat="48.73525" lon="1.79763">
        <ele>191.60000610352</ele>
        <time>2011-04-09T13:34:59.000Z</time>
      </trkpt>
      <trkpt lat="48.73524" lon="1.79746">
        <ele>191.39999389648</ele>
        <time>2011-04-09T13:35:05.000Z</time>
      </trkpt>
      <trkpt lat="48.73523" lon="1.79731">
        <ele>191.60000610352</ele>
        <time>2011-04-09T13:35:11.000Z</time>
      </trkpt>
      <trkpt lat="48.73523" lon="1.79711">
        <ele>191.60000610352</ele>
        <time>2011-04-09T13:35:18.000Z</time>
      </trkpt>
      <trkpt lat="48.73522" lon="1.79699">
        <ele>191.80000305176</ele>
        <time>2011-04-09T13:35:22.000Z</time>
      </trkpt>
      <trkpt lat="48.73522" lon="1.7968">
        <ele>191.80000305176</ele>
        <time>2011-04-09T13:35:30.000Z</time>
      </trkpt>
      <trkpt lat="48.73522" lon="1.79664">
        <ele>191.80000305176</ele>
        <time>2011-04-09T13:35:36.000Z</time>
      </trkpt>
      <trkpt lat="48.73522" lon="1.79651">
        <ele>191.80000305176</ele>
        <time>2011-04-09T13:35:41.000Z</time>
      </trkpt>
      <trkpt lat="48.73521" lon="1.79634">
        <ele>191.80000305176</ele>
        <time>2011-04-09T13:35:47.000Z</time>
      </trkpt>
      <trkpt lat="48.7352" lon="1.79623">
        <ele>191.80000305176</ele>
        <time>2011-04-09T13:35:51.000Z</time>
      </trkpt>
      <trkpt lat="48.73519" lon="1.79608">
        <ele>191.80000305176</ele>
        <time>2011-04-09T13:35:57.000Z</time>
      </trkpt>
      <trkpt lat="48.73519" lon="1.79592">
        <ele>191.80000305176</ele>
        <time>2011-04-09T13:36:03.000Z</time>
      </trkpt>
      <trkpt lat="48.73519" lon="1.79589">
        <ele>191.60000610352</ele>
        <time>2011-04-09T13:36:04.000Z</time>
      </trkpt>
      <trkpt lat="48.73519" lon="1.7958">
        <ele>191.80000305176</ele>
        <time>2011-04-09T13:36:08.000Z</time>
      </trkpt>
      <trkpt lat="48.73517" lon="1.7957">
        <ele>191.80000305176</ele>
        <time>2011-04-09T13:36:12.000Z</time>
      </trkpt>
      <trkpt lat="48.73517" lon="1.79553">
        <ele>192</ele>
        <time>2011-04-09T13:36:19.000Z</time>
      </trkpt>
      <trkpt lat="48.73514" lon="1.79532">
        <ele>192.19999694824</ele>
        <time>2011-04-09T13:36:26.000Z</time>
      </trkpt>
      <trkpt lat="48.73513" lon="1.79511">
        <ele>192.39999389648</ele>
        <time>2011-04-09T13:36:34.000Z</time>
      </trkpt>
      <trkpt lat="48.73513" lon="1.79497">
        <ele>192.60000610352</ele>
        <time>2011-04-09T13:36:40.000Z</time>
      </trkpt>
      <trkpt lat="48.73513" lon="1.79485">
        <ele>192.60000610352</ele>
        <time>2011-04-09T13:36:46.000Z</time>
      </trkpt>
      <trkpt lat="48.73511" lon="1.79472">
        <ele>192.60000610352</ele>
        <time>2011-04-09T13:36:52.000Z</time>
      </trkpt>
      <trkpt lat="48.73509" lon="1.79461">
        <ele>192.80000305176</ele>
        <time>2011-04-09T13:36:56.000Z</time>
      </trkpt>
      <trkpt lat="48.7351" lon="1.79442">
        <ele>192.80000305176</ele>
        <time>2011-04-09T13:37:03.000Z</time>
      </trkpt>
      <trkpt lat="48.73512" lon="1.79423">
        <ele>192.80000305176</ele>
        <time>2011-04-09T13:37:10.000Z</time>
      </trkpt>
      <trkpt lat="48.73512" lon="1.79401">
        <ele>192</ele>
        <time>2011-04-09T13:37:19.000Z</time>
      </trkpt>
      <trkpt lat="48.73511" lon="1.79396">
        <ele>191.80000305176</ele>
        <time>2011-04-09T13:37:21.000Z</time>
      </trkpt>
      <trkpt lat="48.73506" lon="1.79392">
        <ele>191.80000305176</ele>
        <time>2011-04-09T13:37:27.000Z</time>
      </trkpt>
      <trkpt lat="48.73501" lon="1.79393">
        <ele>191.80000305176</ele>
        <time>2011-04-09T13:37:30.000Z</time>
      </trkpt>
      <trkpt lat="48.73495" lon="1.79397">
        <ele>191.80000305176</ele>
        <time>2011-04-09T13:37:33.000Z</time>
      </trkpt>
      <trkpt lat="48.73491" lon="1.79398">
        <ele>192</ele>
        <time>2011-04-09T13:37:36.000Z</time>
      </trkpt>
      <trkpt lat="48.73482" lon="1.794">
        <ele>192</ele>
        <time>2011-04-09T13:37:42.000Z</time>
      </trkpt>
      <trkpt lat="48.7348" lon="1.79401">
        <ele>192</ele>
        <time>2011-04-09T13:37:43.000Z</time>
      </trkpt>
      <trkpt lat="48.73471" lon="1.79406">
        <ele>192</ele>
        <time>2011-04-09T13:37:48.000Z</time>
      </trkpt>
      <trkpt lat="48.73459" lon="1.79407">
        <ele>192</ele>
        <time>2011-04-09T13:37:55.000Z</time>
      </trkpt>
      <trkpt lat="48.73456" lon="1.79406">
        <ele>192</ele>
        <time>2011-04-09T13:37:58.000Z</time>
      </trkpt>
      <trkpt lat="48.73447" lon="1.79411">
        <ele>192</ele>
        <time>2011-04-09T13:38:03.000Z</time>
      </trkpt>
      <trkpt lat="48.73431" lon="1.79415">
        <ele>192</ele>
        <time>2011-04-09T13:38:11.000Z</time>
      </trkpt>
      <trkpt lat="48.73418" lon="1.79415">
        <ele>191.80000305176</ele>
        <time>2011-04-09T13:38:18.000Z</time>
      </trkpt>
      <trkpt lat="48.73408" lon="1.79416">
        <ele>191.39999389648</ele>
        <time>2011-04-09T13:38:24.000Z</time>
      </trkpt>
      <trkpt lat="48.73398" lon="1.79416">
        <ele>190.80000305176</ele>
        <time>2011-04-09T13:38:29.000Z</time>
      </trkpt>
      <trkpt lat="48.73388" lon="1.79417">
        <ele>190.19999694824</ele>
        <time>2011-04-09T13:38:35.000Z</time>
      </trkpt>
      <trkpt lat="48.73375" lon="1.79418">
        <ele>189.39999389648</ele>
        <time>2011-04-09T13:38:43.000Z</time>
      </trkpt>
      <trkpt lat="48.73363" lon="1.7942">
        <ele>188.80000305176</ele>
        <time>2011-04-09T13:38:50.000Z</time>
      </trkpt>
      <trkpt lat="48.73356" lon="1.79424">
        <ele>188.39999389648</ele>
        <time>2011-04-09T13:38:55.000Z</time>
      </trkpt>
      <trkpt lat="48.73355" lon="1.79425">
        <ele>188.39999389648</ele>
        <time>2011-04-09T13:38:56.000Z</time>
      </trkpt>
      <trkpt lat="48.73349" lon="1.79426">
        <ele>188.19999694824</ele>
        <time>2011-04-09T13:39:00.000Z</time>
      </trkpt>
      <trkpt lat="48.73336" lon="1.79426">
        <ele>187.39999389648</ele>
        <time>2011-04-09T13:39:06.000Z</time>
      </trkpt>
      <trkpt lat="48.73326" lon="1.79428">
        <ele>186.60000610352</ele>
        <time>2011-04-09T13:39:13.000Z</time>
      </trkpt>
      <trkpt lat="48.73315" lon="1.79433">
        <ele>185.60000610352</ele>
        <time>2011-04-09T13:39:19.000Z</time>
      </trkpt>
      <trkpt lat="48.73303" lon="1.79433">
        <ele>184.39999389648</ele>
        <time>2011-04-09T13:39:26.000Z</time>
      </trkpt>
      <trkpt lat="48.73299" lon="1.79433">
        <ele>184.19999694824</ele>
        <time>2011-04-09T13:39:28.000Z</time>
      </trkpt>
      <trkpt lat="48.73291" lon="1.79437">
        <ele>183.39999389648</ele>
        <time>2011-04-09T13:39:33.000Z</time>
      </trkpt>
      <trkpt lat="48.73279" lon="1.79441">
        <ele>182.39999389648</ele>
        <time>2011-04-09T13:39:40.000Z</time>
      </trkpt>
      <trkpt lat="48.73268" lon="1.79443">
        <ele>181.39999389648</ele>
        <time>2011-04-09T13:39:46.000Z</time>
      </trkpt>
      <trkpt lat="48.73261" lon="1.79445">
        <ele>180.60000610352</ele>
        <time>2011-04-09T13:39:51.000Z</time>
      </trkpt>
      <trkpt lat="48.73256" lon="1.79453">
        <ele>180.39999389648</ele>
        <time>2011-04-09T13:39:56.000Z</time>
      </trkpt>
      <trkpt lat="48.73256" lon="1.79458">
        <ele>180.39999389648</ele>
        <time>2011-04-09T13:39:59.000Z</time>
      </trkpt>
      <trkpt lat="48.73252" lon="1.79471">
        <ele>180.39999389648</ele>
        <time>2011-04-09T13:40:05.000Z</time>
      </trkpt>
      <trkpt lat="48.7325" lon="1.79479">
        <ele>180.39999389648</ele>
        <time>2011-04-09T13:40:09.000Z</time>
      </trkpt>
      <trkpt lat="48.73247" lon="1.79482">
        <ele>180.39999389648</ele>
        <time>2011-04-09T13:40:14.000Z</time>
      </trkpt>
      <trkpt lat="48.73122" lon="1.79843">
        <ele>179.39999389648</ele>
        <time>2011-04-09T14:06:51.000Z</time>
      </trkpt>
      <trkpt lat="48.73118" lon="1.79857">
        <ele>179.60000610352</ele>
        <time>2011-04-09T14:06:57.000Z</time>
      </trkpt>
      <trkpt lat="48.73112" lon="1.79873">
        <ele>179.80000305176</ele>
        <time>2011-04-09T14:07:05.000Z</time>
      </trkpt>
      <trkpt lat="48.73107" lon="1.79886">
        <ele>179.80000305176</ele>
        <time>2011-04-09T14:07:12.000Z</time>
      </trkpt>
      <trkpt lat="48.73101" lon="1.79899">
        <ele>179.80000305176</ele>
        <time>2011-04-09T14:07:19.000Z</time>
      </trkpt>
      <trkpt lat="48.73097" lon="1.79912">
        <ele>179.80000305176</ele>
        <time>2011-04-09T14:07:27.000Z</time>
      </trkpt>
      <trkpt lat="48.73092" lon="1.79927">
        <ele>179.80000305176</ele>
        <time>2011-04-09T14:07:35.000Z</time>
      </trkpt>
      <trkpt lat="48.73089" lon="1.79941">
        <ele>179.60000610352</ele>
        <time>2011-04-09T14:07:43.000Z</time>
      </trkpt>
      <trkpt lat="48.73083" lon="1.79951">
        <ele>179.39999389648</ele>
        <time>2011-04-09T14:07:49.000Z</time>
      </trkpt>
      <trkpt lat="48.73076" lon="1.79968">
        <ele>179.19999694824</ele>
        <time>2011-04-09T14:07:57.000Z</time>
      </trkpt>
      <trkpt lat="48.73071" lon="1.79979">
        <ele>179</ele>
        <time>2011-04-09T14:08:03.000Z</time>
      </trkpt>
      <trkpt lat="48.73065" lon="1.79995">
        <ele>178.60000610352</ele>
        <time>2011-04-09T14:08:10.000Z</time>
      </trkpt>
      <trkpt lat="48.73062" lon="1.80008">
        <ele>178.39999389648</ele>
        <time>2011-04-09T14:08:14.000Z</time>
      </trkpt>
      <trkpt lat="48.73052" lon="1.80041">
        <ele>178.19999694824</ele>
        <time>2011-04-09T14:08:22.000Z</time>
      </trkpt>
      <trkpt lat="48.73044" lon="1.80062">
        <ele>177.80000305176</ele>
        <time>2011-04-09T14:08:27.000Z</time>
      </trkpt>
      <trkpt lat="48.73034" lon="1.80091">
        <ele>177.60000610352</ele>
        <time>2011-04-09T14:08:33.000Z</time>
      </trkpt>
      <trkpt lat="48.73024" lon="1.80122">
        <ele>178</ele>
        <time>2011-04-09T14:08:39.000Z</time>
      </trkpt>
      <trkpt lat="48.73013" lon="1.80149">
        <ele>178.60000610352</ele>
        <time>2011-04-09T14:08:44.000Z</time>
      </trkpt>
      <trkpt lat="48.73004" lon="1.80175">
        <ele>179</ele>
        <time>2011-04-09T14:08:49.000Z</time>
      </trkpt>
      <trkpt lat="48.72999" lon="1.80191">
        <ele>178.60000610352</ele>
        <time>2011-04-09T14:08:52.000Z</time>
      </trkpt>
      <trkpt lat="48.72986" lon="1.80227">
        <ele>178</ele>
        <time>2011-04-09T14:08:59.000Z</time>
      </trkpt>
      <trkpt lat="48.72972" lon="1.80257">
        <ele>178</ele>
        <time>2011-04-09T14:09:06.000Z</time>
      </trkpt>
      <trkpt lat="48.72969" lon="1.80268">
        <ele>178</ele>
        <time>2011-04-09T14:09:10.000Z</time>
      </trkpt>
      <trkpt lat="48.72965" lon="1.80277">
        <ele>178</ele>
        <time>2011-04-09T14:09:15.000Z</time>
      </trkpt>
      <trkpt lat="48.72959" lon="1.80289">
        <ele>178</ele>
        <time>2011-04-09T14:09:21.000Z</time>
      </trkpt>
      <trkpt lat="48.72949" lon="1.80297">
        <ele>177.80000305176</ele>
        <time>2011-04-09T14:09:29.000Z</time>
      </trkpt>
      <trkpt lat="48.72938" lon="1.80292">
        <ele>177.60000610352</ele>
        <time>2011-04-09T14:09:36.000Z</time>
      </trkpt>
      <trkpt lat="48.72924" lon="1.80283">
        <ele>177.60000610352</ele>
        <time>2011-04-09T14:09:46.000Z</time>
      </trkpt>
      <trkpt lat="48.72912" lon="1.80275">
        <ele>177.60000610352</ele>
        <time>2011-04-09T14:09:54.000Z</time>
      </trkpt>
      <trkpt lat="48.72897" lon="1.80262">
        <ele>178.19999694824</ele>
        <time>2011-04-09T14:10:05.000Z</time>
      </trkpt>
      <trkpt lat="48.72897" lon="1.80262">
        <ele>178.19999694824</ele>
        <time>2011-04-09T14:10:07.000Z</time>
      </trkpt>
      <trkpt lat="48.72891" lon="1.80258">
        <ele>178.39999389648</ele>
        <time>2011-04-09T14:10:39.000Z</time>
      </trkpt>
      <trkpt lat="48.7288" lon="1.80252">
        <ele>178.80000305176</ele>
        <time>2011-04-09T14:10:45.000Z</time>
      </trkpt>
      <trkpt lat="48.72871" lon="1.80246">
        <ele>178.80000305176</ele>
        <time>2011-04-09T14:10:51.000Z</time>
      </trkpt>
      <trkpt lat="48.7287" lon="1.80245">
        <ele>178.80000305176</ele>
        <time>2011-04-09T14:10:52.000Z</time>
      </trkpt>
      <trkpt lat="48.72859" lon="1.80238">
        <ele>178.60000610352</ele>
        <time>2011-04-09T14:11:00.000Z</time>
      </trkpt>
      <trkpt lat="48.7285" lon="1.80229">
        <ele>178.39999389648</ele>
        <time>2011-04-09T14:11:07.000Z</time>
      </trkpt>
      <trkpt lat="48.72845" lon="1.80224">
        <ele>178.39999389648</ele>
        <time>2011-04-09T14:11:11.000Z</time>
      </trkpt>
      <trkpt lat="48.7284" lon="1.80221">
        <ele>178.39999389648</ele>
        <time>2011-04-09T14:11:18.000Z</time>
      </trkpt>
      <trkpt lat="48.72833" lon="1.80217">
        <ele>178.19999694824</ele>
        <time>2011-04-09T14:11:34.000Z</time>
      </trkpt>
      <trkpt lat="48.72829" lon="1.80214">
        <ele>178</ele>
        <time>2011-04-09T14:11:36.000Z</time>
      </trkpt>
      <trkpt lat="48.72818" lon="1.80211">
        <ele>177.60000610352</ele>
        <time>2011-04-09T14:11:44.000Z</time>
      </trkpt>
      <trkpt lat="48.72816" lon="1.80209">
        <ele>177.39999389648</ele>
        <time>2011-04-09T14:11:46.000Z</time>
      </trkpt>
      <trkpt lat="48.72815" lon="1.80208">
        <ele>177.39999389648</ele>
        <time>2011-04-09T14:11:49.000Z</time>
      </trkpt>
      <trkpt lat="48.72809" lon="1.80204">
        <ele>177</ele>
        <time>2011-04-09T14:12:00.000Z</time>
      </trkpt>
      <trkpt lat="48.72798" lon="1.80196">
        <ele>176.39999389648</ele>
        <time>2011-04-09T14:12:07.000Z</time>
      </trkpt>
      <trkpt lat="48.72786" lon="1.80189">
        <ele>175.60000610352</ele>
        <time>2011-04-09T14:12:15.000Z</time>
      </trkpt>
      <trkpt lat="48.72775" lon="1.8018">
        <ele>175</ele>
        <time>2011-04-09T14:12:21.000Z</time>
      </trkpt>
      <trkpt lat="48.72749" lon="1.80162">
        <ele>174</ele>
        <time>2011-04-09T14:12:28.000Z</time>
      </trkpt>
      <trkpt lat="48.72718" lon="1.8014">
        <ele>175.39999389648</ele>
        <time>2011-04-09T14:12:36.000Z</time>
      </trkpt>
      <trkpt lat="48.72714" lon="1.80137">
        <ele>175.60000610352</ele>
        <time>2011-04-09T14:12:37.000Z</time>
      </trkpt>
      <trkpt lat="48.72703" lon="1.80126">
        <ele>176.19999694824</ele>
        <time>2011-04-09T14:12:40.000Z</time>
      </trkpt>
      <trkpt lat="48.72687" lon="1.80113">
        <ele>177.19999694824</ele>
        <time>2011-04-09T14:12:44.000Z</time>
      </trkpt>
      <trkpt lat="48.7265" lon="1.80088">
        <ele>178.60000610352</ele>
        <time>2011-04-09T14:12:52.000Z</time>
      </trkpt>
      <trkpt lat="48.72639" lon="1.80079">
        <ele>178.80000305176</ele>
        <time>2011-04-09T14:12:54.000Z</time>
      </trkpt>
      <trkpt lat="48.72591" lon="1.80047">
        <ele>180.19999694824</ele>
        <time>2011-04-09T14:13:02.000Z</time>
      </trkpt>
      <trkpt lat="48.72573" lon="1.80038">
        <ele>180.60000610352</ele>
        <time>2011-04-09T14:13:05.000Z</time>
      </trkpt>
      <trkpt lat="48.72553" lon="1.80024">
        <ele>181.80000305176</ele>
        <time>2011-04-09T14:13:09.000Z</time>
      </trkpt>
      <trkpt lat="48.72534" lon="1.8001">
        <ele>182.80000305176</ele>
        <time>2011-04-09T14:13:14.000Z</time>
      </trkpt>
      <trkpt lat="48.72526" lon="1.80005">
        <ele>183.19999694824</ele>
        <time>2011-04-09T14:13:16.000Z</time>
      </trkpt>
      <trkpt lat="48.72512" lon="1.79996">
        <ele>184</ele>
        <time>2011-04-09T14:13:20.000Z</time>
      </trkpt>
      <trkpt lat="48.72495" lon="1.79985">
        <ele>184.39999389648</ele>
        <time>2011-04-09T14:13:26.000Z</time>
      </trkpt>
      <trkpt lat="48.72484" lon="1.79977">
        <ele>184.39999389648</ele>
        <time>2011-04-09T14:13:31.000Z</time>
      </trkpt>
      <trkpt lat="48.72475" lon="1.7997">
        <ele>184.39999389648</ele>
        <time>2011-04-09T14:13:36.000Z</time>
      </trkpt>
      <trkpt lat="48.72464" lon="1.79964">
        <ele>184.39999389648</ele>
        <time>2011-04-09T14:13:43.000Z</time>
      </trkpt>
      <trkpt lat="48.72457" lon="1.79955">
        <ele>184.60000610352</ele>
        <time>2011-04-09T14:13:48.000Z</time>
      </trkpt>
      <trkpt lat="48.72446" lon="1.79948">
        <ele>184.39999389648</ele>
        <time>2011-04-09T14:13:55.000Z</time>
      </trkpt>
      <trkpt lat="48.7244" lon="1.79944">
        <ele>184.39999389648</ele>
        <time>2011-04-09T14:13:59.000Z</time>
      </trkpt>
      <trkpt lat="48.72429" lon="1.79938">
        <ele>184.39999389648</ele>
        <time>2011-04-09T14:14:06.000Z</time>
      </trkpt>
      <trkpt lat="48.72419" lon="1.79931">
        <ele>184.19999694824</ele>
        <time>2011-04-09T14:14:12.000Z</time>
      </trkpt>
      <trkpt lat="48.72408" lon="1.79923">
        <ele>184.19999694824</ele>
        <time>2011-04-09T14:14:19.000Z</time>
      </trkpt>
      <trkpt lat="48.72396" lon="1.79916">
        <ele>184</ele>
        <time>2011-04-09T14:14:23.000Z</time>
      </trkpt>
      <trkpt lat="48.72374" lon="1.79899">
        <ele>183.60000610352</ele>
        <time>2011-04-09T14:14:28.000Z</time>
      </trkpt>
      <trkpt lat="48.72348" lon="1.79882">
        <ele>183.19999694824</ele>
        <time>2011-04-09T14:14:32.000Z</time>
      </trkpt>
      <trkpt lat="48.72306" lon="1.79851">
        <ele>183.39999389648</ele>
        <time>2011-04-09T14:14:38.000Z</time>
      </trkpt>
      <trkpt lat="48.72265" lon="1.79827">
        <ele>183.60000610352</ele>
        <time>2011-04-09T14:14:44.000Z</time>
      </trkpt>
      <trkpt lat="48.72224" lon="1.79798">
        <ele>183.19999694824</ele>
        <time>2011-04-09T14:14:51.000Z</time>
      </trkpt>
      <trkpt lat="48.72218" lon="1.79794">
        <ele>183.19999694824</ele>
        <time>2011-04-09T14:14:52.000Z</time>
      </trkpt>
      <trkpt lat="48.72207" lon="1.79786">
        <ele>182.80000305176</ele>
        <time>2011-04-09T14:14:54.000Z</time>
      </trkpt>
      <trkpt lat="48.72181" lon="1.79768">
        <ele>182.19999694824</ele>
        <time>2011-04-09T14:14:58.000Z</time>
      </trkpt>
      <trkpt lat="48.72155" lon="1.79749">
        <ele>181.60000610352</ele>
        <time>2011-04-09T14:15:03.000Z</time>
      </trkpt>
      <trkpt lat="48.72151" lon="1.79746">
        <ele>181.60000610352</ele>
        <time>2011-04-09T14:15:04.000Z</time>
      </trkpt>
      <trkpt lat="48.72127" lon="1.79728">
        <ele>181.80000305176</ele>
        <time>2011-04-09T14:15:09.000Z</time>
      </trkpt>
      <trkpt lat="48.72104" lon="1.79712">
        <ele>182.60000610352</ele>
        <time>2011-04-09T14:15:14.000Z</time>
      </trkpt>
      <trkpt lat="48.72087" lon="1.79696">
        <ele>183.80000305176</ele>
        <time>2011-04-09T14:15:18.000Z</time>
      </trkpt>
      <trkpt lat="48.7208" lon="1.7969">
        <ele>184.19999694824</ele>
        <time>2011-04-09T14:15:20.000Z</time>
      </trkpt>
      <trkpt lat="48.72053" lon="1.79671">
        <ele>184.19999694824</ele>
        <time>2011-04-09T14:15:26.000Z</time>
      </trkpt>
      <trkpt lat="48.72024" lon="1.79652">
        <ele>183.39999389648</ele>
        <time>2011-04-09T14:15:32.000Z</time>
      </trkpt>
      <trkpt lat="48.72002" lon="1.79636">
        <ele>182.80000305176</ele>
        <time>2011-04-09T14:15:38.000Z</time>
      </trkpt>
      <trkpt lat="48.71975" lon="1.79617">
        <ele>181.80000305176</ele>
        <time>2011-04-09T14:15:45.000Z</time>
      </trkpt>
      <trkpt lat="48.71971" lon="1.79614">
        <ele>181.60000610352</ele>
        <time>2011-04-09T14:15:46.000Z</time>
      </trkpt>
      <trkpt lat="48.71954" lon="1.79605">
        <ele>180.80000305176</ele>
        <time>2011-04-09T14:15:51.000Z</time>
      </trkpt>
      <trkpt lat="48.71948" lon="1.79599">
        <ele>180.60000610352</ele>
        <time>2011-04-09T14:15:53.000Z</time>
      </trkpt>
      <trkpt lat="48.71923" lon="1.79587">
        <ele>179.19999694824</ele>
        <time>2011-04-09T14:16:00.000Z</time>
      </trkpt>
      <trkpt lat="48.71898" lon="1.79569">
        <ele>178</ele>
        <time>2011-04-09T14:16:06.000Z</time>
      </trkpt>
      <trkpt lat="48.7189" lon="1.79564">
        <ele>177.60000610352</ele>
        <time>2011-04-09T14:16:08.000Z</time>
      </trkpt>
      <trkpt lat="48.71862" lon="1.79548">
        <ele>176</ele>
        <time>2011-04-09T14:16:14.000Z</time>
      </trkpt>
      <trkpt lat="48.71853" lon="1.79541">
        <ele>175.60000610352</ele>
        <time>2011-04-09T14:16:16.000Z</time>
      </trkpt>
      <trkpt lat="48.71844" lon="1.79534">
        <ele>175.19999694824</ele>
        <time>2011-04-09T14:16:18.000Z</time>
      </trkpt>
      <trkpt lat="48.71818" lon="1.79515">
        <ele>174.60000610352</ele>
        <time>2011-04-09T14:16:24.000Z</time>
      </trkpt>
      <trkpt lat="48.71808" lon="1.79509">
        <ele>174.60000610352</ele>
        <time>2011-04-09T14:16:26.000Z</time>
      </trkpt>
      <trkpt lat="48.71783" lon="1.7949">
        <ele>174.39999389648</ele>
        <time>2011-04-09T14:16:31.000Z</time>
      </trkpt>
      <trkpt lat="48.71749" lon="1.79466">
        <ele>174.60000610352</ele>
        <time>2011-04-09T14:16:36.000Z</time>
      </trkpt>
      <trkpt lat="48.71713" lon="1.79441">
        <ele>175.19999694824</ele>
        <time>2011-04-09T14:16:41.000Z</time>
      </trkpt>
      <trkpt lat="48.717" lon="1.79433">
        <ele>175.19999694824</ele>
        <time>2011-04-09T14:16:43.000Z</time>
      </trkpt>
      <trkpt lat="48.71655" lon="1.79403">
        <ele>175.39999389648</ele>
        <time>2011-04-09T14:16:49.000Z</time>
      </trkpt>
      <trkpt lat="48.71606" lon="1.7937">
        <ele>177.19999694824</ele>
        <time>2011-04-09T14:16:56.000Z</time>
      </trkpt>
      <trkpt lat="48.71557" lon="1.79336">
        <ele>179.19999694824</ele>
        <time>2011-04-09T14:17:03.000Z</time>
      </trkpt>
      <trkpt lat="48.71541" lon="1.79325">
        <ele>179.60000610352</ele>
        <time>2011-04-09T14:17:06.000Z</time>
      </trkpt>
      <trkpt lat="48.71529" lon="1.79304">
        <ele>180.60000610352</ele>
        <time>2011-04-09T14:17:10.000Z</time>
      </trkpt>
      <trkpt lat="48.71533" lon="1.79279">
        <ele>181.39999389648</ele>
        <time>2011-04-09T14:17:14.000Z</time>
      </trkpt>
      <trkpt lat="48.71548" lon="1.79233">
        <ele>181.80000305176</ele>
        <time>2011-04-09T14:17:22.000Z</time>
      </trkpt>
      <trkpt lat="48.71559" lon="1.79202">
        <ele>181.60000610352</ele>
        <time>2011-04-09T14:17:27.000Z</time>
      </trkpt>
      <trkpt lat="48.71575" lon="1.79148">
        <ele>181</ele>
        <time>2011-04-09T14:17:35.000Z</time>
      </trkpt>
      <trkpt lat="48.71582" lon="1.79125">
        <ele>180.39999389648</ele>
        <time>2011-04-09T14:17:38.000Z</time>
      </trkpt>
      <trkpt lat="48.7159" lon="1.79095">
        <ele>179.80000305176</ele>
        <time>2011-04-09T14:17:42.000Z</time>
      </trkpt>
      <trkpt lat="48.71601" lon="1.79058">
        <ele>179.60000610352</ele>
        <time>2011-04-09T14:17:47.000Z</time>
      </trkpt>
      <trkpt lat="48.71612" lon="1.79018">
        <ele>180</ele>
        <time>2011-04-09T14:17:53.000Z</time>
      </trkpt>
      <trkpt lat="48.71616" lon="1.79006">
        <ele>180</ele>
        <time>2011-04-09T14:17:55.000Z</time>
      </trkpt>
      <trkpt lat="48.71633" lon="1.78949">
        <ele>179.80000305176</ele>
        <time>2011-04-09T14:18:03.000Z</time>
      </trkpt>
      <trkpt lat="48.71641" lon="1.78922">
        <ele>179.60000610352</ele>
        <time>2011-04-09T14:18:07.000Z</time>
      </trkpt>
      <trkpt lat="48.71653" lon="1.78884">
        <ele>179.60000610352</ele>
        <time>2011-04-09T14:18:13.000Z</time>
      </trkpt>
      <trkpt lat="48.71661" lon="1.78858">
        <ele>179.80000305176</ele>
        <time>2011-04-09T14:18:17.000Z</time>
      </trkpt>
      <trkpt lat="48.71666" lon="1.78838">
        <ele>179.80000305176</ele>
        <time>2011-04-09T14:18:20.000Z</time>
      </trkpt>
      <trkpt lat="48.71673" lon="1.78812">
        <ele>180</ele>
        <time>2011-04-09T14:18:25.000Z</time>
      </trkpt>
      <trkpt lat="48.71679" lon="1.78797">
        <ele>180.19999694824</ele>
        <time>2011-04-09T14:18:30.000Z</time>
      </trkpt>
      <trkpt lat="48.71681" lon="1.78785">
        <ele>180.19999694824</ele>
        <time>2011-04-09T14:18:35.000Z</time>
      </trkpt>
      <trkpt lat="48.71685" lon="1.78772">
        <ele>180.39999389648</ele>
        <time>2011-04-09T14:18:41.000Z</time>
      </trkpt>
      <trkpt lat="48.71685" lon="1.78769">
        <ele>180.39999389648</ele>
        <time>2011-04-09T14:18:42.000Z</time>
      </trkpt>
      <trkpt lat="48.71689" lon="1.78756">
        <ele>180.60000610352</ele>
        <time>2011-04-09T14:18:47.000Z</time>
      </trkpt>
      <trkpt lat="48.71693" lon="1.78743">
        <ele>180.80000305176</ele>
        <time>2011-04-09T14:18:53.000Z</time>
      </trkpt>
      <trkpt lat="48.71698" lon="1.78733">
        <ele>181</ele>
        <time>2011-04-09T14:18:58.000Z</time>
      </trkpt>
      <trkpt lat="48.717" lon="1.78724">
        <ele>181.19999694824</ele>
        <time>2011-04-09T14:19:01.000Z</time>
      </trkpt>
      <trkpt lat="48.71702" lon="1.78716">
        <ele>181.19999694824</ele>
        <time>2011-04-09T14:19:04.000Z</time>
      </trkpt>
      <trkpt lat="48.71708" lon="1.787">
        <ele>181.60000610352</ele>
        <time>2011-04-09T14:19:11.000Z</time>
      </trkpt>
      <trkpt lat="48.71712" lon="1.78692">
        <ele>181.80000305176</ele>
        <time>2011-04-09T14:19:15.000Z</time>
      </trkpt>
      <trkpt lat="48.71718" lon="1.78674">
        <ele>182.19999694824</ele>
        <time>2011-04-09T14:19:22.000Z</time>
      </trkpt>
      <trkpt lat="48.71718" lon="1.78672">
        <ele>182.19999694824</ele>
        <time>2011-04-09T14:19:23.000Z</time>
      </trkpt>
      <trkpt lat="48.71724" lon="1.78657">
        <ele>182</ele>
        <time>2011-04-09T14:19:30.000Z</time>
      </trkpt>
      <trkpt lat="48.71725" lon="1.78652">
        <ele>181.80000305176</ele>
        <time>2011-04-09T14:19:32.000Z</time>
      </trkpt>
      <trkpt lat="48.71727" lon="1.78643">
        <ele>181.39999389648</ele>
        <time>2011-04-09T14:19:36.000Z</time>
      </trkpt>
      <trkpt lat="48.71729" lon="1.78636">
        <ele>181.19999694824</ele>
        <time>2011-04-09T14:19:39.000Z</time>
      </trkpt>
      <trkpt lat="48.71732" lon="1.78622">
        <ele>180.60000610352</ele>
        <time>2011-04-09T14:19:45.000Z</time>
      </trkpt>
      <trkpt lat="48.71734" lon="1.78618">
        <ele>180.39999389648</ele>
        <time>2011-04-09T14:19:47.000Z</time>
      </trkpt>
      <trkpt lat="48.71736" lon="1.78603">
        <ele>179.60000610352</ele>
        <time>2011-04-09T14:19:53.000Z</time>
      </trkpt>
      <trkpt lat="48.71735" lon="1.78584">
        <ele>179</ele>
        <time>2011-04-09T14:20:00.000Z</time>
      </trkpt>
      <trkpt lat="48.71734" lon="1.7857">
        <ele>179</ele>
        <time>2011-04-09T14:20:06.000Z</time>
      </trkpt>
      <trkpt lat="48.7173" lon="1.78558">
        <ele>179.19999694824</ele>
        <time>2011-04-09T14:20:12.000Z</time>
      </trkpt>
      <trkpt lat="48.71723" lon="1.78548">
        <ele>179.60000610352</ele>
        <time>2011-04-09T14:20:18.000Z</time>
      </trkpt>
      <trkpt lat="48.71718" lon="1.78541">
        <ele>180</ele>
        <time>2011-04-09T14:20:23.000Z</time>
      </trkpt>
      <trkpt lat="48.7171" lon="1.78532">
        <ele>180.60000610352</ele>
        <time>2011-04-09T14:20:28.000Z</time>
      </trkpt>
      <trkpt lat="48.7169" lon="1.78517">
        <ele>181.60000610352</ele>
        <time>2011-04-09T14:20:34.000Z</time>
      </trkpt>
      <trkpt lat="48.71672" lon="1.78502">
        <ele>182.60000610352</ele>
        <time>2011-04-09T14:20:39.000Z</time>
      </trkpt>
      <trkpt lat="48.71666" lon="1.78494">
        <ele>182.60000610352</ele>
        <time>2011-04-09T14:20:41.000Z</time>
      </trkpt>
      <trkpt lat="48.71655" lon="1.78465">
        <ele>181.19999694824</ele>
        <time>2011-04-09T14:20:46.000Z</time>
      </trkpt>
      <trkpt lat="48.71654" lon="1.78452">
        <ele>180.60000610352</ele>
        <time>2011-04-09T14:20:48.000Z</time>
      </trkpt>
      <trkpt lat="48.71651" lon="1.78438">
        <ele>180</ele>
        <time>2011-04-09T14:20:50.000Z</time>
      </trkpt>
      <trkpt lat="48.7165" lon="1.78423">
        <ele>179.19999694824</ele>
        <time>2011-04-09T14:20:52.000Z</time>
      </trkpt>
      <trkpt lat="48.71646" lon="1.78394">
        <ele>178.60000610352</ele>
        <time>2011-04-09T14:20:56.000Z</time>
      </trkpt>
      <trkpt lat="48.71634" lon="1.7836">
        <ele>178.39999389648</ele>
        <time>2011-04-09T14:21:01.000Z</time>
      </trkpt>
      <trkpt lat="48.71625" lon="1.78353">
        <ele>178.39999389648</ele>
        <time>2011-04-09T14:21:03.000Z</time>
      </trkpt>
      <trkpt lat="48.71592" lon="1.78341">
        <ele>179</ele>
        <time>2011-04-09T14:21:09.000Z</time>
      </trkpt>
      <trkpt lat="48.71567" lon="1.78325">
        <ele>178.80000305176</ele>
        <time>2011-04-09T14:21:13.000Z</time>
      </trkpt>
      <trkpt lat="48.71524" lon="1.78299">
        <ele>178.19999694824</ele>
        <time>2011-04-09T14:21:19.000Z</time>
      </trkpt>
      <trkpt lat="48.71517" lon="1.78296">
        <ele>178</ele>
        <time>2011-04-09T14:21:20.000Z</time>
      </trkpt>
      <trkpt lat="48.71484" lon="1.78289">
        <ele>177.80000305176</ele>
        <time>2011-04-09T14:21:25.000Z</time>
      </trkpt>
      <trkpt lat="48.71478" lon="1.78288">
        <ele>177.80000305176</ele>
        <time>2011-04-09T14:21:26.000Z</time>
      </trkpt>
      <trkpt lat="48.71441" lon="1.78272">
        <ele>177.39999389648</ele>
        <time>2011-04-09T14:21:34.000Z</time>
      </trkpt>
      <trkpt lat="48.71437" lon="1.7827">
        <ele>177.39999389648</ele>
        <time>2011-04-09T14:21:35.000Z</time>
      </trkpt>
      <trkpt lat="48.71432" lon="1.78267">
        <ele>177.39999389648</ele>
        <time>2011-04-09T14:21:37.000Z</time>
      </trkpt>
      <trkpt lat="48.71427" lon="1.78263">
        <ele>177.19999694824</ele>
        <time>2011-04-09T14:21:42.000Z</time>
      </trkpt>
      <trkpt lat="48.71426" lon="1.78266">
        <ele>177.39999389648</ele>
        <time>2011-04-09T14:21:48.000Z</time>
      </trkpt>
      <trkpt lat="48.71421" lon="1.78268">
        <ele>177.60000610352</ele>
        <time>2011-04-09T14:21:55.000Z</time>
      </trkpt>
      <trkpt lat="48.71412" lon="1.78264">
        <ele>177.60000610352</ele>
        <time>2011-04-09T14:21:59.000Z</time>
      </trkpt>
      <trkpt lat="48.71403" lon="1.78262">
        <ele>177.80000305176</ele>
        <time>2011-04-09T14:22:05.000Z</time>
      </trkpt>
      <trkpt lat="48.71401" lon="1.78261">
        <ele>177.80000305176</ele>
        <time>2011-04-09T14:22:06.000Z</time>
      </trkpt>
      <trkpt lat="48.7139" lon="1.78255">
        <ele>178</ele>
        <time>2011-04-09T14:22:12.000Z</time>
      </trkpt>
      <trkpt lat="48.71375" lon="1.78248">
        <ele>178.39999389648</ele>
        <time>2011-04-09T14:22:17.000Z</time>
      </trkpt>
      <trkpt lat="48.71352" lon="1.78237">
        <ele>179</ele>
        <time>2011-04-09T14:22:23.000Z</time>
      </trkpt>
      <trkpt lat="48.71336" lon="1.7823">
        <ele>179.39999389648</ele>
        <time>2011-04-09T14:22:27.000Z</time>
      </trkpt>
      <trkpt lat="48.71307" lon="1.78221">
        <ele>178.19999694824</ele>
        <time>2011-04-09T14:22:33.000Z</time>
      </trkpt>
      <trkpt lat="48.71299" lon="1.78219">
        <ele>178</ele>
        <time>2011-04-09T14:22:35.000Z</time>
      </trkpt>
      <trkpt lat="48.71282" lon="1.78212">
        <ele>177.19999694824</ele>
        <time>2011-04-09T14:22:39.000Z</time>
      </trkpt>
      <trkpt lat="48.71267" lon="1.78203">
        <ele>176.39999389648</ele>
        <time>2011-04-09T14:22:42.000Z</time>
      </trkpt>
      <trkpt lat="48.71251" lon="1.78185">
        <ele>175.39999389648</ele>
        <time>2011-04-09T14:22:46.000Z</time>
      </trkpt>
      <trkpt lat="48.71238" lon="1.78168">
        <ele>175</ele>
        <time>2011-04-09T14:22:50.000Z</time>
      </trkpt>
      <trkpt lat="48.71225" lon="1.78153">
        <ele>174.80000305176</ele>
        <time>2011-04-09T14:22:54.000Z</time>
      </trkpt>
      <trkpt lat="48.71203" lon="1.78123">
        <ele>174.39999389648</ele>
        <time>2011-04-09T14:23:00.000Z</time>
      </trkpt>
      <trkpt lat="48.71192" lon="1.78107">
        <ele>174.19999694824</ele>
        <time>2011-04-09T14:23:03.000Z</time>
      </trkpt>
      <trkpt lat="48.71175" lon="1.78084">
        <ele>173.80000305176</ele>
        <time>2011-04-09T14:23:08.000Z</time>
      </trkpt>
      <trkpt lat="48.71154" lon="1.78059">
        <ele>173</ele>
        <time>2011-04-09T14:23:13.000Z</time>
      </trkpt>
      <trkpt lat="48.71141" lon="1.78031">
        <ele>172</ele>
        <time>2011-04-09T14:23:18.000Z</time>
      </trkpt>
      <trkpt lat="48.71135" lon="1.78013">
        <ele>171.39999389648</ele>
        <time>2011-04-09T14:23:21.000Z</time>
      </trkpt>
      <trkpt lat="48.71134" lon="1.77987">
        <ele>170.80000305176</ele>
        <time>2011-04-09T14:23:25.000Z</time>
      </trkpt>
      <trkpt lat="48.71138" lon="1.77974">
        <ele>170.80000305176</ele>
        <time>2011-04-09T14:23:27.000Z</time>
      </trkpt>
      <trkpt lat="48.71137" lon="1.77949">
        <ele>170.80000305176</ele>
        <time>2011-04-09T14:23:32.000Z</time>
      </trkpt>
      <trkpt lat="48.71133" lon="1.7794">
        <ele>170.80000305176</ele>
        <time>2011-04-09T14:23:35.000Z</time>
      </trkpt>
      <trkpt lat="48.71126" lon="1.7792">
        <ele>170.39999389648</ele>
        <time>2011-04-09T14:23:43.000Z</time>
      </trkpt>
      <trkpt lat="48.71121" lon="1.77899">
        <ele>170.19999694824</ele>
        <time>2011-04-09T14:23:51.000Z</time>
      </trkpt>
      <trkpt lat="48.71115" lon="1.77883">
        <ele>170</ele>
        <time>2011-04-09T14:23:57.000Z</time>
      </trkpt>
      <trkpt lat="48.71112" lon="1.77869">
        <ele>170</ele>
        <time>2011-04-09T14:24:02.000Z</time>
      </trkpt>
      <trkpt lat="48.71111" lon="1.77864">
        <ele>169.80000305176</ele>
        <time>2011-04-09T14:24:04.000Z</time>
      </trkpt>
      <trkpt lat="48.71111" lon="1.77851">
        <ele>169.80000305176</ele>
        <time>2011-04-09T14:24:10.000Z</time>
      </trkpt>
      <trkpt lat="48.7111" lon="1.77849">
        <ele>169.80000305176</ele>
        <time>2011-04-09T14:24:11.000Z</time>
      </trkpt>
      <trkpt lat="48.71105" lon="1.7783">
        <ele>169.80000305176</ele>
        <time>2011-04-09T14:24:17.000Z</time>
      </trkpt>
      <trkpt lat="48.71104" lon="1.77815">
        <ele>169.80000305176</ele>
        <time>2011-04-09T14:24:21.000Z</time>
      </trkpt>
      <trkpt lat="48.711" lon="1.77796">
        <ele>169.60000610352</ele>
        <time>2011-04-09T14:24:25.000Z</time>
      </trkpt>
      <trkpt lat="48.71096" lon="1.77776">
        <ele>169.39999389648</ele>
        <time>2011-04-09T14:24:30.000Z</time>
      </trkpt>
      <trkpt lat="48.71083" lon="1.77749">
        <ele>169</ele>
        <time>2011-04-09T14:24:36.000Z</time>
      </trkpt>
      <trkpt lat="48.71075" lon="1.77731">
        <ele>169.39999389648</ele>
        <time>2011-04-09T14:24:40.000Z</time>
      </trkpt>
      <trkpt lat="48.71064" lon="1.77704">
        <ele>170</ele>
        <time>2011-04-09T14:24:45.000Z</time>
      </trkpt>
      <trkpt lat="48.71054" lon="1.77677">
        <ele>170.39999389648</ele>
        <time>2011-04-09T14:24:49.000Z</time>
      </trkpt>
      <trkpt lat="48.71039" lon="1.77639">
        <ele>171.19999694824</ele>
        <time>2011-04-09T14:24:55.000Z</time>
      </trkpt>
      <trkpt lat="48.71021" lon="1.77584">
        <ele>171.80000305176</ele>
        <time>2011-04-09T14:25:01.000Z</time>
      </trkpt>
      <trkpt lat="48.71" lon="1.77533">
        <ele>173.19999694824</ele>
        <time>2011-04-09T14:25:06.000Z</time>
      </trkpt>
      <trkpt lat="48.70974" lon="1.77476">
        <ele>174.60000610352</ele>
        <time>2011-04-09T14:25:12.000Z</time>
      </trkpt>
      <trkpt lat="48.70949" lon="1.77421">
        <ele>175.60000610352</ele>
        <time>2011-04-09T14:25:18.000Z</time>
      </trkpt>
      <trkpt lat="48.70921" lon="1.7737">
        <ele>176.60000610352</ele>
        <time>2011-04-09T14:25:24.000Z</time>
      </trkpt>
      <trkpt lat="48.70905" lon="1.77341">
        <ele>177.39999389648</ele>
        <time>2011-04-09T14:25:28.000Z</time>
      </trkpt>
      <trkpt lat="48.70887" lon="1.77294">
        <ele>176.39999389648</ele>
        <time>2011-04-09T14:25:35.000Z</time>
      </trkpt>
      <trkpt lat="48.70879" lon="1.77271">
        <ele>175.80000305176</ele>
        <time>2011-04-09T14:25:40.000Z</time>
      </trkpt>
      <trkpt lat="48.70875" lon="1.77256">
        <ele>175.60000610352</ele>
        <time>2011-04-09T14:25:44.000Z</time>
      </trkpt>
      <trkpt lat="48.70865" lon="1.77251">
        <ele>175.19999694824</ele>
        <time>2011-04-09T14:25:48.000Z</time>
      </trkpt>
      <trkpt lat="48.70845" lon="1.77251">
        <ele>175</ele>
        <time>2011-04-09T14:25:54.000Z</time>
      </trkpt>
      <trkpt lat="48.70826" lon="1.77249">
        <ele>175</ele>
        <time>2011-04-09T14:25:59.000Z</time>
      </trkpt>
      <trkpt lat="48.70812" lon="1.77249">
        <ele>175.19999694824</ele>
        <time>2011-04-09T14:26:03.000Z</time>
      </trkpt>
      <trkpt lat="48.70786" lon="1.77251">
        <ele>175.39999389648</ele>
        <time>2011-04-09T14:26:09.000Z</time>
      </trkpt>
      <trkpt lat="48.70751" lon="1.77257">
        <ele>175.80000305176</ele>
        <time>2011-04-09T14:26:17.000Z</time>
      </trkpt>
      <trkpt lat="48.70747" lon="1.77258">
        <ele>176</ele>
        <time>2011-04-09T14:26:18.000Z</time>
      </trkpt>
      <trkpt lat="48.70739" lon="1.77258">
        <ele>176</ele>
        <time>2011-04-09T14:26:20.000Z</time>
      </trkpt>
      <trkpt lat="48.70724" lon="1.7726">
        <ele>176.19999694824</ele>
        <time>2011-04-09T14:26:24.000Z</time>
      </trkpt>
      <trkpt lat="48.70711" lon="1.7726">
        <ele>176.39999389648</ele>
        <time>2011-04-09T14:26:29.000Z</time>
      </trkpt>
      <trkpt lat="48.70708" lon="1.77259">
        <ele>176.60000610352</ele>
        <time>2011-04-09T14:26:35.000Z</time>
      </trkpt>
      <trkpt lat="48.70707" lon="1.77259">
        <ele>176.60000610352</ele>
        <time>2011-04-09T14:26:37.000Z</time>
      </trkpt>
      <trkpt lat="48.707" lon="1.77258">
        <ele>176.60000610352</ele>
        <time>2011-04-09T14:26:47.000Z</time>
      </trkpt>
      <trkpt lat="48.70697" lon="1.77258">
        <ele>176.60000610352</ele>
        <time>2011-04-09T14:26:49.000Z</time>
      </trkpt>
      <trkpt lat="48.70697" lon="1.77258">
        <ele>176.60000610352</ele>
        <time>2011-04-09T14:26:50.000Z</time>
      </trkpt>
      <trkpt lat="48.70693" lon="1.77258">
        <ele>176.80000305176</ele>
        <time>2011-04-09T14:27:09.000Z</time>
      </trkpt>
      <trkpt lat="48.7068" lon="1.77255">
        <ele>176.80000305176</ele>
        <time>2011-04-09T14:27:15.000Z</time>
      </trkpt>
      <trkpt lat="48.70668" lon="1.77253">
        <ele>177</ele>
        <time>2011-04-09T14:27:23.000Z</time>
      </trkpt>
      <trkpt lat="48.70662" lon="1.77253">
        <ele>177.19999694824</ele>
        <time>2011-04-09T14:27:27.000Z</time>
      </trkpt>
      <trkpt lat="48.70655" lon="1.77253">
        <ele>177.60000610352</ele>
        <time>2011-04-09T14:27:32.000Z</time>
      </trkpt>
      <trkpt lat="48.70651" lon="1.77252">
        <ele>177.60000610352</ele>
        <time>2011-04-09T14:27:35.000Z</time>
      </trkpt>
      <trkpt lat="48.70638" lon="1.7725">
        <ele>178.19999694824</ele>
        <time>2011-04-09T14:27:43.000Z</time>
      </trkpt>
      <trkpt lat="48.70633" lon="1.77249">
        <ele>178.39999389648</ele>
        <time>2011-04-09T14:27:47.000Z</time>
      </trkpt>
      <trkpt lat="48.7062" lon="1.77247">
        <ele>179</ele>
        <time>2011-04-09T14:27:56.000Z</time>
      </trkpt>
      <trkpt lat="48.70615" lon="1.77247">
        <ele>179.19999694824</ele>
        <time>2011-04-09T14:27:59.000Z</time>
      </trkpt>
      <trkpt lat="48.70608" lon="1.77245">
        <ele>179.39999389648</ele>
        <time>2011-04-09T14:28:04.000Z</time>
      </trkpt>
      <trkpt lat="48.70604" lon="1.77244">
        <ele>179.60000610352</ele>
        <time>2011-04-09T14:28:07.000Z</time>
      </trkpt>
      <trkpt lat="48.70594" lon="1.77241">
        <ele>179.80000305176</ele>
        <time>2011-04-09T14:28:13.000Z</time>
      </trkpt>
      <trkpt lat="48.70588" lon="1.7724">
        <ele>180</ele>
        <time>2011-04-09T14:28:16.000Z</time>
      </trkpt>
      <trkpt lat="48.70578" lon="1.7724">
        <ele>180.39999389648</ele>
        <time>2011-04-09T14:28:22.000Z</time>
      </trkpt>
      <trkpt lat="48.70571" lon="1.7724">
        <ele>180.39999389648</ele>
        <time>2011-04-09T14:28:26.000Z</time>
      </trkpt>
      <trkpt lat="48.70558" lon="1.7724">
        <ele>180.80000305176</ele>
        <time>2011-04-09T14:28:33.000Z</time>
      </trkpt>
      <trkpt lat="48.70556" lon="1.77239">
        <ele>180.80000305176</ele>
        <time>2011-04-09T14:28:34.000Z</time>
      </trkpt>
      <trkpt lat="48.70543" lon="1.77239">
        <ele>181</ele>
        <time>2011-04-09T14:28:42.000Z</time>
      </trkpt>
      <trkpt lat="48.70532" lon="1.77238">
        <ele>181.19999694824</ele>
        <time>2011-04-09T14:28:49.000Z</time>
      </trkpt>
      <trkpt lat="48.70523" lon="1.77239">
        <ele>181.39999389648</ele>
        <time>2011-04-09T14:28:55.000Z</time>
      </trkpt>
      <trkpt lat="48.70512" lon="1.77238">
        <ele>181.60000610352</ele>
        <time>2011-04-09T14:29:02.000Z</time>
      </trkpt>
      <trkpt lat="48.70502" lon="1.77236">
        <ele>181.80000305176</ele>
        <time>2011-04-09T14:29:09.000Z</time>
      </trkpt>
      <trkpt lat="48.70493" lon="1.77236">
        <ele>181.60000610352</ele>
        <time>2011-04-09T14:29:15.000Z</time>
      </trkpt>
      <trkpt lat="48.70482" lon="1.77235">
        <ele>181.39999389648</ele>
        <time>2011-04-09T14:29:22.000Z</time>
      </trkpt>
      <trkpt lat="48.70475" lon="1.77235">
        <ele>181.19999694824</ele>
        <time>2011-04-09T14:29:26.000Z</time>
      </trkpt>
      <trkpt lat="48.70471" lon="1.77233">
        <ele>181.19999694824</ele>
        <time>2011-04-09T14:29:30.000Z</time>
      </trkpt>
      <trkpt lat="48.70462" lon="1.77234">
        <ele>181</ele>
        <time>2011-04-09T14:29:35.000Z</time>
      </trkpt>
      <trkpt lat="48.70452" lon="1.77238">
        <ele>181.19999694824</ele>
        <time>2011-04-09T14:29:41.000Z</time>
      </trkpt>
      <trkpt lat="48.7044" lon="1.77243">
        <ele>181.19999694824</ele>
        <time>2011-04-09T14:29:48.000Z</time>
      </trkpt>
      <trkpt lat="48.70424" lon="1.77251">
        <ele>181</ele>
        <time>2011-04-09T14:29:58.000Z</time>
      </trkpt>
      <trkpt lat="48.7041" lon="1.77261">
        <ele>181</ele>
        <time>2011-04-09T14:30:07.000Z</time>
      </trkpt>
      <trkpt lat="48.70399" lon="1.7727">
        <ele>181.19999694824</ele>
        <time>2011-04-09T14:30:15.000Z</time>
      </trkpt>
      <trkpt lat="48.70389" lon="1.77277">
        <ele>181.19999694824</ele>
        <time>2011-04-09T14:30:22.000Z</time>
      </trkpt>
      <trkpt lat="48.70388" lon="1.77278">
        <ele>181.19999694824</ele>
        <time>2011-04-09T14:30:23.000Z</time>
      </trkpt>
      <trkpt lat="48.70378" lon="1.77286">
        <ele>181</ele>
        <time>2011-04-09T14:30:31.000Z</time>
      </trkpt>
      <trkpt lat="48.70371" lon="1.77279">
        <ele>180.80000305176</ele>
        <time>2011-04-09T14:30:37.000Z</time>
      </trkpt>
      <trkpt lat="48.70368" lon="1.77264">
        <ele>180.60000610352</ele>
        <time>2011-04-09T14:30:43.000Z</time>
      </trkpt>
      <trkpt lat="48.70365" lon="1.77242">
        <ele>180.39999389648</ele>
        <time>2011-04-09T14:30:53.000Z</time>
      </trkpt>
      <trkpt lat="48.70363" lon="1.77234">
        <ele>180.39999389648</ele>
        <time>2011-04-09T14:30:57.000Z</time>
      </trkpt>
      <trkpt lat="48.70361" lon="1.77219">
        <ele>180.39999389648</ele>
        <time>2011-04-09T14:31:03.000Z</time>
      </trkpt>
      <trkpt lat="48.70357" lon="1.77202">
        <ele>180.60000610352</ele>
        <time>2011-04-09T14:31:10.000Z</time>
      </trkpt>
      <trkpt lat="48.70355" lon="1.77187">
        <ele>180.80000305176</ele>
        <time>2011-04-09T14:31:16.000Z</time>
      </trkpt>
      <trkpt lat="48.70353" lon="1.77173">
        <ele>181</ele>
        <time>2011-04-09T14:31:22.000Z</time>
      </trkpt>
      <trkpt lat="48.70352" lon="1.7716">
        <ele>181.19999694824</ele>
        <time>2011-04-09T14:31:28.000Z</time>
      </trkpt>
      <trkpt lat="48.70352" lon="1.77154">
        <ele>181.19999694824</ele>
        <time>2011-04-09T14:31:32.000Z</time>
      </trkpt>
      <trkpt lat="48.7035" lon="1.77139">
        <ele>181.19999694824</ele>
        <time>2011-04-09T14:31:38.000Z</time>
      </trkpt>
      <trkpt lat="48.70348" lon="1.77124">
        <ele>181.19999694824</ele>
        <time>2011-04-09T14:31:44.000Z</time>
      </trkpt>
      <trkpt lat="48.70348" lon="1.77105">
        <ele>181.19999694824</ele>
        <time>2011-04-09T14:31:51.000Z</time>
      </trkpt>
      <trkpt lat="48.70345" lon="1.77085">
        <ele>181.39999389648</ele>
        <time>2011-04-09T14:31:59.000Z</time>
      </trkpt>
      <trkpt lat="48.70346" lon="1.77071">
        <ele>181.19999694824</ele>
        <time>2011-04-09T14:32:05.000Z</time>
      </trkpt>
      <trkpt lat="48.70344" lon="1.77057">
        <ele>181.39999389648</ele>
        <time>2011-04-09T14:32:10.000Z</time>
      </trkpt>
      <trkpt lat="48.70342" lon="1.77045">
        <ele>181.60000610352</ele>
        <time>2011-04-09T14:32:15.000Z</time>
      </trkpt>
      <trkpt lat="48.7034" lon="1.77032">
        <ele>181.60000610352</ele>
        <time>2011-04-09T14:32:21.000Z</time>
      </trkpt>
      <trkpt lat="48.7034" lon="1.77018">
        <ele>181.60000610352</ele>
        <time>2011-04-09T14:32:28.000Z</time>
      </trkpt>
      <trkpt lat="48.70335" lon="1.77003">
        <ele>181.80000305176</ele>
        <time>2011-04-09T14:32:33.000Z</time>
      </trkpt>
      <trkpt lat="48.70334" lon="1.76981">
        <ele>181.39999389648</ele>
        <time>2011-04-09T14:32:41.000Z</time>
      </trkpt>
      <trkpt lat="48.70334" lon="1.76971">
        <ele>181.19999694824</ele>
        <time>2011-04-09T14:32:47.000Z</time>
      </trkpt>
      <trkpt lat="48.70333" lon="1.76968">
        <ele>181.19999694824</ele>
        <time>2011-04-09T14:32:53.000Z</time>
      </trkpt>
      <trkpt lat="48.70333" lon="1.76953">
        <ele>180.80000305176</ele>
        <time>2011-04-09T14:33:14.000Z</time>
      </trkpt>
      <trkpt lat="48.70331" lon="1.76936">
        <ele>180.39999389648</ele>
        <time>2011-04-09T14:33:20.000Z</time>
      </trkpt>
      <trkpt lat="48.7033" lon="1.76914">
        <ele>179.80000305176</ele>
        <time>2011-04-09T14:33:29.000Z</time>
      </trkpt>
      <trkpt lat="48.7033" lon="1.76898">
        <ele>179.80000305176</ele>
        <time>2011-04-09T14:33:36.000Z</time>
      </trkpt>
      <trkpt lat="48.7033" lon="1.76878">
        <ele>179.39999389648</ele>
        <time>2011-04-09T14:33:45.000Z</time>
      </trkpt>
      <trkpt lat="48.70329" lon="1.76849">
        <ele>179.19999694824</ele>
        <time>2011-04-09T14:33:57.000Z</time>
      </trkpt>
      <trkpt lat="48.70328" lon="1.76827">
        <ele>178.80000305176</ele>
        <time>2011-04-09T14:34:06.000Z</time>
      </trkpt>
      <trkpt lat="48.70328" lon="1.7681">
        <ele>178.60000610352</ele>
        <time>2011-04-09T14:34:13.000Z</time>
      </trkpt>
      <trkpt lat="48.70326" lon="1.76787">
        <ele>178.39999389648</ele>
        <time>2011-04-09T14:34:22.000Z</time>
      </trkpt>
      <trkpt lat="48.70325" lon="1.76772">
        <ele>178.39999389648</ele>
        <time>2011-04-09T14:34:28.000Z</time>
      </trkpt>
      <trkpt lat="48.70326" lon="1.76758">
        <ele>178.19999694824</ele>
        <time>2011-04-09T14:34:34.000Z</time>
      </trkpt>
      <trkpt lat="48.70325" lon="1.76744">
        <ele>178.19999694824</ele>
        <time>2011-04-09T14:34:40.000Z</time>
      </trkpt>
      <trkpt lat="48.70324" lon="1.76729">
        <ele>178.19999694824</ele>
        <time>2011-04-09T14:34:46.000Z</time>
      </trkpt>
      <trkpt lat="48.70324" lon="1.7671">
        <ele>178.19999694824</ele>
        <time>2011-04-09T14:34:54.000Z</time>
      </trkpt>
      <trkpt lat="48.70322" lon="1.76695">
        <ele>178.19999694824</ele>
        <time>2011-04-09T14:35:01.000Z</time>
      </trkpt>
      <trkpt lat="48.70321" lon="1.76677">
        <ele>178.19999694824</ele>
        <time>2011-04-09T14:35:07.000Z</time>
      </trkpt>
      <trkpt lat="48.7032" lon="1.76663">
        <ele>178.19999694824</ele>
        <time>2011-04-09T14:35:13.000Z</time>
      </trkpt>
      <trkpt lat="48.7032" lon="1.76658">
        <ele>178.39999389648</ele>
        <time>2011-04-09T14:35:15.000Z</time>
      </trkpt>
      <trkpt lat="48.70327" lon="1.76644">
        <ele>178.19999694824</ele>
        <time>2011-04-09T14:35:23.000Z</time>
      </trkpt>
      <trkpt lat="48.7033" lon="1.76641">
        <ele>178.19999694824</ele>
        <time>2011-04-09T14:35:25.000Z</time>
      </trkpt>
      <trkpt lat="48.70336" lon="1.76635">
        <ele>178.39999389648</ele>
        <time>2011-04-09T14:35:31.000Z</time>
      </trkpt>
      <trkpt lat="48.70343" lon="1.76624">
        <ele>178.60000610352</ele>
        <time>2011-04-09T14:35:37.000Z</time>
      </trkpt>
      <trkpt lat="48.70353" lon="1.76614">
        <ele>179</ele>
        <time>2011-04-09T14:35:44.000Z</time>
      </trkpt>
      <trkpt lat="48.70363" lon="1.7661">
        <ele>179.19999694824</ele>
        <time>2011-04-09T14:35:52.000Z</time>
      </trkpt>
      <trkpt lat="48.70368" lon="1.76606">
        <ele>179.39999389648</ele>
        <time>2011-04-09T14:35:55.000Z</time>
      </trkpt>
      <trkpt lat="48.70377" lon="1.76601">
        <ele>179.80000305176</ele>
        <time>2011-04-09T14:36:01.000Z</time>
      </trkpt>
      <trkpt lat="48.7038" lon="1.76599">
        <ele>179.80000305176</ele>
        <time>2011-04-09T14:36:03.000Z</time>
      </trkpt>
      <trkpt lat="48.70389" lon="1.76594">
        <ele>180.19999694824</ele>
        <time>2011-04-09T14:36:09.000Z</time>
      </trkpt>
      <trkpt lat="48.704" lon="1.7659">
        <ele>180.39999389648</ele>
        <time>2011-04-09T14:36:16.000Z</time>
      </trkpt>
      <trkpt lat="48.70408" lon="1.76586">
        <ele>180.60000610352</ele>
        <time>2011-04-09T14:36:21.000Z</time>
      </trkpt>
      <trkpt lat="48.70418" lon="1.76581">
        <ele>180.80000305176</ele>
        <time>2011-04-09T14:36:27.000Z</time>
      </trkpt>
      <trkpt lat="48.70421" lon="1.76578">
        <ele>180.60000610352</ele>
        <time>2011-04-09T14:36:30.000Z</time>
      </trkpt>
      <trkpt lat="48.7043" lon="1.76571">
        <ele>180.19999694824</ele>
        <time>2011-04-09T14:36:37.000Z</time>
      </trkpt>
      <trkpt lat="48.70433" lon="1.76563">
        <ele>180</ele>
        <time>2011-04-09T14:36:41.000Z</time>
      </trkpt>
      <trkpt lat="48.70437" lon="1.76551">
        <ele>179.80000305176</ele>
        <time>2011-04-09T14:36:47.000Z</time>
      </trkpt>
      <trkpt lat="48.70441" lon="1.76539">
        <ele>179.60000610352</ele>
        <time>2011-04-09T14:36:53.000Z</time>
      </trkpt>
      <trkpt lat="48.70442" lon="1.76532">
        <ele>179.60000610352</ele>
        <time>2011-04-09T14:36:56.000Z</time>
      </trkpt>
      <trkpt lat="48.70446" lon="1.76516">
        <ele>179.19999694824</ele>
        <time>2011-04-09T14:37:04.000Z</time>
      </trkpt>
      <trkpt lat="48.70447" lon="1.76512">
        <ele>179.19999694824</ele>
        <time>2011-04-09T14:37:06.000Z</time>
      </trkpt>
      <trkpt lat="48.70449" lon="1.76495">
        <ele>178.80000305176</ele>
        <time>2011-04-09T14:37:12.000Z</time>
      </trkpt>
      <trkpt lat="48.7045" lon="1.76488">
        <ele>178.60000610352</ele>
        <time>2011-04-09T14:37:15.000Z</time>
      </trkpt>
      <trkpt lat="48.70451" lon="1.76482">
        <ele>178.39999389648</ele>
        <time>2011-04-09T14:37:18.000Z</time>
      </trkpt>
      <trkpt lat="48.70452" lon="1.76466">
        <ele>178</ele>
        <time>2011-04-09T14:37:23.000Z</time>
      </trkpt>
      <trkpt lat="48.70453" lon="1.76455">
        <ele>177.60000610352</ele>
        <time>2011-04-09T14:37:27.000Z</time>
      </trkpt>
      <trkpt lat="48.70454" lon="1.76444">
        <ele>177.19999694824</ele>
        <time>2011-04-09T14:37:31.000Z</time>
      </trkpt>
      <trkpt lat="48.70456" lon="1.76426">
        <ele>176.80000305176</ele>
        <time>2011-04-09T14:37:38.000Z</time>
      </trkpt>
      <trkpt lat="48.70456" lon="1.76412">
        <ele>176.19999694824</ele>
        <time>2011-04-09T14:37:44.000Z</time>
      </trkpt>
      <trkpt lat="48.70456" lon="1.7641">
        <ele>176.19999694824</ele>
        <time>2011-04-09T14:37:45.000Z</time>
      </trkpt>
      <trkpt lat="48.70455" lon="1.76407">
        <ele>176</ele>
        <time>2011-04-09T14:37:47.000Z</time>
      </trkpt>
      <trkpt lat="48.70453" lon="1.76397">
        <ele>175.60000610352</ele>
        <time>2011-04-09T14:37:52.000Z</time>
      </trkpt>
      <trkpt lat="48.70454" lon="1.76385">
        <ele>175</ele>
        <time>2011-04-09T14:37:58.000Z</time>
      </trkpt>
      <trkpt lat="48.70455" lon="1.76383">
        <ele>175</ele>
        <time>2011-04-09T14:38:01.000Z</time>
      </trkpt>
      <trkpt lat="48.70471" lon="1.76378">
        <ele>174</ele>
        <time>2011-04-09T14:38:51.000Z</time>
      </trkpt>
      <trkpt lat="48.70475" lon="1.76378">
        <ele>174</ele>
        <time>2011-04-09T14:38:53.000Z</time>
      </trkpt>
      <trkpt lat="48.70481" lon="1.76378">
        <ele>173.60000610352</ele>
        <time>2011-04-09T14:38:59.000Z</time>
      </trkpt>
      <trkpt lat="48.70487" lon="1.7638">
        <ele>173.60000610352</ele>
        <time>2011-04-09T14:39:05.000Z</time>
      </trkpt>
      <trkpt lat="48.70495" lon="1.76381">
        <ele>173.39999389648</ele>
        <time>2011-04-09T14:39:11.000Z</time>
      </trkpt>
      <trkpt lat="48.70505" lon="1.76387">
        <ele>173.39999389648</ele>
        <time>2011-04-09T14:39:19.000Z</time>
      </trkpt>
      <trkpt lat="48.70513" lon="1.7639">
        <ele>173.39999389648</ele>
        <time>2011-04-09T14:39:25.000Z</time>
      </trkpt>
      <trkpt lat="48.70517" lon="1.76394">
        <ele>173.39999389648</ele>
        <time>2011-04-09T14:39:29.000Z</time>
      </trkpt>
      <trkpt lat="48.70525" lon="1.76398">
        <ele>173.39999389648</ele>
        <time>2011-04-09T14:39:35.000Z</time>
      </trkpt>
      <trkpt lat="48.7053" lon="1.764">
        <ele>173.19999694824</ele>
        <time>2011-04-09T14:39:39.000Z</time>
      </trkpt>
      <trkpt lat="48.70541" lon="1.76404">
        <ele>173</ele>
        <time>2011-04-09T14:39:47.000Z</time>
      </trkpt>
      <trkpt lat="48.7055" lon="1.76406">
        <ele>172.80000305176</ele>
        <time>2011-04-09T14:39:54.000Z</time>
      </trkpt>
      <trkpt lat="48.70559" lon="1.7641">
        <ele>172.60000610352</ele>
        <time>2011-04-09T14:40:02.000Z</time>
      </trkpt>
      <trkpt lat="48.70565" lon="1.76413">
        <ele>172.39999389648</ele>
        <time>2011-04-09T14:40:07.000Z</time>
      </trkpt>
      <trkpt lat="48.70572" lon="1.76415">
        <ele>172.19999694824</ele>
        <time>2011-04-09T14:40:13.000Z</time>
      </trkpt>
      <trkpt lat="48.70581" lon="1.76418">
        <ele>172</ele>
        <time>2011-04-09T14:40:19.000Z</time>
      </trkpt>
      <trkpt lat="48.70584" lon="1.76419">
        <ele>171.80000305176</ele>
        <time>2011-04-09T14:40:21.000Z</time>
      </trkpt>
      <trkpt lat="48.70589" lon="1.76422">
        <ele>172</ele>
        <time>2011-04-09T14:40:26.000Z</time>
      </trkpt>
      <trkpt lat="48.70592" lon="1.76423">
        <ele>172</ele>
        <time>2011-04-09T14:40:28.000Z</time>
      </trkpt>
      <trkpt lat="48.70604" lon="1.76425">
        <ele>172</ele>
        <time>2011-04-09T14:40:36.000Z</time>
      </trkpt>
      <trkpt lat="48.70614" lon="1.76427">
        <ele>172.19999694824</ele>
        <time>2011-04-09T14:40:42.000Z</time>
      </trkpt>
      <trkpt lat="48.70624" lon="1.7643">
        <ele>172.19999694824</ele>
        <time>2011-04-09T14:40:49.000Z</time>
      </trkpt>
      <trkpt lat="48.70634" lon="1.76432">
        <ele>172.39999389648</ele>
        <time>2011-04-09T14:40:55.000Z</time>
      </trkpt>
      <trkpt lat="48.70635" lon="1.76432">
        <ele>172.39999389648</ele>
        <time>2011-04-09T14:40:56.000Z</time>
      </trkpt>
      <trkpt lat="48.70637" lon="1.76435">
        <ele>172.39999389648</ele>
        <time>2011-04-09T14:41:01.000Z</time>
      </trkpt>
      <trkpt lat="48.70637" lon="1.76436">
        <ele>172.39999389648</ele>
        <time>2011-04-09T14:41:03.000Z</time>
      </trkpt>
      <trkpt lat="48.70651" lon="1.76443">
        <ele>172.39999389648</ele>
        <time>2011-04-09T14:41:32.000Z</time>
      </trkpt>
      <trkpt lat="48.70653" lon="1.76445">
        <ele>172.39999389648</ele>
        <time>2011-04-09T14:41:33.000Z</time>
      </trkpt>
      <trkpt lat="48.70658" lon="1.76447">
        <ele>172.39999389648</ele>
        <time>2011-04-09T14:41:38.000Z</time>
      </trkpt>
      <trkpt lat="48.70663" lon="1.76449">
        <ele>172.39999389648</ele>
        <time>2011-04-09T14:41:43.000Z</time>
      </trkpt>
      <trkpt lat="48.70671" lon="1.76452">
        <ele>172.60000610352</ele>
        <time>2011-04-09T14:41:50.000Z</time>
      </trkpt>
      <trkpt lat="48.70677" lon="1.76454">
        <ele>172.60000610352</ele>
        <time>2011-04-09T14:41:55.000Z</time>
      </trkpt>
      <trkpt lat="48.70686" lon="1.76457">
        <ele>172.60000610352</ele>
        <time>2011-04-09T14:42:04.000Z</time>
      </trkpt>
      <trkpt lat="48.70691" lon="1.7646">
        <ele>172.60000610352</ele>
        <time>2011-04-09T14:42:10.000Z</time>
      </trkpt>
      <trkpt lat="48.70691" lon="1.7646">
        <ele>172.60000610352</ele>
        <time>2011-04-09T14:42:12.000Z</time>
      </trkpt>
      <trkpt lat="48.70708" lon="1.76465">
        <ele>172.80000305176</ele>
        <time>2011-04-09T14:42:32.000Z</time>
      </trkpt>
      <trkpt lat="48.70709" lon="1.76466">
        <ele>172.80000305176</ele>
        <time>2011-04-09T14:42:34.000Z</time>
      </trkpt>
      <trkpt lat="48.70752" lon="1.76474">
        <ele>173.19999694824</ele>
        <time>2011-04-09T14:44:20.000Z</time>
      </trkpt>
      <trkpt lat="48.70763" lon="1.76475">
        <ele>173</ele>
        <time>2011-04-09T14:44:27.000Z</time>
      </trkpt>
      <trkpt lat="48.70766" lon="1.76476">
        <ele>173</ele>
        <time>2011-04-09T14:44:31.000Z</time>
      </trkpt>
      <trkpt lat="48.70772" lon="1.76477">
        <ele>173</ele>
        <time>2011-04-09T14:44:37.000Z</time>
      </trkpt>
      <trkpt lat="48.70776" lon="1.76476">
        <ele>172.80000305176</ele>
        <time>2011-04-09T14:44:41.000Z</time>
      </trkpt>
      <trkpt lat="48.70782" lon="1.76476">
        <ele>172.80000305176</ele>
        <time>2011-04-09T14:44:46.000Z</time>
      </trkpt>
      <trkpt lat="48.70787" lon="1.76476">
        <ele>172.80000305176</ele>
        <time>2011-04-09T14:44:50.000Z</time>
      </trkpt>
      <trkpt lat="48.70791" lon="1.76477">
        <ele>172.60000610352</ele>
        <time>2011-04-09T14:44:54.000Z</time>
      </trkpt>
      <trkpt lat="48.70798" lon="1.76476">
        <ele>172.60000610352</ele>
        <time>2011-04-09T14:45:00.000Z</time>
      </trkpt>
      <trkpt lat="48.70801" lon="1.76477">
        <ele>172.60000610352</ele>
        <time>2011-04-09T14:45:04.000Z</time>
      </trkpt>
      <trkpt lat="48.7081" lon="1.76476">
        <ele>172.39999389648</ele>
        <time>2011-04-09T14:45:11.000Z</time>
      </trkpt>
      <trkpt lat="48.70812" lon="1.76476">
        <ele>172.39999389648</ele>
        <time>2011-04-09T14:45:15.000Z</time>
      </trkpt>
      <trkpt lat="48.70814" lon="1.76476">
        <ele>172.39999389648</ele>
        <time>2011-04-09T14:45:19.000Z</time>
      </trkpt>
      <trkpt lat="48.70824" lon="1.76474">
        <ele>172.39999389648</ele>
        <time>2011-04-09T14:45:29.000Z</time>
      </trkpt>
      <trkpt lat="48.70831" lon="1.76474">
        <ele>172.19999694824</ele>
        <time>2011-04-09T14:45:33.000Z</time>
      </trkpt>
      <trkpt lat="48.70839" lon="1.76475">
        <ele>172.19999694824</ele>
        <time>2011-04-09T14:45:40.000Z</time>
      </trkpt>
      <trkpt lat="48.70846" lon="1.76476">
        <ele>172</ele>
        <time>2011-04-09T14:45:46.000Z</time>
      </trkpt>
      <trkpt lat="48.70854" lon="1.76476">
        <ele>172</ele>
        <time>2011-04-09T14:45:53.000Z</time>
      </trkpt>
      <trkpt lat="48.70858" lon="1.76475">
        <ele>171.80000305176</ele>
        <time>2011-04-09T14:45:56.000Z</time>
      </trkpt>
      <trkpt lat="48.70863" lon="1.76475">
        <ele>171.80000305176</ele>
        <time>2011-04-09T14:46:02.000Z</time>
      </trkpt>
      <trkpt lat="48.70865" lon="1.76475">
        <ele>171.80000305176</ele>
        <time>2011-04-09T14:46:04.000Z</time>
      </trkpt>
      <trkpt lat="48.7087" lon="1.76475">
        <ele>171.80000305176</ele>
        <time>2011-04-09T14:46:10.000Z</time>
      </trkpt>
      <trkpt lat="48.70877" lon="1.76474">
        <ele>171.60000610352</ele>
        <time>2011-04-09T14:46:16.000Z</time>
      </trkpt>
      <trkpt lat="48.70885" lon="1.76474">
        <ele>171.60000610352</ele>
        <time>2011-04-09T14:46:22.000Z</time>
      </trkpt>
      <trkpt lat="48.70892" lon="1.76475">
        <ele>171.39999389648</ele>
        <time>2011-04-09T14:46:27.000Z</time>
      </trkpt>
      <trkpt lat="48.709" lon="1.76475">
        <ele>171.39999389648</ele>
        <time>2011-04-09T14:46:34.000Z</time>
      </trkpt>
      <trkpt lat="48.709" lon="1.76475">
        <ele>171.39999389648</ele>
        <time>2011-04-09T14:46:35.000Z</time>
      </trkpt>
      <trkpt lat="48.70906" lon="1.76477">
        <ele>171.39999389648</ele>
        <time>2011-04-09T14:46:40.000Z</time>
      </trkpt>
      <trkpt lat="48.70914" lon="1.76477">
        <ele>171.19999694824</ele>
        <time>2011-04-09T14:46:47.000Z</time>
      </trkpt>
      <trkpt lat="48.70926" lon="1.76477">
        <ele>171</ele>
        <time>2011-04-09T14:46:57.000Z</time>
      </trkpt>
      <trkpt lat="48.70935" lon="1.76477">
        <ele>170.80000305176</ele>
        <time>2011-04-09T14:47:05.000Z</time>
      </trkpt>
      <trkpt lat="48.70943" lon="1.76476">
        <ele>170.80000305176</ele>
        <time>2011-04-09T14:47:12.000Z</time>
      </trkpt>
      <trkpt lat="48.70953" lon="1.76476">
        <ele>170.60000610352</ele>
        <time>2011-04-09T14:47:20.000Z</time>
      </trkpt>
      <trkpt lat="48.70954" lon="1.76475">
        <ele>170.60000610352</ele>
        <time>2011-04-09T14:47:21.000Z</time>
      </trkpt>
      <trkpt lat="48.70959" lon="1.76476">
        <ele>170.60000610352</ele>
        <time>2011-04-09T14:47:27.000Z</time>
      </trkpt>
      <trkpt lat="48.70967" lon="1.76476">
        <ele>170.39999389648</ele>
        <time>2011-04-09T14:47:34.000Z</time>
      </trkpt>
      <trkpt lat="48.70973" lon="1.76475">
        <ele>170.39999389648</ele>
        <time>2011-04-09T14:47:40.000Z</time>
      </trkpt>
      <trkpt lat="48.70976" lon="1.76476">
        <ele>170.19999694824</ele>
        <time>2011-04-09T14:47:42.000Z</time>
      </trkpt>
      <trkpt lat="48.7098" lon="1.76475">
        <ele>170.19999694824</ele>
        <time>2011-04-09T14:47:47.000Z</time>
      </trkpt>
      <trkpt lat="48.70985" lon="1.76475">
        <ele>170.19999694824</ele>
        <time>2011-04-09T14:47:52.000Z</time>
      </trkpt>
      <trkpt lat="48.70987" lon="1.76474">
        <ele>170.19999694824</ele>
        <time>2011-04-09T14:47:54.000Z</time>
      </trkpt>
      <trkpt lat="48.70992" lon="1.76474">
        <ele>170</ele>
        <time>2011-04-09T14:48:00.000Z</time>
      </trkpt>
      <trkpt lat="48.70998" lon="1.76474">
        <ele>170</ele>
        <time>2011-04-09T14:48:05.000Z</time>
      </trkpt>
      <trkpt lat="48.71006" lon="1.76474">
        <ele>169.80000305176</ele>
        <time>2011-04-09T14:48:12.000Z</time>
      </trkpt>
      <trkpt lat="48.71016" lon="1.76474">
        <ele>169.39999389648</ele>
        <time>2011-04-09T14:48:20.000Z</time>
      </trkpt>
      <trkpt lat="48.71027" lon="1.76472">
        <ele>169.19999694824</ele>
        <time>2011-04-09T14:48:30.000Z</time>
      </trkpt>
      <trkpt lat="48.71033" lon="1.76471">
        <ele>169</ele>
        <time>2011-04-09T14:48:35.000Z</time>
      </trkpt>
      <trkpt lat="48.71042" lon="1.76469">
        <ele>168.80000305176</ele>
        <time>2011-04-09T14:48:42.000Z</time>
      </trkpt>
      <trkpt lat="48.71051" lon="1.76466">
        <ele>168.60000610352</ele>
        <time>2011-04-09T14:48:50.000Z</time>
      </trkpt>
      <trkpt lat="48.71061" lon="1.76462">
        <ele>168.39999389648</ele>
        <time>2011-04-09T14:48:59.000Z</time>
      </trkpt>
      <trkpt lat="48.71062" lon="1.76461">
        <ele>168.39999389648</ele>
        <time>2011-04-09T14:49:02.000Z</time>
      </trkpt>
      <trkpt lat="48.71078" lon="1.76457">
        <ele>168</ele>
        <time>2011-04-09T14:49:49.000Z</time>
      </trkpt>
      <trkpt lat="48.71087" lon="1.76453">
        <ele>168</ele>
        <time>2011-04-09T14:49:57.000Z</time>
      </trkpt>
      <trkpt lat="48.71095" lon="1.7645">
        <ele>168</ele>
        <time>2011-04-09T14:50:04.000Z</time>
      </trkpt>
      <trkpt lat="48.71107" lon="1.76445">
        <ele>168.19999694824</ele>
        <time>2011-04-09T14:50:15.000Z</time>
      </trkpt>
      <trkpt lat="48.71114" lon="1.76442">
        <ele>168.19999694824</ele>
        <time>2011-04-09T14:50:21.000Z</time>
      </trkpt>
      <trkpt lat="48.71127" lon="1.76437">
        <ele>168.19999694824</ele>
        <time>2011-04-09T14:50:32.000Z</time>
      </trkpt>
      <trkpt lat="48.71133" lon="1.76434">
        <ele>168.39999389648</ele>
        <time>2011-04-09T14:50:37.000Z</time>
      </trkpt>
      <trkpt lat="48.71135" lon="1.76433">
        <ele>168.39999389648</ele>
        <time>2011-04-09T14:50:41.000Z</time>
      </trkpt>
      <trkpt lat="48.71143" lon="1.76431">
        <ele>168.39999389648</ele>
        <time>2011-04-09T14:50:48.000Z</time>
      </trkpt>
      <trkpt lat="48.71154" lon="1.76428">
        <ele>168.60000610352</ele>
        <time>2011-04-09T14:50:57.000Z</time>
      </trkpt>
      <trkpt lat="48.71161" lon="1.76426">
        <ele>168.60000610352</ele>
        <time>2011-04-09T14:51:03.000Z</time>
      </trkpt>
      <trkpt lat="48.71167" lon="1.76425">
        <ele>168.60000610352</ele>
        <time>2011-04-09T14:51:09.000Z</time>
      </trkpt>
      <trkpt lat="48.71172" lon="1.76425">
        <ele>168.60000610352</ele>
        <time>2011-04-09T14:51:16.000Z</time>
      </trkpt>
      <trkpt lat="48.71178" lon="1.76425">
        <ele>168.39999389648</ele>
        <time>2011-04-09T14:51:22.000Z</time>
      </trkpt>
      <trkpt lat="48.71178" lon="1.76425">
        <ele>168.39999389648</ele>
        <time>2011-04-09T14:51:23.000Z</time>
      </trkpt>
    </trkseg>
  </trk>
</gpx>